<?xml version="1.0" encoding="UTF-8" standalone="no" ?>
<gpx xmlns="http://www.topografix.com/GPX/1/1" xmlns:xsi="http://www.w3.org/2001/XMLSchema-instance" xsi:schemaLocation="http://www.topografix.com/GPX/1/1 http://www.topografix.com/GPX/1/1/gpx.xsd" version="1.1" creator="VisuGPX - https://www.visugpx.com">
  <metadata>
    <name>col de cou</name>
    <desc><![CDATA[File with points/tracks from Locus Map/3.37.0]]></desc>
  </metadata>
  <trk>
    <name><![CDATA[2019-03-23 13:14:22]]></name>
    <trkseg>
      <trkpt lat="46.19308" lon="6.25022">
        <ele>463.68</ele>
        <time>2019-03-23T12:14:22.000Z</time>
      </trkpt>
      <trkpt lat="46.19296" lon="6.25011">
        <ele>464.89</ele>
        <time>2019-03-23T12:14:27.000Z</time>
      </trkpt>
      <trkpt lat="46.19285" lon="6.25008">
        <ele>472.99</ele>
        <time>2019-03-23T12:14:39.000Z</time>
      </trkpt>
      <trkpt lat="46.19273" lon="6.24996">
        <ele>477.72</ele>
        <time>2019-03-23T12:14:44.000Z</time>
      </trkpt>
      <trkpt lat="46.19281" lon="6.25003">
        <ele>494.4</ele>
        <time>2019-03-23T12:14:51.000Z</time>
      </trkpt>
      <trkpt lat="46.19287" lon="6.25013">
        <ele>497.4</ele>
        <time>2019-03-23T12:15:21.000Z</time>
      </trkpt>
      <trkpt lat="46.19287" lon="6.25029">
        <ele>496</ele>
        <time>2019-03-23T12:15:28.000Z</time>
      </trkpt>
      <trkpt lat="46.19284" lon="6.25051">
        <ele>496.05</ele>
        <time>2019-03-23T12:15:33.000Z</time>
      </trkpt>
      <trkpt lat="46.19281" lon="6.25076">
        <ele>498.92</ele>
        <time>2019-03-23T12:15:38.000Z</time>
      </trkpt>
      <trkpt lat="46.19279" lon="6.25089">
        <ele>497.06</ele>
        <time>2019-03-23T12:15:52.000Z</time>
      </trkpt>
      <trkpt lat="46.19281" lon="6.25103">
        <ele>499.69</ele>
        <time>2019-03-23T12:16:02.000Z</time>
      </trkpt>
      <trkpt lat="46.19289" lon="6.25111">
        <ele>502</ele>
        <time>2019-03-23T12:16:15.000Z</time>
      </trkpt>
      <trkpt lat="46.1931" lon="6.2511">
        <ele>502</ele>
        <time>2019-03-23T12:16:20.000Z</time>
      </trkpt>
      <trkpt lat="46.19337" lon="6.25106">
        <ele>502</ele>
        <time>2019-03-23T12:16:25.000Z</time>
      </trkpt>
      <trkpt lat="46.1937" lon="6.25103">
        <ele>500.77</ele>
        <time>2019-03-23T12:16:30.000Z</time>
      </trkpt>
      <trkpt lat="46.19404" lon="6.25101">
        <ele>500.06</ele>
        <time>2019-03-23T12:16:35.000Z</time>
      </trkpt>
      <trkpt lat="46.19435" lon="6.25119">
        <ele>499.02</ele>
        <time>2019-03-23T12:16:40.000Z</time>
      </trkpt>
      <trkpt lat="46.1946" lon="6.25126">
        <ele>498.94</ele>
        <time>2019-03-23T12:16:45.000Z</time>
      </trkpt>
      <trkpt lat="46.19492" lon="6.25131">
        <ele>498.77</ele>
        <time>2019-03-23T12:16:50.000Z</time>
      </trkpt>
      <trkpt lat="46.19524" lon="6.25139">
        <ele>498.25</ele>
        <time>2019-03-23T12:16:55.000Z</time>
      </trkpt>
      <trkpt lat="46.19556" lon="6.25149">
        <ele>498.98</ele>
        <time>2019-03-23T12:17:00.000Z</time>
      </trkpt>
      <trkpt lat="46.19585" lon="6.25167">
        <ele>498.02</ele>
        <time>2019-03-23T12:17:05.000Z</time>
      </trkpt>
      <trkpt lat="46.19619" lon="6.25188">
        <ele>497</ele>
        <time>2019-03-23T12:17:10.000Z</time>
      </trkpt>
      <trkpt lat="46.19655" lon="6.25209">
        <ele>498.73</ele>
        <time>2019-03-23T12:17:15.000Z</time>
      </trkpt>
      <trkpt lat="46.19688" lon="6.25218">
        <ele>500.23</ele>
        <time>2019-03-23T12:17:20.000Z</time>
      </trkpt>
      <trkpt lat="46.19722" lon="6.2522">
        <ele>501</ele>
        <time>2019-03-23T12:17:25.000Z</time>
      </trkpt>
      <trkpt lat="46.19754" lon="6.25222">
        <ele>500</ele>
        <time>2019-03-23T12:17:30.000Z</time>
      </trkpt>
      <trkpt lat="46.19785" lon="6.25225">
        <ele>500.05</ele>
        <time>2019-03-23T12:17:35.000Z</time>
      </trkpt>
      <trkpt lat="46.19816" lon="6.2522">
        <ele>500.05</ele>
        <time>2019-03-23T12:17:40.000Z</time>
      </trkpt>
      <trkpt lat="46.19847" lon="6.25213">
        <ele>499.25</ele>
        <time>2019-03-23T12:17:45.000Z</time>
      </trkpt>
      <trkpt lat="46.1988" lon="6.25205">
        <ele>500</ele>
        <time>2019-03-23T12:17:50.000Z</time>
      </trkpt>
      <trkpt lat="46.1991" lon="6.25194">
        <ele>499.99</ele>
        <time>2019-03-23T12:17:55.000Z</time>
      </trkpt>
      <trkpt lat="46.19941" lon="6.25179">
        <ele>501</ele>
        <time>2019-03-23T12:18:00.000Z</time>
      </trkpt>
      <trkpt lat="46.1997" lon="6.25163">
        <ele>501</ele>
        <time>2019-03-23T12:18:05.000Z</time>
      </trkpt>
      <trkpt lat="46.2" lon="6.25157">
        <ele>500</ele>
        <time>2019-03-23T12:18:10.000Z</time>
      </trkpt>
      <trkpt lat="46.2003" lon="6.2516">
        <ele>500.75</ele>
        <time>2019-03-23T12:18:15.000Z</time>
      </trkpt>
      <trkpt lat="46.2006" lon="6.25164">
        <ele>500</ele>
        <time>2019-03-23T12:18:20.000Z</time>
      </trkpt>
      <trkpt lat="46.20091" lon="6.25169">
        <ele>500</ele>
        <time>2019-03-23T12:18:25.000Z</time>
      </trkpt>
      <trkpt lat="46.20123" lon="6.25171">
        <ele>500.94</ele>
        <time>2019-03-23T12:18:30.000Z</time>
      </trkpt>
      <trkpt lat="46.20154" lon="6.25179">
        <ele>500</ele>
        <time>2019-03-23T12:18:35.000Z</time>
      </trkpt>
      <trkpt lat="46.20187" lon="6.25188">
        <ele>499</ele>
        <time>2019-03-23T12:18:40.000Z</time>
      </trkpt>
      <trkpt lat="46.20217" lon="6.25199">
        <ele>499.19</ele>
        <time>2019-03-23T12:18:45.000Z</time>
      </trkpt>
      <trkpt lat="46.20244" lon="6.25211">
        <ele>499</ele>
        <time>2019-03-23T12:18:50.000Z</time>
      </trkpt>
      <trkpt lat="46.20257" lon="6.25216">
        <ele>497.25</ele>
        <time>2019-03-23T12:18:55.000Z</time>
      </trkpt>
      <trkpt lat="46.20269" lon="6.25218">
        <ele>497</ele>
        <time>2019-03-23T12:19:12.000Z</time>
      </trkpt>
      <trkpt lat="46.20295" lon="6.25225">
        <ele>496</ele>
        <time>2019-03-23T12:19:17.000Z</time>
      </trkpt>
      <trkpt lat="46.20326" lon="6.25215">
        <ele>495.25</ele>
        <time>2019-03-23T12:19:22.000Z</time>
      </trkpt>
      <trkpt lat="46.20343" lon="6.25171">
        <ele>492.32</ele>
        <time>2019-03-23T12:19:27.000Z</time>
      </trkpt>
      <trkpt lat="46.20346" lon="6.25112">
        <ele>491.02</ele>
        <time>2019-03-23T12:19:32.000Z</time>
      </trkpt>
      <trkpt lat="46.20343" lon="6.25058">
        <ele>489.25</ele>
        <time>2019-03-23T12:19:37.000Z</time>
      </trkpt>
      <trkpt lat="46.20337" lon="6.25008">
        <ele>488.02</ele>
        <time>2019-03-23T12:19:42.000Z</time>
      </trkpt>
      <trkpt lat="46.20359" lon="6.24987">
        <ele>488.94</ele>
        <time>2019-03-23T12:19:47.000Z</time>
      </trkpt>
      <trkpt lat="46.2039" lon="6.24975">
        <ele>489.94</ele>
        <time>2019-03-23T12:19:52.000Z</time>
      </trkpt>
      <trkpt lat="46.2042" lon="6.24956">
        <ele>490.94</ele>
        <time>2019-03-23T12:19:57.000Z</time>
      </trkpt>
      <trkpt lat="46.2045" lon="6.24953">
        <ele>489.27</ele>
        <time>2019-03-23T12:20:02.000Z</time>
      </trkpt>
      <trkpt lat="46.20483" lon="6.24957">
        <ele>489.94</ele>
        <time>2019-03-23T12:20:07.000Z</time>
      </trkpt>
      <trkpt lat="46.2051" lon="6.24966">
        <ele>490.94</ele>
        <time>2019-03-23T12:20:12.000Z</time>
      </trkpt>
      <trkpt lat="46.20534" lon="6.2497">
        <ele>494.67</ele>
        <time>2019-03-23T12:20:17.000Z</time>
      </trkpt>
      <trkpt lat="46.20555" lon="6.24954">
        <ele>495.75</ele>
        <time>2019-03-23T12:20:22.000Z</time>
      </trkpt>
      <trkpt lat="46.20577" lon="6.24936">
        <ele>496</ele>
        <time>2019-03-23T12:20:27.000Z</time>
      </trkpt>
      <trkpt lat="46.20601" lon="6.24951">
        <ele>496</ele>
        <time>2019-03-23T12:20:32.000Z</time>
      </trkpt>
      <trkpt lat="46.20621" lon="6.24977">
        <ele>495.81</ele>
        <time>2019-03-23T12:20:37.000Z</time>
      </trkpt>
      <trkpt lat="46.20638" lon="6.25006">
        <ele>496</ele>
        <time>2019-03-23T12:20:42.000Z</time>
      </trkpt>
      <trkpt lat="46.20657" lon="6.2502">
        <ele>497.73</ele>
        <time>2019-03-23T12:20:47.000Z</time>
      </trkpt>
      <trkpt lat="46.20683" lon="6.25022">
        <ele>498</ele>
        <time>2019-03-23T12:20:52.000Z</time>
      </trkpt>
      <trkpt lat="46.20711" lon="6.25029">
        <ele>498</ele>
        <time>2019-03-23T12:20:57.000Z</time>
      </trkpt>
      <trkpt lat="46.20742" lon="6.25025">
        <ele>496.26</ele>
        <time>2019-03-23T12:21:02.000Z</time>
      </trkpt>
      <trkpt lat="46.20768" lon="6.25">
        <ele>495.02</ele>
        <time>2019-03-23T12:21:07.000Z</time>
      </trkpt>
      <trkpt lat="46.20788" lon="6.24966">
        <ele>495</ele>
        <time>2019-03-23T12:21:12.000Z</time>
      </trkpt>
      <trkpt lat="46.20809" lon="6.24936">
        <ele>495</ele>
        <time>2019-03-23T12:21:17.000Z</time>
      </trkpt>
      <trkpt lat="46.20828" lon="6.24905">
        <ele>496</ele>
        <time>2019-03-23T12:21:22.000Z</time>
      </trkpt>
      <trkpt lat="46.20847" lon="6.24876">
        <ele>495.95</ele>
        <time>2019-03-23T12:21:27.000Z</time>
      </trkpt>
      <trkpt lat="46.20866" lon="6.24848">
        <ele>496.75</ele>
        <time>2019-03-23T12:21:32.000Z</time>
      </trkpt>
      <trkpt lat="46.20882" lon="6.24823">
        <ele>497</ele>
        <time>2019-03-23T12:21:37.000Z</time>
      </trkpt>
      <trkpt lat="46.20895" lon="6.24817">
        <ele>497</ele>
        <time>2019-03-23T12:21:42.000Z</time>
      </trkpt>
      <trkpt lat="46.20911" lon="6.24836">
        <ele>497</ele>
        <time>2019-03-23T12:21:47.000Z</time>
      </trkpt>
      <trkpt lat="46.20928" lon="6.24863">
        <ele>496.99</ele>
        <time>2019-03-23T12:21:52.000Z</time>
      </trkpt>
      <trkpt lat="46.20946" lon="6.2489">
        <ele>497</ele>
        <time>2019-03-23T12:21:57.000Z</time>
      </trkpt>
      <trkpt lat="46.20967" lon="6.24916">
        <ele>497.05</ele>
        <time>2019-03-23T12:22:02.000Z</time>
      </trkpt>
      <trkpt lat="46.20989" lon="6.24942">
        <ele>498.94</ele>
        <time>2019-03-23T12:22:07.000Z</time>
      </trkpt>
      <trkpt lat="46.21011" lon="6.24968">
        <ele>499.75</ele>
        <time>2019-03-23T12:22:12.000Z</time>
      </trkpt>
      <trkpt lat="46.21035" lon="6.24988">
        <ele>500.75</ele>
        <time>2019-03-23T12:22:17.000Z</time>
      </trkpt>
      <trkpt lat="46.21058" lon="6.25007">
        <ele>500.22</ele>
        <time>2019-03-23T12:22:22.000Z</time>
      </trkpt>
      <trkpt lat="46.21084" lon="6.25023">
        <ele>500.23</ele>
        <time>2019-03-23T12:22:27.000Z</time>
      </trkpt>
      <trkpt lat="46.21108" lon="6.25041">
        <ele>502.98</ele>
        <time>2019-03-23T12:22:32.000Z</time>
      </trkpt>
      <trkpt lat="46.21131" lon="6.25061">
        <ele>504.73</ele>
        <time>2019-03-23T12:22:37.000Z</time>
      </trkpt>
      <trkpt lat="46.21154" lon="6.2508">
        <ele>505.94</ele>
        <time>2019-03-23T12:22:42.000Z</time>
      </trkpt>
      <trkpt lat="46.21177" lon="6.251">
        <ele>506.81</ele>
        <time>2019-03-23T12:22:47.000Z</time>
      </trkpt>
      <trkpt lat="46.21199" lon="6.25123">
        <ele>507.98</ele>
        <time>2019-03-23T12:22:52.000Z</time>
      </trkpt>
      <trkpt lat="46.21216" lon="6.25154">
        <ele>508.01</ele>
        <time>2019-03-23T12:22:57.000Z</time>
      </trkpt>
      <trkpt lat="46.21233" lon="6.25183">
        <ele>509.98</ele>
        <time>2019-03-23T12:23:02.000Z</time>
      </trkpt>
      <trkpt lat="46.21253" lon="6.25202">
        <ele>508.25</ele>
        <time>2019-03-23T12:23:07.000Z</time>
      </trkpt>
      <trkpt lat="46.21286" lon="6.25196">
        <ele>506.06</ele>
        <time>2019-03-23T12:23:12.000Z</time>
      </trkpt>
      <trkpt lat="46.21323" lon="6.25201">
        <ele>503.07</ele>
        <time>2019-03-23T12:23:17.000Z</time>
      </trkpt>
      <trkpt lat="46.21364" lon="6.2521">
        <ele>501</ele>
        <time>2019-03-23T12:23:22.000Z</time>
      </trkpt>
      <trkpt lat="46.21405" lon="6.25222">
        <ele>499.97</ele>
        <time>2019-03-23T12:23:27.000Z</time>
      </trkpt>
      <trkpt lat="46.21439" lon="6.25189">
        <ele>499.07</ele>
        <time>2019-03-23T12:23:32.000Z</time>
      </trkpt>
      <trkpt lat="46.21456" lon="6.25134">
        <ele>496.08</ele>
        <time>2019-03-23T12:23:37.000Z</time>
      </trkpt>
      <trkpt lat="46.21475" lon="6.25081">
        <ele>494.02</ele>
        <time>2019-03-23T12:23:42.000Z</time>
      </trkpt>
      <trkpt lat="46.21499" lon="6.25061">
        <ele>493.94</ele>
        <time>2019-03-23T12:23:47.000Z</time>
      </trkpt>
      <trkpt lat="46.21525" lon="6.25085">
        <ele>493.07</ele>
        <time>2019-03-23T12:23:52.000Z</time>
      </trkpt>
      <trkpt lat="46.21551" lon="6.25108">
        <ele>493.75</ele>
        <time>2019-03-23T12:23:57.000Z</time>
      </trkpt>
      <trkpt lat="46.21578" lon="6.25135">
        <ele>494.93</ele>
        <time>2019-03-23T12:24:02.000Z</time>
      </trkpt>
      <trkpt lat="46.21606" lon="6.25162">
        <ele>494.3</ele>
        <time>2019-03-23T12:24:07.000Z</time>
      </trkpt>
      <trkpt lat="46.21631" lon="6.25194">
        <ele>493.02</ele>
        <time>2019-03-23T12:24:12.000Z</time>
      </trkpt>
      <trkpt lat="46.21653" lon="6.25227">
        <ele>496.67</ele>
        <time>2019-03-23T12:24:17.000Z</time>
      </trkpt>
      <trkpt lat="46.21676" lon="6.25259">
        <ele>497</ele>
        <time>2019-03-23T12:24:22.000Z</time>
      </trkpt>
      <trkpt lat="46.21704" lon="6.25284">
        <ele>497.98</ele>
        <time>2019-03-23T12:24:27.000Z</time>
      </trkpt>
      <trkpt lat="46.21732" lon="6.25303">
        <ele>498.98</ele>
        <time>2019-03-23T12:24:32.000Z</time>
      </trkpt>
      <trkpt lat="46.21761" lon="6.25318">
        <ele>499</ele>
        <time>2019-03-23T12:24:37.000Z</time>
      </trkpt>
      <trkpt lat="46.21789" lon="6.25328">
        <ele>499.75</ele>
        <time>2019-03-23T12:24:42.000Z</time>
      </trkpt>
      <trkpt lat="46.21817" lon="6.25338">
        <ele>499.94</ele>
        <time>2019-03-23T12:24:47.000Z</time>
      </trkpt>
      <trkpt lat="46.21845" lon="6.2535">
        <ele>499.25</ele>
        <time>2019-03-23T12:24:52.000Z</time>
      </trkpt>
      <trkpt lat="46.21872" lon="6.25359">
        <ele>499.05</ele>
        <time>2019-03-23T12:24:57.000Z</time>
      </trkpt>
      <trkpt lat="46.21899" lon="6.25358">
        <ele>499.94</ele>
        <time>2019-03-23T12:25:02.000Z</time>
      </trkpt>
      <trkpt lat="46.21925" lon="6.25348">
        <ele>500</ele>
        <time>2019-03-23T12:25:07.000Z</time>
      </trkpt>
      <trkpt lat="46.21952" lon="6.25331">
        <ele>499</ele>
        <time>2019-03-23T12:25:12.000Z</time>
      </trkpt>
      <trkpt lat="46.21978" lon="6.2531">
        <ele>498.25</ele>
        <time>2019-03-23T12:25:17.000Z</time>
      </trkpt>
      <trkpt lat="46.22006" lon="6.25289">
        <ele>497</ele>
        <time>2019-03-23T12:25:22.000Z</time>
      </trkpt>
      <trkpt lat="46.22038" lon="6.25269">
        <ele>496.06</ele>
        <time>2019-03-23T12:25:27.000Z</time>
      </trkpt>
      <trkpt lat="46.2207" lon="6.25247">
        <ele>495.06</ele>
        <time>2019-03-23T12:25:32.000Z</time>
      </trkpt>
      <trkpt lat="46.22105" lon="6.25223">
        <ele>493.25</ele>
        <time>2019-03-23T12:25:37.000Z</time>
      </trkpt>
      <trkpt lat="46.22141" lon="6.25198">
        <ele>492.81</ele>
        <time>2019-03-23T12:25:42.000Z</time>
      </trkpt>
      <trkpt lat="46.22176" lon="6.25175">
        <ele>493</ele>
        <time>2019-03-23T12:25:47.000Z</time>
      </trkpt>
      <trkpt lat="46.2221" lon="6.25154">
        <ele>493</ele>
        <time>2019-03-23T12:25:52.000Z</time>
      </trkpt>
      <trkpt lat="46.22241" lon="6.25132">
        <ele>493</ele>
        <time>2019-03-23T12:25:57.000Z</time>
      </trkpt>
      <trkpt lat="46.22271" lon="6.25112">
        <ele>494</ele>
        <time>2019-03-23T12:26:02.000Z</time>
      </trkpt>
      <trkpt lat="46.22302" lon="6.25093">
        <ele>495.19</ele>
        <time>2019-03-23T12:26:07.000Z</time>
      </trkpt>
      <trkpt lat="46.22331" lon="6.25072">
        <ele>494.25</ele>
        <time>2019-03-23T12:26:12.000Z</time>
      </trkpt>
      <trkpt lat="46.22362" lon="6.25054">
        <ele>493.01</ele>
        <time>2019-03-23T12:26:17.000Z</time>
      </trkpt>
      <trkpt lat="46.22391" lon="6.25035">
        <ele>492.02</ele>
        <time>2019-03-23T12:26:22.000Z</time>
      </trkpt>
      <trkpt lat="46.22419" lon="6.25014">
        <ele>492.19</ele>
        <time>2019-03-23T12:26:27.000Z</time>
      </trkpt>
      <trkpt lat="46.22446" lon="6.24994">
        <ele>493</ele>
        <time>2019-03-23T12:26:32.000Z</time>
      </trkpt>
      <trkpt lat="46.22472" lon="6.24978">
        <ele>493.19</ele>
        <time>2019-03-23T12:26:37.000Z</time>
      </trkpt>
      <trkpt lat="46.22497" lon="6.24961">
        <ele>493.94</ele>
        <time>2019-03-23T12:26:42.000Z</time>
      </trkpt>
      <trkpt lat="46.22524" lon="6.24942">
        <ele>495.75</ele>
        <time>2019-03-23T12:26:47.000Z</time>
      </trkpt>
      <trkpt lat="46.2255" lon="6.24925">
        <ele>496</ele>
        <time>2019-03-23T12:26:52.000Z</time>
      </trkpt>
      <trkpt lat="46.22576" lon="6.24909">
        <ele>495</ele>
        <time>2019-03-23T12:26:57.000Z</time>
      </trkpt>
      <trkpt lat="46.22601" lon="6.24889">
        <ele>495</ele>
        <time>2019-03-23T12:27:02.000Z</time>
      </trkpt>
      <trkpt lat="46.22622" lon="6.24862">
        <ele>493.25</ele>
        <time>2019-03-23T12:27:07.000Z</time>
      </trkpt>
      <trkpt lat="46.22642" lon="6.24829">
        <ele>491.27</ele>
        <time>2019-03-23T12:27:12.000Z</time>
      </trkpt>
      <trkpt lat="46.22659" lon="6.2479">
        <ele>489.27</ele>
        <time>2019-03-23T12:27:17.000Z</time>
      </trkpt>
      <trkpt lat="46.22675" lon="6.24748">
        <ele>488.02</ele>
        <time>2019-03-23T12:27:22.000Z</time>
      </trkpt>
      <trkpt lat="46.22691" lon="6.24709">
        <ele>487</ele>
        <time>2019-03-23T12:27:27.000Z</time>
      </trkpt>
      <trkpt lat="46.22701" lon="6.2469">
        <ele>486</ele>
        <time>2019-03-23T12:27:32.000Z</time>
      </trkpt>
      <trkpt lat="46.22709" lon="6.24683">
        <ele>485.75</ele>
        <time>2019-03-23T12:27:37.000Z</time>
      </trkpt>
      <trkpt lat="46.22731" lon="6.24686">
        <ele>487</ele>
        <time>2019-03-23T12:27:42.000Z</time>
      </trkpt>
      <trkpt lat="46.22758" lon="6.24703">
        <ele>488</ele>
        <time>2019-03-23T12:27:47.000Z</time>
      </trkpt>
      <trkpt lat="46.22785" lon="6.2472">
        <ele>489</ele>
        <time>2019-03-23T12:27:52.000Z</time>
      </trkpt>
      <trkpt lat="46.22814" lon="6.24739">
        <ele>489</ele>
        <time>2019-03-23T12:27:57.000Z</time>
      </trkpt>
      <trkpt lat="46.22843" lon="6.24754">
        <ele>489.23</ele>
        <time>2019-03-23T12:28:02.000Z</time>
      </trkpt>
      <trkpt lat="46.22871" lon="6.24768">
        <ele>490</ele>
        <time>2019-03-23T12:28:07.000Z</time>
      </trkpt>
      <trkpt lat="46.22897" lon="6.24783">
        <ele>490</ele>
        <time>2019-03-23T12:28:12.000Z</time>
      </trkpt>
      <trkpt lat="46.22923" lon="6.24797">
        <ele>490</ele>
        <time>2019-03-23T12:28:17.000Z</time>
      </trkpt>
      <trkpt lat="46.22949" lon="6.24812">
        <ele>491</ele>
        <time>2019-03-23T12:28:22.000Z</time>
      </trkpt>
      <trkpt lat="46.22974" lon="6.2483">
        <ele>491.81</ele>
        <time>2019-03-23T12:28:27.000Z</time>
      </trkpt>
      <trkpt lat="46.22999" lon="6.24849">
        <ele>491.99</ele>
        <time>2019-03-23T12:28:32.000Z</time>
      </trkpt>
      <trkpt lat="46.23025" lon="6.24868">
        <ele>492</ele>
        <time>2019-03-23T12:28:37.000Z</time>
      </trkpt>
      <trkpt lat="46.23051" lon="6.24887">
        <ele>492</ele>
        <time>2019-03-23T12:28:42.000Z</time>
      </trkpt>
      <trkpt lat="46.23079" lon="6.2491">
        <ele>492</ele>
        <time>2019-03-23T12:28:47.000Z</time>
      </trkpt>
      <trkpt lat="46.23108" lon="6.24931">
        <ele>492</ele>
        <time>2019-03-23T12:28:52.000Z</time>
      </trkpt>
      <trkpt lat="46.23137" lon="6.24949">
        <ele>493</ele>
        <time>2019-03-23T12:28:57.000Z</time>
      </trkpt>
      <trkpt lat="46.23168" lon="6.24968">
        <ele>493</ele>
        <time>2019-03-23T12:29:02.000Z</time>
      </trkpt>
      <trkpt lat="46.23198" lon="6.24987">
        <ele>493</ele>
        <time>2019-03-23T12:29:07.000Z</time>
      </trkpt>
      <trkpt lat="46.23229" lon="6.25005">
        <ele>493</ele>
        <time>2019-03-23T12:29:12.000Z</time>
      </trkpt>
      <trkpt lat="46.23261" lon="6.25022">
        <ele>493</ele>
        <time>2019-03-23T12:29:17.000Z</time>
      </trkpt>
      <trkpt lat="46.23293" lon="6.25039">
        <ele>492.19</ele>
        <time>2019-03-23T12:29:22.000Z</time>
      </trkpt>
      <trkpt lat="46.23323" lon="6.25053">
        <ele>492</ele>
        <time>2019-03-23T12:29:27.000Z</time>
      </trkpt>
      <trkpt lat="46.23349" lon="6.25068">
        <ele>492</ele>
        <time>2019-03-23T12:29:32.000Z</time>
      </trkpt>
      <trkpt lat="46.23373" lon="6.25083">
        <ele>493</ele>
        <time>2019-03-23T12:29:37.000Z</time>
      </trkpt>
      <trkpt lat="46.23387" lon="6.25114">
        <ele>493.98</ele>
        <time>2019-03-23T12:29:42.000Z</time>
      </trkpt>
      <trkpt lat="46.23397" lon="6.25149">
        <ele>493</ele>
        <time>2019-03-23T12:29:47.000Z</time>
      </trkpt>
      <trkpt lat="46.23406" lon="6.25185">
        <ele>493</ele>
        <time>2019-03-23T12:29:52.000Z</time>
      </trkpt>
      <trkpt lat="46.23414" lon="6.2522">
        <ele>494</ele>
        <time>2019-03-23T12:29:57.000Z</time>
      </trkpt>
      <trkpt lat="46.23421" lon="6.25258">
        <ele>495</ele>
        <time>2019-03-23T12:30:02.000Z</time>
      </trkpt>
      <trkpt lat="46.23427" lon="6.25295">
        <ele>494.25</ele>
        <time>2019-03-23T12:30:07.000Z</time>
      </trkpt>
      <trkpt lat="46.23432" lon="6.25333">
        <ele>495</ele>
        <time>2019-03-23T12:30:12.000Z</time>
      </trkpt>
      <trkpt lat="46.23437" lon="6.2537">
        <ele>495.94</ele>
        <time>2019-03-23T12:30:17.000Z</time>
      </trkpt>
      <trkpt lat="46.23441" lon="6.25405">
        <ele>496.94</ele>
        <time>2019-03-23T12:30:22.000Z</time>
      </trkpt>
      <trkpt lat="46.23446" lon="6.25439">
        <ele>497.23</ele>
        <time>2019-03-23T12:30:27.000Z</time>
      </trkpt>
      <trkpt lat="46.23449" lon="6.25471">
        <ele>498.98</ele>
        <time>2019-03-23T12:30:32.000Z</time>
      </trkpt>
      <trkpt lat="46.23453" lon="6.25506">
        <ele>499.94</ele>
        <time>2019-03-23T12:30:37.000Z</time>
      </trkpt>
      <trkpt lat="46.23459" lon="6.25541">
        <ele>500.25</ele>
        <time>2019-03-23T12:30:42.000Z</time>
      </trkpt>
      <trkpt lat="46.2347" lon="6.25573">
        <ele>501</ele>
        <time>2019-03-23T12:30:47.000Z</time>
      </trkpt>
      <trkpt lat="46.23479" lon="6.25605">
        <ele>501</ele>
        <time>2019-03-23T12:30:52.000Z</time>
      </trkpt>
      <trkpt lat="46.2349" lon="6.25634">
        <ele>502</ele>
        <time>2019-03-23T12:30:57.000Z</time>
      </trkpt>
      <trkpt lat="46.23499" lon="6.25661">
        <ele>503.93</ele>
        <time>2019-03-23T12:31:02.000Z</time>
      </trkpt>
      <trkpt lat="46.23505" lon="6.25688">
        <ele>505</ele>
        <time>2019-03-23T12:31:07.000Z</time>
      </trkpt>
      <trkpt lat="46.23503" lon="6.25717">
        <ele>505.94</ele>
        <time>2019-03-23T12:31:12.000Z</time>
      </trkpt>
      <trkpt lat="46.23498" lon="6.25748">
        <ele>506</ele>
        <time>2019-03-23T12:31:17.000Z</time>
      </trkpt>
      <trkpt lat="46.23498" lon="6.25777">
        <ele>507</ele>
        <time>2019-03-23T12:31:22.000Z</time>
      </trkpt>
      <trkpt lat="46.23503" lon="6.25809">
        <ele>508</ele>
        <time>2019-03-23T12:31:27.000Z</time>
      </trkpt>
      <trkpt lat="46.23513" lon="6.25842">
        <ele>508</ele>
        <time>2019-03-23T12:31:32.000Z</time>
      </trkpt>
      <trkpt lat="46.23524" lon="6.25877">
        <ele>508</ele>
        <time>2019-03-23T12:31:37.000Z</time>
      </trkpt>
      <trkpt lat="46.23533" lon="6.25918">
        <ele>508</ele>
        <time>2019-03-23T12:31:42.000Z</time>
      </trkpt>
      <trkpt lat="46.23537" lon="6.2596">
        <ele>508</ele>
        <time>2019-03-23T12:31:47.000Z</time>
      </trkpt>
      <trkpt lat="46.23545" lon="6.26003">
        <ele>508</ele>
        <time>2019-03-23T12:31:52.000Z</time>
      </trkpt>
      <trkpt lat="46.23536" lon="6.26048">
        <ele>508.81</ele>
        <time>2019-03-23T12:31:57.000Z</time>
      </trkpt>
      <trkpt lat="46.23523" lon="6.26088">
        <ele>509.98</ele>
        <time>2019-03-23T12:32:02.000Z</time>
      </trkpt>
      <trkpt lat="46.23513" lon="6.26125">
        <ele>511</ele>
        <time>2019-03-23T12:32:07.000Z</time>
      </trkpt>
      <trkpt lat="46.23507" lon="6.26159">
        <ele>512.75</ele>
        <time>2019-03-23T12:32:12.000Z</time>
      </trkpt>
      <trkpt lat="46.23503" lon="6.26194">
        <ele>512.94</ele>
        <time>2019-03-23T12:32:17.000Z</time>
      </trkpt>
      <trkpt lat="46.23502" lon="6.26229">
        <ele>513.19</ele>
        <time>2019-03-23T12:32:22.000Z</time>
      </trkpt>
      <trkpt lat="46.23506" lon="6.26265">
        <ele>514</ele>
        <time>2019-03-23T12:32:27.000Z</time>
      </trkpt>
      <trkpt lat="46.23509" lon="6.26304">
        <ele>514.75</ele>
        <time>2019-03-23T12:32:32.000Z</time>
      </trkpt>
      <trkpt lat="46.23507" lon="6.26345">
        <ele>515.75</ele>
        <time>2019-03-23T12:32:37.000Z</time>
      </trkpt>
      <trkpt lat="46.23502" lon="6.26384">
        <ele>516</ele>
        <time>2019-03-23T12:32:42.000Z</time>
      </trkpt>
      <trkpt lat="46.23495" lon="6.26423">
        <ele>516</ele>
        <time>2019-03-23T12:32:47.000Z</time>
      </trkpt>
      <trkpt lat="46.23487" lon="6.26462">
        <ele>516.99</ele>
        <time>2019-03-23T12:32:52.000Z</time>
      </trkpt>
      <trkpt lat="46.23481" lon="6.26499">
        <ele>518.73</ele>
        <time>2019-03-23T12:32:57.000Z</time>
      </trkpt>
      <trkpt lat="46.23475" lon="6.26531">
        <ele>519</ele>
        <time>2019-03-23T12:33:02.000Z</time>
      </trkpt>
      <trkpt lat="46.23493" lon="6.26551">
        <ele>519</ele>
        <time>2019-03-23T12:33:07.000Z</time>
      </trkpt>
      <trkpt lat="46.23513" lon="6.26573">
        <ele>519.98</ele>
        <time>2019-03-23T12:33:12.000Z</time>
      </trkpt>
      <trkpt lat="46.23524" lon="6.26599">
        <ele>519.95</ele>
        <time>2019-03-23T12:33:17.000Z</time>
      </trkpt>
      <trkpt lat="46.23534" lon="6.26626">
        <ele>521.75</ele>
        <time>2019-03-23T12:33:22.000Z</time>
      </trkpt>
      <trkpt lat="46.23545" lon="6.26663">
        <ele>522</ele>
        <time>2019-03-23T12:33:27.000Z</time>
      </trkpt>
      <trkpt lat="46.2356" lon="6.26698">
        <ele>520.25</ele>
        <time>2019-03-23T12:33:32.000Z</time>
      </trkpt>
      <trkpt lat="46.2358" lon="6.26727">
        <ele>520.01</ele>
        <time>2019-03-23T12:33:37.000Z</time>
      </trkpt>
      <trkpt lat="46.236" lon="6.26757">
        <ele>520</ele>
        <time>2019-03-23T12:33:42.000Z</time>
      </trkpt>
      <trkpt lat="46.23618" lon="6.26791">
        <ele>520.98</ele>
        <time>2019-03-23T12:33:47.000Z</time>
      </trkpt>
      <trkpt lat="46.23636" lon="6.26826">
        <ele>523</ele>
        <time>2019-03-23T12:33:52.000Z</time>
      </trkpt>
      <trkpt lat="46.2365" lon="6.26864">
        <ele>523</ele>
        <time>2019-03-23T12:33:57.000Z</time>
      </trkpt>
      <trkpt lat="46.23664" lon="6.26897">
        <ele>522.25</ele>
        <time>2019-03-23T12:34:02.000Z</time>
      </trkpt>
      <trkpt lat="46.23677" lon="6.26933">
        <ele>523</ele>
        <time>2019-03-23T12:34:07.000Z</time>
      </trkpt>
      <trkpt lat="46.23694" lon="6.26966">
        <ele>522.25</ele>
        <time>2019-03-23T12:34:12.000Z</time>
      </trkpt>
      <trkpt lat="46.2371" lon="6.26998">
        <ele>522.99</ele>
        <time>2019-03-23T12:34:17.000Z</time>
      </trkpt>
      <trkpt lat="46.23726" lon="6.27029">
        <ele>523.75</ele>
        <time>2019-03-23T12:34:22.000Z</time>
      </trkpt>
      <trkpt lat="46.23739" lon="6.27059">
        <ele>524</ele>
        <time>2019-03-23T12:34:27.000Z</time>
      </trkpt>
      <trkpt lat="46.23738" lon="6.27087">
        <ele>524.75</ele>
        <time>2019-03-23T12:34:32.000Z</time>
      </trkpt>
      <trkpt lat="46.23715" lon="6.27105">
        <ele>525</ele>
        <time>2019-03-23T12:34:37.000Z</time>
      </trkpt>
      <trkpt lat="46.2369" lon="6.27124">
        <ele>524.94</ele>
        <time>2019-03-23T12:34:42.000Z</time>
      </trkpt>
      <trkpt lat="46.23664" lon="6.27147">
        <ele>524.06</ele>
        <time>2019-03-23T12:34:47.000Z</time>
      </trkpt>
      <trkpt lat="46.23655" lon="6.27188">
        <ele>524</ele>
        <time>2019-03-23T12:34:52.000Z</time>
      </trkpt>
      <trkpt lat="46.23662" lon="6.27233">
        <ele>524</ele>
        <time>2019-03-23T12:34:57.000Z</time>
      </trkpt>
      <trkpt lat="46.23673" lon="6.27274">
        <ele>523.75</ele>
        <time>2019-03-23T12:35:02.000Z</time>
      </trkpt>
      <trkpt lat="46.23689" lon="6.2731">
        <ele>524.75</ele>
        <time>2019-03-23T12:35:07.000Z</time>
      </trkpt>
      <trkpt lat="46.2371" lon="6.27333">
        <ele>525</ele>
        <time>2019-03-23T12:35:12.000Z</time>
      </trkpt>
      <trkpt lat="46.23733" lon="6.27349">
        <ele>526.75</ele>
        <time>2019-03-23T12:35:17.000Z</time>
      </trkpt>
      <trkpt lat="46.23756" lon="6.27365">
        <ele>527.94</ele>
        <time>2019-03-23T12:35:22.000Z</time>
      </trkpt>
      <trkpt lat="46.23774" lon="6.27389">
        <ele>529</ele>
        <time>2019-03-23T12:35:27.000Z</time>
      </trkpt>
      <trkpt lat="46.2378" lon="6.27425">
        <ele>529</ele>
        <time>2019-03-23T12:35:32.000Z</time>
      </trkpt>
      <trkpt lat="46.23783" lon="6.27464">
        <ele>529.01</ele>
        <time>2019-03-23T12:35:37.000Z</time>
      </trkpt>
      <trkpt lat="46.23784" lon="6.27506">
        <ele>529.98</ele>
        <time>2019-03-23T12:35:42.000Z</time>
      </trkpt>
      <trkpt lat="46.23778" lon="6.27547">
        <ele>529.24</ele>
        <time>2019-03-23T12:35:47.000Z</time>
      </trkpt>
      <trkpt lat="46.23773" lon="6.27586">
        <ele>529.98</ele>
        <time>2019-03-23T12:35:52.000Z</time>
      </trkpt>
      <trkpt lat="46.2377" lon="6.27626">
        <ele>531</ele>
        <time>2019-03-23T12:35:57.000Z</time>
      </trkpt>
      <trkpt lat="46.23771" lon="6.27668">
        <ele>531</ele>
        <time>2019-03-23T12:36:02.000Z</time>
      </trkpt>
      <trkpt lat="46.23776" lon="6.27709">
        <ele>531</ele>
        <time>2019-03-23T12:36:07.000Z</time>
      </trkpt>
      <trkpt lat="46.23782" lon="6.27754">
        <ele>531</ele>
        <time>2019-03-23T12:36:12.000Z</time>
      </trkpt>
      <trkpt lat="46.23788" lon="6.278">
        <ele>532</ele>
        <time>2019-03-23T12:36:17.000Z</time>
      </trkpt>
      <trkpt lat="46.23796" lon="6.27845">
        <ele>532</ele>
        <time>2019-03-23T12:36:22.000Z</time>
      </trkpt>
      <trkpt lat="46.2381" lon="6.27886">
        <ele>532</ele>
        <time>2019-03-23T12:36:27.000Z</time>
      </trkpt>
      <trkpt lat="46.23826" lon="6.27924">
        <ele>532.99</ele>
        <time>2019-03-23T12:36:32.000Z</time>
      </trkpt>
      <trkpt lat="46.23841" lon="6.27965">
        <ele>533.05</ele>
        <time>2019-03-23T12:36:37.000Z</time>
      </trkpt>
      <trkpt lat="46.23854" lon="6.28006">
        <ele>534</ele>
        <time>2019-03-23T12:36:42.000Z</time>
      </trkpt>
      <trkpt lat="46.23865" lon="6.28047">
        <ele>534</ele>
        <time>2019-03-23T12:36:47.000Z</time>
      </trkpt>
      <trkpt lat="46.23877" lon="6.2809">
        <ele>534</ele>
        <time>2019-03-23T12:36:52.000Z</time>
      </trkpt>
      <trkpt lat="46.23889" lon="6.28133">
        <ele>534.05</ele>
        <time>2019-03-23T12:36:57.000Z</time>
      </trkpt>
      <trkpt lat="46.23901" lon="6.28175">
        <ele>534.75</ele>
        <time>2019-03-23T12:37:02.000Z</time>
      </trkpt>
      <trkpt lat="46.23913" lon="6.28218">
        <ele>535</ele>
        <time>2019-03-23T12:37:07.000Z</time>
      </trkpt>
      <trkpt lat="46.23924" lon="6.28258">
        <ele>535</ele>
        <time>2019-03-23T12:37:12.000Z</time>
      </trkpt>
      <trkpt lat="46.23935" lon="6.283">
        <ele>535.98</ele>
        <time>2019-03-23T12:37:17.000Z</time>
      </trkpt>
      <trkpt lat="46.23947" lon="6.28342">
        <ele>536</ele>
        <time>2019-03-23T12:37:22.000Z</time>
      </trkpt>
      <trkpt lat="46.2396" lon="6.28384">
        <ele>536</ele>
        <time>2019-03-23T12:37:27.000Z</time>
      </trkpt>
      <trkpt lat="46.23972" lon="6.28428">
        <ele>536</ele>
        <time>2019-03-23T12:37:32.000Z</time>
      </trkpt>
      <trkpt lat="46.23977" lon="6.28474">
        <ele>536.25</ele>
        <time>2019-03-23T12:37:37.000Z</time>
      </trkpt>
      <trkpt lat="46.23979" lon="6.2852">
        <ele>536.99</ele>
        <time>2019-03-23T12:37:42.000Z</time>
      </trkpt>
      <trkpt lat="46.2398" lon="6.28568">
        <ele>537.98</ele>
        <time>2019-03-23T12:37:47.000Z</time>
      </trkpt>
      <trkpt lat="46.2398" lon="6.28614">
        <ele>539</ele>
        <time>2019-03-23T12:37:52.000Z</time>
      </trkpt>
      <trkpt lat="46.23982" lon="6.2866">
        <ele>539</ele>
        <time>2019-03-23T12:37:57.000Z</time>
      </trkpt>
      <trkpt lat="46.23979" lon="6.28707">
        <ele>539</ele>
        <time>2019-03-23T12:38:02.000Z</time>
      </trkpt>
      <trkpt lat="46.23974" lon="6.28752">
        <ele>540</ele>
        <time>2019-03-23T12:38:07.000Z</time>
      </trkpt>
      <trkpt lat="46.23968" lon="6.28796">
        <ele>541</ele>
        <time>2019-03-23T12:38:12.000Z</time>
      </trkpt>
      <trkpt lat="46.23962" lon="6.28841">
        <ele>541</ele>
        <time>2019-03-23T12:38:17.000Z</time>
      </trkpt>
      <trkpt lat="46.23953" lon="6.28886">
        <ele>539.07</ele>
        <time>2019-03-23T12:38:22.000Z</time>
      </trkpt>
      <trkpt lat="46.23949" lon="6.28931">
        <ele>538.94</ele>
        <time>2019-03-23T12:38:27.000Z</time>
      </trkpt>
      <trkpt lat="46.2395" lon="6.28976">
        <ele>539.81</ele>
        <time>2019-03-23T12:38:32.000Z</time>
      </trkpt>
      <trkpt lat="46.23959" lon="6.29013">
        <ele>540.98</ele>
        <time>2019-03-23T12:38:37.000Z</time>
      </trkpt>
      <trkpt lat="46.23976" lon="6.29049">
        <ele>541</ele>
        <time>2019-03-23T12:38:42.000Z</time>
      </trkpt>
      <trkpt lat="46.23994" lon="6.29088">
        <ele>539.07</ele>
        <time>2019-03-23T12:38:47.000Z</time>
      </trkpt>
      <trkpt lat="46.24012" lon="6.29131">
        <ele>539.05</ele>
        <time>2019-03-23T12:38:52.000Z</time>
      </trkpt>
      <trkpt lat="46.24024" lon="6.29176">
        <ele>539</ele>
        <time>2019-03-23T12:38:57.000Z</time>
      </trkpt>
      <trkpt lat="46.24034" lon="6.29221">
        <ele>539</ele>
        <time>2019-03-23T12:39:02.000Z</time>
      </trkpt>
      <trkpt lat="46.24045" lon="6.29267">
        <ele>540</ele>
        <time>2019-03-23T12:39:07.000Z</time>
      </trkpt>
      <trkpt lat="46.24056" lon="6.29315">
        <ele>539.99</ele>
        <time>2019-03-23T12:39:12.000Z</time>
      </trkpt>
      <trkpt lat="46.24064" lon="6.29363">
        <ele>540</ele>
        <time>2019-03-23T12:39:17.000Z</time>
      </trkpt>
      <trkpt lat="46.24071" lon="6.29411">
        <ele>540.23</ele>
        <time>2019-03-23T12:39:22.000Z</time>
      </trkpt>
      <trkpt lat="46.24078" lon="6.29462">
        <ele>541</ele>
        <time>2019-03-23T12:39:27.000Z</time>
      </trkpt>
      <trkpt lat="46.24089" lon="6.2951">
        <ele>541.75</ele>
        <time>2019-03-23T12:39:32.000Z</time>
      </trkpt>
      <trkpt lat="46.24105" lon="6.29548">
        <ele>542.98</ele>
        <time>2019-03-23T12:39:37.000Z</time>
      </trkpt>
      <trkpt lat="46.24122" lon="6.29577">
        <ele>542.2</ele>
        <time>2019-03-23T12:39:42.000Z</time>
      </trkpt>
      <trkpt lat="46.24138" lon="6.29605">
        <ele>542</ele>
        <time>2019-03-23T12:39:47.000Z</time>
      </trkpt>
      <trkpt lat="46.24148" lon="6.29623">
        <ele>541</ele>
        <time>2019-03-23T12:39:52.000Z</time>
      </trkpt>
      <trkpt lat="46.24156" lon="6.29633">
        <ele>544.06</ele>
        <time>2019-03-23T12:40:21.000Z</time>
      </trkpt>
      <trkpt lat="46.24165" lon="6.29652">
        <ele>542.27</ele>
        <time>2019-03-23T12:40:26.000Z</time>
      </trkpt>
      <trkpt lat="46.24181" lon="6.29677">
        <ele>541.02</ele>
        <time>2019-03-23T12:40:31.000Z</time>
      </trkpt>
      <trkpt lat="46.24203" lon="6.29701">
        <ele>541</ele>
        <time>2019-03-23T12:40:36.000Z</time>
      </trkpt>
      <trkpt lat="46.24223" lon="6.29732">
        <ele>542.98</ele>
        <time>2019-03-23T12:40:41.000Z</time>
      </trkpt>
      <trkpt lat="46.24238" lon="6.29768">
        <ele>543</ele>
        <time>2019-03-23T12:40:46.000Z</time>
      </trkpt>
      <trkpt lat="46.24243" lon="6.2981">
        <ele>543</ele>
        <time>2019-03-23T12:40:51.000Z</time>
      </trkpt>
      <trkpt lat="46.24244" lon="6.29853">
        <ele>543</ele>
        <time>2019-03-23T12:40:56.000Z</time>
      </trkpt>
      <trkpt lat="46.24246" lon="6.29895">
        <ele>543</ele>
        <time>2019-03-23T12:41:01.000Z</time>
      </trkpt>
      <trkpt lat="46.24247" lon="6.29933">
        <ele>544</ele>
        <time>2019-03-23T12:41:06.000Z</time>
      </trkpt>
      <trkpt lat="46.2425" lon="6.29971">
        <ele>545</ele>
        <time>2019-03-23T12:41:11.000Z</time>
      </trkpt>
      <trkpt lat="46.2425" lon="6.30009">
        <ele>545.98</ele>
        <time>2019-03-23T12:41:16.000Z</time>
      </trkpt>
      <trkpt lat="46.24252" lon="6.30046">
        <ele>547.93</ele>
        <time>2019-03-23T12:41:21.000Z</time>
      </trkpt>
      <trkpt lat="46.24253" lon="6.30083">
        <ele>548</ele>
        <time>2019-03-23T12:41:26.000Z</time>
      </trkpt>
      <trkpt lat="46.24252" lon="6.30116">
        <ele>549.75</ele>
        <time>2019-03-23T12:41:31.000Z</time>
      </trkpt>
      <trkpt lat="46.24251" lon="6.30151">
        <ele>550</ele>
        <time>2019-03-23T12:41:36.000Z</time>
      </trkpt>
      <trkpt lat="46.24249" lon="6.30184">
        <ele>551</ele>
        <time>2019-03-23T12:41:41.000Z</time>
      </trkpt>
      <trkpt lat="46.24247" lon="6.30218">
        <ele>552</ele>
        <time>2019-03-23T12:41:46.000Z</time>
      </trkpt>
      <trkpt lat="46.24245" lon="6.30252">
        <ele>552.98</ele>
        <time>2019-03-23T12:41:51.000Z</time>
      </trkpt>
      <trkpt lat="46.24242" lon="6.30286">
        <ele>553.75</ele>
        <time>2019-03-23T12:41:56.000Z</time>
      </trkpt>
      <trkpt lat="46.2424" lon="6.30319">
        <ele>554.94</ele>
        <time>2019-03-23T12:42:01.000Z</time>
      </trkpt>
      <trkpt lat="46.24238" lon="6.30351">
        <ele>555.94</ele>
        <time>2019-03-23T12:42:06.000Z</time>
      </trkpt>
      <trkpt lat="46.24235" lon="6.30385">
        <ele>557</ele>
        <time>2019-03-23T12:42:11.000Z</time>
      </trkpt>
      <trkpt lat="46.24233" lon="6.30418">
        <ele>557.75</ele>
        <time>2019-03-23T12:42:16.000Z</time>
      </trkpt>
      <trkpt lat="46.24229" lon="6.30451">
        <ele>558</ele>
        <time>2019-03-23T12:42:21.000Z</time>
      </trkpt>
      <trkpt lat="46.24227" lon="6.30483">
        <ele>559</ele>
        <time>2019-03-23T12:42:26.000Z</time>
      </trkpt>
      <trkpt lat="46.24223" lon="6.30517">
        <ele>560</ele>
        <time>2019-03-23T12:42:31.000Z</time>
      </trkpt>
      <trkpt lat="46.24218" lon="6.3055">
        <ele>560</ele>
        <time>2019-03-23T12:42:36.000Z</time>
      </trkpt>
      <trkpt lat="46.24211" lon="6.30582">
        <ele>560</ele>
        <time>2019-03-23T12:42:41.000Z</time>
      </trkpt>
      <trkpt lat="46.24204" lon="6.30616">
        <ele>560.75</ele>
        <time>2019-03-23T12:42:46.000Z</time>
      </trkpt>
      <trkpt lat="46.24195" lon="6.30647">
        <ele>560.02</ele>
        <time>2019-03-23T12:42:51.000Z</time>
      </trkpt>
      <trkpt lat="46.24184" lon="6.30679">
        <ele>561</ele>
        <time>2019-03-23T12:42:56.000Z</time>
      </trkpt>
      <trkpt lat="46.24172" lon="6.30708">
        <ele>561.75</ele>
        <time>2019-03-23T12:43:01.000Z</time>
      </trkpt>
      <trkpt lat="46.24161" lon="6.30738">
        <ele>562</ele>
        <time>2019-03-23T12:43:06.000Z</time>
      </trkpt>
      <trkpt lat="46.24149" lon="6.30766">
        <ele>562.94</ele>
        <time>2019-03-23T12:43:11.000Z</time>
      </trkpt>
      <trkpt lat="46.24138" lon="6.30795">
        <ele>564</ele>
        <time>2019-03-23T12:43:16.000Z</time>
      </trkpt>
      <trkpt lat="46.24141" lon="6.30825">
        <ele>565</ele>
        <time>2019-03-23T12:43:21.000Z</time>
      </trkpt>
      <trkpt lat="46.2416" lon="6.30844">
        <ele>565</ele>
        <time>2019-03-23T12:43:26.000Z</time>
      </trkpt>
      <trkpt lat="46.24174" lon="6.30859">
        <ele>565.75</ele>
        <time>2019-03-23T12:43:31.000Z</time>
      </trkpt>
      <trkpt lat="46.24185" lon="6.30875">
        <ele>565.2</ele>
        <time>2019-03-23T12:43:36.000Z</time>
      </trkpt>
      <trkpt lat="46.24207" lon="6.30892">
        <ele>565</ele>
        <time>2019-03-23T12:43:41.000Z</time>
      </trkpt>
      <trkpt lat="46.24232" lon="6.30914">
        <ele>565</ele>
        <time>2019-03-23T12:43:46.000Z</time>
      </trkpt>
      <trkpt lat="46.24258" lon="6.30938">
        <ele>564.05</ele>
        <time>2019-03-23T12:43:51.000Z</time>
      </trkpt>
      <trkpt lat="46.24283" lon="6.30958">
        <ele>563.06</ele>
        <time>2019-03-23T12:43:56.000Z</time>
      </trkpt>
      <trkpt lat="46.24312" lon="6.30977">
        <ele>562.81</ele>
        <time>2019-03-23T12:44:01.000Z</time>
      </trkpt>
      <trkpt lat="46.24345" lon="6.30997">
        <ele>561.25</ele>
        <time>2019-03-23T12:44:06.000Z</time>
      </trkpt>
      <trkpt lat="46.24377" lon="6.31026">
        <ele>561</ele>
        <time>2019-03-23T12:44:11.000Z</time>
      </trkpt>
      <trkpt lat="46.24401" lon="6.31064">
        <ele>560.75</ele>
        <time>2019-03-23T12:44:16.000Z</time>
      </trkpt>
      <trkpt lat="46.24422" lon="6.31097">
        <ele>560.99</ele>
        <time>2019-03-23T12:44:21.000Z</time>
      </trkpt>
      <trkpt lat="46.24442" lon="6.31128">
        <ele>562</ele>
        <time>2019-03-23T12:44:26.000Z</time>
      </trkpt>
      <trkpt lat="46.24457" lon="6.31158">
        <ele>563</ele>
        <time>2019-03-23T12:44:31.000Z</time>
      </trkpt>
      <trkpt lat="46.24475" lon="6.31186">
        <ele>563.94</ele>
        <time>2019-03-23T12:44:36.000Z</time>
      </trkpt>
      <trkpt lat="46.24492" lon="6.31214">
        <ele>564.75</ele>
        <time>2019-03-23T12:44:41.000Z</time>
      </trkpt>
      <trkpt lat="46.2451" lon="6.31241">
        <ele>565</ele>
        <time>2019-03-23T12:44:46.000Z</time>
      </trkpt>
      <trkpt lat="46.24532" lon="6.3126">
        <ele>566</ele>
        <time>2019-03-23T12:44:51.000Z</time>
      </trkpt>
      <trkpt lat="46.24555" lon="6.31276">
        <ele>566.94</ele>
        <time>2019-03-23T12:44:56.000Z</time>
      </trkpt>
      <trkpt lat="46.24579" lon="6.31294">
        <ele>567</ele>
        <time>2019-03-23T12:45:01.000Z</time>
      </trkpt>
      <trkpt lat="46.24602" lon="6.31317">
        <ele>566.25</ele>
        <time>2019-03-23T12:45:06.000Z</time>
      </trkpt>
      <trkpt lat="46.24622" lon="6.31347">
        <ele>566</ele>
        <time>2019-03-23T12:45:11.000Z</time>
      </trkpt>
      <trkpt lat="46.24643" lon="6.31381">
        <ele>566</ele>
        <time>2019-03-23T12:45:16.000Z</time>
      </trkpt>
      <trkpt lat="46.24664" lon="6.31415">
        <ele>566</ele>
        <time>2019-03-23T12:45:21.000Z</time>
      </trkpt>
      <trkpt lat="46.24684" lon="6.3145">
        <ele>566</ele>
        <time>2019-03-23T12:45:26.000Z</time>
      </trkpt>
      <trkpt lat="46.24705" lon="6.31482">
        <ele>566</ele>
        <time>2019-03-23T12:45:31.000Z</time>
      </trkpt>
      <trkpt lat="46.24726" lon="6.31515">
        <ele>566</ele>
        <time>2019-03-23T12:45:36.000Z</time>
      </trkpt>
      <trkpt lat="46.24746" lon="6.31549">
        <ele>567</ele>
        <time>2019-03-23T12:45:41.000Z</time>
      </trkpt>
      <trkpt lat="46.2476" lon="6.31585">
        <ele>567</ele>
        <time>2019-03-23T12:45:46.000Z</time>
      </trkpt>
      <trkpt lat="46.24771" lon="6.31615">
        <ele>568</ele>
        <time>2019-03-23T12:45:51.000Z</time>
      </trkpt>
      <trkpt lat="46.24781" lon="6.31642">
        <ele>569.98</ele>
        <time>2019-03-23T12:45:56.000Z</time>
      </trkpt>
      <trkpt lat="46.2479" lon="6.31667">
        <ele>570.94</ele>
        <time>2019-03-23T12:46:01.000Z</time>
      </trkpt>
      <trkpt lat="46.24798" lon="6.31691">
        <ele>572.98</ele>
        <time>2019-03-23T12:46:06.000Z</time>
      </trkpt>
      <trkpt lat="46.24806" lon="6.31714">
        <ele>573.98</ele>
        <time>2019-03-23T12:46:11.000Z</time>
      </trkpt>
      <trkpt lat="46.24813" lon="6.31738">
        <ele>575</ele>
        <time>2019-03-23T12:46:16.000Z</time>
      </trkpt>
      <trkpt lat="46.24822" lon="6.31762">
        <ele>576</ele>
        <time>2019-03-23T12:46:21.000Z</time>
      </trkpt>
      <trkpt lat="46.2483" lon="6.31785">
        <ele>576</ele>
        <time>2019-03-23T12:46:26.000Z</time>
      </trkpt>
      <trkpt lat="46.24839" lon="6.31808">
        <ele>576.94</ele>
        <time>2019-03-23T12:46:31.000Z</time>
      </trkpt>
      <trkpt lat="46.24847" lon="6.31832">
        <ele>577</ele>
        <time>2019-03-23T12:46:36.000Z</time>
      </trkpt>
      <trkpt lat="46.24857" lon="6.3186">
        <ele>577.98</ele>
        <time>2019-03-23T12:46:41.000Z</time>
      </trkpt>
      <trkpt lat="46.24865" lon="6.31888">
        <ele>578.75</ele>
        <time>2019-03-23T12:46:46.000Z</time>
      </trkpt>
      <trkpt lat="46.24874" lon="6.31917">
        <ele>579</ele>
        <time>2019-03-23T12:46:51.000Z</time>
      </trkpt>
      <trkpt lat="46.24882" lon="6.31947">
        <ele>579.01</ele>
        <time>2019-03-23T12:46:56.000Z</time>
      </trkpt>
      <trkpt lat="46.24891" lon="6.3198">
        <ele>579</ele>
        <time>2019-03-23T12:47:01.000Z</time>
      </trkpt>
      <trkpt lat="46.24901" lon="6.32015">
        <ele>578.05</ele>
        <time>2019-03-23T12:47:06.000Z</time>
      </trkpt>
      <trkpt lat="46.24911" lon="6.3205">
        <ele>578.98</ele>
        <time>2019-03-23T12:47:11.000Z</time>
      </trkpt>
      <trkpt lat="46.24917" lon="6.32088">
        <ele>578</ele>
        <time>2019-03-23T12:47:16.000Z</time>
      </trkpt>
      <trkpt lat="46.24919" lon="6.32128">
        <ele>578</ele>
        <time>2019-03-23T12:47:21.000Z</time>
      </trkpt>
      <trkpt lat="46.2492" lon="6.32172">
        <ele>577.02</ele>
        <time>2019-03-23T12:47:26.000Z</time>
      </trkpt>
      <trkpt lat="46.24921" lon="6.32217">
        <ele>577</ele>
        <time>2019-03-23T12:47:31.000Z</time>
      </trkpt>
      <trkpt lat="46.24922" lon="6.32254">
        <ele>578.75</ele>
        <time>2019-03-23T12:47:36.000Z</time>
      </trkpt>
      <trkpt lat="46.24931" lon="6.32286">
        <ele>580.93</ele>
        <time>2019-03-23T12:47:41.000Z</time>
      </trkpt>
      <trkpt lat="46.24941" lon="6.32314">
        <ele>582.93</ele>
        <time>2019-03-23T12:47:46.000Z</time>
      </trkpt>
      <trkpt lat="46.2495" lon="6.32342">
        <ele>582.02</ele>
        <time>2019-03-23T12:47:51.000Z</time>
      </trkpt>
      <trkpt lat="46.2496" lon="6.32371">
        <ele>582.99</ele>
        <time>2019-03-23T12:47:56.000Z</time>
      </trkpt>
      <trkpt lat="46.2497" lon="6.324">
        <ele>583</ele>
        <time>2019-03-23T12:48:01.000Z</time>
      </trkpt>
      <trkpt lat="46.24982" lon="6.32437">
        <ele>582.02</ele>
        <time>2019-03-23T12:48:06.000Z</time>
      </trkpt>
      <trkpt lat="46.24991" lon="6.32487">
        <ele>578.32</ele>
        <time>2019-03-23T12:48:11.000Z</time>
      </trkpt>
      <trkpt lat="46.24982" lon="6.32553">
        <ele>574.33</ele>
        <time>2019-03-23T12:48:16.000Z</time>
      </trkpt>
      <trkpt lat="46.24969" lon="6.32622">
        <ele>572.25</ele>
        <time>2019-03-23T12:48:21.000Z</time>
      </trkpt>
      <trkpt lat="46.24979" lon="6.32673">
        <ele>574</ele>
        <time>2019-03-23T12:48:26.000Z</time>
      </trkpt>
      <trkpt lat="46.24998" lon="6.32709">
        <ele>574.81</ele>
        <time>2019-03-23T12:48:31.000Z</time>
      </trkpt>
      <trkpt lat="46.25024" lon="6.32732">
        <ele>574.06</ele>
        <time>2019-03-23T12:48:36.000Z</time>
      </trkpt>
      <trkpt lat="46.25052" lon="6.32751">
        <ele>574</ele>
        <time>2019-03-23T12:48:41.000Z</time>
      </trkpt>
      <trkpt lat="46.2508" lon="6.32768">
        <ele>573</ele>
        <time>2019-03-23T12:48:46.000Z</time>
      </trkpt>
      <trkpt lat="46.2511" lon="6.3278">
        <ele>572.06</ele>
        <time>2019-03-23T12:48:51.000Z</time>
      </trkpt>
      <trkpt lat="46.25138" lon="6.32786">
        <ele>572.94</ele>
        <time>2019-03-23T12:48:56.000Z</time>
      </trkpt>
      <trkpt lat="46.25149" lon="6.32787">
        <ele>573.75</ele>
        <time>2019-03-23T12:49:01.000Z</time>
      </trkpt>
      <trkpt lat="46.25167" lon="6.32775">
        <ele>573.06</ele>
        <time>2019-03-23T12:49:06.000Z</time>
      </trkpt>
      <trkpt lat="46.25191" lon="6.32769">
        <ele>573.94</ele>
        <time>2019-03-23T12:49:11.000Z</time>
      </trkpt>
      <trkpt lat="46.25212" lon="6.32757">
        <ele>574.75</ele>
        <time>2019-03-23T12:49:16.000Z</time>
      </trkpt>
      <trkpt lat="46.25234" lon="6.32741">
        <ele>574.99</ele>
        <time>2019-03-23T12:49:21.000Z</time>
      </trkpt>
      <trkpt lat="46.25253" lon="6.32723">
        <ele>576.75</ele>
        <time>2019-03-23T12:49:26.000Z</time>
      </trkpt>
      <trkpt lat="46.25273" lon="6.32703">
        <ele>577</ele>
        <time>2019-03-23T12:49:31.000Z</time>
      </trkpt>
      <trkpt lat="46.25294" lon="6.32686">
        <ele>577</ele>
        <time>2019-03-23T12:49:36.000Z</time>
      </trkpt>
      <trkpt lat="46.25314" lon="6.32671">
        <ele>578</ele>
        <time>2019-03-23T12:49:41.000Z</time>
      </trkpt>
      <trkpt lat="46.25336" lon="6.32656">
        <ele>578.98</ele>
        <time>2019-03-23T12:49:46.000Z</time>
      </trkpt>
      <trkpt lat="46.25356" lon="6.32642">
        <ele>580</ele>
        <time>2019-03-23T12:49:51.000Z</time>
      </trkpt>
      <trkpt lat="46.25376" lon="6.32625">
        <ele>581.94</ele>
        <time>2019-03-23T12:49:56.000Z</time>
      </trkpt>
      <trkpt lat="46.25392" lon="6.32601">
        <ele>583</ele>
        <time>2019-03-23T12:50:01.000Z</time>
      </trkpt>
      <trkpt lat="46.25403" lon="6.32573">
        <ele>582.81</ele>
        <time>2019-03-23T12:50:06.000Z</time>
      </trkpt>
      <trkpt lat="46.25414" lon="6.32543">
        <ele>583.94</ele>
        <time>2019-03-23T12:50:11.000Z</time>
      </trkpt>
      <trkpt lat="46.25425" lon="6.32515">
        <ele>584.98</ele>
        <time>2019-03-23T12:50:16.000Z</time>
      </trkpt>
      <trkpt lat="46.25442" lon="6.32497">
        <ele>585</ele>
        <time>2019-03-23T12:50:21.000Z</time>
      </trkpt>
      <trkpt lat="46.25465" lon="6.32489">
        <ele>585</ele>
        <time>2019-03-23T12:50:26.000Z</time>
      </trkpt>
      <trkpt lat="46.25489" lon="6.32482">
        <ele>585.75</ele>
        <time>2019-03-23T12:50:31.000Z</time>
      </trkpt>
      <trkpt lat="46.25513" lon="6.32471">
        <ele>586</ele>
        <time>2019-03-23T12:50:36.000Z</time>
      </trkpt>
      <trkpt lat="46.25538" lon="6.3246">
        <ele>585.77</ele>
        <time>2019-03-23T12:50:41.000Z</time>
      </trkpt>
      <trkpt lat="46.25563" lon="6.32454">
        <ele>586.94</ele>
        <time>2019-03-23T12:50:46.000Z</time>
      </trkpt>
      <trkpt lat="46.2559" lon="6.32454">
        <ele>587.75</ele>
        <time>2019-03-23T12:50:51.000Z</time>
      </trkpt>
      <trkpt lat="46.25616" lon="6.32453">
        <ele>588.19</ele>
        <time>2019-03-23T12:50:56.000Z</time>
      </trkpt>
      <trkpt lat="46.25642" lon="6.32459">
        <ele>589</ele>
        <time>2019-03-23T12:51:01.000Z</time>
      </trkpt>
      <trkpt lat="46.25666" lon="6.3247">
        <ele>588.77</ele>
        <time>2019-03-23T12:51:06.000Z</time>
      </trkpt>
      <trkpt lat="46.25688" lon="6.32489">
        <ele>588.75</ele>
        <time>2019-03-23T12:51:11.000Z</time>
      </trkpt>
      <trkpt lat="46.25705" lon="6.32509">
        <ele>589.94</ele>
        <time>2019-03-23T12:51:16.000Z</time>
      </trkpt>
      <trkpt lat="46.2572" lon="6.32527">
        <ele>590.94</ele>
        <time>2019-03-23T12:51:21.000Z</time>
      </trkpt>
      <trkpt lat="46.25735" lon="6.32548">
        <ele>591.75</ele>
        <time>2019-03-23T12:51:26.000Z</time>
      </trkpt>
      <trkpt lat="46.25748" lon="6.3257">
        <ele>592</ele>
        <time>2019-03-23T12:51:31.000Z</time>
      </trkpt>
      <trkpt lat="46.25756" lon="6.32595">
        <ele>593</ele>
        <time>2019-03-23T12:51:36.000Z</time>
      </trkpt>
      <trkpt lat="46.25771" lon="6.32614">
        <ele>594</ele>
        <time>2019-03-23T12:51:41.000Z</time>
      </trkpt>
      <trkpt lat="46.25788" lon="6.32631">
        <ele>595</ele>
        <time>2019-03-23T12:51:46.000Z</time>
      </trkpt>
      <trkpt lat="46.25805" lon="6.32647">
        <ele>595.99</ele>
        <time>2019-03-23T12:51:51.000Z</time>
      </trkpt>
      <trkpt lat="46.25822" lon="6.32662">
        <ele>596</ele>
        <time>2019-03-23T12:51:56.000Z</time>
      </trkpt>
      <trkpt lat="46.25839" lon="6.32675">
        <ele>596.94</ele>
        <time>2019-03-23T12:52:01.000Z</time>
      </trkpt>
      <trkpt lat="46.25856" lon="6.32688">
        <ele>597.94</ele>
        <time>2019-03-23T12:52:06.000Z</time>
      </trkpt>
      <trkpt lat="46.25875" lon="6.32702">
        <ele>598.75</ele>
        <time>2019-03-23T12:52:11.000Z</time>
      </trkpt>
      <trkpt lat="46.25894" lon="6.32716">
        <ele>598.25</ele>
        <time>2019-03-23T12:52:16.000Z</time>
      </trkpt>
      <trkpt lat="46.25914" lon="6.32731">
        <ele>599</ele>
        <time>2019-03-23T12:52:21.000Z</time>
      </trkpt>
      <trkpt lat="46.25934" lon="6.32745">
        <ele>599</ele>
        <time>2019-03-23T12:52:26.000Z</time>
      </trkpt>
      <trkpt lat="46.25948" lon="6.32769">
        <ele>599</ele>
        <time>2019-03-23T12:52:31.000Z</time>
      </trkpt>
      <trkpt lat="46.25952" lon="6.32799">
        <ele>600.75</ele>
        <time>2019-03-23T12:52:36.000Z</time>
      </trkpt>
      <trkpt lat="46.25961" lon="6.32828">
        <ele>601.98</ele>
        <time>2019-03-23T12:52:41.000Z</time>
      </trkpt>
      <trkpt lat="46.25974" lon="6.32852">
        <ele>602.94</ele>
        <time>2019-03-23T12:52:46.000Z</time>
      </trkpt>
      <trkpt lat="46.25987" lon="6.32873">
        <ele>603.94</ele>
        <time>2019-03-23T12:52:51.000Z</time>
      </trkpt>
      <trkpt lat="46.26003" lon="6.3289">
        <ele>604.94</ele>
        <time>2019-03-23T12:52:56.000Z</time>
      </trkpt>
      <trkpt lat="46.26018" lon="6.32909">
        <ele>605.94</ele>
        <time>2019-03-23T12:53:01.000Z</time>
      </trkpt>
      <trkpt lat="46.26033" lon="6.32925">
        <ele>606.75</ele>
        <time>2019-03-23T12:53:06.000Z</time>
      </trkpt>
      <trkpt lat="46.26048" lon="6.32938">
        <ele>607</ele>
        <time>2019-03-23T12:53:11.000Z</time>
      </trkpt>
      <trkpt lat="46.26064" lon="6.32951">
        <ele>607.75</ele>
        <time>2019-03-23T12:53:16.000Z</time>
      </trkpt>
      <trkpt lat="46.26079" lon="6.32963">
        <ele>608</ele>
        <time>2019-03-23T12:53:21.000Z</time>
      </trkpt>
      <trkpt lat="46.26096" lon="6.32974">
        <ele>609.75</ele>
        <time>2019-03-23T12:53:26.000Z</time>
      </trkpt>
      <trkpt lat="46.26112" lon="6.32984">
        <ele>610.94</ele>
        <time>2019-03-23T12:53:31.000Z</time>
      </trkpt>
      <trkpt lat="46.26129" lon="6.32992">
        <ele>611</ele>
        <time>2019-03-23T12:53:36.000Z</time>
      </trkpt>
      <trkpt lat="46.26147" lon="6.33001">
        <ele>612</ele>
        <time>2019-03-23T12:53:41.000Z</time>
      </trkpt>
      <trkpt lat="46.26166" lon="6.33009">
        <ele>612</ele>
        <time>2019-03-23T12:53:46.000Z</time>
      </trkpt>
      <trkpt lat="46.26185" lon="6.33019">
        <ele>613</ele>
        <time>2019-03-23T12:53:51.000Z</time>
      </trkpt>
      <trkpt lat="46.26202" lon="6.33026">
        <ele>613</ele>
        <time>2019-03-23T12:53:56.000Z</time>
      </trkpt>
      <trkpt lat="46.26219" lon="6.33033">
        <ele>613.98</ele>
        <time>2019-03-23T12:54:01.000Z</time>
      </trkpt>
      <trkpt lat="46.26235" lon="6.33041">
        <ele>614.94</ele>
        <time>2019-03-23T12:54:06.000Z</time>
      </trkpt>
      <trkpt lat="46.26251" lon="6.3305">
        <ele>615.75</ele>
        <time>2019-03-23T12:54:11.000Z</time>
      </trkpt>
      <trkpt lat="46.26266" lon="6.33061">
        <ele>616</ele>
        <time>2019-03-23T12:54:16.000Z</time>
      </trkpt>
      <trkpt lat="46.26282" lon="6.33075">
        <ele>617</ele>
        <time>2019-03-23T12:54:21.000Z</time>
      </trkpt>
      <trkpt lat="46.26296" lon="6.33093">
        <ele>617</ele>
        <time>2019-03-23T12:54:26.000Z</time>
      </trkpt>
      <trkpt lat="46.26312" lon="6.33112">
        <ele>617.94</ele>
        <time>2019-03-23T12:54:31.000Z</time>
      </trkpt>
      <trkpt lat="46.26327" lon="6.33132">
        <ele>618</ele>
        <time>2019-03-23T12:54:36.000Z</time>
      </trkpt>
      <trkpt lat="46.26343" lon="6.33152">
        <ele>617.19</ele>
        <time>2019-03-23T12:54:41.000Z</time>
      </trkpt>
      <trkpt lat="46.26359" lon="6.33172">
        <ele>618</ele>
        <time>2019-03-23T12:54:46.000Z</time>
      </trkpt>
      <trkpt lat="46.26375" lon="6.33193">
        <ele>618</ele>
        <time>2019-03-23T12:54:51.000Z</time>
      </trkpt>
      <trkpt lat="46.2639" lon="6.33215">
        <ele>618</ele>
        <time>2019-03-23T12:54:56.000Z</time>
      </trkpt>
      <trkpt lat="46.26405" lon="6.33238">
        <ele>618</ele>
        <time>2019-03-23T12:55:01.000Z</time>
      </trkpt>
      <trkpt lat="46.26421" lon="6.33261">
        <ele>618.01</ele>
        <time>2019-03-23T12:55:06.000Z</time>
      </trkpt>
      <trkpt lat="46.26434" lon="6.33288">
        <ele>618.76</ele>
        <time>2019-03-23T12:55:11.000Z</time>
      </trkpt>
      <trkpt lat="46.26446" lon="6.33319">
        <ele>619</ele>
        <time>2019-03-23T12:55:16.000Z</time>
      </trkpt>
      <trkpt lat="46.26457" lon="6.3335">
        <ele>619.98</ele>
        <time>2019-03-23T12:55:21.000Z</time>
      </trkpt>
      <trkpt lat="46.26467" lon="6.33381">
        <ele>620</ele>
        <time>2019-03-23T12:55:26.000Z</time>
      </trkpt>
      <trkpt lat="46.26464" lon="6.33413">
        <ele>620</ele>
        <time>2019-03-23T12:55:31.000Z</time>
      </trkpt>
      <trkpt lat="46.26458" lon="6.33448">
        <ele>620</ele>
        <time>2019-03-23T12:55:36.000Z</time>
      </trkpt>
      <trkpt lat="46.26452" lon="6.33483">
        <ele>619.8</ele>
        <time>2019-03-23T12:55:41.000Z</time>
      </trkpt>
      <trkpt lat="46.26445" lon="6.33517">
        <ele>618.06</ele>
        <time>2019-03-23T12:55:46.000Z</time>
      </trkpt>
      <trkpt lat="46.26439" lon="6.33552">
        <ele>618.94</ele>
        <time>2019-03-23T12:55:51.000Z</time>
      </trkpt>
      <trkpt lat="46.26433" lon="6.33587">
        <ele>619</ele>
        <time>2019-03-23T12:55:56.000Z</time>
      </trkpt>
      <trkpt lat="46.26427" lon="6.33623">
        <ele>619</ele>
        <time>2019-03-23T12:56:01.000Z</time>
      </trkpt>
      <trkpt lat="46.26421" lon="6.33659">
        <ele>619.19</ele>
        <time>2019-03-23T12:56:06.000Z</time>
      </trkpt>
      <trkpt lat="46.26416" lon="6.33696">
        <ele>619.98</ele>
        <time>2019-03-23T12:56:11.000Z</time>
      </trkpt>
      <trkpt lat="46.26409" lon="6.33733">
        <ele>620</ele>
        <time>2019-03-23T12:56:16.000Z</time>
      </trkpt>
      <trkpt lat="46.26402" lon="6.33771">
        <ele>620.01</ele>
        <time>2019-03-23T12:56:21.000Z</time>
      </trkpt>
      <trkpt lat="46.26396" lon="6.33808">
        <ele>620</ele>
        <time>2019-03-23T12:56:26.000Z</time>
      </trkpt>
      <trkpt lat="46.2639" lon="6.33846">
        <ele>620</ele>
        <time>2019-03-23T12:56:31.000Z</time>
      </trkpt>
      <trkpt lat="46.26384" lon="6.33885">
        <ele>620.94</ele>
        <time>2019-03-23T12:56:36.000Z</time>
      </trkpt>
      <trkpt lat="46.26381" lon="6.33927">
        <ele>620.99</ele>
        <time>2019-03-23T12:56:41.000Z</time>
      </trkpt>
      <trkpt lat="46.26387" lon="6.33966">
        <ele>622</ele>
        <time>2019-03-23T12:56:46.000Z</time>
      </trkpt>
      <trkpt lat="46.26403" lon="6.33997">
        <ele>623</ele>
        <time>2019-03-23T12:56:51.000Z</time>
      </trkpt>
      <trkpt lat="46.26421" lon="6.34023">
        <ele>623</ele>
        <time>2019-03-23T12:56:56.000Z</time>
      </trkpt>
      <trkpt lat="46.26439" lon="6.34049">
        <ele>624</ele>
        <time>2019-03-23T12:57:01.000Z</time>
      </trkpt>
      <trkpt lat="46.26457" lon="6.34076">
        <ele>624</ele>
        <time>2019-03-23T12:57:06.000Z</time>
      </trkpt>
      <trkpt lat="46.26475" lon="6.34103">
        <ele>625</ele>
        <time>2019-03-23T12:57:11.000Z</time>
      </trkpt>
      <trkpt lat="46.26489" lon="6.34136">
        <ele>625</ele>
        <time>2019-03-23T12:57:16.000Z</time>
      </trkpt>
      <trkpt lat="46.26505" lon="6.34169">
        <ele>624.02</ele>
        <time>2019-03-23T12:57:21.000Z</time>
      </trkpt>
      <trkpt lat="46.26521" lon="6.34203">
        <ele>623</ele>
        <time>2019-03-23T12:57:26.000Z</time>
      </trkpt>
      <trkpt lat="46.26531" lon="6.34244">
        <ele>623.81</ele>
        <time>2019-03-23T12:57:31.000Z</time>
      </trkpt>
      <trkpt lat="46.26541" lon="6.34285">
        <ele>623</ele>
        <time>2019-03-23T12:57:36.000Z</time>
      </trkpt>
      <trkpt lat="46.26561" lon="6.34318">
        <ele>623</ele>
        <time>2019-03-23T12:57:41.000Z</time>
      </trkpt>
      <trkpt lat="46.26584" lon="6.34346">
        <ele>622.02</ele>
        <time>2019-03-23T12:57:46.000Z</time>
      </trkpt>
      <trkpt lat="46.26607" lon="6.34374">
        <ele>622</ele>
        <time>2019-03-23T12:57:51.000Z</time>
      </trkpt>
      <trkpt lat="46.26629" lon="6.34413">
        <ele>620.07</ele>
        <time>2019-03-23T12:57:56.000Z</time>
      </trkpt>
      <trkpt lat="46.26647" lon="6.34459">
        <ele>618.06</ele>
        <time>2019-03-23T12:58:01.000Z</time>
      </trkpt>
      <trkpt lat="46.26668" lon="6.34509">
        <ele>615.08</ele>
        <time>2019-03-23T12:58:06.000Z</time>
      </trkpt>
      <trkpt lat="46.2671" lon="6.34522">
        <ele>612.32</ele>
        <time>2019-03-23T12:58:11.000Z</time>
      </trkpt>
      <trkpt lat="46.26752" lon="6.34545">
        <ele>609.32</ele>
        <time>2019-03-23T12:58:16.000Z</time>
      </trkpt>
      <trkpt lat="46.26786" lon="6.34592">
        <ele>606.32</ele>
        <time>2019-03-23T12:58:21.000Z</time>
      </trkpt>
      <trkpt lat="46.26767" lon="6.3465">
        <ele>605</ele>
        <time>2019-03-23T12:58:26.000Z</time>
      </trkpt>
      <trkpt lat="46.26736" lon="6.34695">
        <ele>603.02</ele>
        <time>2019-03-23T12:58:31.000Z</time>
      </trkpt>
      <trkpt lat="46.26698" lon="6.34722">
        <ele>601.25</ele>
        <time>2019-03-23T12:58:36.000Z</time>
      </trkpt>
      <trkpt lat="46.26653" lon="6.34705">
        <ele>598.27</ele>
        <time>2019-03-23T12:58:41.000Z</time>
      </trkpt>
      <trkpt lat="46.26608" lon="6.3469">
        <ele>596.07</ele>
        <time>2019-03-23T12:58:46.000Z</time>
      </trkpt>
      <trkpt lat="46.26575" lon="6.34736">
        <ele>593.27</ele>
        <time>2019-03-23T12:58:51.000Z</time>
      </trkpt>
      <trkpt lat="46.26557" lon="6.34796">
        <ele>591.25</ele>
        <time>2019-03-23T12:58:56.000Z</time>
      </trkpt>
      <trkpt lat="46.26556" lon="6.34861">
        <ele>590.77</ele>
        <time>2019-03-23T12:59:01.000Z</time>
      </trkpt>
      <trkpt lat="46.26543" lon="6.34914">
        <ele>590.99</ele>
        <time>2019-03-23T12:59:06.000Z</time>
      </trkpt>
      <trkpt lat="46.2653" lon="6.34959">
        <ele>591.98</ele>
        <time>2019-03-23T12:59:11.000Z</time>
      </trkpt>
      <trkpt lat="46.26517" lon="6.35001">
        <ele>592.93</ele>
        <time>2019-03-23T12:59:16.000Z</time>
      </trkpt>
      <trkpt lat="46.26506" lon="6.35039">
        <ele>594</ele>
        <time>2019-03-23T12:59:21.000Z</time>
      </trkpt>
      <trkpt lat="46.26498" lon="6.35063">
        <ele>594</ele>
        <time>2019-03-23T12:59:26.000Z</time>
      </trkpt>
      <trkpt lat="46.26496" lon="6.35078">
        <ele>595.77</ele>
        <time>2019-03-23T13:01:04.000Z</time>
      </trkpt>
      <trkpt lat="46.26488" lon="6.351">
        <ele>596</ele>
        <time>2019-03-23T13:01:09.000Z</time>
      </trkpt>
      <trkpt lat="46.26478" lon="6.35127">
        <ele>596.01</ele>
        <time>2019-03-23T13:01:14.000Z</time>
      </trkpt>
      <trkpt lat="46.26467" lon="6.35152">
        <ele>595.02</ele>
        <time>2019-03-23T13:01:19.000Z</time>
      </trkpt>
      <trkpt lat="46.26454" lon="6.35172">
        <ele>596.94</ele>
        <time>2019-03-23T13:01:24.000Z</time>
      </trkpt>
      <trkpt lat="46.26439" lon="6.35186">
        <ele>598</ele>
        <time>2019-03-23T13:01:29.000Z</time>
      </trkpt>
      <trkpt lat="46.26424" lon="6.35199">
        <ele>599</ele>
        <time>2019-03-23T13:01:34.000Z</time>
      </trkpt>
      <trkpt lat="46.26409" lon="6.3521">
        <ele>599.94</ele>
        <time>2019-03-23T13:01:39.000Z</time>
      </trkpt>
      <trkpt lat="46.26394" lon="6.35222">
        <ele>600.98</ele>
        <time>2019-03-23T13:01:44.000Z</time>
      </trkpt>
      <trkpt lat="46.2638" lon="6.35234">
        <ele>601.94</ele>
        <time>2019-03-23T13:01:49.000Z</time>
      </trkpt>
      <trkpt lat="46.26365" lon="6.35247">
        <ele>603</ele>
        <time>2019-03-23T13:01:54.000Z</time>
      </trkpt>
      <trkpt lat="46.26351" lon="6.35262">
        <ele>604.75</ele>
        <time>2019-03-23T13:01:59.000Z</time>
      </trkpt>
      <trkpt lat="46.26339" lon="6.35279">
        <ele>605.94</ele>
        <time>2019-03-23T13:02:04.000Z</time>
      </trkpt>
      <trkpt lat="46.26326" lon="6.35296">
        <ele>606</ele>
        <time>2019-03-23T13:02:09.000Z</time>
      </trkpt>
      <trkpt lat="46.26315" lon="6.35312">
        <ele>607</ele>
        <time>2019-03-23T13:02:14.000Z</time>
      </trkpt>
      <trkpt lat="46.26303" lon="6.35328">
        <ele>607</ele>
        <time>2019-03-23T13:02:19.000Z</time>
      </trkpt>
      <trkpt lat="46.26292" lon="6.35345">
        <ele>607.06</ele>
        <time>2019-03-23T13:02:24.000Z</time>
      </trkpt>
      <trkpt lat="46.2628" lon="6.35358">
        <ele>608</ele>
        <time>2019-03-23T13:02:29.000Z</time>
      </trkpt>
      <trkpt lat="46.2627" lon="6.35376">
        <ele>609.94</ele>
        <time>2019-03-23T13:02:34.000Z</time>
      </trkpt>
      <trkpt lat="46.26261" lon="6.35393">
        <ele>611.98</ele>
        <time>2019-03-23T13:02:39.000Z</time>
      </trkpt>
      <trkpt lat="46.26254" lon="6.35413">
        <ele>613</ele>
        <time>2019-03-23T13:02:44.000Z</time>
      </trkpt>
      <trkpt lat="46.26248" lon="6.35434">
        <ele>614</ele>
        <time>2019-03-23T13:02:49.000Z</time>
      </trkpt>
      <trkpt lat="46.26241" lon="6.35453">
        <ele>615</ele>
        <time>2019-03-23T13:02:54.000Z</time>
      </trkpt>
      <trkpt lat="46.26235" lon="6.35475">
        <ele>616</ele>
        <time>2019-03-23T13:02:59.000Z</time>
      </trkpt>
      <trkpt lat="46.2623" lon="6.35496">
        <ele>616.94</ele>
        <time>2019-03-23T13:03:04.000Z</time>
      </trkpt>
      <trkpt lat="46.26223" lon="6.35517">
        <ele>616.99</ele>
        <time>2019-03-23T13:03:09.000Z</time>
      </trkpt>
      <trkpt lat="46.26217" lon="6.35539">
        <ele>617.94</ele>
        <time>2019-03-23T13:03:14.000Z</time>
      </trkpt>
      <trkpt lat="46.2621" lon="6.35563">
        <ele>619</ele>
        <time>2019-03-23T13:03:19.000Z</time>
      </trkpt>
      <trkpt lat="46.26204" lon="6.35588">
        <ele>620.73</ele>
        <time>2019-03-23T13:03:24.000Z</time>
      </trkpt>
      <trkpt lat="46.26198" lon="6.35612">
        <ele>621.94</ele>
        <time>2019-03-23T13:03:29.000Z</time>
      </trkpt>
      <trkpt lat="46.26192" lon="6.35633">
        <ele>622.94</ele>
        <time>2019-03-23T13:03:34.000Z</time>
      </trkpt>
      <trkpt lat="46.26186" lon="6.35652">
        <ele>623.94</ele>
        <time>2019-03-23T13:03:39.000Z</time>
      </trkpt>
      <trkpt lat="46.26178" lon="6.3567">
        <ele>624.23</ele>
        <time>2019-03-23T13:03:44.000Z</time>
      </trkpt>
      <trkpt lat="46.26173" lon="6.35699">
        <ele>623.06</ele>
        <time>2019-03-23T13:03:49.000Z</time>
      </trkpt>
      <trkpt lat="46.26158" lon="6.35719">
        <ele>624</ele>
        <time>2019-03-23T13:03:54.000Z</time>
      </trkpt>
      <trkpt lat="46.26141" lon="6.35736">
        <ele>625</ele>
        <time>2019-03-23T13:03:59.000Z</time>
      </trkpt>
      <trkpt lat="46.26125" lon="6.35752">
        <ele>626.98</ele>
        <time>2019-03-23T13:04:04.000Z</time>
      </trkpt>
      <trkpt lat="46.2611" lon="6.35764">
        <ele>627.98</ele>
        <time>2019-03-23T13:04:09.000Z</time>
      </trkpt>
      <trkpt lat="46.26095" lon="6.35778">
        <ele>629</ele>
        <time>2019-03-23T13:04:14.000Z</time>
      </trkpt>
      <trkpt lat="46.26081" lon="6.35795">
        <ele>629.75</ele>
        <time>2019-03-23T13:04:19.000Z</time>
      </trkpt>
      <trkpt lat="46.26069" lon="6.35813">
        <ele>630.98</ele>
        <time>2019-03-23T13:04:24.000Z</time>
      </trkpt>
      <trkpt lat="46.26055" lon="6.35828">
        <ele>631.75</ele>
        <time>2019-03-23T13:04:29.000Z</time>
      </trkpt>
      <trkpt lat="46.2604" lon="6.35841">
        <ele>632.94</ele>
        <time>2019-03-23T13:04:34.000Z</time>
      </trkpt>
      <trkpt lat="46.26026" lon="6.35848">
        <ele>633.95</ele>
        <time>2019-03-23T13:04:39.000Z</time>
      </trkpt>
      <trkpt lat="46.26012" lon="6.35857">
        <ele>635.73</ele>
        <time>2019-03-23T13:04:44.000Z</time>
      </trkpt>
      <trkpt lat="46.25999" lon="6.35867">
        <ele>635.99</ele>
        <time>2019-03-23T13:04:49.000Z</time>
      </trkpt>
      <trkpt lat="46.25986" lon="6.35877">
        <ele>636.94</ele>
        <time>2019-03-23T13:04:54.000Z</time>
      </trkpt>
      <trkpt lat="46.25973" lon="6.35886">
        <ele>638.75</ele>
        <time>2019-03-23T13:04:59.000Z</time>
      </trkpt>
      <trkpt lat="46.25958" lon="6.35891">
        <ele>639</ele>
        <time>2019-03-23T13:05:04.000Z</time>
      </trkpt>
      <trkpt lat="46.25942" lon="6.35884">
        <ele>639.75</ele>
        <time>2019-03-23T13:05:09.000Z</time>
      </trkpt>
      <trkpt lat="46.25927" lon="6.35877">
        <ele>641.75</ele>
        <time>2019-03-23T13:05:14.000Z</time>
      </trkpt>
      <trkpt lat="46.25914" lon="6.35871">
        <ele>641.06</ele>
        <time>2019-03-23T13:05:19.000Z</time>
      </trkpt>
      <trkpt lat="46.25903" lon="6.35863">
        <ele>642.73</ele>
        <time>2019-03-23T13:05:24.000Z</time>
      </trkpt>
      <trkpt lat="46.25892" lon="6.35854">
        <ele>642</ele>
        <time>2019-03-23T13:05:29.000Z</time>
      </trkpt>
      <trkpt lat="46.25881" lon="6.35845">
        <ele>642</ele>
        <time>2019-03-23T13:05:34.000Z</time>
      </trkpt>
      <trkpt lat="46.2587" lon="6.35836">
        <ele>641.99</ele>
        <time>2019-03-23T13:05:39.000Z</time>
      </trkpt>
      <trkpt lat="46.25859" lon="6.35828">
        <ele>642</ele>
        <time>2019-03-23T13:05:44.000Z</time>
      </trkpt>
      <trkpt lat="46.25848" lon="6.35819">
        <ele>643.05</ele>
        <time>2019-03-23T13:05:49.000Z</time>
      </trkpt>
      <trkpt lat="46.25837" lon="6.35809">
        <ele>645.69</ele>
        <time>2019-03-23T13:05:54.000Z</time>
      </trkpt>
      <trkpt lat="46.25825" lon="6.35798">
        <ele>647</ele>
        <time>2019-03-23T13:05:59.000Z</time>
      </trkpt>
      <trkpt lat="46.25816" lon="6.35788">
        <ele>648.98</ele>
        <time>2019-03-23T13:06:04.000Z</time>
      </trkpt>
      <trkpt lat="46.25806" lon="6.35776">
        <ele>649.98</ele>
        <time>2019-03-23T13:06:09.000Z</time>
      </trkpt>
      <trkpt lat="46.25797" lon="6.35758">
        <ele>649</ele>
        <time>2019-03-23T13:06:14.000Z</time>
      </trkpt>
      <trkpt lat="46.25787" lon="6.35734">
        <ele>649.98</ele>
        <time>2019-03-23T13:06:19.000Z</time>
      </trkpt>
      <trkpt lat="46.25779" lon="6.3571">
        <ele>651.79</ele>
        <time>2019-03-23T13:06:24.000Z</time>
      </trkpt>
      <trkpt lat="46.25775" lon="6.35691">
        <ele>652.94</ele>
        <time>2019-03-23T13:06:29.000Z</time>
      </trkpt>
      <trkpt lat="46.25771" lon="6.35676">
        <ele>654</ele>
        <time>2019-03-23T13:06:34.000Z</time>
      </trkpt>
      <trkpt lat="46.25763" lon="6.35672">
        <ele>654</ele>
        <time>2019-03-23T13:06:39.000Z</time>
      </trkpt>
      <trkpt lat="46.25757" lon="6.35688">
        <ele>655.93</ele>
        <time>2019-03-23T13:06:44.000Z</time>
      </trkpt>
      <trkpt lat="46.25754" lon="6.3571">
        <ele>656</ele>
        <time>2019-03-23T13:06:49.000Z</time>
      </trkpt>
      <trkpt lat="46.25752" lon="6.35733">
        <ele>657.94</ele>
        <time>2019-03-23T13:06:54.000Z</time>
      </trkpt>
      <trkpt lat="46.25751" lon="6.35756">
        <ele>658.94</ele>
        <time>2019-03-23T13:06:59.000Z</time>
      </trkpt>
      <trkpt lat="46.2575" lon="6.35779">
        <ele>659.23</ele>
        <time>2019-03-23T13:07:04.000Z</time>
      </trkpt>
      <trkpt lat="46.25748" lon="6.35803">
        <ele>660</ele>
        <time>2019-03-23T13:07:09.000Z</time>
      </trkpt>
      <trkpt lat="46.25746" lon="6.35827">
        <ele>660.2</ele>
        <time>2019-03-23T13:07:14.000Z</time>
      </trkpt>
      <trkpt lat="46.25746" lon="6.3585">
        <ele>661</ele>
        <time>2019-03-23T13:07:19.000Z</time>
      </trkpt>
      <trkpt lat="46.25749" lon="6.35873">
        <ele>661.75</ele>
        <time>2019-03-23T13:07:24.000Z</time>
      </trkpt>
      <trkpt lat="46.25757" lon="6.35896">
        <ele>662</ele>
        <time>2019-03-23T13:07:29.000Z</time>
      </trkpt>
      <trkpt lat="46.25765" lon="6.35921">
        <ele>662.01</ele>
        <time>2019-03-23T13:07:34.000Z</time>
      </trkpt>
      <trkpt lat="46.25774" lon="6.35947">
        <ele>663.73</ele>
        <time>2019-03-23T13:07:39.000Z</time>
      </trkpt>
      <trkpt lat="46.25781" lon="6.35974">
        <ele>664.75</ele>
        <time>2019-03-23T13:07:44.000Z</time>
      </trkpt>
      <trkpt lat="46.25786" lon="6.35998">
        <ele>665.94</ele>
        <time>2019-03-23T13:07:49.000Z</time>
      </trkpt>
      <trkpt lat="46.2579" lon="6.36021">
        <ele>666</ele>
        <time>2019-03-23T13:07:54.000Z</time>
      </trkpt>
      <trkpt lat="46.25795" lon="6.36044">
        <ele>667.75</ele>
        <time>2019-03-23T13:07:59.000Z</time>
      </trkpt>
      <trkpt lat="46.258" lon="6.36068">
        <ele>667.99</ele>
        <time>2019-03-23T13:08:04.000Z</time>
      </trkpt>
      <trkpt lat="46.25805" lon="6.36091">
        <ele>668.94</ele>
        <time>2019-03-23T13:08:09.000Z</time>
      </trkpt>
      <trkpt lat="46.25809" lon="6.36114">
        <ele>669</ele>
        <time>2019-03-23T13:08:14.000Z</time>
      </trkpt>
      <trkpt lat="46.25814" lon="6.36138">
        <ele>670</ele>
        <time>2019-03-23T13:08:19.000Z</time>
      </trkpt>
      <trkpt lat="46.25819" lon="6.36162">
        <ele>671</ele>
        <time>2019-03-23T13:08:24.000Z</time>
      </trkpt>
      <trkpt lat="46.25824" lon="6.36185">
        <ele>672</ele>
        <time>2019-03-23T13:08:29.000Z</time>
      </trkpt>
      <trkpt lat="46.25828" lon="6.36198">
        <ele>672.01</ele>
        <time>2019-03-23T13:08:34.000Z</time>
      </trkpt>
      <trkpt lat="46.25847" lon="6.36202">
        <ele>671</ele>
        <time>2019-03-23T13:08:39.000Z</time>
      </trkpt>
      <trkpt lat="46.25859" lon="6.36235">
        <ele>670</ele>
        <time>2019-03-23T13:08:44.000Z</time>
      </trkpt>
      <trkpt lat="46.25867" lon="6.36279">
        <ele>668.07</ele>
        <time>2019-03-23T13:08:49.000Z</time>
      </trkpt>
      <trkpt lat="46.25878" lon="6.36322">
        <ele>667</ele>
        <time>2019-03-23T13:08:54.000Z</time>
      </trkpt>
      <trkpt lat="46.25899" lon="6.3636">
        <ele>665.02</ele>
        <time>2019-03-23T13:08:59.000Z</time>
      </trkpt>
      <trkpt lat="46.25924" lon="6.364">
        <ele>663.06</ele>
        <time>2019-03-23T13:09:04.000Z</time>
      </trkpt>
      <trkpt lat="46.25949" lon="6.36443">
        <ele>661.25</ele>
        <time>2019-03-23T13:09:09.000Z</time>
      </trkpt>
      <trkpt lat="46.25978" lon="6.36487">
        <ele>659.27</ele>
        <time>2019-03-23T13:09:14.000Z</time>
      </trkpt>
      <trkpt lat="46.26006" lon="6.36534">
        <ele>657.02</ele>
        <time>2019-03-23T13:09:19.000Z</time>
      </trkpt>
      <trkpt lat="46.26026" lon="6.36591">
        <ele>655.25</ele>
        <time>2019-03-23T13:09:24.000Z</time>
      </trkpt>
      <trkpt lat="46.26013" lon="6.36649">
        <ele>653.02</ele>
        <time>2019-03-23T13:09:29.000Z</time>
      </trkpt>
      <trkpt lat="46.25988" lon="6.36702">
        <ele>649.33</ele>
        <time>2019-03-23T13:09:34.000Z</time>
      </trkpt>
      <trkpt lat="46.25967" lon="6.36761">
        <ele>647.07</ele>
        <time>2019-03-23T13:09:39.000Z</time>
      </trkpt>
      <trkpt lat="46.2598" lon="6.36824">
        <ele>645.07</ele>
        <time>2019-03-23T13:09:44.000Z</time>
      </trkpt>
      <trkpt lat="46.26011" lon="6.36876">
        <ele>642.27</ele>
        <time>2019-03-23T13:09:49.000Z</time>
      </trkpt>
      <trkpt lat="46.26044" lon="6.36927">
        <ele>640.25</ele>
        <time>2019-03-23T13:09:54.000Z</time>
      </trkpt>
      <trkpt lat="46.26074" lon="6.36979">
        <ele>637.33</ele>
        <time>2019-03-23T13:09:59.000Z</time>
      </trkpt>
      <trkpt lat="46.261" lon="6.37018">
        <ele>634.32</ele>
        <time>2019-03-23T13:10:04.000Z</time>
      </trkpt>
      <trkpt lat="46.26108" lon="6.37053">
        <ele>633.95</ele>
        <time>2019-03-23T13:10:09.000Z</time>
      </trkpt>
      <trkpt lat="46.26108" lon="6.37085">
        <ele>635</ele>
        <time>2019-03-23T13:10:14.000Z</time>
      </trkpt>
      <trkpt lat="46.2611" lon="6.37117">
        <ele>636.93</ele>
        <time>2019-03-23T13:10:19.000Z</time>
      </trkpt>
      <trkpt lat="46.26113" lon="6.37148">
        <ele>637.94</ele>
        <time>2019-03-23T13:10:24.000Z</time>
      </trkpt>
      <trkpt lat="46.26115" lon="6.37177">
        <ele>638.8</ele>
        <time>2019-03-23T13:10:29.000Z</time>
      </trkpt>
      <trkpt lat="46.26117" lon="6.37205">
        <ele>639.94</ele>
        <time>2019-03-23T13:10:34.000Z</time>
      </trkpt>
      <trkpt lat="46.2612" lon="6.37233">
        <ele>640.94</ele>
        <time>2019-03-23T13:10:39.000Z</time>
      </trkpt>
      <trkpt lat="46.26122" lon="6.37261">
        <ele>642</ele>
        <time>2019-03-23T13:10:44.000Z</time>
      </trkpt>
      <trkpt lat="46.26123" lon="6.37289">
        <ele>642.94</ele>
        <time>2019-03-23T13:10:49.000Z</time>
      </trkpt>
      <trkpt lat="46.26121" lon="6.37314">
        <ele>644</ele>
        <time>2019-03-23T13:10:54.000Z</time>
      </trkpt>
      <trkpt lat="46.26115" lon="6.37336">
        <ele>645</ele>
        <time>2019-03-23T13:10:59.000Z</time>
      </trkpt>
      <trkpt lat="46.26105" lon="6.37357">
        <ele>645.94</ele>
        <time>2019-03-23T13:11:04.000Z</time>
      </trkpt>
      <trkpt lat="46.26093" lon="6.37376">
        <ele>646.94</ele>
        <time>2019-03-23T13:11:09.000Z</time>
      </trkpt>
      <trkpt lat="46.26081" lon="6.37393">
        <ele>647.98</ele>
        <time>2019-03-23T13:11:14.000Z</time>
      </trkpt>
      <trkpt lat="46.26068" lon="6.37406">
        <ele>649</ele>
        <time>2019-03-23T13:11:19.000Z</time>
      </trkpt>
      <trkpt lat="46.26052" lon="6.37416">
        <ele>649.95</ele>
        <time>2019-03-23T13:11:24.000Z</time>
      </trkpt>
      <trkpt lat="46.26036" lon="6.37427">
        <ele>650</ele>
        <time>2019-03-23T13:11:29.000Z</time>
      </trkpt>
      <trkpt lat="46.2602" lon="6.37437">
        <ele>651.98</ele>
        <time>2019-03-23T13:11:34.000Z</time>
      </trkpt>
      <trkpt lat="46.26004" lon="6.37447">
        <ele>652</ele>
        <time>2019-03-23T13:11:39.000Z</time>
      </trkpt>
      <trkpt lat="46.25988" lon="6.37457">
        <ele>652.98</ele>
        <time>2019-03-23T13:11:44.000Z</time>
      </trkpt>
      <trkpt lat="46.25971" lon="6.37464">
        <ele>653.75</ele>
        <time>2019-03-23T13:11:49.000Z</time>
      </trkpt>
      <trkpt lat="46.25954" lon="6.37467">
        <ele>654</ele>
        <time>2019-03-23T13:11:54.000Z</time>
      </trkpt>
      <trkpt lat="46.25937" lon="6.37464">
        <ele>655</ele>
        <time>2019-03-23T13:11:59.000Z</time>
      </trkpt>
      <trkpt lat="46.2592" lon="6.37462">
        <ele>655</ele>
        <time>2019-03-23T13:12:04.000Z</time>
      </trkpt>
      <trkpt lat="46.25902" lon="6.37459">
        <ele>655.94</ele>
        <time>2019-03-23T13:12:09.000Z</time>
      </trkpt>
      <trkpt lat="46.25886" lon="6.37458">
        <ele>657.75</ele>
        <time>2019-03-23T13:12:14.000Z</time>
      </trkpt>
      <trkpt lat="46.2587" lon="6.3746">
        <ele>657.02</ele>
        <time>2019-03-23T13:12:19.000Z</time>
      </trkpt>
      <trkpt lat="46.25854" lon="6.37468">
        <ele>657.75</ele>
        <time>2019-03-23T13:12:24.000Z</time>
      </trkpt>
      <trkpt lat="46.2584" lon="6.37483">
        <ele>659.94</ele>
        <time>2019-03-23T13:12:29.000Z</time>
      </trkpt>
      <trkpt lat="46.25828" lon="6.37502">
        <ele>661.75</ele>
        <time>2019-03-23T13:12:34.000Z</time>
      </trkpt>
      <trkpt lat="46.25819" lon="6.37524">
        <ele>662</ele>
        <time>2019-03-23T13:12:39.000Z</time>
      </trkpt>
      <trkpt lat="46.25809" lon="6.37544">
        <ele>662.8</ele>
        <time>2019-03-23T13:12:44.000Z</time>
      </trkpt>
      <trkpt lat="46.25798" lon="6.37564">
        <ele>663</ele>
        <time>2019-03-23T13:12:49.000Z</time>
      </trkpt>
      <trkpt lat="46.25788" lon="6.37584">
        <ele>664</ele>
        <time>2019-03-23T13:12:54.000Z</time>
      </trkpt>
      <trkpt lat="46.2578" lon="6.37604">
        <ele>663.06</ele>
        <time>2019-03-23T13:12:59.000Z</time>
      </trkpt>
      <trkpt lat="46.25771" lon="6.37625">
        <ele>664</ele>
        <time>2019-03-23T13:13:04.000Z</time>
      </trkpt>
      <trkpt lat="46.25761" lon="6.37644">
        <ele>663.75</ele>
        <time>2019-03-23T13:13:09.000Z</time>
      </trkpt>
      <trkpt lat="46.25751" lon="6.37664">
        <ele>665.73</ele>
        <time>2019-03-23T13:13:14.000Z</time>
      </trkpt>
      <trkpt lat="46.25742" lon="6.37685">
        <ele>666.98</ele>
        <time>2019-03-23T13:13:19.000Z</time>
      </trkpt>
      <trkpt lat="46.25732" lon="6.37706">
        <ele>666.99</ele>
        <time>2019-03-23T13:13:24.000Z</time>
      </trkpt>
      <trkpt lat="46.2572" lon="6.37725">
        <ele>667</ele>
        <time>2019-03-23T13:13:29.000Z</time>
      </trkpt>
      <trkpt lat="46.25711" lon="6.37745">
        <ele>668</ele>
        <time>2019-03-23T13:13:34.000Z</time>
      </trkpt>
      <trkpt lat="46.25701" lon="6.37764">
        <ele>669</ele>
        <time>2019-03-23T13:13:39.000Z</time>
      </trkpt>
      <trkpt lat="46.25691" lon="6.37784">
        <ele>669.75</ele>
        <time>2019-03-23T13:13:44.000Z</time>
      </trkpt>
      <trkpt lat="46.25681" lon="6.37804">
        <ele>670.75</ele>
        <time>2019-03-23T13:13:49.000Z</time>
      </trkpt>
      <trkpt lat="46.25671" lon="6.37824">
        <ele>671.75</ele>
        <time>2019-03-23T13:13:54.000Z</time>
      </trkpt>
      <trkpt lat="46.25661" lon="6.37844">
        <ele>673.73</ele>
        <time>2019-03-23T13:13:59.000Z</time>
      </trkpt>
      <trkpt lat="46.25652" lon="6.37864">
        <ele>674.75</ele>
        <time>2019-03-23T13:14:04.000Z</time>
      </trkpt>
      <trkpt lat="46.25643" lon="6.37884">
        <ele>675</ele>
        <time>2019-03-23T13:14:09.000Z</time>
      </trkpt>
      <trkpt lat="46.25633" lon="6.37903">
        <ele>675.98</ele>
        <time>2019-03-23T13:14:14.000Z</time>
      </trkpt>
      <trkpt lat="46.25624" lon="6.37922">
        <ele>677.94</ele>
        <time>2019-03-23T13:14:19.000Z</time>
      </trkpt>
      <trkpt lat="46.25614" lon="6.37941">
        <ele>678.75</ele>
        <time>2019-03-23T13:14:24.000Z</time>
      </trkpt>
      <trkpt lat="46.25604" lon="6.37962">
        <ele>679</ele>
        <time>2019-03-23T13:14:29.000Z</time>
      </trkpt>
      <trkpt lat="46.25594" lon="6.3798">
        <ele>680.75</ele>
        <time>2019-03-23T13:14:34.000Z</time>
      </trkpt>
      <trkpt lat="46.25585" lon="6.37998">
        <ele>681</ele>
        <time>2019-03-23T13:14:39.000Z</time>
      </trkpt>
      <trkpt lat="46.25575" lon="6.38017">
        <ele>681</ele>
        <time>2019-03-23T13:14:44.000Z</time>
      </trkpt>
      <trkpt lat="46.25566" lon="6.38036">
        <ele>681.75</ele>
        <time>2019-03-23T13:14:49.000Z</time>
      </trkpt>
      <trkpt lat="46.25556" lon="6.38055">
        <ele>682.98</ele>
        <time>2019-03-23T13:14:54.000Z</time>
      </trkpt>
      <trkpt lat="46.25546" lon="6.38075">
        <ele>683.98</ele>
        <time>2019-03-23T13:14:59.000Z</time>
      </trkpt>
      <trkpt lat="46.25536" lon="6.38093">
        <ele>685</ele>
        <time>2019-03-23T13:15:04.000Z</time>
      </trkpt>
      <trkpt lat="46.25527" lon="6.38113">
        <ele>686.73</ele>
        <time>2019-03-23T13:15:09.000Z</time>
      </trkpt>
      <trkpt lat="46.2552" lon="6.38133">
        <ele>687</ele>
        <time>2019-03-23T13:15:14.000Z</time>
      </trkpt>
      <trkpt lat="46.25515" lon="6.38155">
        <ele>688</ele>
        <time>2019-03-23T13:15:19.000Z</time>
      </trkpt>
      <trkpt lat="46.25513" lon="6.38178">
        <ele>688.99</ele>
        <time>2019-03-23T13:15:24.000Z</time>
      </trkpt>
      <trkpt lat="46.25513" lon="6.38202">
        <ele>690.98</ele>
        <time>2019-03-23T13:15:29.000Z</time>
      </trkpt>
      <trkpt lat="46.25514" lon="6.38224">
        <ele>691.98</ele>
        <time>2019-03-23T13:15:34.000Z</time>
      </trkpt>
      <trkpt lat="46.25515" lon="6.38247">
        <ele>693</ele>
        <time>2019-03-23T13:15:39.000Z</time>
      </trkpt>
      <trkpt lat="46.25516" lon="6.38271">
        <ele>693.93</ele>
        <time>2019-03-23T13:15:44.000Z</time>
      </trkpt>
      <trkpt lat="46.25517" lon="6.38294">
        <ele>694.25</ele>
        <time>2019-03-23T13:15:49.000Z</time>
      </trkpt>
      <trkpt lat="46.25518" lon="6.38317">
        <ele>695</ele>
        <time>2019-03-23T13:15:54.000Z</time>
      </trkpt>
      <trkpt lat="46.25521" lon="6.38342">
        <ele>695.75</ele>
        <time>2019-03-23T13:15:59.000Z</time>
      </trkpt>
      <trkpt lat="46.25523" lon="6.38365">
        <ele>696</ele>
        <time>2019-03-23T13:16:04.000Z</time>
      </trkpt>
      <trkpt lat="46.25524" lon="6.38389">
        <ele>697</ele>
        <time>2019-03-23T13:16:09.000Z</time>
      </trkpt>
      <trkpt lat="46.25525" lon="6.38412">
        <ele>697</ele>
        <time>2019-03-23T13:16:14.000Z</time>
      </trkpt>
      <trkpt lat="46.25526" lon="6.38436">
        <ele>698</ele>
        <time>2019-03-23T13:16:19.000Z</time>
      </trkpt>
      <trkpt lat="46.25528" lon="6.3846">
        <ele>699</ele>
        <time>2019-03-23T13:16:24.000Z</time>
      </trkpt>
      <trkpt lat="46.2553" lon="6.38483">
        <ele>699.75</ele>
        <time>2019-03-23T13:16:29.000Z</time>
      </trkpt>
      <trkpt lat="46.25532" lon="6.38506">
        <ele>700</ele>
        <time>2019-03-23T13:16:34.000Z</time>
      </trkpt>
      <trkpt lat="46.25533" lon="6.38529">
        <ele>701.75</ele>
        <time>2019-03-23T13:16:39.000Z</time>
      </trkpt>
      <trkpt lat="46.25534" lon="6.38552">
        <ele>702.98</ele>
        <time>2019-03-23T13:16:44.000Z</time>
      </trkpt>
      <trkpt lat="46.25536" lon="6.38576">
        <ele>704</ele>
        <time>2019-03-23T13:16:49.000Z</time>
      </trkpt>
      <trkpt lat="46.25534" lon="6.38598">
        <ele>704.76</ele>
        <time>2019-03-23T13:16:54.000Z</time>
      </trkpt>
      <trkpt lat="46.25527" lon="6.38618">
        <ele>706.92</ele>
        <time>2019-03-23T13:16:59.000Z</time>
      </trkpt>
      <trkpt lat="46.25535" lon="6.38637">
        <ele>707</ele>
        <time>2019-03-23T13:17:04.000Z</time>
      </trkpt>
      <trkpt lat="46.2556" lon="6.38663">
        <ele>705.07</ele>
        <time>2019-03-23T13:17:09.000Z</time>
      </trkpt>
      <trkpt lat="46.2559" lon="6.38699">
        <ele>701.08</ele>
        <time>2019-03-23T13:17:14.000Z</time>
      </trkpt>
      <trkpt lat="46.25628" lon="6.38731">
        <ele>699</ele>
        <time>2019-03-23T13:17:19.000Z</time>
      </trkpt>
      <trkpt lat="46.25672" lon="6.38701">
        <ele>692.6</ele>
        <time>2019-03-23T13:17:24.000Z</time>
      </trkpt>
      <trkpt lat="46.25726" lon="6.38691">
        <ele>687.33</ele>
        <time>2019-03-23T13:17:29.000Z</time>
      </trkpt>
      <trkpt lat="46.25783" lon="6.38699">
        <ele>682.33</ele>
        <time>2019-03-23T13:17:34.000Z</time>
      </trkpt>
      <trkpt lat="46.25843" lon="6.38705">
        <ele>678.27</ele>
        <time>2019-03-23T13:17:39.000Z</time>
      </trkpt>
      <trkpt lat="46.25905" lon="6.38693">
        <ele>673.08</ele>
        <time>2019-03-23T13:17:44.000Z</time>
      </trkpt>
      <trkpt lat="46.25961" lon="6.3872">
        <ele>667.33</ele>
        <time>2019-03-23T13:17:49.000Z</time>
      </trkpt>
      <trkpt lat="46.26015" lon="6.38757">
        <ele>663.08</ele>
        <time>2019-03-23T13:17:54.000Z</time>
      </trkpt>
      <trkpt lat="46.26062" lon="6.38779">
        <ele>659.07</ele>
        <time>2019-03-23T13:17:59.000Z</time>
      </trkpt>
      <trkpt lat="46.26084" lon="6.38848">
        <ele>656.25</ele>
        <time>2019-03-23T13:18:04.000Z</time>
      </trkpt>
      <trkpt lat="46.26106" lon="6.38905">
        <ele>653.03</ele>
        <time>2019-03-23T13:18:09.000Z</time>
      </trkpt>
      <trkpt lat="46.26143" lon="6.38893">
        <ele>649.27</ele>
        <time>2019-03-23T13:18:14.000Z</time>
      </trkpt>
      <trkpt lat="46.26176" lon="6.38855">
        <ele>645.08</ele>
        <time>2019-03-23T13:18:19.000Z</time>
      </trkpt>
      <trkpt lat="46.26206" lon="6.38853">
        <ele>642.02</ele>
        <time>2019-03-23T13:18:24.000Z</time>
      </trkpt>
      <trkpt lat="46.26239" lon="6.38867">
        <ele>640.06</ele>
        <time>2019-03-23T13:18:29.000Z</time>
      </trkpt>
      <trkpt lat="46.26275" lon="6.38869">
        <ele>637.08</ele>
        <time>2019-03-23T13:18:34.000Z</time>
      </trkpt>
      <trkpt lat="46.26301" lon="6.38906">
        <ele>636.24</ele>
        <time>2019-03-23T13:18:39.000Z</time>
      </trkpt>
      <trkpt lat="46.26327" lon="6.38942">
        <ele>636.94</ele>
        <time>2019-03-23T13:18:44.000Z</time>
      </trkpt>
      <trkpt lat="46.26349" lon="6.38981">
        <ele>636</ele>
        <time>2019-03-23T13:18:49.000Z</time>
      </trkpt>
      <trkpt lat="46.26357" lon="6.39032">
        <ele>635.95</ele>
        <time>2019-03-23T13:18:54.000Z</time>
      </trkpt>
      <trkpt lat="46.26366" lon="6.39076">
        <ele>636</ele>
        <time>2019-03-23T13:18:59.000Z</time>
      </trkpt>
      <trkpt lat="46.26383" lon="6.39106">
        <ele>636.94</ele>
        <time>2019-03-23T13:19:04.000Z</time>
      </trkpt>
      <trkpt lat="46.26405" lon="6.39119">
        <ele>636.25</ele>
        <time>2019-03-23T13:19:09.000Z</time>
      </trkpt>
      <trkpt lat="46.26428" lon="6.39091">
        <ele>633.27</ele>
        <time>2019-03-23T13:19:14.000Z</time>
      </trkpt>
      <trkpt lat="46.26456" lon="6.3905">
        <ele>630.08</ele>
        <time>2019-03-23T13:19:19.000Z</time>
      </trkpt>
      <trkpt lat="46.26485" lon="6.39027">
        <ele>628.25</ele>
        <time>2019-03-23T13:19:24.000Z</time>
      </trkpt>
      <trkpt lat="46.26508" lon="6.39053">
        <ele>628.81</ele>
        <time>2019-03-23T13:19:29.000Z</time>
      </trkpt>
      <trkpt lat="46.2653" lon="6.39077">
        <ele>629</ele>
        <time>2019-03-23T13:19:34.000Z</time>
      </trkpt>
      <trkpt lat="46.26559" lon="6.39073">
        <ele>628.25</ele>
        <time>2019-03-23T13:19:39.000Z</time>
      </trkpt>
      <trkpt lat="46.26587" lon="6.39078">
        <ele>627</ele>
        <time>2019-03-23T13:19:44.000Z</time>
      </trkpt>
      <trkpt lat="46.26605" lon="6.39106">
        <ele>628</ele>
        <time>2019-03-23T13:19:49.000Z</time>
      </trkpt>
      <trkpt lat="46.26623" lon="6.39132">
        <ele>629</ele>
        <time>2019-03-23T13:19:54.000Z</time>
      </trkpt>
      <trkpt lat="46.26642" lon="6.39159">
        <ele>629</ele>
        <time>2019-03-23T13:19:59.000Z</time>
      </trkpt>
      <trkpt lat="46.26661" lon="6.39188">
        <ele>629.94</ele>
        <time>2019-03-23T13:20:04.000Z</time>
      </trkpt>
      <trkpt lat="46.26676" lon="6.39222">
        <ele>630</ele>
        <time>2019-03-23T13:20:09.000Z</time>
      </trkpt>
      <trkpt lat="46.26689" lon="6.3926">
        <ele>629.25</ele>
        <time>2019-03-23T13:20:14.000Z</time>
      </trkpt>
      <trkpt lat="46.26704" lon="6.39305">
        <ele>628.02</ele>
        <time>2019-03-23T13:20:19.000Z</time>
      </trkpt>
      <trkpt lat="46.2672" lon="6.39354">
        <ele>627</ele>
        <time>2019-03-23T13:20:24.000Z</time>
      </trkpt>
      <trkpt lat="46.26737" lon="6.39401">
        <ele>626.25</ele>
        <time>2019-03-23T13:20:29.000Z</time>
      </trkpt>
      <trkpt lat="46.26756" lon="6.39443">
        <ele>626</ele>
        <time>2019-03-23T13:20:34.000Z</time>
      </trkpt>
      <trkpt lat="46.2677" lon="6.39487">
        <ele>626.75</ele>
        <time>2019-03-23T13:20:39.000Z</time>
      </trkpt>
      <trkpt lat="46.2678" lon="6.39529">
        <ele>627</ele>
        <time>2019-03-23T13:20:44.000Z</time>
      </trkpt>
      <trkpt lat="46.26787" lon="6.39569">
        <ele>628</ele>
        <time>2019-03-23T13:20:49.000Z</time>
      </trkpt>
      <trkpt lat="46.26797" lon="6.39607">
        <ele>628</ele>
        <time>2019-03-23T13:20:54.000Z</time>
      </trkpt>
      <trkpt lat="46.26808" lon="6.39645">
        <ele>628</ele>
        <time>2019-03-23T13:20:59.000Z</time>
      </trkpt>
      <trkpt lat="46.26821" lon="6.39681">
        <ele>628</ele>
        <time>2019-03-23T13:21:04.000Z</time>
      </trkpt>
      <trkpt lat="46.26835" lon="6.39718">
        <ele>628</ele>
        <time>2019-03-23T13:21:09.000Z</time>
      </trkpt>
      <trkpt lat="46.2685" lon="6.39756">
        <ele>628</ele>
        <time>2019-03-23T13:21:14.000Z</time>
      </trkpt>
      <trkpt lat="46.26867" lon="6.39791">
        <ele>628.99</ele>
        <time>2019-03-23T13:21:19.000Z</time>
      </trkpt>
      <trkpt lat="46.2689" lon="6.3982">
        <ele>628.25</ele>
        <time>2019-03-23T13:21:24.000Z</time>
      </trkpt>
      <trkpt lat="46.26922" lon="6.39839">
        <ele>626.25</ele>
        <time>2019-03-23T13:21:29.000Z</time>
      </trkpt>
      <trkpt lat="46.26953" lon="6.39869">
        <ele>625.02</ele>
        <time>2019-03-23T13:21:34.000Z</time>
      </trkpt>
      <trkpt lat="46.26972" lon="6.39912">
        <ele>625</ele>
        <time>2019-03-23T13:21:39.000Z</time>
      </trkpt>
      <trkpt lat="46.26989" lon="6.39956">
        <ele>626</ele>
        <time>2019-03-23T13:21:44.000Z</time>
      </trkpt>
      <trkpt lat="46.27005" lon="6.39997">
        <ele>626</ele>
        <time>2019-03-23T13:21:49.000Z</time>
      </trkpt>
      <trkpt lat="46.2702" lon="6.40037">
        <ele>625.02</ele>
        <time>2019-03-23T13:21:54.000Z</time>
      </trkpt>
      <trkpt lat="46.27036" lon="6.40077">
        <ele>625.01</ele>
        <time>2019-03-23T13:21:59.000Z</time>
      </trkpt>
      <trkpt lat="46.27052" lon="6.40116">
        <ele>625.98</ele>
        <time>2019-03-23T13:22:04.000Z</time>
      </trkpt>
      <trkpt lat="46.27067" lon="6.40156">
        <ele>625.99</ele>
        <time>2019-03-23T13:22:09.000Z</time>
      </trkpt>
      <trkpt lat="46.27082" lon="6.40195">
        <ele>626</ele>
        <time>2019-03-23T13:22:14.000Z</time>
      </trkpt>
      <trkpt lat="46.27097" lon="6.40233">
        <ele>626.94</ele>
        <time>2019-03-23T13:22:19.000Z</time>
      </trkpt>
      <trkpt lat="46.27111" lon="6.40269">
        <ele>627</ele>
        <time>2019-03-23T13:22:24.000Z</time>
      </trkpt>
      <trkpt lat="46.27126" lon="6.40303">
        <ele>627</ele>
        <time>2019-03-23T13:22:29.000Z</time>
      </trkpt>
      <trkpt lat="46.27142" lon="6.40338">
        <ele>627</ele>
        <time>2019-03-23T13:22:34.000Z</time>
      </trkpt>
      <trkpt lat="46.27159" lon="6.40375">
        <ele>627</ele>
        <time>2019-03-23T13:22:39.000Z</time>
      </trkpt>
      <trkpt lat="46.27179" lon="6.40414">
        <ele>626</ele>
        <time>2019-03-23T13:22:44.000Z</time>
      </trkpt>
      <trkpt lat="46.27202" lon="6.40455">
        <ele>625</ele>
        <time>2019-03-23T13:22:49.000Z</time>
      </trkpt>
      <trkpt lat="46.27222" lon="6.40499">
        <ele>624.25</ele>
        <time>2019-03-23T13:22:54.000Z</time>
      </trkpt>
      <trkpt lat="46.27238" lon="6.40543">
        <ele>624.94</ele>
        <time>2019-03-23T13:22:59.000Z</time>
      </trkpt>
      <trkpt lat="46.27255" lon="6.40583">
        <ele>625</ele>
        <time>2019-03-23T13:23:04.000Z</time>
      </trkpt>
      <trkpt lat="46.27274" lon="6.40618">
        <ele>625.98</ele>
        <time>2019-03-23T13:23:09.000Z</time>
      </trkpt>
      <trkpt lat="46.27291" lon="6.4065">
        <ele>626.98</ele>
        <time>2019-03-23T13:23:14.000Z</time>
      </trkpt>
      <trkpt lat="46.27307" lon="6.4068">
        <ele>627</ele>
        <time>2019-03-23T13:23:19.000Z</time>
      </trkpt>
      <trkpt lat="46.27319" lon="6.40713">
        <ele>627.75</ele>
        <time>2019-03-23T13:23:24.000Z</time>
      </trkpt>
      <trkpt lat="46.27326" lon="6.40745">
        <ele>628.94</ele>
        <time>2019-03-23T13:23:29.000Z</time>
      </trkpt>
      <trkpt lat="46.27334" lon="6.40779">
        <ele>629</ele>
        <time>2019-03-23T13:23:34.000Z</time>
      </trkpt>
      <trkpt lat="46.27342" lon="6.4081">
        <ele>629.94</ele>
        <time>2019-03-23T13:23:39.000Z</time>
      </trkpt>
      <trkpt lat="46.27352" lon="6.40841">
        <ele>630.75</ele>
        <time>2019-03-23T13:23:44.000Z</time>
      </trkpt>
      <trkpt lat="46.27364" lon="6.40871">
        <ele>631</ele>
        <time>2019-03-23T13:23:49.000Z</time>
      </trkpt>
      <trkpt lat="46.27375" lon="6.40899">
        <ele>631</ele>
        <time>2019-03-23T13:23:54.000Z</time>
      </trkpt>
      <trkpt lat="46.27386" lon="6.40929">
        <ele>632</ele>
        <time>2019-03-23T13:23:59.000Z</time>
      </trkpt>
      <trkpt lat="46.27398" lon="6.40955">
        <ele>632.75</ele>
        <time>2019-03-23T13:24:04.000Z</time>
      </trkpt>
      <trkpt lat="46.27408" lon="6.40985">
        <ele>633</ele>
        <time>2019-03-23T13:24:09.000Z</time>
      </trkpt>
      <trkpt lat="46.27419" lon="6.41014">
        <ele>633</ele>
        <time>2019-03-23T13:24:14.000Z</time>
      </trkpt>
      <trkpt lat="46.27432" lon="6.41046">
        <ele>633</ele>
        <time>2019-03-23T13:24:19.000Z</time>
      </trkpt>
      <trkpt lat="46.27443" lon="6.4108">
        <ele>633</ele>
        <time>2019-03-23T13:24:24.000Z</time>
      </trkpt>
      <trkpt lat="46.27457" lon="6.41112">
        <ele>633</ele>
        <time>2019-03-23T13:24:29.000Z</time>
      </trkpt>
      <trkpt lat="46.27472" lon="6.4114">
        <ele>633</ele>
        <time>2019-03-23T13:24:34.000Z</time>
      </trkpt>
      <trkpt lat="46.27493" lon="6.41138">
        <ele>632.02</ele>
        <time>2019-03-23T13:24:39.000Z</time>
      </trkpt>
      <trkpt lat="46.27518" lon="6.41125">
        <ele>631.06</ele>
        <time>2019-03-23T13:24:44.000Z</time>
      </trkpt>
      <trkpt lat="46.2754" lon="6.41138">
        <ele>631</ele>
        <time>2019-03-23T13:24:49.000Z</time>
      </trkpt>
      <trkpt lat="46.27558" lon="6.41168">
        <ele>631.75</ele>
        <time>2019-03-23T13:24:54.000Z</time>
      </trkpt>
      <trkpt lat="46.27577" lon="6.412">
        <ele>632</ele>
        <time>2019-03-23T13:24:59.000Z</time>
      </trkpt>
      <trkpt lat="46.27593" lon="6.41231">
        <ele>631</ele>
        <time>2019-03-23T13:25:04.000Z</time>
      </trkpt>
      <trkpt lat="46.27609" lon="6.41258">
        <ele>631</ele>
        <time>2019-03-23T13:25:09.000Z</time>
      </trkpt>
      <trkpt lat="46.27618" lon="6.41285">
        <ele>630.25</ele>
        <time>2019-03-23T13:25:14.000Z</time>
      </trkpt>
      <trkpt lat="46.27621" lon="6.4132">
        <ele>628.25</ele>
        <time>2019-03-23T13:25:19.000Z</time>
      </trkpt>
      <trkpt lat="46.27629" lon="6.41368">
        <ele>626.08</ele>
        <time>2019-03-23T13:25:24.000Z</time>
      </trkpt>
      <trkpt lat="46.27664" lon="6.41397">
        <ele>622.33</ele>
        <time>2019-03-23T13:25:29.000Z</time>
      </trkpt>
      <trkpt lat="46.27708" lon="6.41401">
        <ele>621</ele>
        <time>2019-03-23T13:25:34.000Z</time>
      </trkpt>
      <trkpt lat="46.27739" lon="6.41434">
        <ele>621.75</ele>
        <time>2019-03-23T13:25:39.000Z</time>
      </trkpt>
      <trkpt lat="46.2775" lon="6.41474">
        <ele>623.75</ele>
        <time>2019-03-23T13:25:44.000Z</time>
      </trkpt>
      <trkpt lat="46.27755" lon="6.415">
        <ele>624.98</ele>
        <time>2019-03-23T13:25:49.000Z</time>
      </trkpt>
      <trkpt lat="46.27761" lon="6.41523">
        <ele>625.94</ele>
        <time>2019-03-23T13:25:54.000Z</time>
      </trkpt>
      <trkpt lat="46.27769" lon="6.41542">
        <ele>626.75</ele>
        <time>2019-03-23T13:25:59.000Z</time>
      </trkpt>
      <trkpt lat="46.27778" lon="6.4156">
        <ele>627.94</ele>
        <time>2019-03-23T13:26:04.000Z</time>
      </trkpt>
      <trkpt lat="46.2779" lon="6.41577">
        <ele>629.75</ele>
        <time>2019-03-23T13:26:09.000Z</time>
      </trkpt>
      <trkpt lat="46.27802" lon="6.41597">
        <ele>630</ele>
        <time>2019-03-23T13:26:14.000Z</time>
      </trkpt>
      <trkpt lat="46.27815" lon="6.41617">
        <ele>630</ele>
        <time>2019-03-23T13:26:19.000Z</time>
      </trkpt>
      <trkpt lat="46.27829" lon="6.41638">
        <ele>630</ele>
        <time>2019-03-23T13:26:24.000Z</time>
      </trkpt>
      <trkpt lat="46.27843" lon="6.41661">
        <ele>630</ele>
        <time>2019-03-23T13:26:29.000Z</time>
      </trkpt>
      <trkpt lat="46.27849" lon="6.41693">
        <ele>630</ele>
        <time>2019-03-23T13:26:34.000Z</time>
      </trkpt>
      <trkpt lat="46.27843" lon="6.4173">
        <ele>630.94</ele>
        <time>2019-03-23T13:26:39.000Z</time>
      </trkpt>
      <trkpt lat="46.27831" lon="6.41769">
        <ele>629.25</ele>
        <time>2019-03-23T13:26:44.000Z</time>
      </trkpt>
      <trkpt lat="46.27818" lon="6.41813">
        <ele>629</ele>
        <time>2019-03-23T13:26:49.000Z</time>
      </trkpt>
      <trkpt lat="46.27804" lon="6.41855">
        <ele>629.75</ele>
        <time>2019-03-23T13:26:54.000Z</time>
      </trkpt>
      <trkpt lat="46.2779" lon="6.41899">
        <ele>629</ele>
        <time>2019-03-23T13:26:59.000Z</time>
      </trkpt>
      <trkpt lat="46.27777" lon="6.41943">
        <ele>627.27</ele>
        <time>2019-03-23T13:27:04.000Z</time>
      </trkpt>
      <trkpt lat="46.27767" lon="6.41983">
        <ele>626</ele>
        <time>2019-03-23T13:27:09.000Z</time>
      </trkpt>
      <trkpt lat="46.2776" lon="6.42023">
        <ele>627</ele>
        <time>2019-03-23T13:27:14.000Z</time>
      </trkpt>
      <trkpt lat="46.2776" lon="6.42065">
        <ele>627.75</ele>
        <time>2019-03-23T13:27:19.000Z</time>
      </trkpt>
      <trkpt lat="46.27764" lon="6.42105">
        <ele>628</ele>
        <time>2019-03-23T13:27:24.000Z</time>
      </trkpt>
      <trkpt lat="46.27767" lon="6.42141">
        <ele>629.75</ele>
        <time>2019-03-23T13:27:29.000Z</time>
      </trkpt>
      <trkpt lat="46.27773" lon="6.42177">
        <ele>629.94</ele>
        <time>2019-03-23T13:27:34.000Z</time>
      </trkpt>
      <trkpt lat="46.27783" lon="6.4221">
        <ele>630.94</ele>
        <time>2019-03-23T13:27:39.000Z</time>
      </trkpt>
      <trkpt lat="46.27796" lon="6.42241">
        <ele>631.98</ele>
        <time>2019-03-23T13:27:44.000Z</time>
      </trkpt>
      <trkpt lat="46.27809" lon="6.42266">
        <ele>632</ele>
        <time>2019-03-23T13:27:49.000Z</time>
      </trkpt>
      <trkpt lat="46.2782" lon="6.42289">
        <ele>633</ele>
        <time>2019-03-23T13:27:54.000Z</time>
      </trkpt>
      <trkpt lat="46.2783" lon="6.4231">
        <ele>633.94</ele>
        <time>2019-03-23T13:27:59.000Z</time>
      </trkpt>
      <trkpt lat="46.27839" lon="6.42332">
        <ele>635</ele>
        <time>2019-03-23T13:28:04.000Z</time>
      </trkpt>
      <trkpt lat="46.27848" lon="6.42352">
        <ele>636.98</ele>
        <time>2019-03-23T13:28:09.000Z</time>
      </trkpt>
      <trkpt lat="46.27856" lon="6.42373">
        <ele>638.75</ele>
        <time>2019-03-23T13:28:14.000Z</time>
      </trkpt>
      <trkpt lat="46.27865" lon="6.42395">
        <ele>639</ele>
        <time>2019-03-23T13:28:19.000Z</time>
      </trkpt>
      <trkpt lat="46.27871" lon="6.42418">
        <ele>639</ele>
        <time>2019-03-23T13:28:24.000Z</time>
      </trkpt>
      <trkpt lat="46.27877" lon="6.42442">
        <ele>640</ele>
        <time>2019-03-23T13:28:29.000Z</time>
      </trkpt>
      <trkpt lat="46.27881" lon="6.42466">
        <ele>640.98</ele>
        <time>2019-03-23T13:28:34.000Z</time>
      </trkpt>
      <trkpt lat="46.27884" lon="6.42489">
        <ele>641.98</ele>
        <time>2019-03-23T13:28:39.000Z</time>
      </trkpt>
      <trkpt lat="46.27888" lon="6.42513">
        <ele>642.98</ele>
        <time>2019-03-23T13:28:44.000Z</time>
      </trkpt>
      <trkpt lat="46.27891" lon="6.42536">
        <ele>644.75</ele>
        <time>2019-03-23T13:28:49.000Z</time>
      </trkpt>
      <trkpt lat="46.27896" lon="6.42559">
        <ele>645</ele>
        <time>2019-03-23T13:28:54.000Z</time>
      </trkpt>
      <trkpt lat="46.27902" lon="6.42581">
        <ele>645.98</ele>
        <time>2019-03-23T13:28:59.000Z</time>
      </trkpt>
      <trkpt lat="46.27909" lon="6.42601">
        <ele>646</ele>
        <time>2019-03-23T13:29:04.000Z</time>
      </trkpt>
      <trkpt lat="46.27916" lon="6.4262">
        <ele>646.98</ele>
        <time>2019-03-23T13:29:09.000Z</time>
      </trkpt>
      <trkpt lat="46.27923" lon="6.4264">
        <ele>648</ele>
        <time>2019-03-23T13:29:14.000Z</time>
      </trkpt>
      <trkpt lat="46.2793" lon="6.42659">
        <ele>648.98</ele>
        <time>2019-03-23T13:29:19.000Z</time>
      </trkpt>
      <trkpt lat="46.27937" lon="6.42677">
        <ele>649.98</ele>
        <time>2019-03-23T13:29:24.000Z</time>
      </trkpt>
      <trkpt lat="46.27944" lon="6.42696">
        <ele>651.93</ele>
        <time>2019-03-23T13:29:29.000Z</time>
      </trkpt>
      <trkpt lat="46.27949" lon="6.42716">
        <ele>652.75</ele>
        <time>2019-03-23T13:29:34.000Z</time>
      </trkpt>
      <trkpt lat="46.27956" lon="6.42734">
        <ele>653.94</ele>
        <time>2019-03-23T13:29:39.000Z</time>
      </trkpt>
      <trkpt lat="46.27963" lon="6.42753">
        <ele>654.75</ele>
        <time>2019-03-23T13:29:44.000Z</time>
      </trkpt>
      <trkpt lat="46.27971" lon="6.4277">
        <ele>655.94</ele>
        <time>2019-03-23T13:29:49.000Z</time>
      </trkpt>
      <trkpt lat="46.27981" lon="6.42785">
        <ele>656.75</ele>
        <time>2019-03-23T13:29:54.000Z</time>
      </trkpt>
      <trkpt lat="46.27993" lon="6.42797">
        <ele>657.94</ele>
        <time>2019-03-23T13:29:59.000Z</time>
      </trkpt>
      <trkpt lat="46.28005" lon="6.42806">
        <ele>658</ele>
        <time>2019-03-23T13:30:04.000Z</time>
      </trkpt>
      <trkpt lat="46.28018" lon="6.42814">
        <ele>658.94</ele>
        <time>2019-03-23T13:30:09.000Z</time>
      </trkpt>
      <trkpt lat="46.28033" lon="6.42825">
        <ele>659</ele>
        <time>2019-03-23T13:30:14.000Z</time>
      </trkpt>
      <trkpt lat="46.28051" lon="6.42839">
        <ele>658</ele>
        <time>2019-03-23T13:30:19.000Z</time>
      </trkpt>
      <trkpt lat="46.28068" lon="6.4286">
        <ele>658</ele>
        <time>2019-03-23T13:30:24.000Z</time>
      </trkpt>
      <trkpt lat="46.28083" lon="6.42887">
        <ele>658.19</ele>
        <time>2019-03-23T13:30:29.000Z</time>
      </trkpt>
      <trkpt lat="46.28098" lon="6.42914">
        <ele>658.98</ele>
        <time>2019-03-23T13:30:34.000Z</time>
      </trkpt>
      <trkpt lat="46.28111" lon="6.42942">
        <ele>659.94</ele>
        <time>2019-03-23T13:30:39.000Z</time>
      </trkpt>
      <trkpt lat="46.28121" lon="6.4297">
        <ele>660.98</ele>
        <time>2019-03-23T13:30:44.000Z</time>
      </trkpt>
      <trkpt lat="46.28132" lon="6.42997">
        <ele>661</ele>
        <time>2019-03-23T13:30:49.000Z</time>
      </trkpt>
      <trkpt lat="46.28144" lon="6.43023">
        <ele>661</ele>
        <time>2019-03-23T13:30:54.000Z</time>
      </trkpt>
      <trkpt lat="46.28158" lon="6.43052">
        <ele>661</ele>
        <time>2019-03-23T13:30:59.000Z</time>
      </trkpt>
      <trkpt lat="46.28176" lon="6.43081">
        <ele>660</ele>
        <time>2019-03-23T13:31:04.000Z</time>
      </trkpt>
      <trkpt lat="46.28197" lon="6.43114">
        <ele>658.25</ele>
        <time>2019-03-23T13:31:09.000Z</time>
      </trkpt>
      <trkpt lat="46.28217" lon="6.43153">
        <ele>658</ele>
        <time>2019-03-23T13:31:14.000Z</time>
      </trkpt>
      <trkpt lat="46.28236" lon="6.43193">
        <ele>657.02</ele>
        <time>2019-03-23T13:31:19.000Z</time>
      </trkpt>
      <trkpt lat="46.28254" lon="6.43234">
        <ele>657</ele>
        <time>2019-03-23T13:31:24.000Z</time>
      </trkpt>
      <trkpt lat="46.28266" lon="6.43276">
        <ele>657</ele>
        <time>2019-03-23T13:31:29.000Z</time>
      </trkpt>
      <trkpt lat="46.28274" lon="6.43317">
        <ele>657</ele>
        <time>2019-03-23T13:31:34.000Z</time>
      </trkpt>
      <trkpt lat="46.28277" lon="6.43359">
        <ele>657</ele>
        <time>2019-03-23T13:31:39.000Z</time>
      </trkpt>
      <trkpt lat="46.28277" lon="6.43399">
        <ele>657.98</ele>
        <time>2019-03-23T13:31:44.000Z</time>
      </trkpt>
      <trkpt lat="46.28286" lon="6.43434">
        <ele>657.25</ele>
        <time>2019-03-23T13:31:49.000Z</time>
      </trkpt>
      <trkpt lat="46.28296" lon="6.43471">
        <ele>657.75</ele>
        <time>2019-03-23T13:31:54.000Z</time>
      </trkpt>
      <trkpt lat="46.28305" lon="6.43506">
        <ele>658.94</ele>
        <time>2019-03-23T13:31:59.000Z</time>
      </trkpt>
      <trkpt lat="46.28314" lon="6.43541">
        <ele>658.99</ele>
        <time>2019-03-23T13:32:04.000Z</time>
      </trkpt>
      <trkpt lat="46.28324" lon="6.43577">
        <ele>658</ele>
        <time>2019-03-23T13:32:09.000Z</time>
      </trkpt>
      <trkpt lat="46.28334" lon="6.43619">
        <ele>658.01</ele>
        <time>2019-03-23T13:32:14.000Z</time>
      </trkpt>
      <trkpt lat="46.28344" lon="6.43659">
        <ele>658</ele>
        <time>2019-03-23T13:32:19.000Z</time>
      </trkpt>
      <trkpt lat="46.28356" lon="6.43701">
        <ele>657</ele>
        <time>2019-03-23T13:32:24.000Z</time>
      </trkpt>
      <trkpt lat="46.28368" lon="6.43744">
        <ele>658.93</ele>
        <time>2019-03-23T13:32:29.000Z</time>
      </trkpt>
      <trkpt lat="46.2838" lon="6.4378">
        <ele>660</ele>
        <time>2019-03-23T13:32:34.000Z</time>
      </trkpt>
      <trkpt lat="46.2839" lon="6.43811">
        <ele>660.25</ele>
        <time>2019-03-23T13:32:39.000Z</time>
      </trkpt>
      <trkpt lat="46.28399" lon="6.4384">
        <ele>661.94</ele>
        <time>2019-03-23T13:32:44.000Z</time>
      </trkpt>
      <trkpt lat="46.2841" lon="6.43869">
        <ele>662.98</ele>
        <time>2019-03-23T13:32:49.000Z</time>
      </trkpt>
      <trkpt lat="46.28421" lon="6.43897">
        <ele>663</ele>
        <time>2019-03-23T13:32:54.000Z</time>
      </trkpt>
      <trkpt lat="46.28431" lon="6.43929">
        <ele>663.98</ele>
        <time>2019-03-23T13:32:59.000Z</time>
      </trkpt>
      <trkpt lat="46.28441" lon="6.43959">
        <ele>664</ele>
        <time>2019-03-23T13:33:04.000Z</time>
      </trkpt>
      <trkpt lat="46.28451" lon="6.43988">
        <ele>664.95</ele>
        <time>2019-03-23T13:33:09.000Z</time>
      </trkpt>
      <trkpt lat="46.28467" lon="6.4401">
        <ele>664.81</ele>
        <time>2019-03-23T13:33:14.000Z</time>
      </trkpt>
      <trkpt lat="46.28478" lon="6.44039">
        <ele>665</ele>
        <time>2019-03-23T13:33:19.000Z</time>
      </trkpt>
      <trkpt lat="46.28489" lon="6.44068">
        <ele>666.75</ele>
        <time>2019-03-23T13:33:24.000Z</time>
      </trkpt>
      <trkpt lat="46.28497" lon="6.44098">
        <ele>666.25</ele>
        <time>2019-03-23T13:33:29.000Z</time>
      </trkpt>
      <trkpt lat="46.28499" lon="6.44124">
        <ele>666</ele>
        <time>2019-03-23T13:33:34.000Z</time>
      </trkpt>
      <trkpt lat="46.285" lon="6.44147">
        <ele>665</ele>
        <time>2019-03-23T13:33:39.000Z</time>
      </trkpt>
      <trkpt lat="46.28502" lon="6.44178">
        <ele>665.25</ele>
        <time>2019-03-23T13:33:44.000Z</time>
      </trkpt>
      <trkpt lat="46.28506" lon="6.44213">
        <ele>665</ele>
        <time>2019-03-23T13:33:49.000Z</time>
      </trkpt>
      <trkpt lat="46.28513" lon="6.44247">
        <ele>664.05</ele>
        <time>2019-03-23T13:33:54.000Z</time>
      </trkpt>
      <trkpt lat="46.28525" lon="6.44283">
        <ele>663.05</ele>
        <time>2019-03-23T13:33:59.000Z</time>
      </trkpt>
      <trkpt lat="46.28537" lon="6.44319">
        <ele>661.27</ele>
        <time>2019-03-23T13:34:04.000Z</time>
      </trkpt>
      <trkpt lat="46.2855" lon="6.44356">
        <ele>661.94</ele>
        <time>2019-03-23T13:34:09.000Z</time>
      </trkpt>
      <trkpt lat="46.28565" lon="6.44388">
        <ele>662</ele>
        <time>2019-03-23T13:34:14.000Z</time>
      </trkpt>
      <trkpt lat="46.28581" lon="6.44417">
        <ele>662</ele>
        <time>2019-03-23T13:34:19.000Z</time>
      </trkpt>
      <trkpt lat="46.28599" lon="6.44446">
        <ele>661.25</ele>
        <time>2019-03-23T13:34:24.000Z</time>
      </trkpt>
      <trkpt lat="46.28616" lon="6.44476">
        <ele>662</ele>
        <time>2019-03-23T13:34:29.000Z</time>
      </trkpt>
      <trkpt lat="46.28633" lon="6.44505">
        <ele>662</ele>
        <time>2019-03-23T13:34:34.000Z</time>
      </trkpt>
      <trkpt lat="46.28651" lon="6.44534">
        <ele>662</ele>
        <time>2019-03-23T13:34:39.000Z</time>
      </trkpt>
      <trkpt lat="46.28668" lon="6.44564">
        <ele>662</ele>
        <time>2019-03-23T13:34:44.000Z</time>
      </trkpt>
      <trkpt lat="46.28685" lon="6.44593">
        <ele>662</ele>
        <time>2019-03-23T13:34:49.000Z</time>
      </trkpt>
      <trkpt lat="46.28703" lon="6.44624">
        <ele>662.94</ele>
        <time>2019-03-23T13:34:54.000Z</time>
      </trkpt>
      <trkpt lat="46.28722" lon="6.4465">
        <ele>663</ele>
        <time>2019-03-23T13:34:59.000Z</time>
      </trkpt>
      <trkpt lat="46.28748" lon="6.4467">
        <ele>659.08</ele>
        <time>2019-03-23T13:35:04.000Z</time>
      </trkpt>
      <trkpt lat="46.28772" lon="6.44683">
        <ele>659.25</ele>
        <time>2019-03-23T13:35:09.000Z</time>
      </trkpt>
      <trkpt lat="46.28798" lon="6.44699">
        <ele>658.01</ele>
        <time>2019-03-23T13:35:14.000Z</time>
      </trkpt>
      <trkpt lat="46.28821" lon="6.44712">
        <ele>660.68</ele>
        <time>2019-03-23T13:35:19.000Z</time>
      </trkpt>
      <trkpt lat="46.28837" lon="6.44719">
        <ele>660</ele>
        <time>2019-03-23T13:35:24.000Z</time>
      </trkpt>
      <trkpt lat="46.28853" lon="6.44725">
        <ele>661.78</ele>
        <time>2019-03-23T13:35:29.000Z</time>
      </trkpt>
      <trkpt lat="46.28866" lon="6.44733">
        <ele>662.98</ele>
        <time>2019-03-23T13:35:34.000Z</time>
      </trkpt>
      <trkpt lat="46.28879" lon="6.44743">
        <ele>664</ele>
        <time>2019-03-23T13:35:39.000Z</time>
      </trkpt>
      <trkpt lat="46.28891" lon="6.44754">
        <ele>664.19</ele>
        <time>2019-03-23T13:35:44.000Z</time>
      </trkpt>
      <trkpt lat="46.28902" lon="6.44763">
        <ele>665</ele>
        <time>2019-03-23T13:35:49.000Z</time>
      </trkpt>
      <trkpt lat="46.28913" lon="6.44773">
        <ele>666.94</ele>
        <time>2019-03-23T13:35:54.000Z</time>
      </trkpt>
      <trkpt lat="46.28924" lon="6.44784">
        <ele>668</ele>
        <time>2019-03-23T13:35:59.000Z</time>
      </trkpt>
      <trkpt lat="46.28934" lon="6.44795">
        <ele>669</ele>
        <time>2019-03-23T13:36:04.000Z</time>
      </trkpt>
      <trkpt lat="46.28943" lon="6.44808">
        <ele>670.73</ele>
        <time>2019-03-23T13:36:09.000Z</time>
      </trkpt>
      <trkpt lat="46.28953" lon="6.44821">
        <ele>672.75</ele>
        <time>2019-03-23T13:36:14.000Z</time>
      </trkpt>
      <trkpt lat="46.28961" lon="6.44837">
        <ele>672.25</ele>
        <time>2019-03-23T13:36:19.000Z</time>
      </trkpt>
      <trkpt lat="46.2897" lon="6.44857">
        <ele>673</ele>
        <time>2019-03-23T13:36:24.000Z</time>
      </trkpt>
      <trkpt lat="46.28981" lon="6.44877">
        <ele>674</ele>
        <time>2019-03-23T13:36:29.000Z</time>
      </trkpt>
      <trkpt lat="46.28992" lon="6.44897">
        <ele>674.94</ele>
        <time>2019-03-23T13:36:34.000Z</time>
      </trkpt>
      <trkpt lat="46.29004" lon="6.44921">
        <ele>673.25</ele>
        <time>2019-03-23T13:36:39.000Z</time>
      </trkpt>
      <trkpt lat="46.29025" lon="6.44932">
        <ele>670.32</ele>
        <time>2019-03-23T13:36:44.000Z</time>
      </trkpt>
      <trkpt lat="46.29044" lon="6.44916">
        <ele>668.07</ele>
        <time>2019-03-23T13:36:49.000Z</time>
      </trkpt>
      <trkpt lat="46.29053" lon="6.44935">
        <ele>667.19</ele>
        <time>2019-03-23T13:36:54.000Z</time>
      </trkpt>
      <trkpt lat="46.2906" lon="6.44959">
        <ele>668.98</ele>
        <time>2019-03-23T13:36:59.000Z</time>
      </trkpt>
      <trkpt lat="46.29073" lon="6.44977">
        <ele>669.95</ele>
        <time>2019-03-23T13:37:04.000Z</time>
      </trkpt>
      <trkpt lat="46.29085" lon="6.44994">
        <ele>670.98</ele>
        <time>2019-03-23T13:37:09.000Z</time>
      </trkpt>
      <trkpt lat="46.29099" lon="6.4501">
        <ele>670.99</ele>
        <time>2019-03-23T13:37:14.000Z</time>
      </trkpt>
      <trkpt lat="46.29114" lon="6.45026">
        <ele>671.98</ele>
        <time>2019-03-23T13:37:19.000Z</time>
      </trkpt>
      <trkpt lat="46.29128" lon="6.45043">
        <ele>672</ele>
        <time>2019-03-23T13:37:24.000Z</time>
      </trkpt>
      <trkpt lat="46.29144" lon="6.4506">
        <ele>671.82</ele>
        <time>2019-03-23T13:37:29.000Z</time>
      </trkpt>
      <trkpt lat="46.29164" lon="6.45063">
        <ele>672</ele>
        <time>2019-03-23T13:37:34.000Z</time>
      </trkpt>
      <trkpt lat="46.29182" lon="6.45069">
        <ele>672.99</ele>
        <time>2019-03-23T13:37:39.000Z</time>
      </trkpt>
      <trkpt lat="46.29179" lon="6.45093">
        <ele>674.94</ele>
        <time>2019-03-23T13:37:44.000Z</time>
      </trkpt>
      <trkpt lat="46.29167" lon="6.45111">
        <ele>675.98</ele>
        <time>2019-03-23T13:37:49.000Z</time>
      </trkpt>
      <trkpt lat="46.29155" lon="6.45131">
        <ele>676</ele>
        <time>2019-03-23T13:37:54.000Z</time>
      </trkpt>
      <trkpt lat="46.29144" lon="6.45151">
        <ele>677</ele>
        <time>2019-03-23T13:37:59.000Z</time>
      </trkpt>
      <trkpt lat="46.2913" lon="6.4517">
        <ele>677</ele>
        <time>2019-03-23T13:38:04.000Z</time>
      </trkpt>
      <trkpt lat="46.29115" lon="6.45193">
        <ele>677</ele>
        <time>2019-03-23T13:38:09.000Z</time>
      </trkpt>
      <trkpt lat="46.29103" lon="6.45213">
        <ele>677</ele>
        <time>2019-03-23T13:38:14.000Z</time>
      </trkpt>
      <trkpt lat="46.29105" lon="6.45228">
        <ele>676.06</ele>
        <time>2019-03-23T13:38:19.000Z</time>
      </trkpt>
      <trkpt lat="46.29116" lon="6.45246">
        <ele>677</ele>
        <time>2019-03-23T13:38:24.000Z</time>
      </trkpt>
      <trkpt lat="46.29129" lon="6.45268">
        <ele>677.81</ele>
        <time>2019-03-23T13:38:29.000Z</time>
      </trkpt>
      <trkpt lat="46.29141" lon="6.4529">
        <ele>678</ele>
        <time>2019-03-23T13:38:34.000Z</time>
      </trkpt>
      <trkpt lat="46.29153" lon="6.45312">
        <ele>679.75</ele>
        <time>2019-03-23T13:38:39.000Z</time>
      </trkpt>
      <trkpt lat="46.29164" lon="6.45336">
        <ele>680.98</ele>
        <time>2019-03-23T13:38:44.000Z</time>
      </trkpt>
      <trkpt lat="46.29171" lon="6.45357">
        <ele>682</ele>
        <time>2019-03-23T13:38:49.000Z</time>
      </trkpt>
      <trkpt lat="46.29176" lon="6.45381">
        <ele>683.93</ele>
        <time>2019-03-23T13:38:54.000Z</time>
      </trkpt>
      <trkpt lat="46.29178" lon="6.45403">
        <ele>685</ele>
        <time>2019-03-23T13:38:59.000Z</time>
      </trkpt>
      <trkpt lat="46.29175" lon="6.45429">
        <ele>685.05</ele>
        <time>2019-03-23T13:39:04.000Z</time>
      </trkpt>
      <trkpt lat="46.29164" lon="6.45454">
        <ele>685</ele>
        <time>2019-03-23T13:39:09.000Z</time>
      </trkpt>
      <trkpt lat="46.29153" lon="6.45479">
        <ele>685.95</ele>
        <time>2019-03-23T13:39:14.000Z</time>
      </trkpt>
      <trkpt lat="46.29148" lon="6.45506">
        <ele>686</ele>
        <time>2019-03-23T13:39:19.000Z</time>
      </trkpt>
      <trkpt lat="46.29153" lon="6.45531">
        <ele>686.95</ele>
        <time>2019-03-23T13:39:24.000Z</time>
      </trkpt>
      <trkpt lat="46.29169" lon="6.45548">
        <ele>686.06</ele>
        <time>2019-03-23T13:39:29.000Z</time>
      </trkpt>
      <trkpt lat="46.29191" lon="6.45559">
        <ele>685</ele>
        <time>2019-03-23T13:39:34.000Z</time>
      </trkpt>
      <trkpt lat="46.29214" lon="6.45571">
        <ele>684</ele>
        <time>2019-03-23T13:39:39.000Z</time>
      </trkpt>
      <trkpt lat="46.29239" lon="6.45585">
        <ele>684</ele>
        <time>2019-03-23T13:39:44.000Z</time>
      </trkpt>
      <trkpt lat="46.2926" lon="6.45609">
        <ele>684</ele>
        <time>2019-03-23T13:39:49.000Z</time>
      </trkpt>
      <trkpt lat="46.29279" lon="6.45629">
        <ele>684</ele>
        <time>2019-03-23T13:39:54.000Z</time>
      </trkpt>
      <trkpt lat="46.29304" lon="6.45639">
        <ele>684.95</ele>
        <time>2019-03-23T13:39:59.000Z</time>
      </trkpt>
      <trkpt lat="46.29326" lon="6.45648">
        <ele>684</ele>
        <time>2019-03-23T13:40:04.000Z</time>
      </trkpt>
      <trkpt lat="46.29348" lon="6.4566">
        <ele>684.98</ele>
        <time>2019-03-23T13:40:09.000Z</time>
      </trkpt>
      <trkpt lat="46.29366" lon="6.45674">
        <ele>686</ele>
        <time>2019-03-23T13:40:14.000Z</time>
      </trkpt>
      <trkpt lat="46.29381" lon="6.45688">
        <ele>686.75</ele>
        <time>2019-03-23T13:40:19.000Z</time>
      </trkpt>
      <trkpt lat="46.29395" lon="6.45701">
        <ele>689.73</ele>
        <time>2019-03-23T13:40:24.000Z</time>
      </trkpt>
      <trkpt lat="46.29409" lon="6.45715">
        <ele>690.98</ele>
        <time>2019-03-23T13:40:29.000Z</time>
      </trkpt>
      <trkpt lat="46.29424" lon="6.45727">
        <ele>692.93</ele>
        <time>2019-03-23T13:40:34.000Z</time>
      </trkpt>
      <trkpt lat="46.29436" lon="6.45737">
        <ele>693</ele>
        <time>2019-03-23T13:40:39.000Z</time>
      </trkpt>
      <trkpt lat="46.29445" lon="6.45743">
        <ele>691.25</ele>
        <time>2019-03-23T13:40:44.000Z</time>
      </trkpt>
      <trkpt lat="46.29459" lon="6.45734">
        <ele>687.33</ele>
        <time>2019-03-23T13:40:49.000Z</time>
      </trkpt>
      <trkpt lat="46.2948" lon="6.45708">
        <ele>683.08</ele>
        <time>2019-03-23T13:40:54.000Z</time>
      </trkpt>
      <trkpt lat="46.29495" lon="6.45674">
        <ele>679.33</ele>
        <time>2019-03-23T13:40:59.000Z</time>
      </trkpt>
      <trkpt lat="46.29513" lon="6.45635">
        <ele>677.02</ele>
        <time>2019-03-23T13:41:04.000Z</time>
      </trkpt>
      <trkpt lat="46.29531" lon="6.456">
        <ele>676.02</ele>
        <time>2019-03-23T13:41:09.000Z</time>
      </trkpt>
      <trkpt lat="46.29549" lon="6.45594">
        <ele>677</ele>
        <time>2019-03-23T13:41:14.000Z</time>
      </trkpt>
      <trkpt lat="46.2957" lon="6.45614">
        <ele>678.76</ele>
        <time>2019-03-23T13:41:19.000Z</time>
      </trkpt>
      <trkpt lat="46.29594" lon="6.45638">
        <ele>678</ele>
        <time>2019-03-23T13:41:24.000Z</time>
      </trkpt>
      <trkpt lat="46.29622" lon="6.45665">
        <ele>677.99</ele>
        <time>2019-03-23T13:41:29.000Z</time>
      </trkpt>
      <trkpt lat="46.29645" lon="6.45683">
        <ele>678.98</ele>
        <time>2019-03-23T13:41:34.000Z</time>
      </trkpt>
      <trkpt lat="46.29671" lon="6.45671">
        <ele>677</ele>
        <time>2019-03-23T13:41:39.000Z</time>
      </trkpt>
      <trkpt lat="46.29688" lon="6.45649">
        <ele>676.06</ele>
        <time>2019-03-23T13:41:44.000Z</time>
      </trkpt>
      <trkpt lat="46.29697" lon="6.45609">
        <ele>673.02</ele>
        <time>2019-03-23T13:41:49.000Z</time>
      </trkpt>
      <trkpt lat="46.2971" lon="6.45565">
        <ele>671.06</ele>
        <time>2019-03-23T13:41:54.000Z</time>
      </trkpt>
      <trkpt lat="46.29737" lon="6.4553">
        <ele>667.08</ele>
        <time>2019-03-23T13:41:59.000Z</time>
      </trkpt>
      <trkpt lat="46.29766" lon="6.45488">
        <ele>664.25</ele>
        <time>2019-03-23T13:42:04.000Z</time>
      </trkpt>
      <trkpt lat="46.29795" lon="6.45484">
        <ele>665.93</ele>
        <time>2019-03-23T13:42:09.000Z</time>
      </trkpt>
      <trkpt lat="46.29814" lon="6.45506">
        <ele>667.98</ele>
        <time>2019-03-23T13:42:14.000Z</time>
      </trkpt>
      <trkpt lat="46.29831" lon="6.45533">
        <ele>669</ele>
        <time>2019-03-23T13:42:19.000Z</time>
      </trkpt>
      <trkpt lat="46.29851" lon="6.45555">
        <ele>668.06</ele>
        <time>2019-03-23T13:42:24.000Z</time>
      </trkpt>
      <trkpt lat="46.29883" lon="6.45559">
        <ele>667.02</ele>
        <time>2019-03-23T13:42:29.000Z</time>
      </trkpt>
      <trkpt lat="46.29909" lon="6.45575">
        <ele>667</ele>
        <time>2019-03-23T13:42:34.000Z</time>
      </trkpt>
      <trkpt lat="46.29927" lon="6.45591">
        <ele>667.94</ele>
        <time>2019-03-23T13:42:39.000Z</time>
      </trkpt>
      <trkpt lat="46.29946" lon="6.45607">
        <ele>669</ele>
        <time>2019-03-23T13:42:44.000Z</time>
      </trkpt>
      <trkpt lat="46.29966" lon="6.45623">
        <ele>670.75</ele>
        <time>2019-03-23T13:42:49.000Z</time>
      </trkpt>
      <trkpt lat="46.30159" lon="6.45731">
        <ele>683</ele>
        <time>2019-03-23T13:43:40.000Z</time>
      </trkpt>
      <trkpt lat="46.30178" lon="6.45732">
        <ele>683.01</ele>
        <time>2019-03-23T13:43:45.000Z</time>
      </trkpt>
      <trkpt lat="46.30198" lon="6.45733">
        <ele>683.25</ele>
        <time>2019-03-23T13:43:50.000Z</time>
      </trkpt>
      <trkpt lat="46.30217" lon="6.45736">
        <ele>684</ele>
        <time>2019-03-23T13:43:55.000Z</time>
      </trkpt>
      <trkpt lat="46.30236" lon="6.45739">
        <ele>684.98</ele>
        <time>2019-03-23T13:44:00.000Z</time>
      </trkpt>
      <trkpt lat="46.30256" lon="6.45741">
        <ele>685</ele>
        <time>2019-03-23T13:44:05.000Z</time>
      </trkpt>
      <trkpt lat="46.30277" lon="6.45743">
        <ele>685.06</ele>
        <time>2019-03-23T13:44:10.000Z</time>
      </trkpt>
      <trkpt lat="46.303" lon="6.45747">
        <ele>685.75</ele>
        <time>2019-03-23T13:44:15.000Z</time>
      </trkpt>
      <trkpt lat="46.30325" lon="6.45756">
        <ele>684.07</ele>
        <time>2019-03-23T13:44:20.000Z</time>
      </trkpt>
      <trkpt lat="46.30354" lon="6.45771">
        <ele>683.25</ele>
        <time>2019-03-23T13:44:25.000Z</time>
      </trkpt>
      <trkpt lat="46.30391" lon="6.45783">
        <ele>679.33</ele>
        <time>2019-03-23T13:44:30.000Z</time>
      </trkpt>
      <trkpt lat="46.30434" lon="6.45796">
        <ele>677.27</ele>
        <time>2019-03-23T13:44:35.000Z</time>
      </trkpt>
      <trkpt lat="46.30471" lon="6.45832">
        <ele>676.02</ele>
        <time>2019-03-23T13:44:40.000Z</time>
      </trkpt>
      <trkpt lat="46.30497" lon="6.45876">
        <ele>676</ele>
        <time>2019-03-23T13:44:45.000Z</time>
      </trkpt>
      <trkpt lat="46.30516" lon="6.45912">
        <ele>678.75</ele>
        <time>2019-03-23T13:44:50.000Z</time>
      </trkpt>
      <trkpt lat="46.30533" lon="6.45942">
        <ele>679.94</ele>
        <time>2019-03-23T13:44:55.000Z</time>
      </trkpt>
      <trkpt lat="46.30547" lon="6.4597">
        <ele>680</ele>
        <time>2019-03-23T13:45:00.000Z</time>
      </trkpt>
      <trkpt lat="46.3056" lon="6.45997">
        <ele>680.01</ele>
        <time>2019-03-23T13:45:05.000Z</time>
      </trkpt>
      <trkpt lat="46.3057" lon="6.46027">
        <ele>681.75</ele>
        <time>2019-03-23T13:45:10.000Z</time>
      </trkpt>
      <trkpt lat="46.30576" lon="6.46058">
        <ele>682</ele>
        <time>2019-03-23T13:45:15.000Z</time>
      </trkpt>
      <trkpt lat="46.30577" lon="6.46088">
        <ele>682</ele>
        <time>2019-03-23T13:45:20.000Z</time>
      </trkpt>
      <trkpt lat="46.30576" lon="6.46114">
        <ele>683</ele>
        <time>2019-03-23T13:45:25.000Z</time>
      </trkpt>
      <trkpt lat="46.30576" lon="6.46138">
        <ele>682.75</ele>
        <time>2019-03-23T13:45:30.000Z</time>
      </trkpt>
      <trkpt lat="46.30575" lon="6.46162">
        <ele>683.98</ele>
        <time>2019-03-23T13:45:35.000Z</time>
      </trkpt>
      <trkpt lat="46.30576" lon="6.46186">
        <ele>684.05</ele>
        <time>2019-03-23T13:45:40.000Z</time>
      </trkpt>
      <trkpt lat="46.30579" lon="6.4621">
        <ele>685</ele>
        <time>2019-03-23T13:45:45.000Z</time>
      </trkpt>
      <trkpt lat="46.3058" lon="6.46234">
        <ele>685</ele>
        <time>2019-03-23T13:45:50.000Z</time>
      </trkpt>
      <trkpt lat="46.30581" lon="6.46257">
        <ele>686</ele>
        <time>2019-03-23T13:45:55.000Z</time>
      </trkpt>
      <trkpt lat="46.30583" lon="6.46281">
        <ele>686</ele>
        <time>2019-03-23T13:46:00.000Z</time>
      </trkpt>
      <trkpt lat="46.30583" lon="6.46302">
        <ele>686.94</ele>
        <time>2019-03-23T13:46:05.000Z</time>
      </trkpt>
      <trkpt lat="46.30585" lon="6.46323">
        <ele>687.94</ele>
        <time>2019-03-23T13:46:10.000Z</time>
      </trkpt>
      <trkpt lat="46.30587" lon="6.46343">
        <ele>688.94</ele>
        <time>2019-03-23T13:46:15.000Z</time>
      </trkpt>
      <trkpt lat="46.3059" lon="6.46366">
        <ele>690</ele>
        <time>2019-03-23T13:46:20.000Z</time>
      </trkpt>
      <trkpt lat="46.30592" lon="6.46387">
        <ele>690.98</ele>
        <time>2019-03-23T13:46:25.000Z</time>
      </trkpt>
      <trkpt lat="46.30595" lon="6.46408">
        <ele>691.75</ele>
        <time>2019-03-23T13:46:30.000Z</time>
      </trkpt>
      <trkpt lat="46.30599" lon="6.46431">
        <ele>693.93</ele>
        <time>2019-03-23T13:46:35.000Z</time>
      </trkpt>
      <trkpt lat="46.30602" lon="6.46454">
        <ele>695</ele>
        <time>2019-03-23T13:46:40.000Z</time>
      </trkpt>
      <trkpt lat="46.30605" lon="6.46477">
        <ele>695</ele>
        <time>2019-03-23T13:46:45.000Z</time>
      </trkpt>
      <trkpt lat="46.30608" lon="6.46502">
        <ele>696</ele>
        <time>2019-03-23T13:46:50.000Z</time>
      </trkpt>
      <trkpt lat="46.30611" lon="6.46528">
        <ele>696.75</ele>
        <time>2019-03-23T13:46:55.000Z</time>
      </trkpt>
      <trkpt lat="46.30614" lon="6.46553">
        <ele>697</ele>
        <time>2019-03-23T13:47:00.000Z</time>
      </trkpt>
      <trkpt lat="46.30617" lon="6.46579">
        <ele>697</ele>
        <time>2019-03-23T13:47:05.000Z</time>
      </trkpt>
      <trkpt lat="46.30622" lon="6.46605">
        <ele>696</ele>
        <time>2019-03-23T13:47:10.000Z</time>
      </trkpt>
      <trkpt lat="46.30628" lon="6.46634">
        <ele>696.94</ele>
        <time>2019-03-23T13:47:15.000Z</time>
      </trkpt>
      <trkpt lat="46.30634" lon="6.46664">
        <ele>697</ele>
        <time>2019-03-23T13:47:20.000Z</time>
      </trkpt>
      <trkpt lat="46.30638" lon="6.46702">
        <ele>696</ele>
        <time>2019-03-23T13:47:25.000Z</time>
      </trkpt>
      <trkpt lat="46.3064" lon="6.4674">
        <ele>696.98</ele>
        <time>2019-03-23T13:47:30.000Z</time>
      </trkpt>
      <trkpt lat="46.30643" lon="6.46776">
        <ele>695.25</ele>
        <time>2019-03-23T13:47:35.000Z</time>
      </trkpt>
      <trkpt lat="46.30647" lon="6.46814">
        <ele>695</ele>
        <time>2019-03-23T13:47:40.000Z</time>
      </trkpt>
      <trkpt lat="46.3065" lon="6.46854">
        <ele>694</ele>
        <time>2019-03-23T13:47:45.000Z</time>
      </trkpt>
      <trkpt lat="46.3066" lon="6.46892">
        <ele>693.02</ele>
        <time>2019-03-23T13:47:50.000Z</time>
      </trkpt>
      <trkpt lat="46.30667" lon="6.46931">
        <ele>692.99</ele>
        <time>2019-03-23T13:47:55.000Z</time>
      </trkpt>
      <trkpt lat="46.30673" lon="6.46972">
        <ele>693.8</ele>
        <time>2019-03-23T13:48:00.000Z</time>
      </trkpt>
      <trkpt lat="46.30676" lon="6.47011">
        <ele>693</ele>
        <time>2019-03-23T13:48:05.000Z</time>
      </trkpt>
      <trkpt lat="46.30684" lon="6.47053">
        <ele>692.02</ele>
        <time>2019-03-23T13:48:10.000Z</time>
      </trkpt>
      <trkpt lat="46.30699" lon="6.47087">
        <ele>691.05</ele>
        <time>2019-03-23T13:48:15.000Z</time>
      </trkpt>
      <trkpt lat="46.30719" lon="6.47118">
        <ele>691</ele>
        <time>2019-03-23T13:48:20.000Z</time>
      </trkpt>
      <trkpt lat="46.30736" lon="6.47153">
        <ele>691</ele>
        <time>2019-03-23T13:48:25.000Z</time>
      </trkpt>
      <trkpt lat="46.30744" lon="6.47192">
        <ele>690.02</ele>
        <time>2019-03-23T13:48:30.000Z</time>
      </trkpt>
      <trkpt lat="46.30742" lon="6.4723">
        <ele>690</ele>
        <time>2019-03-23T13:48:35.000Z</time>
      </trkpt>
      <trkpt lat="46.30731" lon="6.47252">
        <ele>690</ele>
        <time>2019-03-23T13:48:40.000Z</time>
      </trkpt>
      <trkpt lat="46.30719" lon="6.47242">
        <ele>689.02</ele>
        <time>2019-03-23T13:48:45.000Z</time>
      </trkpt>
      <trkpt lat="46.30705" lon="6.47221">
        <ele>690.94</ele>
        <time>2019-03-23T13:48:50.000Z</time>
      </trkpt>
      <trkpt lat="46.3069" lon="6.47204">
        <ele>692.75</ele>
        <time>2019-03-23T13:48:55.000Z</time>
      </trkpt>
      <trkpt lat="46.30676" lon="6.47186">
        <ele>693</ele>
        <time>2019-03-23T13:49:00.000Z</time>
      </trkpt>
      <trkpt lat="46.30661" lon="6.4717">
        <ele>694.75</ele>
        <time>2019-03-23T13:49:05.000Z</time>
      </trkpt>
      <trkpt lat="46.30647" lon="6.47153">
        <ele>695</ele>
        <time>2019-03-23T13:49:10.000Z</time>
      </trkpt>
      <trkpt lat="46.30633" lon="6.47135">
        <ele>695.94</ele>
        <time>2019-03-23T13:49:15.000Z</time>
      </trkpt>
      <trkpt lat="46.3062" lon="6.47119">
        <ele>696.75</ele>
        <time>2019-03-23T13:49:20.000Z</time>
      </trkpt>
      <trkpt lat="46.30607" lon="6.47104">
        <ele>697.94</ele>
        <time>2019-03-23T13:49:25.000Z</time>
      </trkpt>
      <trkpt lat="46.30594" lon="6.47089">
        <ele>698.98</ele>
        <time>2019-03-23T13:49:30.000Z</time>
      </trkpt>
      <trkpt lat="46.30581" lon="6.47074">
        <ele>700</ele>
        <time>2019-03-23T13:49:35.000Z</time>
      </trkpt>
      <trkpt lat="46.3057" lon="6.47059">
        <ele>701</ele>
        <time>2019-03-23T13:49:40.000Z</time>
      </trkpt>
      <trkpt lat="46.30559" lon="6.47043">
        <ele>702.93</ele>
        <time>2019-03-23T13:49:45.000Z</time>
      </trkpt>
      <trkpt lat="46.30549" lon="6.47027">
        <ele>704.75</ele>
        <time>2019-03-23T13:49:50.000Z</time>
      </trkpt>
      <trkpt lat="46.30539" lon="6.4701">
        <ele>705.98</ele>
        <time>2019-03-23T13:49:55.000Z</time>
      </trkpt>
      <trkpt lat="46.30528" lon="6.46993">
        <ele>707</ele>
        <time>2019-03-23T13:50:00.000Z</time>
      </trkpt>
      <trkpt lat="46.30518" lon="6.46977">
        <ele>707.98</ele>
        <time>2019-03-23T13:50:05.000Z</time>
      </trkpt>
      <trkpt lat="46.30508" lon="6.46958">
        <ele>709.94</ele>
        <time>2019-03-23T13:50:10.000Z</time>
      </trkpt>
      <trkpt lat="46.305" lon="6.46941">
        <ele>712.67</ele>
        <time>2019-03-23T13:50:15.000Z</time>
      </trkpt>
      <trkpt lat="46.30494" lon="6.46923">
        <ele>713.98</ele>
        <time>2019-03-23T13:50:20.000Z</time>
      </trkpt>
      <trkpt lat="46.30489" lon="6.46904">
        <ele>715</ele>
        <time>2019-03-23T13:50:25.000Z</time>
      </trkpt>
      <trkpt lat="46.30485" lon="6.46883">
        <ele>718.67</ele>
        <time>2019-03-23T13:50:30.000Z</time>
      </trkpt>
      <trkpt lat="46.30481" lon="6.46863">
        <ele>717.99</ele>
        <time>2019-03-23T13:50:35.000Z</time>
      </trkpt>
      <trkpt lat="46.3048" lon="6.46843">
        <ele>718</ele>
        <time>2019-03-23T13:50:40.000Z</time>
      </trkpt>
      <trkpt lat="46.30481" lon="6.46822">
        <ele>718.95</ele>
        <time>2019-03-23T13:50:45.000Z</time>
      </trkpt>
      <trkpt lat="46.30483" lon="6.46802">
        <ele>720.69</ele>
        <time>2019-03-23T13:50:50.000Z</time>
      </trkpt>
      <trkpt lat="46.30483" lon="6.46782">
        <ele>720.77</ele>
        <time>2019-03-23T13:50:55.000Z</time>
      </trkpt>
      <trkpt lat="46.30485" lon="6.46761">
        <ele>721.23</ele>
        <time>2019-03-23T13:51:00.000Z</time>
      </trkpt>
      <trkpt lat="46.30487" lon="6.46741">
        <ele>721.98</ele>
        <time>2019-03-23T13:51:05.000Z</time>
      </trkpt>
      <trkpt lat="46.30488" lon="6.46726">
        <ele>720.27</ele>
        <time>2019-03-23T13:51:10.000Z</time>
      </trkpt>
      <trkpt lat="46.30489" lon="6.46708">
        <ele>719.02</ele>
        <time>2019-03-23T13:51:15.000Z</time>
      </trkpt>
      <trkpt lat="46.30488" lon="6.46685">
        <ele>722.66</ele>
        <time>2019-03-23T13:51:20.000Z</time>
      </trkpt>
      <trkpt lat="46.30486" lon="6.46665">
        <ele>724.97</ele>
        <time>2019-03-23T13:51:25.000Z</time>
      </trkpt>
      <trkpt lat="46.30482" lon="6.46645">
        <ele>725.05</ele>
        <time>2019-03-23T13:51:30.000Z</time>
      </trkpt>
      <trkpt lat="46.30478" lon="6.46629">
        <ele>724.75</ele>
        <time>2019-03-23T13:51:35.000Z</time>
      </trkpt>
      <trkpt lat="46.30471" lon="6.46613">
        <ele>726.16</ele>
        <time>2019-03-23T13:51:40.000Z</time>
      </trkpt>
      <trkpt lat="46.30463" lon="6.46595">
        <ele>726</ele>
        <time>2019-03-23T13:51:45.000Z</time>
      </trkpt>
      <trkpt lat="46.30457" lon="6.46578">
        <ele>728</ele>
        <time>2019-03-23T13:51:50.000Z</time>
      </trkpt>
      <trkpt lat="46.30447" lon="6.46558">
        <ele>730.93</ele>
        <time>2019-03-23T13:51:55.000Z</time>
      </trkpt>
      <trkpt lat="46.30442" lon="6.46538">
        <ele>730.24</ele>
        <time>2019-03-23T13:52:00.000Z</time>
      </trkpt>
      <trkpt lat="46.3044" lon="6.46516">
        <ele>733.61</ele>
        <time>2019-03-23T13:52:05.000Z</time>
      </trkpt>
      <trkpt lat="46.30435" lon="6.46496">
        <ele>733.99</ele>
        <time>2019-03-23T13:52:10.000Z</time>
      </trkpt>
      <trkpt lat="46.30433" lon="6.46479">
        <ele>735.92</ele>
        <time>2019-03-23T13:52:15.000Z</time>
      </trkpt>
      <trkpt lat="46.30428" lon="6.46461">
        <ele>736.98</ele>
        <time>2019-03-23T13:52:20.000Z</time>
      </trkpt>
      <trkpt lat="46.30421" lon="6.4644">
        <ele>737.74</ele>
        <time>2019-03-23T13:52:25.000Z</time>
      </trkpt>
      <trkpt lat="46.30422" lon="6.46419">
        <ele>740.73</ele>
        <time>2019-03-23T13:52:30.000Z</time>
      </trkpt>
      <trkpt lat="46.30418" lon="6.46404">
        <ele>742.99</ele>
        <time>2019-03-23T13:52:35.000Z</time>
      </trkpt>
      <trkpt lat="46.30407" lon="6.46389">
        <ele>740.26</ele>
        <time>2019-03-23T13:52:40.000Z</time>
      </trkpt>
      <trkpt lat="46.30397" lon="6.46373">
        <ele>740</ele>
        <time>2019-03-23T13:52:45.000Z</time>
      </trkpt>
      <trkpt lat="46.30384" lon="6.46359">
        <ele>741</ele>
        <time>2019-03-23T13:52:50.000Z</time>
      </trkpt>
      <trkpt lat="46.30371" lon="6.46347">
        <ele>743.67</ele>
        <time>2019-03-23T13:52:55.000Z</time>
      </trkpt>
      <trkpt lat="46.30358" lon="6.46336">
        <ele>743.95</ele>
        <time>2019-03-23T13:53:00.000Z</time>
      </trkpt>
      <trkpt lat="46.30344" lon="6.4633">
        <ele>745.06</ele>
        <time>2019-03-23T13:53:05.000Z</time>
      </trkpt>
      <trkpt lat="46.3033" lon="6.46322">
        <ele>745.05</ele>
        <time>2019-03-23T13:53:10.000Z</time>
      </trkpt>
      <trkpt lat="46.30318" lon="6.46316">
        <ele>745.01</ele>
        <time>2019-03-23T13:53:15.000Z</time>
      </trkpt>
      <trkpt lat="46.30304" lon="6.46311">
        <ele>747.5</ele>
        <time>2019-03-23T13:53:20.000Z</time>
      </trkpt>
      <trkpt lat="46.30289" lon="6.46309">
        <ele>745.09</ele>
        <time>2019-03-23T13:53:25.000Z</time>
      </trkpt>
      <trkpt lat="46.30276" lon="6.4631">
        <ele>746</ele>
        <time>2019-03-23T13:53:30.000Z</time>
      </trkpt>
      <trkpt lat="46.3026" lon="6.46314">
        <ele>745.75</ele>
        <time>2019-03-23T13:53:35.000Z</time>
      </trkpt>
      <trkpt lat="46.30247" lon="6.46318">
        <ele>745.05</ele>
        <time>2019-03-23T13:53:40.000Z</time>
      </trkpt>
      <trkpt lat="46.30233" lon="6.4632">
        <ele>744.75</ele>
        <time>2019-03-23T13:53:45.000Z</time>
      </trkpt>
      <trkpt lat="46.30219" lon="6.46321">
        <ele>748.84</ele>
        <time>2019-03-23T13:53:50.000Z</time>
      </trkpt>
      <trkpt lat="46.30207" lon="6.46321">
        <ele>751.89</ele>
        <time>2019-03-23T13:53:55.000Z</time>
      </trkpt>
      <trkpt lat="46.30193" lon="6.46321">
        <ele>751.94</ele>
        <time>2019-03-23T13:54:00.000Z</time>
      </trkpt>
      <trkpt lat="46.30178" lon="6.4632">
        <ele>750.45</ele>
        <time>2019-03-23T13:54:05.000Z</time>
      </trkpt>
      <trkpt lat="46.30164" lon="6.46321">
        <ele>749.05</ele>
        <time>2019-03-23T13:54:10.000Z</time>
      </trkpt>
      <trkpt lat="46.30151" lon="6.4632">
        <ele>750.74</ele>
        <time>2019-03-23T13:54:15.000Z</time>
      </trkpt>
      <trkpt lat="46.30136" lon="6.46317">
        <ele>752.78</ele>
        <time>2019-03-23T13:54:20.000Z</time>
      </trkpt>
      <trkpt lat="46.30119" lon="6.46317">
        <ele>754.75</ele>
        <time>2019-03-23T13:54:25.000Z</time>
      </trkpt>
      <trkpt lat="46.30107" lon="6.46319">
        <ele>755.76</ele>
        <time>2019-03-23T13:54:30.000Z</time>
      </trkpt>
      <trkpt lat="46.30093" lon="6.46318">
        <ele>759.47</ele>
        <time>2019-03-23T13:54:35.000Z</time>
      </trkpt>
      <trkpt lat="46.30078" lon="6.46316">
        <ele>762.68</ele>
        <time>2019-03-23T13:54:40.000Z</time>
      </trkpt>
      <trkpt lat="46.30065" lon="6.46315">
        <ele>765.73</ele>
        <time>2019-03-23T13:54:45.000Z</time>
      </trkpt>
      <trkpt lat="46.30052" lon="6.46314">
        <ele>765.26</ele>
        <time>2019-03-23T13:54:50.000Z</time>
      </trkpt>
      <trkpt lat="46.30038" lon="6.46316">
        <ele>764.24</ele>
        <time>2019-03-23T13:54:55.000Z</time>
      </trkpt>
      <trkpt lat="46.30025" lon="6.46322">
        <ele>761.27</ele>
        <time>2019-03-23T13:55:00.000Z</time>
      </trkpt>
      <trkpt lat="46.30012" lon="6.46321">
        <ele>762.01</ele>
        <time>2019-03-23T13:55:05.000Z</time>
      </trkpt>
      <trkpt lat="46.29998" lon="6.46326">
        <ele>761.26</ele>
        <time>2019-03-23T13:55:10.000Z</time>
      </trkpt>
      <trkpt lat="46.29985" lon="6.46329">
        <ele>760.2</ele>
        <time>2019-03-23T13:55:15.000Z</time>
      </trkpt>
      <trkpt lat="46.2997" lon="6.46335">
        <ele>759.31</ele>
        <time>2019-03-23T13:55:20.000Z</time>
      </trkpt>
      <trkpt lat="46.29955" lon="6.46342">
        <ele>758.99</ele>
        <time>2019-03-23T13:55:25.000Z</time>
      </trkpt>
      <trkpt lat="46.29943" lon="6.46353">
        <ele>758</ele>
        <time>2019-03-23T13:55:30.000Z</time>
      </trkpt>
      <trkpt lat="46.2993" lon="6.46363">
        <ele>758.98</ele>
        <time>2019-03-23T13:55:35.000Z</time>
      </trkpt>
      <trkpt lat="46.29919" lon="6.46374">
        <ele>759</ele>
        <time>2019-03-23T13:55:40.000Z</time>
      </trkpt>
      <trkpt lat="46.29908" lon="6.46381">
        <ele>759.75</ele>
        <time>2019-03-23T13:55:45.000Z</time>
      </trkpt>
      <trkpt lat="46.29896" lon="6.46392">
        <ele>761.75</ele>
        <time>2019-03-23T13:55:50.000Z</time>
      </trkpt>
      <trkpt lat="46.29884" lon="6.46404">
        <ele>762</ele>
        <time>2019-03-23T13:55:55.000Z</time>
      </trkpt>
      <trkpt lat="46.29871" lon="6.46415">
        <ele>760.25</ele>
        <time>2019-03-23T13:56:00.000Z</time>
      </trkpt>
      <trkpt lat="46.29859" lon="6.46423">
        <ele>760.07</ele>
        <time>2019-03-23T13:56:05.000Z</time>
      </trkpt>
      <trkpt lat="46.29847" lon="6.46432">
        <ele>761.97</ele>
        <time>2019-03-23T13:56:10.000Z</time>
      </trkpt>
      <trkpt lat="46.29835" lon="6.46439">
        <ele>765.5</ele>
        <time>2019-03-23T13:56:15.000Z</time>
      </trkpt>
      <trkpt lat="46.29824" lon="6.46446">
        <ele>768.56</ele>
        <time>2019-03-23T13:56:20.000Z</time>
      </trkpt>
      <trkpt lat="46.29812" lon="6.46449">
        <ele>771.98</ele>
        <time>2019-03-23T13:56:25.000Z</time>
      </trkpt>
      <trkpt lat="46.29796" lon="6.46453">
        <ele>774.1</ele>
        <time>2019-03-23T13:56:30.000Z</time>
      </trkpt>
      <trkpt lat="46.2978" lon="6.46466">
        <ele>773.08</ele>
        <time>2019-03-23T13:56:35.000Z</time>
      </trkpt>
      <trkpt lat="46.29768" lon="6.46474">
        <ele>766.38</ele>
        <time>2019-03-23T13:56:40.000Z</time>
      </trkpt>
      <trkpt lat="46.29754" lon="6.46477">
        <ele>766</ele>
        <time>2019-03-23T13:56:45.000Z</time>
      </trkpt>
      <trkpt lat="46.2974" lon="6.46476">
        <ele>768.81</ele>
        <time>2019-03-23T13:56:50.000Z</time>
      </trkpt>
      <trkpt lat="46.29724" lon="6.46476">
        <ele>771.73</ele>
        <time>2019-03-23T13:56:55.000Z</time>
      </trkpt>
      <trkpt lat="46.29709" lon="6.46471">
        <ele>774.73</ele>
        <time>2019-03-23T13:57:00.000Z</time>
      </trkpt>
      <trkpt lat="46.29695" lon="6.46464">
        <ele>777.92</ele>
        <time>2019-03-23T13:57:05.000Z</time>
      </trkpt>
      <trkpt lat="46.29679" lon="6.46462">
        <ele>778.01</ele>
        <time>2019-03-23T13:57:10.000Z</time>
      </trkpt>
      <trkpt lat="46.29666" lon="6.46463">
        <ele>778.98</ele>
        <time>2019-03-23T13:57:15.000Z</time>
      </trkpt>
      <trkpt lat="46.29654" lon="6.46467">
        <ele>773.54</ele>
        <time>2019-03-23T13:57:20.000Z</time>
      </trkpt>
      <trkpt lat="46.29638" lon="6.46474">
        <ele>773.81</ele>
        <time>2019-03-23T13:57:25.000Z</time>
      </trkpt>
      <trkpt lat="46.29623" lon="6.46481">
        <ele>774</ele>
        <time>2019-03-23T13:57:30.000Z</time>
      </trkpt>
      <trkpt lat="46.2961" lon="6.46488">
        <ele>773</ele>
        <time>2019-03-23T13:57:35.000Z</time>
      </trkpt>
      <trkpt lat="46.29596" lon="6.46495">
        <ele>771.01</ele>
        <time>2019-03-23T13:57:40.000Z</time>
      </trkpt>
      <trkpt lat="46.29582" lon="6.46498">
        <ele>770.02</ele>
        <time>2019-03-23T13:57:45.000Z</time>
      </trkpt>
      <trkpt lat="46.29566" lon="6.46502">
        <ele>773.88</ele>
        <time>2019-03-23T13:57:50.000Z</time>
      </trkpt>
      <trkpt lat="46.29551" lon="6.46498">
        <ele>776.68</ele>
        <time>2019-03-23T13:57:55.000Z</time>
      </trkpt>
      <trkpt lat="46.29535" lon="6.46496">
        <ele>778.92</ele>
        <time>2019-03-23T13:58:00.000Z</time>
      </trkpt>
      <trkpt lat="46.29521" lon="6.4649">
        <ele>779.94</ele>
        <time>2019-03-23T13:58:05.000Z</time>
      </trkpt>
      <trkpt lat="46.29507" lon="6.46487">
        <ele>784.24</ele>
        <time>2019-03-23T13:58:10.000Z</time>
      </trkpt>
      <trkpt lat="46.29491" lon="6.4648">
        <ele>786.98</ele>
        <time>2019-03-23T13:58:15.000Z</time>
      </trkpt>
      <trkpt lat="46.29476" lon="6.46475">
        <ele>788.18</ele>
        <time>2019-03-23T13:58:20.000Z</time>
      </trkpt>
      <trkpt lat="46.29461" lon="6.46472">
        <ele>789.98</ele>
        <time>2019-03-23T13:58:25.000Z</time>
      </trkpt>
      <trkpt lat="46.29447" lon="6.46466">
        <ele>792.11</ele>
        <time>2019-03-23T13:58:30.000Z</time>
      </trkpt>
      <trkpt lat="46.29431" lon="6.46462">
        <ele>793.78</ele>
        <time>2019-03-23T13:58:35.000Z</time>
      </trkpt>
      <trkpt lat="46.29417" lon="6.46456">
        <ele>793.96</ele>
        <time>2019-03-23T13:58:40.000Z</time>
      </trkpt>
      <trkpt lat="46.29405" lon="6.46452">
        <ele>794.01</ele>
        <time>2019-03-23T13:58:45.000Z</time>
      </trkpt>
      <trkpt lat="46.29391" lon="6.46449">
        <ele>792.27</ele>
        <time>2019-03-23T13:58:50.000Z</time>
      </trkpt>
      <trkpt lat="46.29377" lon="6.46445">
        <ele>791.08</ele>
        <time>2019-03-23T13:58:55.000Z</time>
      </trkpt>
      <trkpt lat="46.29363" lon="6.46441">
        <ele>790</ele>
        <time>2019-03-23T13:59:00.000Z</time>
      </trkpt>
      <trkpt lat="46.29348" lon="6.46439">
        <ele>789.95</ele>
        <time>2019-03-23T13:59:05.000Z</time>
      </trkpt>
      <trkpt lat="46.29335" lon="6.46441">
        <ele>789.75</ele>
        <time>2019-03-23T13:59:10.000Z</time>
      </trkpt>
      <trkpt lat="46.29322" lon="6.46451">
        <ele>790.75</ele>
        <time>2019-03-23T13:59:15.000Z</time>
      </trkpt>
      <trkpt lat="46.29311" lon="6.46465">
        <ele>791.75</ele>
        <time>2019-03-23T13:59:20.000Z</time>
      </trkpt>
      <trkpt lat="46.29302" lon="6.46481">
        <ele>793.73</ele>
        <time>2019-03-23T13:59:25.000Z</time>
      </trkpt>
      <trkpt lat="46.29293" lon="6.46499">
        <ele>793.75</ele>
        <time>2019-03-23T13:59:30.000Z</time>
      </trkpt>
      <trkpt lat="46.29284" lon="6.46515">
        <ele>794</ele>
        <time>2019-03-23T13:59:35.000Z</time>
      </trkpt>
      <trkpt lat="46.29277" lon="6.46534">
        <ele>794.06</ele>
        <time>2019-03-23T13:59:40.000Z</time>
      </trkpt>
      <trkpt lat="46.29269" lon="6.46552">
        <ele>796</ele>
        <time>2019-03-23T13:59:45.000Z</time>
      </trkpt>
      <trkpt lat="46.2926" lon="6.46568">
        <ele>796</ele>
        <time>2019-03-23T13:59:50.000Z</time>
      </trkpt>
      <trkpt lat="46.29251" lon="6.46583">
        <ele>799.73</ele>
        <time>2019-03-23T13:59:55.000Z</time>
      </trkpt>
      <trkpt lat="46.29239" lon="6.46594">
        <ele>800.19</ele>
        <time>2019-03-23T14:00:00.000Z</time>
      </trkpt>
      <trkpt lat="46.29227" lon="6.46599">
        <ele>798.27</ele>
        <time>2019-03-23T14:00:05.000Z</time>
      </trkpt>
      <trkpt lat="46.29214" lon="6.46598">
        <ele>797.06</ele>
        <time>2019-03-23T14:00:10.000Z</time>
      </trkpt>
      <trkpt lat="46.29205" lon="6.46589">
        <ele>801.68</ele>
        <time>2019-03-23T14:00:15.000Z</time>
      </trkpt>
      <trkpt lat="46.29196" lon="6.46575">
        <ele>805.92</ele>
        <time>2019-03-23T14:00:20.000Z</time>
      </trkpt>
      <trkpt lat="46.29193" lon="6.46561">
        <ele>806.01</ele>
        <time>2019-03-23T14:00:25.000Z</time>
      </trkpt>
      <trkpt lat="46.29193" lon="6.46548">
        <ele>805.24</ele>
        <time>2019-03-23T14:00:30.000Z</time>
      </trkpt>
      <trkpt lat="46.29191" lon="6.4653">
        <ele>806.69</ele>
        <time>2019-03-23T14:00:35.000Z</time>
      </trkpt>
      <trkpt lat="46.29189" lon="6.46505">
        <ele>809.93</ele>
        <time>2019-03-23T14:00:40.000Z</time>
      </trkpt>
      <trkpt lat="46.29188" lon="6.46486">
        <ele>811</ele>
        <time>2019-03-23T14:00:45.000Z</time>
      </trkpt>
      <trkpt lat="46.29187" lon="6.46467">
        <ele>812.94</ele>
        <time>2019-03-23T14:00:50.000Z</time>
      </trkpt>
      <trkpt lat="46.29186" lon="6.46449">
        <ele>814</ele>
        <time>2019-03-23T14:00:55.000Z</time>
      </trkpt>
      <trkpt lat="46.29181" lon="6.46437">
        <ele>814</ele>
        <time>2019-03-23T14:01:00.000Z</time>
      </trkpt>
      <trkpt lat="46.2917" lon="6.46426">
        <ele>814.75</ele>
        <time>2019-03-23T14:01:05.000Z</time>
      </trkpt>
      <trkpt lat="46.29156" lon="6.46421">
        <ele>815.06</ele>
        <time>2019-03-23T14:01:10.000Z</time>
      </trkpt>
      <trkpt lat="46.29142" lon="6.46422">
        <ele>816.19</ele>
        <time>2019-03-23T14:01:15.000Z</time>
      </trkpt>
      <trkpt lat="46.29132" lon="6.4643">
        <ele>816.74</ele>
        <time>2019-03-23T14:01:20.000Z</time>
      </trkpt>
      <trkpt lat="46.29123" lon="6.46441">
        <ele>815.94</ele>
        <time>2019-03-23T14:01:25.000Z</time>
      </trkpt>
      <trkpt lat="46.29113" lon="6.46448">
        <ele>816</ele>
        <time>2019-03-23T14:01:30.000Z</time>
      </trkpt>
      <trkpt lat="46.29103" lon="6.46449">
        <ele>814.99</ele>
        <time>2019-03-23T14:01:35.000Z</time>
      </trkpt>
      <trkpt lat="46.29091" lon="6.46443">
        <ele>816.92</ele>
        <time>2019-03-23T14:01:40.000Z</time>
      </trkpt>
      <trkpt lat="46.29081" lon="6.46434">
        <ele>818.93</ele>
        <time>2019-03-23T14:01:45.000Z</time>
      </trkpt>
      <trkpt lat="46.29072" lon="6.46427">
        <ele>823.85</ele>
        <time>2019-03-23T14:01:50.000Z</time>
      </trkpt>
      <trkpt lat="46.2906" lon="6.46418">
        <ele>825</ele>
        <time>2019-03-23T14:01:55.000Z</time>
      </trkpt>
      <trkpt lat="46.29049" lon="6.46411">
        <ele>824.31</ele>
        <time>2019-03-23T14:02:00.000Z</time>
      </trkpt>
      <trkpt lat="46.29038" lon="6.46403">
        <ele>826.92</ele>
        <time>2019-03-23T14:02:05.000Z</time>
      </trkpt>
      <trkpt lat="46.29028" lon="6.46393">
        <ele>830.73</ele>
        <time>2019-03-23T14:02:10.000Z</time>
      </trkpt>
      <trkpt lat="46.29018" lon="6.46385">
        <ele>830.25</ele>
        <time>2019-03-23T14:02:15.000Z</time>
      </trkpt>
      <trkpt lat="46.29007" lon="6.46377">
        <ele>831.74</ele>
        <time>2019-03-23T14:02:20.000Z</time>
      </trkpt>
      <trkpt lat="46.28995" lon="6.46371">
        <ele>832.01</ele>
        <time>2019-03-23T14:02:25.000Z</time>
      </trkpt>
      <trkpt lat="46.28982" lon="6.46365">
        <ele>832</ele>
        <time>2019-03-23T14:02:30.000Z</time>
      </trkpt>
      <trkpt lat="46.2897" lon="6.46359">
        <ele>830.25</ele>
        <time>2019-03-23T14:02:35.000Z</time>
      </trkpt>
      <trkpt lat="46.28958" lon="6.46353">
        <ele>830</ele>
        <time>2019-03-23T14:02:40.000Z</time>
      </trkpt>
      <trkpt lat="46.28946" lon="6.46347">
        <ele>831.82</ele>
        <time>2019-03-23T14:02:45.000Z</time>
      </trkpt>
      <trkpt lat="46.28935" lon="6.46336">
        <ele>837.85</ele>
        <time>2019-03-23T14:02:50.000Z</time>
      </trkpt>
      <trkpt lat="46.28927" lon="6.46326">
        <ele>839.05</ele>
        <time>2019-03-23T14:02:55.000Z</time>
      </trkpt>
      <trkpt lat="46.28917" lon="6.46318">
        <ele>838.75</ele>
        <time>2019-03-23T14:03:00.000Z</time>
      </trkpt>
      <trkpt lat="46.28907" lon="6.46308">
        <ele>839.69</ele>
        <time>2019-03-23T14:03:05.000Z</time>
      </trkpt>
      <trkpt lat="46.28897" lon="6.46297">
        <ele>841.75</ele>
        <time>2019-03-23T14:03:10.000Z</time>
      </trkpt>
      <trkpt lat="46.28885" lon="6.4629">
        <ele>842.49</ele>
        <time>2019-03-23T14:03:15.000Z</time>
      </trkpt>
      <trkpt lat="46.28873" lon="6.46288">
        <ele>841.99</ele>
        <time>2019-03-23T14:03:20.000Z</time>
      </trkpt>
      <trkpt lat="46.28861" lon="6.46285">
        <ele>843.5</ele>
        <time>2019-03-23T14:03:25.000Z</time>
      </trkpt>
      <trkpt lat="46.28851" lon="6.46277">
        <ele>844.98</ele>
        <time>2019-03-23T14:03:30.000Z</time>
      </trkpt>
      <trkpt lat="46.28842" lon="6.46264">
        <ele>847.56</ele>
        <time>2019-03-23T14:03:35.000Z</time>
      </trkpt>
      <trkpt lat="46.28835" lon="6.46252">
        <ele>850</ele>
        <time>2019-03-23T14:03:40.000Z</time>
      </trkpt>
      <trkpt lat="46.28825" lon="6.46242">
        <ele>848.11</ele>
        <time>2019-03-23T14:03:45.000Z</time>
      </trkpt>
      <trkpt lat="46.28816" lon="6.46229">
        <ele>848.98</ele>
        <time>2019-03-23T14:03:50.000Z</time>
      </trkpt>
      <trkpt lat="46.28809" lon="6.46214">
        <ele>850.94</ele>
        <time>2019-03-23T14:03:55.000Z</time>
      </trkpt>
      <trkpt lat="46.28803" lon="6.46201">
        <ele>849.07</ele>
        <time>2019-03-23T14:04:00.000Z</time>
      </trkpt>
      <trkpt lat="46.28799" lon="6.46189">
        <ele>848.02</ele>
        <time>2019-03-23T14:04:05.000Z</time>
      </trkpt>
      <trkpt lat="46.2879" lon="6.46175">
        <ele>849.92</ele>
        <time>2019-03-23T14:04:10.000Z</time>
      </trkpt>
      <trkpt lat="46.2878" lon="6.46163">
        <ele>851</ele>
        <time>2019-03-23T14:04:15.000Z</time>
      </trkpt>
      <trkpt lat="46.2877" lon="6.46155">
        <ele>850.25</ele>
        <time>2019-03-23T14:04:20.000Z</time>
      </trkpt>
      <trkpt lat="46.28761" lon="6.46144">
        <ele>850.25</ele>
        <time>2019-03-23T14:04:25.000Z</time>
      </trkpt>
      <trkpt lat="46.28752" lon="6.46131">
        <ele>853.5</ele>
        <time>2019-03-23T14:04:30.000Z</time>
      </trkpt>
      <trkpt lat="46.28743" lon="6.46118">
        <ele>853.81</ele>
        <time>2019-03-23T14:04:35.000Z</time>
      </trkpt>
      <trkpt lat="46.28734" lon="6.46107">
        <ele>855.75</ele>
        <time>2019-03-23T14:04:40.000Z</time>
      </trkpt>
      <trkpt lat="46.28723" lon="6.46097">
        <ele>855.3</ele>
        <time>2019-03-23T14:04:45.000Z</time>
      </trkpt>
      <trkpt lat="46.28709" lon="6.46094">
        <ele>851.85</ele>
        <time>2019-03-23T14:04:50.000Z</time>
      </trkpt>
      <trkpt lat="46.28697" lon="6.46095">
        <ele>850.02</ele>
        <time>2019-03-23T14:04:55.000Z</time>
      </trkpt>
      <trkpt lat="46.28685" lon="6.46099">
        <ele>850.14</ele>
        <time>2019-03-23T14:05:00.000Z</time>
      </trkpt>
      <trkpt lat="46.28674" lon="6.46102">
        <ele>849</ele>
        <time>2019-03-23T14:05:05.000Z</time>
      </trkpt>
      <trkpt lat="46.28662" lon="6.46105">
        <ele>847.25</ele>
        <time>2019-03-23T14:05:10.000Z</time>
      </trkpt>
      <trkpt lat="46.2865" lon="6.46104">
        <ele>846.81</ele>
        <time>2019-03-23T14:05:15.000Z</time>
      </trkpt>
      <trkpt lat="46.28638" lon="6.46097">
        <ele>848</ele>
        <time>2019-03-23T14:05:20.000Z</time>
      </trkpt>
      <trkpt lat="46.28627" lon="6.4609">
        <ele>850.69</ele>
        <time>2019-03-23T14:05:25.000Z</time>
      </trkpt>
      <trkpt lat="46.28616" lon="6.46081">
        <ele>853.62</ele>
        <time>2019-03-23T14:05:30.000Z</time>
      </trkpt>
      <trkpt lat="46.28606" lon="6.46072">
        <ele>854.25</ele>
        <time>2019-03-23T14:05:35.000Z</time>
      </trkpt>
      <trkpt lat="46.28595" lon="6.46063">
        <ele>855.76</ele>
        <time>2019-03-23T14:05:40.000Z</time>
      </trkpt>
      <trkpt lat="46.28584" lon="6.46054">
        <ele>858.69</ele>
        <time>2019-03-23T14:05:45.000Z</time>
      </trkpt>
      <trkpt lat="46.28573" lon="6.46043">
        <ele>860.49</ele>
        <time>2019-03-23T14:05:50.000Z</time>
      </trkpt>
      <trkpt lat="46.28561" lon="6.46033">
        <ele>863.92</ele>
        <time>2019-03-23T14:05:55.000Z</time>
      </trkpt>
      <trkpt lat="46.28551" lon="6.46024">
        <ele>864.23</ele>
        <time>2019-03-23T14:06:00.000Z</time>
      </trkpt>
      <trkpt lat="46.28541" lon="6.46015">
        <ele>863.06</ele>
        <time>2019-03-23T14:06:05.000Z</time>
      </trkpt>
      <trkpt lat="46.2853" lon="6.46006">
        <ele>864.7</ele>
        <time>2019-03-23T14:06:10.000Z</time>
      </trkpt>
      <trkpt lat="46.28521" lon="6.45995">
        <ele>865.98</ele>
        <time>2019-03-23T14:06:15.000Z</time>
      </trkpt>
      <trkpt lat="46.2851" lon="6.45986">
        <ele>864.82</ele>
        <time>2019-03-23T14:06:20.000Z</time>
      </trkpt>
      <trkpt lat="46.28499" lon="6.45975">
        <ele>866.97</ele>
        <time>2019-03-23T14:06:25.000Z</time>
      </trkpt>
      <trkpt lat="46.28489" lon="6.45966">
        <ele>868.2</ele>
        <time>2019-03-23T14:06:30.000Z</time>
      </trkpt>
      <trkpt lat="46.28478" lon="6.45958">
        <ele>871.73</ele>
        <time>2019-03-23T14:06:35.000Z</time>
      </trkpt>
      <trkpt lat="46.28467" lon="6.45951">
        <ele>871.99</ele>
        <time>2019-03-23T14:06:40.000Z</time>
      </trkpt>
      <trkpt lat="46.28455" lon="6.45947">
        <ele>867.14</ele>
        <time>2019-03-23T14:06:45.000Z</time>
      </trkpt>
      <trkpt lat="46.28444" lon="6.4594">
        <ele>871.48</ele>
        <time>2019-03-23T14:06:50.000Z</time>
      </trkpt>
      <trkpt lat="46.28431" lon="6.45935">
        <ele>873.56</ele>
        <time>2019-03-23T14:06:55.000Z</time>
      </trkpt>
      <trkpt lat="46.28421" lon="6.45929">
        <ele>875.73</ele>
        <time>2019-03-23T14:07:00.000Z</time>
      </trkpt>
      <trkpt lat="46.28408" lon="6.45924">
        <ele>875</ele>
        <time>2019-03-23T14:07:05.000Z</time>
      </trkpt>
      <trkpt lat="46.28395" lon="6.4592">
        <ele>874</ele>
        <time>2019-03-23T14:07:10.000Z</time>
      </trkpt>
      <trkpt lat="46.28381" lon="6.45912">
        <ele>874.06</ele>
        <time>2019-03-23T14:07:15.000Z</time>
      </trkpt>
      <trkpt lat="46.28367" lon="6.45905">
        <ele>875.73</ele>
        <time>2019-03-23T14:07:20.000Z</time>
      </trkpt>
      <trkpt lat="46.28356" lon="6.45894">
        <ele>875.24</ele>
        <time>2019-03-23T14:07:25.000Z</time>
      </trkpt>
      <trkpt lat="46.28349" lon="6.45876">
        <ele>879.67</ele>
        <time>2019-03-23T14:07:30.000Z</time>
      </trkpt>
      <trkpt lat="46.28342" lon="6.45859">
        <ele>883.74</ele>
        <time>2019-03-23T14:07:35.000Z</time>
      </trkpt>
      <trkpt lat="46.28336" lon="6.45843">
        <ele>883.19</ele>
        <time>2019-03-23T14:07:40.000Z</time>
      </trkpt>
      <trkpt lat="46.2833" lon="6.45828">
        <ele>884.19</ele>
        <time>2019-03-23T14:07:45.000Z</time>
      </trkpt>
      <trkpt lat="46.28318" lon="6.45815">
        <ele>884.29</ele>
        <time>2019-03-23T14:07:50.000Z</time>
      </trkpt>
      <trkpt lat="46.28309" lon="6.45804">
        <ele>884.06</ele>
        <time>2019-03-23T14:07:55.000Z</time>
      </trkpt>
      <trkpt lat="46.28296" lon="6.45796">
        <ele>882.01</ele>
        <time>2019-03-23T14:08:00.000Z</time>
      </trkpt>
      <trkpt lat="46.28285" lon="6.45785">
        <ele>883.12</ele>
        <time>2019-03-23T14:08:05.000Z</time>
      </trkpt>
      <trkpt lat="46.28277" lon="6.45771">
        <ele>885.87</ele>
        <time>2019-03-23T14:08:10.000Z</time>
      </trkpt>
      <trkpt lat="46.28267" lon="6.4576">
        <ele>885</ele>
        <time>2019-03-23T14:08:15.000Z</time>
      </trkpt>
      <trkpt lat="46.28254" lon="6.45756">
        <ele>883.27</ele>
        <time>2019-03-23T14:08:20.000Z</time>
      </trkpt>
      <trkpt lat="46.28241" lon="6.4575">
        <ele>883.98</ele>
        <time>2019-03-23T14:08:25.000Z</time>
      </trkpt>
      <trkpt lat="46.28226" lon="6.45744">
        <ele>883.02</ele>
        <time>2019-03-23T14:08:30.000Z</time>
      </trkpt>
      <trkpt lat="46.2821" lon="6.4574">
        <ele>883.06</ele>
        <time>2019-03-23T14:08:35.000Z</time>
      </trkpt>
      <trkpt lat="46.28199" lon="6.45723">
        <ele>885.63</ele>
        <time>2019-03-23T14:08:40.000Z</time>
      </trkpt>
      <trkpt lat="46.28191" lon="6.45704">
        <ele>885.25</ele>
        <time>2019-03-23T14:08:45.000Z</time>
      </trkpt>
      <trkpt lat="46.28184" lon="6.45684">
        <ele>887</ele>
        <time>2019-03-23T14:08:50.000Z</time>
      </trkpt>
      <trkpt lat="46.28177" lon="6.45665">
        <ele>884.09</ele>
        <time>2019-03-23T14:08:55.000Z</time>
      </trkpt>
      <trkpt lat="46.28169" lon="6.45644">
        <ele>886.94</ele>
        <time>2019-03-23T14:09:00.000Z</time>
      </trkpt>
      <trkpt lat="46.28162" lon="6.45624">
        <ele>888.76</ele>
        <time>2019-03-23T14:09:05.000Z</time>
      </trkpt>
      <trkpt lat="46.28156" lon="6.45604">
        <ele>889</ele>
        <time>2019-03-23T14:09:10.000Z</time>
      </trkpt>
      <trkpt lat="46.2815" lon="6.45586">
        <ele>889.06</ele>
        <time>2019-03-23T14:09:15.000Z</time>
      </trkpt>
      <trkpt lat="46.28145" lon="6.45567">
        <ele>888</ele>
        <time>2019-03-23T14:09:20.000Z</time>
      </trkpt>
      <trkpt lat="46.28141" lon="6.45548">
        <ele>887.77</ele>
        <time>2019-03-23T14:09:25.000Z</time>
      </trkpt>
      <trkpt lat="46.28136" lon="6.45528">
        <ele>887.77</ele>
        <time>2019-03-23T14:09:30.000Z</time>
      </trkpt>
      <trkpt lat="46.28128" lon="6.45507">
        <ele>889.75</ele>
        <time>2019-03-23T14:09:35.000Z</time>
      </trkpt>
      <trkpt lat="46.28118" lon="6.45488">
        <ele>891</ele>
        <time>2019-03-23T14:09:40.000Z</time>
      </trkpt>
      <trkpt lat="46.28106" lon="6.45472">
        <ele>892</ele>
        <time>2019-03-23T14:09:45.000Z</time>
      </trkpt>
      <trkpt lat="46.28092" lon="6.45455">
        <ele>894.73</ele>
        <time>2019-03-23T14:09:50.000Z</time>
      </trkpt>
      <trkpt lat="46.28077" lon="6.4544">
        <ele>896.23</ele>
        <time>2019-03-23T14:09:55.000Z</time>
      </trkpt>
      <trkpt lat="46.28063" lon="6.45425">
        <ele>896.05</ele>
        <time>2019-03-23T14:10:00.000Z</time>
      </trkpt>
      <trkpt lat="46.28049" lon="6.45409">
        <ele>897.75</ele>
        <time>2019-03-23T14:10:05.000Z</time>
      </trkpt>
      <trkpt lat="46.28034" lon="6.45397">
        <ele>897.05</ele>
        <time>2019-03-23T14:10:10.000Z</time>
      </trkpt>
      <trkpt lat="46.28018" lon="6.45394">
        <ele>896.31</ele>
        <time>2019-03-23T14:10:15.000Z</time>
      </trkpt>
      <trkpt lat="46.28005" lon="6.45405">
        <ele>897.94</ele>
        <time>2019-03-23T14:10:20.000Z</time>
      </trkpt>
      <trkpt lat="46.27998" lon="6.45423">
        <ele>898</ele>
        <time>2019-03-23T14:10:25.000Z</time>
      </trkpt>
      <trkpt lat="46.27997" lon="6.45444">
        <ele>898.75</ele>
        <time>2019-03-23T14:10:30.000Z</time>
      </trkpt>
      <trkpt lat="46.28003" lon="6.45464">
        <ele>898.94</ele>
        <time>2019-03-23T14:10:35.000Z</time>
      </trkpt>
      <trkpt lat="46.28016" lon="6.45478">
        <ele>900.75</ele>
        <time>2019-03-23T14:10:40.000Z</time>
      </trkpt>
      <trkpt lat="46.28031" lon="6.45485">
        <ele>901.75</ele>
        <time>2019-03-23T14:10:45.000Z</time>
      </trkpt>
      <trkpt lat="46.28044" lon="6.45494">
        <ele>901.94</ele>
        <time>2019-03-23T14:10:50.000Z</time>
      </trkpt>
      <trkpt lat="46.28057" lon="6.45509">
        <ele>903.75</ele>
        <time>2019-03-23T14:10:55.000Z</time>
      </trkpt>
      <trkpt lat="46.28065" lon="6.45531">
        <ele>904.98</ele>
        <time>2019-03-23T14:11:00.000Z</time>
      </trkpt>
      <trkpt lat="46.28065" lon="6.45551">
        <ele>905.75</ele>
        <time>2019-03-23T14:11:05.000Z</time>
      </trkpt>
      <trkpt lat="46.28056" lon="6.45567">
        <ele>904.25</ele>
        <time>2019-03-23T14:11:10.000Z</time>
      </trkpt>
      <trkpt lat="46.28044" lon="6.45573">
        <ele>903</ele>
        <time>2019-03-23T14:11:15.000Z</time>
      </trkpt>
      <trkpt lat="46.28031" lon="6.45571">
        <ele>902.96</ele>
        <time>2019-03-23T14:11:20.000Z</time>
      </trkpt>
      <trkpt lat="46.28021" lon="6.45562">
        <ele>903</ele>
        <time>2019-03-23T14:11:25.000Z</time>
      </trkpt>
      <trkpt lat="46.28014" lon="6.45548">
        <ele>906.68</ele>
        <time>2019-03-23T14:11:30.000Z</time>
      </trkpt>
      <trkpt lat="46.28009" lon="6.45532">
        <ele>909.73</ele>
        <time>2019-03-23T14:11:35.000Z</time>
      </trkpt>
      <trkpt lat="46.27999" lon="6.45521">
        <ele>910.94</ele>
        <time>2019-03-23T14:11:40.000Z</time>
      </trkpt>
      <trkpt lat="46.27986" lon="6.45515">
        <ele>914.23</ele>
        <time>2019-03-23T14:11:45.000Z</time>
      </trkpt>
      <trkpt lat="46.27972" lon="6.45513">
        <ele>911.04</ele>
        <time>2019-03-23T14:11:50.000Z</time>
      </trkpt>
      <trkpt lat="46.27959" lon="6.45515">
        <ele>908.5</ele>
        <time>2019-03-23T14:11:55.000Z</time>
      </trkpt>
      <trkpt lat="46.27946" lon="6.4552">
        <ele>906.33</ele>
        <time>2019-03-23T14:12:00.000Z</time>
      </trkpt>
      <trkpt lat="46.27933" lon="6.45515">
        <ele>906.75</ele>
        <time>2019-03-23T14:12:05.000Z</time>
      </trkpt>
      <trkpt lat="46.27925" lon="6.45505">
        <ele>909.43</ele>
        <time>2019-03-23T14:12:10.000Z</time>
      </trkpt>
      <trkpt lat="46.27917" lon="6.45492">
        <ele>913.91</ele>
        <time>2019-03-23T14:12:15.000Z</time>
      </trkpt>
      <trkpt lat="46.27905" lon="6.45484">
        <ele>914</ele>
        <time>2019-03-23T14:12:20.000Z</time>
      </trkpt>
      <trkpt lat="46.27892" lon="6.45481">
        <ele>913.08</ele>
        <time>2019-03-23T14:12:25.000Z</time>
      </trkpt>
      <trkpt lat="46.27878" lon="6.45483">
        <ele>913</ele>
        <time>2019-03-23T14:12:30.000Z</time>
      </trkpt>
      <trkpt lat="46.27864" lon="6.45484">
        <ele>915</ele>
        <time>2019-03-23T14:12:35.000Z</time>
      </trkpt>
      <trkpt lat="46.27853" lon="6.45484">
        <ele>915.2</ele>
        <time>2019-03-23T14:12:40.000Z</time>
      </trkpt>
      <trkpt lat="46.27845" lon="6.45474">
        <ele>918.86</ele>
        <time>2019-03-23T14:12:45.000Z</time>
      </trkpt>
      <trkpt lat="46.27841" lon="6.45458">
        <ele>922.92</ele>
        <time>2019-03-23T14:12:50.000Z</time>
      </trkpt>
      <trkpt lat="46.27839" lon="6.4544">
        <ele>923.03</ele>
        <time>2019-03-23T14:12:55.000Z</time>
      </trkpt>
      <trkpt lat="46.2784" lon="6.45426">
        <ele>921.27</ele>
        <time>2019-03-23T14:13:00.000Z</time>
      </trkpt>
      <trkpt lat="46.27839" lon="6.45411">
        <ele>922.44</ele>
        <time>2019-03-23T14:13:05.000Z</time>
      </trkpt>
      <trkpt lat="46.27839" lon="6.45395">
        <ele>928.46</ele>
        <time>2019-03-23T14:13:10.000Z</time>
      </trkpt>
      <trkpt lat="46.27837" lon="6.45376">
        <ele>933.73</ele>
        <time>2019-03-23T14:13:15.000Z</time>
      </trkpt>
      <trkpt lat="46.2783" lon="6.45359">
        <ele>935.73</ele>
        <time>2019-03-23T14:13:20.000Z</time>
      </trkpt>
      <trkpt lat="46.27819" lon="6.45347">
        <ele>936</ele>
        <time>2019-03-23T14:13:25.000Z</time>
      </trkpt>
      <trkpt lat="46.27807" lon="6.45338">
        <ele>934.06</ele>
        <time>2019-03-23T14:13:30.000Z</time>
      </trkpt>
      <trkpt lat="46.27797" lon="6.45332">
        <ele>933.94</ele>
        <time>2019-03-23T14:13:35.000Z</time>
      </trkpt>
      <trkpt lat="46.27784" lon="6.45325">
        <ele>933.07</ele>
        <time>2019-03-23T14:13:40.000Z</time>
      </trkpt>
      <trkpt lat="46.27772" lon="6.45322">
        <ele>930.96</ele>
        <time>2019-03-23T14:13:45.000Z</time>
      </trkpt>
      <trkpt lat="46.27763" lon="6.45325">
        <ele>928.34</ele>
        <time>2019-03-23T14:13:50.000Z</time>
      </trkpt>
      <trkpt lat="46.27753" lon="6.45331">
        <ele>929.23</ele>
        <time>2019-03-23T14:13:55.000Z</time>
      </trkpt>
      <trkpt lat="46.27745" lon="6.45339">
        <ele>928.31</ele>
        <time>2019-03-23T14:14:01.000Z</time>
      </trkpt>
      <trkpt lat="46.27741" lon="6.45355">
        <ele>928.69</ele>
        <time>2019-03-23T14:14:06.000Z</time>
      </trkpt>
      <trkpt lat="46.27738" lon="6.45374">
        <ele>930.98</ele>
        <time>2019-03-23T14:14:11.000Z</time>
      </trkpt>
      <trkpt lat="46.27733" lon="6.45393">
        <ele>934.03</ele>
        <time>2019-03-23T14:14:16.000Z</time>
      </trkpt>
      <trkpt lat="46.27734" lon="6.45412">
        <ele>937.76</ele>
        <time>2019-03-23T14:14:21.000Z</time>
      </trkpt>
      <trkpt lat="46.27744" lon="6.45424">
        <ele>940.73</ele>
        <time>2019-03-23T14:14:26.000Z</time>
      </trkpt>
      <trkpt lat="46.2775" lon="6.45434">
        <ele>942.49</ele>
        <time>2019-03-23T14:14:31.000Z</time>
      </trkpt>
      <trkpt lat="46.27759" lon="6.45446">
        <ele>944.22</ele>
        <time>2019-03-23T14:14:36.000Z</time>
      </trkpt>
      <trkpt lat="46.2777" lon="6.45456">
        <ele>945.98</ele>
        <time>2019-03-23T14:14:41.000Z</time>
      </trkpt>
      <trkpt lat="46.27778" lon="6.45467">
        <ele>944.2</ele>
        <time>2019-03-23T14:14:46.000Z</time>
      </trkpt>
      <trkpt lat="46.27792" lon="6.45473">
        <ele>943.94</ele>
        <time>2019-03-23T14:14:51.000Z</time>
      </trkpt>
      <trkpt lat="46.27801" lon="6.45482">
        <ele>945.98</ele>
        <time>2019-03-23T14:14:56.000Z</time>
      </trkpt>
      <trkpt lat="46.2781" lon="6.45491">
        <ele>946.94</ele>
        <time>2019-03-23T14:15:01.000Z</time>
      </trkpt>
      <trkpt lat="46.27818" lon="6.45505">
        <ele>945.02</ele>
        <time>2019-03-23T14:15:06.000Z</time>
      </trkpt>
      <trkpt lat="46.27823" lon="6.45516">
        <ele>945</ele>
        <time>2019-03-23T14:15:11.000Z</time>
      </trkpt>
      <trkpt lat="46.2783" lon="6.45529">
        <ele>945.98</ele>
        <time>2019-03-23T14:15:17.000Z</time>
      </trkpt>
      <trkpt lat="46.27839" lon="6.4554">
        <ele>951.48</ele>
        <time>2019-03-23T14:15:23.000Z</time>
      </trkpt>
      <trkpt lat="46.27846" lon="6.45557">
        <ele>943.34</ele>
        <time>2019-03-23T14:15:28.000Z</time>
      </trkpt>
      <trkpt lat="46.27854" lon="6.45569">
        <ele>942</ele>
        <time>2019-03-23T14:15:33.000Z</time>
      </trkpt>
      <trkpt lat="46.2786" lon="6.45583">
        <ele>941.94</ele>
        <time>2019-03-23T14:15:38.000Z</time>
      </trkpt>
      <trkpt lat="46.27866" lon="6.45598">
        <ele>942.98</ele>
        <time>2019-03-23T14:15:43.000Z</time>
      </trkpt>
      <trkpt lat="46.27874" lon="6.45613">
        <ele>943.98</ele>
        <time>2019-03-23T14:15:48.000Z</time>
      </trkpt>
      <trkpt lat="46.27884" lon="6.45623">
        <ele>943.74</ele>
        <time>2019-03-23T14:15:53.000Z</time>
      </trkpt>
      <trkpt lat="46.279" lon="6.45628">
        <ele>947.04</ele>
        <time>2019-03-23T14:15:58.000Z</time>
      </trkpt>
      <trkpt lat="46.27918" lon="6.4563">
        <ele>948.73</ele>
        <time>2019-03-23T14:16:03.000Z</time>
      </trkpt>
      <trkpt lat="46.27932" lon="6.45633">
        <ele>951.67</ele>
        <time>2019-03-23T14:16:08.000Z</time>
      </trkpt>
      <trkpt lat="46.27944" lon="6.45636">
        <ele>955.99</ele>
        <time>2019-03-23T14:16:13.000Z</time>
      </trkpt>
      <trkpt lat="46.27955" lon="6.45642">
        <ele>955.77</ele>
        <time>2019-03-23T14:16:18.000Z</time>
      </trkpt>
      <trkpt lat="46.27966" lon="6.45651">
        <ele>957.94</ele>
        <time>2019-03-23T14:16:23.000Z</time>
      </trkpt>
      <trkpt lat="46.27974" lon="6.45663">
        <ele>957.82</ele>
        <time>2019-03-23T14:16:28.000Z</time>
      </trkpt>
      <trkpt lat="46.2798" lon="6.45676">
        <ele>959.75</ele>
        <time>2019-03-23T14:16:33.000Z</time>
      </trkpt>
      <trkpt lat="46.27979" lon="6.45692">
        <ele>958</ele>
        <time>2019-03-23T14:16:38.000Z</time>
      </trkpt>
      <trkpt lat="46.27977" lon="6.45709">
        <ele>958</ele>
        <time>2019-03-23T14:16:43.000Z</time>
      </trkpt>
      <trkpt lat="46.27975" lon="6.45724">
        <ele>959</ele>
        <time>2019-03-23T14:16:48.000Z</time>
      </trkpt>
      <trkpt lat="46.27976" lon="6.45741">
        <ele>959.98</ele>
        <time>2019-03-23T14:16:53.000Z</time>
      </trkpt>
      <trkpt lat="46.27984" lon="6.45759">
        <ele>961.93</ele>
        <time>2019-03-23T14:16:58.000Z</time>
      </trkpt>
      <trkpt lat="46.27996" lon="6.4577">
        <ele>963.75</ele>
        <time>2019-03-23T14:17:03.000Z</time>
      </trkpt>
      <trkpt lat="46.28011" lon="6.45775">
        <ele>965.92</ele>
        <time>2019-03-23T14:17:08.000Z</time>
      </trkpt>
      <trkpt lat="46.28027" lon="6.45775">
        <ele>966.97</ele>
        <time>2019-03-23T14:17:13.000Z</time>
      </trkpt>
      <trkpt lat="46.28041" lon="6.45777">
        <ele>966.06</ele>
        <time>2019-03-23T14:17:18.000Z</time>
      </trkpt>
      <trkpt lat="46.28053" lon="6.45787">
        <ele>966.2</ele>
        <time>2019-03-23T14:17:23.000Z</time>
      </trkpt>
      <trkpt lat="46.28062" lon="6.45803">
        <ele>968.92</ele>
        <time>2019-03-23T14:17:28.000Z</time>
      </trkpt>
      <trkpt lat="46.28061" lon="6.45821">
        <ele>969.24</ele>
        <time>2019-03-23T14:17:33.000Z</time>
      </trkpt>
      <trkpt lat="46.28059" lon="6.45836">
        <ele>967.51</ele>
        <time>2019-03-23T14:17:38.000Z</time>
      </trkpt>
      <trkpt lat="46.28045" lon="6.45848">
        <ele>965.25</ele>
        <time>2019-03-23T14:17:43.000Z</time>
      </trkpt>
      <trkpt lat="46.28033" lon="6.45851">
        <ele>963.06</ele>
        <time>2019-03-23T14:17:48.000Z</time>
      </trkpt>
      <trkpt lat="46.28022" lon="6.45845">
        <ele>964.75</ele>
        <time>2019-03-23T14:17:53.000Z</time>
      </trkpt>
      <trkpt lat="46.28012" lon="6.45834">
        <ele>965</ele>
        <time>2019-03-23T14:17:58.000Z</time>
      </trkpt>
      <trkpt lat="46.28006" lon="6.45822">
        <ele>966.93</ele>
        <time>2019-03-23T14:18:03.000Z</time>
      </trkpt>
      <trkpt lat="46.27994" lon="6.4581">
        <ele>967</ele>
        <time>2019-03-23T14:18:08.000Z</time>
      </trkpt>
      <trkpt lat="46.27985" lon="6.45799">
        <ele>967</ele>
        <time>2019-03-23T14:18:13.000Z</time>
      </trkpt>
      <trkpt lat="46.27974" lon="6.45788">
        <ele>968.17</ele>
        <time>2019-03-23T14:18:18.000Z</time>
      </trkpt>
      <trkpt lat="46.27965" lon="6.45775">
        <ele>968.7</ele>
        <time>2019-03-23T14:18:23.000Z</time>
      </trkpt>
      <trkpt lat="46.27958" lon="6.45757">
        <ele>974.54</ele>
        <time>2019-03-23T14:18:28.000Z</time>
      </trkpt>
      <trkpt lat="46.2795" lon="6.45745">
        <ele>975.93</ele>
        <time>2019-03-23T14:18:33.000Z</time>
      </trkpt>
      <trkpt lat="46.27943" lon="6.45732">
        <ele>977.75</ele>
        <time>2019-03-23T14:18:38.000Z</time>
      </trkpt>
      <trkpt lat="46.27933" lon="6.4572">
        <ele>978.98</ele>
        <time>2019-03-23T14:18:43.000Z</time>
      </trkpt>
      <trkpt lat="46.27921" lon="6.45712">
        <ele>979</ele>
        <time>2019-03-23T14:18:48.000Z</time>
      </trkpt>
      <trkpt lat="46.27911" lon="6.45705">
        <ele>979.05</ele>
        <time>2019-03-23T14:18:53.000Z</time>
      </trkpt>
      <trkpt lat="46.27899" lon="6.45698">
        <ele>980.75</ele>
        <time>2019-03-23T14:18:58.000Z</time>
      </trkpt>
      <trkpt lat="46.27886" lon="6.45689">
        <ele>981.93</ele>
        <time>2019-03-23T14:19:03.000Z</time>
      </trkpt>
      <trkpt lat="46.27874" lon="6.4568">
        <ele>984.93</ele>
        <time>2019-03-23T14:19:08.000Z</time>
      </trkpt>
      <trkpt lat="46.27863" lon="6.45672">
        <ele>987.92</ele>
        <time>2019-03-23T14:19:13.000Z</time>
      </trkpt>
      <trkpt lat="46.27852" lon="6.45664">
        <ele>987.25</ele>
        <time>2019-03-23T14:19:18.000Z</time>
      </trkpt>
      <trkpt lat="46.2784" lon="6.45658">
        <ele>988</ele>
        <time>2019-03-23T14:19:23.000Z</time>
      </trkpt>
      <trkpt lat="46.27829" lon="6.45653">
        <ele>992.16</ele>
        <time>2019-03-23T14:19:28.000Z</time>
      </trkpt>
      <trkpt lat="46.27818" lon="6.45652">
        <ele>990.08</ele>
        <time>2019-03-23T14:19:33.000Z</time>
      </trkpt>
      <trkpt lat="46.27804" lon="6.45652">
        <ele>989.81</ele>
        <time>2019-03-23T14:19:38.000Z</time>
      </trkpt>
      <trkpt lat="46.27794" lon="6.45646">
        <ele>989.95</ele>
        <time>2019-03-23T14:19:43.000Z</time>
      </trkpt>
      <trkpt lat="46.27784" lon="6.45635">
        <ele>989.94</ele>
        <time>2019-03-23T14:19:48.000Z</time>
      </trkpt>
      <trkpt lat="46.27776" lon="6.45621">
        <ele>993.67</ele>
        <time>2019-03-23T14:19:53.000Z</time>
      </trkpt>
      <trkpt lat="46.27766" lon="6.45612">
        <ele>994.98</ele>
        <time>2019-03-23T14:19:58.000Z</time>
      </trkpt>
      <trkpt lat="46.27755" lon="6.45606">
        <ele>994.25</ele>
        <time>2019-03-23T14:20:03.000Z</time>
      </trkpt>
      <trkpt lat="46.27745" lon="6.45601">
        <ele>992.21</ele>
        <time>2019-03-23T14:20:08.000Z</time>
      </trkpt>
      <trkpt lat="46.27732" lon="6.456">
        <ele>991.99</ele>
        <time>2019-03-23T14:20:13.000Z</time>
      </trkpt>
      <trkpt lat="46.2772" lon="6.45597">
        <ele>992.75</ele>
        <time>2019-03-23T14:20:18.000Z</time>
      </trkpt>
      <trkpt lat="46.27713" lon="6.45585">
        <ele>993.98</ele>
        <time>2019-03-23T14:20:23.000Z</time>
      </trkpt>
      <trkpt lat="46.27709" lon="6.45569">
        <ele>997.67</ele>
        <time>2019-03-23T14:20:28.000Z</time>
      </trkpt>
      <trkpt lat="46.27706" lon="6.45551">
        <ele>997.24</ele>
        <time>2019-03-23T14:20:33.000Z</time>
      </trkpt>
      <trkpt lat="46.27699" lon="6.45538">
        <ele>996.06</ele>
        <time>2019-03-23T14:20:38.000Z</time>
      </trkpt>
      <trkpt lat="46.27691" lon="6.45524">
        <ele>997.68</ele>
        <time>2019-03-23T14:20:43.000Z</time>
      </trkpt>
      <trkpt lat="46.2768" lon="6.45514">
        <ele>999.23</ele>
        <time>2019-03-23T14:20:48.000Z</time>
      </trkpt>
      <trkpt lat="46.27669" lon="6.45507">
        <ele>1000</ele>
        <time>2019-03-23T14:20:53.000Z</time>
      </trkpt>
      <trkpt lat="46.27658" lon="6.45504">
        <ele>999.25</ele>
        <time>2019-03-23T14:20:58.000Z</time>
      </trkpt>
      <trkpt lat="46.27647" lon="6.45503">
        <ele>1001.17</ele>
        <time>2019-03-23T14:21:03.000Z</time>
      </trkpt>
      <trkpt lat="46.27637" lon="6.45502">
        <ele>1000.25</ele>
        <time>2019-03-23T14:21:08.000Z</time>
      </trkpt>
      <trkpt lat="46.27624" lon="6.45504">
        <ele>1001.8</ele>
        <time>2019-03-23T14:21:13.000Z</time>
      </trkpt>
      <trkpt lat="46.27613" lon="6.45503">
        <ele>1001.94</ele>
        <time>2019-03-23T14:21:18.000Z</time>
      </trkpt>
      <trkpt lat="46.27602" lon="6.45501">
        <ele>1003.75</ele>
        <time>2019-03-23T14:21:23.000Z</time>
      </trkpt>
      <trkpt lat="46.27589" lon="6.45497">
        <ele>1004.74</ele>
        <time>2019-03-23T14:21:28.000Z</time>
      </trkpt>
      <trkpt lat="46.27577" lon="6.45489">
        <ele>1008.73</ele>
        <time>2019-03-23T14:21:33.000Z</time>
      </trkpt>
      <trkpt lat="46.27566" lon="6.45478">
        <ele>1011.62</ele>
        <time>2019-03-23T14:21:38.000Z</time>
      </trkpt>
      <trkpt lat="46.27559" lon="6.45469">
        <ele>1012.18</ele>
        <time>2019-03-23T14:21:43.000Z</time>
      </trkpt>
      <trkpt lat="46.27548" lon="6.45458">
        <ele>1012.94</ele>
        <time>2019-03-23T14:21:48.000Z</time>
      </trkpt>
      <trkpt lat="46.27539" lon="6.45446">
        <ele>1011.82</ele>
        <time>2019-03-23T14:21:53.000Z</time>
      </trkpt>
      <trkpt lat="46.27529" lon="6.45435">
        <ele>1010.96</ele>
        <time>2019-03-23T14:21:58.000Z</time>
      </trkpt>
      <trkpt lat="46.27519" lon="6.45429">
        <ele>1010.81</ele>
        <time>2019-03-23T14:22:03.000Z</time>
      </trkpt>
      <trkpt lat="46.2751" lon="6.45421">
        <ele>1011.06</ele>
        <time>2019-03-23T14:22:08.000Z</time>
      </trkpt>
      <trkpt lat="46.27499" lon="6.45413">
        <ele>1009.25</ele>
        <time>2019-03-23T14:22:13.000Z</time>
      </trkpt>
      <trkpt lat="46.27488" lon="6.45404">
        <ele>1008.25</ele>
        <time>2019-03-23T14:22:18.000Z</time>
      </trkpt>
      <trkpt lat="46.27478" lon="6.45399">
        <ele>1007.07</ele>
        <time>2019-03-23T14:22:23.000Z</time>
      </trkpt>
      <trkpt lat="46.27468" lon="6.4539">
        <ele>1008.04</ele>
        <time>2019-03-23T14:22:28.000Z</time>
      </trkpt>
      <trkpt lat="46.27458" lon="6.45382">
        <ele>1009.69</ele>
        <time>2019-03-23T14:22:33.000Z</time>
      </trkpt>
      <trkpt lat="46.27447" lon="6.45374">
        <ele>1009.25</ele>
        <time>2019-03-23T14:22:38.000Z</time>
      </trkpt>
      <trkpt lat="46.27437" lon="6.45365">
        <ele>1013.67</ele>
        <time>2019-03-23T14:22:43.000Z</time>
      </trkpt>
      <trkpt lat="46.27429" lon="6.45357">
        <ele>1012.27</ele>
        <time>2019-03-23T14:22:48.000Z</time>
      </trkpt>
      <trkpt lat="46.27423" lon="6.45346">
        <ele>1012.52</ele>
        <time>2019-03-23T14:22:53.000Z</time>
      </trkpt>
      <trkpt lat="46.27417" lon="6.45327">
        <ele>1018.64</ele>
        <time>2019-03-23T14:22:58.000Z</time>
      </trkpt>
      <trkpt lat="46.27414" lon="6.45312">
        <ele>1020.75</ele>
        <time>2019-03-23T14:23:03.000Z</time>
      </trkpt>
      <trkpt lat="46.27413" lon="6.45293">
        <ele>1022.69</ele>
        <time>2019-03-23T14:23:08.000Z</time>
      </trkpt>
      <trkpt lat="46.2741" lon="6.45276">
        <ele>1025.93</ele>
        <time>2019-03-23T14:23:13.000Z</time>
      </trkpt>
      <trkpt lat="46.27405" lon="6.4526">
        <ele>1027.93</ele>
        <time>2019-03-23T14:23:18.000Z</time>
      </trkpt>
      <trkpt lat="46.27398" lon="6.45245">
        <ele>1029.94</ele>
        <time>2019-03-23T14:23:23.000Z</time>
      </trkpt>
      <trkpt lat="46.27389" lon="6.45235">
        <ele>1031.98</ele>
        <time>2019-03-23T14:23:28.000Z</time>
      </trkpt>
      <trkpt lat="46.27379" lon="6.45229">
        <ele>1030.06</ele>
        <time>2019-03-23T14:23:33.000Z</time>
      </trkpt>
      <trkpt lat="46.27367" lon="6.45223">
        <ele>1030</ele>
        <time>2019-03-23T14:23:38.000Z</time>
      </trkpt>
      <trkpt lat="46.27357" lon="6.45215">
        <ele>1031</ele>
        <time>2019-03-23T14:23:43.000Z</time>
      </trkpt>
      <trkpt lat="46.27346" lon="6.45208">
        <ele>1032</ele>
        <time>2019-03-23T14:23:48.000Z</time>
      </trkpt>
      <trkpt lat="46.27335" lon="6.45202">
        <ele>1032</ele>
        <time>2019-03-23T14:23:53.000Z</time>
      </trkpt>
      <trkpt lat="46.27325" lon="6.45199">
        <ele>1033</ele>
        <time>2019-03-23T14:23:58.000Z</time>
      </trkpt>
      <trkpt lat="46.27313" lon="6.45195">
        <ele>1034.94</ele>
        <time>2019-03-23T14:24:03.000Z</time>
      </trkpt>
      <trkpt lat="46.27301" lon="6.45192">
        <ele>1036</ele>
        <time>2019-03-23T14:24:08.000Z</time>
      </trkpt>
      <trkpt lat="46.2729" lon="6.45188">
        <ele>1035.81</ele>
        <time>2019-03-23T14:24:13.000Z</time>
      </trkpt>
      <trkpt lat="46.27278" lon="6.45186">
        <ele>1036.75</ele>
        <time>2019-03-23T14:24:18.000Z</time>
      </trkpt>
      <trkpt lat="46.27268" lon="6.45187">
        <ele>1035.02</ele>
        <time>2019-03-23T14:24:23.000Z</time>
      </trkpt>
      <trkpt lat="46.27257" lon="6.45192">
        <ele>1035.98</ele>
        <time>2019-03-23T14:24:28.000Z</time>
      </trkpt>
      <trkpt lat="46.27246" lon="6.45198">
        <ele>1036.94</ele>
        <time>2019-03-23T14:24:33.000Z</time>
      </trkpt>
      <trkpt lat="46.27235" lon="6.45205">
        <ele>1037.98</ele>
        <time>2019-03-23T14:24:38.000Z</time>
      </trkpt>
      <trkpt lat="46.27222" lon="6.45211">
        <ele>1038.2</ele>
        <time>2019-03-23T14:24:43.000Z</time>
      </trkpt>
      <trkpt lat="46.27212" lon="6.45217">
        <ele>1037.31</ele>
        <time>2019-03-23T14:24:49.000Z</time>
      </trkpt>
      <trkpt lat="46.272" lon="6.45224">
        <ele>1037.94</ele>
        <time>2019-03-23T14:24:54.000Z</time>
      </trkpt>
      <trkpt lat="46.27189" lon="6.45232">
        <ele>1037.45</ele>
        <time>2019-03-23T14:24:59.000Z</time>
      </trkpt>
      <trkpt lat="46.27178" lon="6.45238">
        <ele>1038.75</ele>
        <time>2019-03-23T14:25:04.000Z</time>
      </trkpt>
      <trkpt lat="46.27166" lon="6.45252">
        <ele>1040.68</ele>
        <time>2019-03-23T14:25:09.000Z</time>
      </trkpt>
      <trkpt lat="46.27156" lon="6.45258">
        <ele>1041.75</ele>
        <time>2019-03-23T14:25:14.000Z</time>
      </trkpt>
      <trkpt lat="46.27145" lon="6.45264">
        <ele>1041.78</ele>
        <time>2019-03-23T14:25:19.000Z</time>
      </trkpt>
      <trkpt lat="46.27136" lon="6.45267">
        <ele>1038.04</ele>
        <time>2019-03-23T14:25:24.000Z</time>
      </trkpt>
      <trkpt lat="46.27124" lon="6.45274">
        <ele>1036.69</ele>
        <time>2019-03-23T14:25:29.000Z</time>
      </trkpt>
      <trkpt lat="46.27113" lon="6.45281">
        <ele>1036.99</ele>
        <time>2019-03-23T14:25:34.000Z</time>
      </trkpt>
      <trkpt lat="46.27102" lon="6.45287">
        <ele>1038.75</ele>
        <time>2019-03-23T14:25:39.000Z</time>
      </trkpt>
      <trkpt lat="46.2709" lon="6.45294">
        <ele>1041.92</ele>
        <time>2019-03-23T14:25:44.000Z</time>
      </trkpt>
      <trkpt lat="46.2708" lon="6.45297">
        <ele>1042.76</ele>
        <time>2019-03-23T14:25:49.000Z</time>
      </trkpt>
      <trkpt lat="46.27068" lon="6.45297">
        <ele>1047.85</ele>
        <time>2019-03-23T14:25:54.000Z</time>
      </trkpt>
      <trkpt lat="46.27057" lon="6.45296">
        <ele>1049</ele>
        <time>2019-03-23T14:25:59.000Z</time>
      </trkpt>
      <trkpt lat="46.27046" lon="6.45294">
        <ele>1050.75</ele>
        <time>2019-03-23T14:26:04.000Z</time>
      </trkpt>
      <trkpt lat="46.27034" lon="6.45292">
        <ele>1050.7</ele>
        <time>2019-03-23T14:26:09.000Z</time>
      </trkpt>
      <trkpt lat="46.27024" lon="6.45289">
        <ele>1053.74</ele>
        <time>2019-03-23T14:26:14.000Z</time>
      </trkpt>
      <trkpt lat="46.27013" lon="6.45285">
        <ele>1053.25</ele>
        <time>2019-03-23T14:26:19.000Z</time>
      </trkpt>
      <trkpt lat="46.27001" lon="6.45283">
        <ele>1054.17</ele>
        <time>2019-03-23T14:26:24.000Z</time>
      </trkpt>
      <trkpt lat="46.26989" lon="6.45282">
        <ele>1054.01</ele>
        <time>2019-03-23T14:26:29.000Z</time>
      </trkpt>
      <trkpt lat="46.26976" lon="6.45282">
        <ele>1055.86</ele>
        <time>2019-03-23T14:26:34.000Z</time>
      </trkpt>
      <trkpt lat="46.26964" lon="6.45283">
        <ele>1057.98</ele>
        <time>2019-03-23T14:26:39.000Z</time>
      </trkpt>
      <trkpt lat="46.26952" lon="6.45282">
        <ele>1057.06</ele>
        <time>2019-03-23T14:26:44.000Z</time>
      </trkpt>
      <trkpt lat="46.26941" lon="6.45281">
        <ele>1056</ele>
        <time>2019-03-23T14:26:49.000Z</time>
      </trkpt>
      <trkpt lat="46.26929" lon="6.45281">
        <ele>1057.75</ele>
        <time>2019-03-23T14:26:54.000Z</time>
      </trkpt>
      <trkpt lat="46.26916" lon="6.45279">
        <ele>1058.74</ele>
        <time>2019-03-23T14:26:59.000Z</time>
      </trkpt>
      <trkpt lat="46.26904" lon="6.45277">
        <ele>1057.08</ele>
        <time>2019-03-23T14:27:04.000Z</time>
      </trkpt>
      <trkpt lat="46.2689" lon="6.45274">
        <ele>1057.94</ele>
        <time>2019-03-23T14:27:09.000Z</time>
      </trkpt>
      <trkpt lat="46.26877" lon="6.45271">
        <ele>1058.75</ele>
        <time>2019-03-23T14:27:14.000Z</time>
      </trkpt>
      <trkpt lat="46.26866" lon="6.45268">
        <ele>1059</ele>
        <time>2019-03-23T14:27:19.000Z</time>
      </trkpt>
      <trkpt lat="46.26853" lon="6.45265">
        <ele>1061.73</ele>
        <time>2019-03-23T14:27:24.000Z</time>
      </trkpt>
      <trkpt lat="46.26841" lon="6.45263">
        <ele>1063.17</ele>
        <time>2019-03-23T14:27:29.000Z</time>
      </trkpt>
      <trkpt lat="46.2683" lon="6.45258">
        <ele>1064.75</ele>
        <time>2019-03-23T14:27:34.000Z</time>
      </trkpt>
      <trkpt lat="46.26818" lon="6.45254">
        <ele>1066.23</ele>
        <time>2019-03-23T14:27:39.000Z</time>
      </trkpt>
      <trkpt lat="46.26807" lon="6.4525">
        <ele>1066</ele>
        <time>2019-03-23T14:27:44.000Z</time>
      </trkpt>
      <trkpt lat="46.26797" lon="6.45246">
        <ele>1065.06</ele>
        <time>2019-03-23T14:27:49.000Z</time>
      </trkpt>
      <trkpt lat="46.26784" lon="6.45244">
        <ele>1064.75</ele>
        <time>2019-03-23T14:27:54.000Z</time>
      </trkpt>
      <trkpt lat="46.2677" lon="6.45235">
        <ele>1068.92</ele>
        <time>2019-03-23T14:27:59.000Z</time>
      </trkpt>
      <trkpt lat="46.26755" lon="6.45233">
        <ele>1070.75</ele>
        <time>2019-03-23T14:28:04.000Z</time>
      </trkpt>
      <trkpt lat="46.26741" lon="6.45227">
        <ele>1072.92</ele>
        <time>2019-03-23T14:28:09.000Z</time>
      </trkpt>
      <trkpt lat="46.26729" lon="6.45222">
        <ele>1073</ele>
        <time>2019-03-23T14:28:14.000Z</time>
      </trkpt>
      <trkpt lat="46.26717" lon="6.45217">
        <ele>1071.02</ele>
        <time>2019-03-23T14:28:19.000Z</time>
      </trkpt>
      <trkpt lat="46.26706" lon="6.45211">
        <ele>1070.99</ele>
        <time>2019-03-23T14:28:24.000Z</time>
      </trkpt>
      <trkpt lat="46.26695" lon="6.45206">
        <ele>1072.93</ele>
        <time>2019-03-23T14:28:29.000Z</time>
      </trkpt>
      <trkpt lat="46.26682" lon="6.45203">
        <ele>1072.19</ele>
        <time>2019-03-23T14:28:34.000Z</time>
      </trkpt>
      <trkpt lat="46.2667" lon="6.45202">
        <ele>1071.25</ele>
        <time>2019-03-23T14:28:39.000Z</time>
      </trkpt>
      <trkpt lat="46.26658" lon="6.452">
        <ele>1070.07</ele>
        <time>2019-03-23T14:28:44.000Z</time>
      </trkpt>
      <trkpt lat="46.26645" lon="6.45197">
        <ele>1070.19</ele>
        <time>2019-03-23T14:28:49.000Z</time>
      </trkpt>
      <trkpt lat="46.26632" lon="6.45197">
        <ele>1071.93</ele>
        <time>2019-03-23T14:28:54.000Z</time>
      </trkpt>
      <trkpt lat="46.26619" lon="6.45194">
        <ele>1071.31</ele>
        <time>2019-03-23T14:28:59.000Z</time>
      </trkpt>
      <trkpt lat="46.26607" lon="6.45187">
        <ele>1073.92</ele>
        <time>2019-03-23T14:29:04.000Z</time>
      </trkpt>
      <trkpt lat="46.26596" lon="6.45183">
        <ele>1076.19</ele>
        <time>2019-03-23T14:29:09.000Z</time>
      </trkpt>
      <trkpt lat="46.26584" lon="6.4518">
        <ele>1077</ele>
        <time>2019-03-23T14:29:14.000Z</time>
      </trkpt>
      <trkpt lat="46.26572" lon="6.45181">
        <ele>1077.74</ele>
        <time>2019-03-23T14:29:19.000Z</time>
      </trkpt>
      <trkpt lat="46.2656" lon="6.45181">
        <ele>1079.73</ele>
        <time>2019-03-23T14:29:24.000Z</time>
      </trkpt>
      <trkpt lat="46.26548" lon="6.45187">
        <ele>1077.01</ele>
        <time>2019-03-23T14:29:29.000Z</time>
      </trkpt>
      <trkpt lat="46.26535" lon="6.45191">
        <ele>1072.06</ele>
        <time>2019-03-23T14:29:34.000Z</time>
      </trkpt>
      <trkpt lat="46.26523" lon="6.45188">
        <ele>1075.92</ele>
        <time>2019-03-23T14:29:39.000Z</time>
      </trkpt>
      <trkpt lat="46.26511" lon="6.45186">
        <ele>1078.73</ele>
        <time>2019-03-23T14:29:44.000Z</time>
      </trkpt>
      <trkpt lat="46.26499" lon="6.45183">
        <ele>1074.25</ele>
        <time>2019-03-23T14:29:49.000Z</time>
      </trkpt>
      <trkpt lat="46.26487" lon="6.4518">
        <ele>1076.92</ele>
        <time>2019-03-23T14:29:54.000Z</time>
      </trkpt>
      <trkpt lat="46.26476" lon="6.45177">
        <ele>1078.93</ele>
        <time>2019-03-23T14:29:59.000Z</time>
      </trkpt>
      <trkpt lat="46.26464" lon="6.45169">
        <ele>1082.67</ele>
        <time>2019-03-23T14:30:04.000Z</time>
      </trkpt>
      <trkpt lat="46.26452" lon="6.45161">
        <ele>1089.6</ele>
        <time>2019-03-23T14:30:09.000Z</time>
      </trkpt>
      <trkpt lat="46.26439" lon="6.45158">
        <ele>1092.87</ele>
        <time>2019-03-23T14:30:14.000Z</time>
      </trkpt>
      <trkpt lat="46.26426" lon="6.45149">
        <ele>1097.48</ele>
        <time>2019-03-23T14:30:19.000Z</time>
      </trkpt>
      <trkpt lat="46.26412" lon="6.45138">
        <ele>1102.73</ele>
        <time>2019-03-23T14:30:24.000Z</time>
      </trkpt>
      <trkpt lat="46.26401" lon="6.45132">
        <ele>1103.93</ele>
        <time>2019-03-23T14:30:29.000Z</time>
      </trkpt>
      <trkpt lat="46.26391" lon="6.45118">
        <ele>1105.89</ele>
        <time>2019-03-23T14:30:34.000Z</time>
      </trkpt>
      <trkpt lat="46.26384" lon="6.45104">
        <ele>1105</ele>
        <time>2019-03-23T14:30:39.000Z</time>
      </trkpt>
      <trkpt lat="46.2638" lon="6.45088">
        <ele>1103</ele>
        <time>2019-03-23T14:30:44.000Z</time>
      </trkpt>
      <trkpt lat="46.2637" lon="6.45078">
        <ele>1103</ele>
        <time>2019-03-23T14:30:49.000Z</time>
      </trkpt>
      <trkpt lat="46.26358" lon="6.45071">
        <ele>1102.99</ele>
        <time>2019-03-23T14:30:54.000Z</time>
      </trkpt>
      <trkpt lat="46.26346" lon="6.45068">
        <ele>1103.01</ele>
        <time>2019-03-23T14:30:59.000Z</time>
      </trkpt>
      <trkpt lat="46.26334" lon="6.45071">
        <ele>1103.76</ele>
        <time>2019-03-23T14:31:04.000Z</time>
      </trkpt>
      <trkpt lat="46.2632" lon="6.45074">
        <ele>1103.08</ele>
        <time>2019-03-23T14:31:09.000Z</time>
      </trkpt>
      <trkpt lat="46.26306" lon="6.45077">
        <ele>1102</ele>
        <time>2019-03-23T14:31:14.000Z</time>
      </trkpt>
      <trkpt lat="46.26294" lon="6.45075">
        <ele>1101.02</ele>
        <time>2019-03-23T14:31:19.000Z</time>
      </trkpt>
      <trkpt lat="46.2628" lon="6.4507">
        <ele>1100.06</ele>
        <time>2019-03-23T14:31:24.000Z</time>
      </trkpt>
      <trkpt lat="46.26268" lon="6.45063">
        <ele>1101.73</ele>
        <time>2019-03-23T14:31:29.000Z</time>
      </trkpt>
      <trkpt lat="46.26255" lon="6.45059">
        <ele>1100.94</ele>
        <time>2019-03-23T14:31:34.000Z</time>
      </trkpt>
      <trkpt lat="46.26242" lon="6.45052">
        <ele>1101.74</ele>
        <time>2019-03-23T14:31:39.000Z</time>
      </trkpt>
      <trkpt lat="46.26229" lon="6.45044">
        <ele>1101</ele>
        <time>2019-03-23T14:31:44.000Z</time>
      </trkpt>
      <trkpt lat="46.26216" lon="6.45037">
        <ele>1099.07</ele>
        <time>2019-03-23T14:31:49.000Z</time>
      </trkpt>
      <trkpt lat="46.26208" lon="6.4502">
        <ele>1104.79</ele>
        <time>2019-03-23T14:31:54.000Z</time>
      </trkpt>
      <trkpt lat="46.26204" lon="6.45001">
        <ele>1107</ele>
        <time>2019-03-23T14:31:59.000Z</time>
      </trkpt>
      <trkpt lat="46.26207" lon="6.44985">
        <ele>1103.33</ele>
        <time>2019-03-23T14:32:04.000Z</time>
      </trkpt>
      <trkpt lat="46.26212" lon="6.44967">
        <ele>1102</ele>
        <time>2019-03-23T14:32:09.000Z</time>
      </trkpt>
      <trkpt lat="46.26214" lon="6.44946">
        <ele>1101.94</ele>
        <time>2019-03-23T14:32:14.000Z</time>
      </trkpt>
      <trkpt lat="46.26213" lon="6.44924">
        <ele>1102.23</ele>
        <time>2019-03-23T14:32:19.000Z</time>
      </trkpt>
      <trkpt lat="46.26211" lon="6.44903">
        <ele>1104.67</ele>
        <time>2019-03-23T14:32:24.000Z</time>
      </trkpt>
      <trkpt lat="46.26207" lon="6.44882">
        <ele>1107.98</ele>
        <time>2019-03-23T14:32:29.000Z</time>
      </trkpt>
      <trkpt lat="46.26203" lon="6.44863">
        <ele>1108.94</ele>
        <time>2019-03-23T14:32:34.000Z</time>
      </trkpt>
      <trkpt lat="46.26199" lon="6.44842">
        <ele>1110.69</ele>
        <time>2019-03-23T14:32:39.000Z</time>
      </trkpt>
      <trkpt lat="46.262" lon="6.44823">
        <ele>1111.75</ele>
        <time>2019-03-23T14:32:44.000Z</time>
      </trkpt>
      <trkpt lat="46.26205" lon="6.44807">
        <ele>1112.25</ele>
        <time>2019-03-23T14:32:49.000Z</time>
      </trkpt>
      <trkpt lat="46.26211" lon="6.44794">
        <ele>1111.06</ele>
        <time>2019-03-23T14:32:54.000Z</time>
      </trkpt>
      <trkpt lat="46.26216" lon="6.44774">
        <ele>1112.69</ele>
        <time>2019-03-23T14:32:59.000Z</time>
      </trkpt>
      <trkpt lat="46.26219" lon="6.44751">
        <ele>1115.92</ele>
        <time>2019-03-23T14:33:04.000Z</time>
      </trkpt>
      <trkpt lat="46.26219" lon="6.44728">
        <ele>1117.75</ele>
        <time>2019-03-23T14:33:09.000Z</time>
      </trkpt>
      <trkpt lat="46.26214" lon="6.4471">
        <ele>1118.75</ele>
        <time>2019-03-23T14:33:14.000Z</time>
      </trkpt>
      <trkpt lat="46.26207" lon="6.44695">
        <ele>1119</ele>
        <time>2019-03-23T14:33:19.000Z</time>
      </trkpt>
      <trkpt lat="46.26196" lon="6.44682">
        <ele>1118.8</ele>
        <time>2019-03-23T14:33:24.000Z</time>
      </trkpt>
      <trkpt lat="46.26185" lon="6.44674">
        <ele>1121.5</ele>
        <time>2019-03-23T14:33:29.000Z</time>
      </trkpt>
      <trkpt lat="46.26174" lon="6.44669">
        <ele>1122</ele>
        <time>2019-03-23T14:33:34.000Z</time>
      </trkpt>
      <trkpt lat="46.26162" lon="6.4467">
        <ele>1122.98</ele>
        <time>2019-03-23T14:33:39.000Z</time>
      </trkpt>
      <trkpt lat="46.26151" lon="6.44676">
        <ele>1124.94</ele>
        <time>2019-03-23T14:33:44.000Z</time>
      </trkpt>
      <trkpt lat="46.26141" lon="6.44687">
        <ele>1126</ele>
        <time>2019-03-23T14:33:49.000Z</time>
      </trkpt>
      <trkpt lat="46.26132" lon="6.44697">
        <ele>1125.25</ele>
        <time>2019-03-23T14:33:54.000Z</time>
      </trkpt>
      <trkpt lat="46.26123" lon="6.44707">
        <ele>1126.73</ele>
        <time>2019-03-23T14:33:59.000Z</time>
      </trkpt>
      <trkpt lat="46.26113" lon="6.44717">
        <ele>1128</ele>
        <time>2019-03-23T14:34:04.000Z</time>
      </trkpt>
      <trkpt lat="46.26104" lon="6.44724">
        <ele>1129.98</ele>
        <time>2019-03-23T14:34:09.000Z</time>
      </trkpt>
      <trkpt lat="46.26095" lon="6.44733">
        <ele>1130.01</ele>
        <time>2019-03-23T14:34:14.000Z</time>
      </trkpt>
      <trkpt lat="46.26085" lon="6.44743">
        <ele>1130</ele>
        <time>2019-03-23T14:34:19.000Z</time>
      </trkpt>
      <trkpt lat="46.26074" lon="6.44756">
        <ele>1131.73</ele>
        <time>2019-03-23T14:34:24.000Z</time>
      </trkpt>
      <trkpt lat="46.26065" lon="6.4477">
        <ele>1134.69</ele>
        <time>2019-03-23T14:34:29.000Z</time>
      </trkpt>
      <trkpt lat="46.26059" lon="6.44785">
        <ele>1135</ele>
        <time>2019-03-23T14:34:34.000Z</time>
      </trkpt>
      <trkpt lat="46.26054" lon="6.44803">
        <ele>1135.94</ele>
        <time>2019-03-23T14:34:39.000Z</time>
      </trkpt>
      <trkpt lat="46.26052" lon="6.4482">
        <ele>1137</ele>
        <time>2019-03-23T14:34:44.000Z</time>
      </trkpt>
      <trkpt lat="46.2605" lon="6.44837">
        <ele>1138</ele>
        <time>2019-03-23T14:34:49.000Z</time>
      </trkpt>
      <trkpt lat="46.26048" lon="6.44854">
        <ele>1139</ele>
        <time>2019-03-23T14:34:54.000Z</time>
      </trkpt>
      <trkpt lat="46.26047" lon="6.44872">
        <ele>1140.93</ele>
        <time>2019-03-23T14:34:59.000Z</time>
      </trkpt>
      <trkpt lat="46.26044" lon="6.4489">
        <ele>1142.04</ele>
        <time>2019-03-23T14:35:04.000Z</time>
      </trkpt>
      <trkpt lat="46.26041" lon="6.44906">
        <ele>1143.75</ele>
        <time>2019-03-23T14:35:09.000Z</time>
      </trkpt>
      <trkpt lat="46.2604" lon="6.44922">
        <ele>1144.94</ele>
        <time>2019-03-23T14:35:14.000Z</time>
      </trkpt>
      <trkpt lat="46.26039" lon="6.44939">
        <ele>1146</ele>
        <time>2019-03-23T14:35:19.000Z</time>
      </trkpt>
      <trkpt lat="46.26036" lon="6.44956">
        <ele>1145.06</ele>
        <time>2019-03-23T14:35:24.000Z</time>
      </trkpt>
      <trkpt lat="46.26035" lon="6.4497">
        <ele>1144.99</ele>
        <time>2019-03-23T14:35:29.000Z</time>
      </trkpt>
      <trkpt lat="46.26042" lon="6.44987">
        <ele>1147.87</ele>
        <time>2019-03-23T14:35:34.000Z</time>
      </trkpt>
      <trkpt lat="46.26046" lon="6.45004">
        <ele>1148.25</ele>
        <time>2019-03-23T14:35:39.000Z</time>
      </trkpt>
      <trkpt lat="46.26049" lon="6.45019">
        <ele>1149.19</ele>
        <time>2019-03-23T14:35:44.000Z</time>
      </trkpt>
      <trkpt lat="46.26052" lon="6.45035">
        <ele>1149.2</ele>
        <time>2019-03-23T14:35:49.000Z</time>
      </trkpt>
      <trkpt lat="46.26058" lon="6.4505">
        <ele>1146.02</ele>
        <time>2019-03-23T14:35:54.000Z</time>
      </trkpt>
      <trkpt lat="46.26065" lon="6.45065">
        <ele>1143.09</ele>
        <time>2019-03-23T14:35:59.000Z</time>
      </trkpt>
      <trkpt lat="46.26076" lon="6.45078">
        <ele>1144</ele>
        <time>2019-03-23T14:36:04.000Z</time>
      </trkpt>
      <trkpt lat="46.26085" lon="6.45091">
        <ele>1145</ele>
        <time>2019-03-23T14:36:09.000Z</time>
      </trkpt>
      <trkpt lat="46.26094" lon="6.45104">
        <ele>1146</ele>
        <time>2019-03-23T14:36:14.000Z</time>
      </trkpt>
      <trkpt lat="46.26105" lon="6.45115">
        <ele>1146.69</ele>
        <time>2019-03-23T14:36:19.000Z</time>
      </trkpt>
      <trkpt lat="46.26115" lon="6.45127">
        <ele>1148.75</ele>
        <time>2019-03-23T14:36:24.000Z</time>
      </trkpt>
      <trkpt lat="46.26121" lon="6.45142">
        <ele>1149.98</ele>
        <time>2019-03-23T14:36:29.000Z</time>
      </trkpt>
      <trkpt lat="46.26129" lon="6.45156">
        <ele>1151.23</ele>
        <time>2019-03-23T14:36:34.000Z</time>
      </trkpt>
      <trkpt lat="46.26138" lon="6.45169">
        <ele>1151.98</ele>
        <time>2019-03-23T14:36:39.000Z</time>
      </trkpt>
      <trkpt lat="46.26149" lon="6.45182">
        <ele>1152.94</ele>
        <time>2019-03-23T14:36:44.000Z</time>
      </trkpt>
      <trkpt lat="46.2616" lon="6.45191">
        <ele>1154</ele>
        <time>2019-03-23T14:36:49.000Z</time>
      </trkpt>
      <trkpt lat="46.26167" lon="6.45203">
        <ele>1157.68</ele>
        <time>2019-03-23T14:36:54.000Z</time>
      </trkpt>
      <trkpt lat="46.26176" lon="6.45214">
        <ele>1159</ele>
        <time>2019-03-23T14:36:59.000Z</time>
      </trkpt>
      <trkpt lat="46.26189" lon="6.45229">
        <ele>1158.05</ele>
        <time>2019-03-23T14:37:04.000Z</time>
      </trkpt>
      <trkpt lat="46.26201" lon="6.45242">
        <ele>1157.05</ele>
        <time>2019-03-23T14:37:09.000Z</time>
      </trkpt>
      <trkpt lat="46.2621" lon="6.45253">
        <ele>1154.08</ele>
        <time>2019-03-23T14:37:14.000Z</time>
      </trkpt>
      <trkpt lat="46.26221" lon="6.45269">
        <ele>1155</ele>
        <time>2019-03-23T14:37:19.000Z</time>
      </trkpt>
      <trkpt lat="46.2623" lon="6.45287">
        <ele>1156.98</ele>
        <time>2019-03-23T14:37:24.000Z</time>
      </trkpt>
      <trkpt lat="46.26238" lon="6.45306">
        <ele>1159.73</ele>
        <time>2019-03-23T14:37:29.000Z</time>
      </trkpt>
      <trkpt lat="46.26243" lon="6.45326">
        <ele>1161.75</ele>
        <time>2019-03-23T14:37:34.000Z</time>
      </trkpt>
      <trkpt lat="46.26245" lon="6.45347">
        <ele>1161</ele>
        <time>2019-03-23T14:37:39.000Z</time>
      </trkpt>
      <trkpt lat="46.26245" lon="6.45369">
        <ele>1162</ele>
        <time>2019-03-23T14:37:44.000Z</time>
      </trkpt>
      <trkpt lat="46.2624" lon="6.45392">
        <ele>1162</ele>
        <time>2019-03-23T14:37:49.000Z</time>
      </trkpt>
      <trkpt lat="46.26235" lon="6.45416">
        <ele>1162</ele>
        <time>2019-03-23T14:37:54.000Z</time>
      </trkpt>
      <trkpt lat="46.2623" lon="6.45441">
        <ele>1162</ele>
        <time>2019-03-23T14:37:59.000Z</time>
      </trkpt>
      <trkpt lat="46.26223" lon="6.45471">
        <ele>1161.02</ele>
        <time>2019-03-23T14:38:04.000Z</time>
      </trkpt>
      <trkpt lat="46.26215" lon="6.45506">
        <ele>1161</ele>
        <time>2019-03-23T14:38:09.000Z</time>
      </trkpt>
      <trkpt lat="46.26206" lon="6.45548">
        <ele>1159.02</ele>
        <time>2019-03-23T14:38:14.000Z</time>
      </trkpt>
      <trkpt lat="46.26203" lon="6.45595">
        <ele>1158</ele>
        <time>2019-03-23T14:38:19.000Z</time>
      </trkpt>
      <trkpt lat="46.26209" lon="6.45628">
        <ele>1155.27</ele>
        <time>2019-03-23T14:38:24.000Z</time>
      </trkpt>
      <trkpt lat="46.26213" lon="6.4564">
        <ele>1154</ele>
        <time>2019-03-23T14:38:29.000Z</time>
      </trkpt>
      <trkpt lat="46.26213" lon="6.45654">
        <ele>1153</ele>
        <time>2019-03-23T14:43:33.000Z</time>
      </trkpt>
      <trkpt lat="46.26218" lon="6.45672">
        <ele>1153</ele>
        <time>2019-03-23T14:43:38.000Z</time>
      </trkpt>
      <trkpt lat="46.26233" lon="6.45704">
        <ele>1153</ele>
        <time>2019-03-23T14:43:43.000Z</time>
      </trkpt>
      <trkpt lat="46.2626" lon="6.45735">
        <ele>1152</ele>
        <time>2019-03-23T14:43:48.000Z</time>
      </trkpt>
      <trkpt lat="46.26294" lon="6.45763">
        <ele>1152</ele>
        <time>2019-03-23T14:43:53.000Z</time>
      </trkpt>
      <trkpt lat="46.2633" lon="6.45793">
        <ele>1150.06</ele>
        <time>2019-03-23T14:43:58.000Z</time>
      </trkpt>
      <trkpt lat="46.26364" lon="6.45828">
        <ele>1147.08</ele>
        <time>2019-03-23T14:44:03.000Z</time>
      </trkpt>
      <trkpt lat="46.26397" lon="6.45865">
        <ele>1144.27</ele>
        <time>2019-03-23T14:44:08.000Z</time>
      </trkpt>
      <trkpt lat="46.26432" lon="6.45905">
        <ele>1142.07</ele>
        <time>2019-03-23T14:44:13.000Z</time>
      </trkpt>
      <trkpt lat="46.26464" lon="6.45955">
        <ele>1139.08</ele>
        <time>2019-03-23T14:44:18.000Z</time>
      </trkpt>
      <trkpt lat="46.26497" lon="6.46006">
        <ele>1136.27</ele>
        <time>2019-03-23T14:44:23.000Z</time>
      </trkpt>
      <trkpt lat="46.26527" lon="6.46059">
        <ele>1133.07</ele>
        <time>2019-03-23T14:44:28.000Z</time>
      </trkpt>
      <trkpt lat="46.26549" lon="6.4612">
        <ele>1131.08</ele>
        <time>2019-03-23T14:44:33.000Z</time>
      </trkpt>
      <trkpt lat="46.26576" lon="6.46176">
        <ele>1129.06</ele>
        <time>2019-03-23T14:44:38.000Z</time>
      </trkpt>
      <trkpt lat="46.26613" lon="6.46223">
        <ele>1126.31</ele>
        <time>2019-03-23T14:44:43.000Z</time>
      </trkpt>
      <trkpt lat="46.26651" lon="6.46269">
        <ele>1123.27</ele>
        <time>2019-03-23T14:44:48.000Z</time>
      </trkpt>
      <trkpt lat="46.26682" lon="6.46325">
        <ele>1120.27</ele>
        <time>2019-03-23T14:44:53.000Z</time>
      </trkpt>
      <trkpt lat="46.26712" lon="6.46383">
        <ele>1117.32</ele>
        <time>2019-03-23T14:44:58.000Z</time>
      </trkpt>
      <trkpt lat="46.26742" lon="6.46442">
        <ele>1115.07</ele>
        <time>2019-03-23T14:45:03.000Z</time>
      </trkpt>
      <trkpt lat="46.26768" lon="6.46502">
        <ele>1112.27</ele>
        <time>2019-03-23T14:45:08.000Z</time>
      </trkpt>
      <trkpt lat="46.26778" lon="6.46571">
        <ele>1110.27</ele>
        <time>2019-03-23T14:45:13.000Z</time>
      </trkpt>
      <trkpt lat="46.26761" lon="6.46636">
        <ele>1107.32</ele>
        <time>2019-03-23T14:45:18.000Z</time>
      </trkpt>
      <trkpt lat="46.2673" lon="6.46692">
        <ele>1104.07</ele>
        <time>2019-03-23T14:45:23.000Z</time>
      </trkpt>
      <trkpt lat="46.26697" lon="6.4675">
        <ele>1100.27</ele>
        <time>2019-03-23T14:45:28.000Z</time>
      </trkpt>
      <trkpt lat="46.26663" lon="6.4681">
        <ele>1097.08</ele>
        <time>2019-03-23T14:45:33.000Z</time>
      </trkpt>
      <trkpt lat="46.26623" lon="6.46871">
        <ele>1093.08</ele>
        <time>2019-03-23T14:45:38.000Z</time>
      </trkpt>
      <trkpt lat="46.26583" lon="6.46927">
        <ele>1089.33</ele>
        <time>2019-03-23T14:45:43.000Z</time>
      </trkpt>
      <trkpt lat="46.26542" lon="6.46984">
        <ele>1085.08</ele>
        <time>2019-03-23T14:45:48.000Z</time>
      </trkpt>
      <trkpt lat="46.265" lon="6.47041">
        <ele>1083.02</ele>
        <time>2019-03-23T14:45:53.000Z</time>
      </trkpt>
      <trkpt lat="46.26455" lon="6.47093">
        <ele>1079.27</ele>
        <time>2019-03-23T14:45:58.000Z</time>
      </trkpt>
      <trkpt lat="46.26407" lon="6.47142">
        <ele>1076.07</ele>
        <time>2019-03-23T14:46:03.000Z</time>
      </trkpt>
      <trkpt lat="46.26359" lon="6.47191">
        <ele>1072.32</ele>
        <time>2019-03-23T14:46:08.000Z</time>
      </trkpt>
      <trkpt lat="46.26308" lon="6.47242">
        <ele>1069.27</ele>
        <time>2019-03-23T14:46:13.000Z</time>
      </trkpt>
      <trkpt lat="46.26261" lon="6.473">
        <ele>1067.25</ele>
        <time>2019-03-23T14:46:18.000Z</time>
      </trkpt>
      <trkpt lat="46.26233" lon="6.47373">
        <ele>1063.27</ele>
        <time>2019-03-23T14:46:23.000Z</time>
      </trkpt>
      <trkpt lat="46.26178" lon="6.47396">
        <ele>1062</ele>
        <time>2019-03-23T14:46:28.000Z</time>
      </trkpt>
      <trkpt lat="46.26125" lon="6.47418">
        <ele>1059.57</ele>
        <time>2019-03-23T14:46:33.000Z</time>
      </trkpt>
      <trkpt lat="46.26073" lon="6.47448">
        <ele>1055.14</ele>
        <time>2019-03-23T14:46:38.000Z</time>
      </trkpt>
      <trkpt lat="46.26025" lon="6.47487">
        <ele>1051.08</ele>
        <time>2019-03-23T14:46:43.000Z</time>
      </trkpt>
      <trkpt lat="46.25987" lon="6.47544">
        <ele>1049.02</ele>
        <time>2019-03-23T14:46:48.000Z</time>
      </trkpt>
      <trkpt lat="46.25942" lon="6.47577">
        <ele>1045.33</ele>
        <time>2019-03-23T14:46:53.000Z</time>
      </trkpt>
      <trkpt lat="46.25905" lon="6.47532">
        <ele>1043.02</ele>
        <time>2019-03-23T14:46:58.000Z</time>
      </trkpt>
      <trkpt lat="46.25893" lon="6.47459">
        <ele>1040.07</ele>
        <time>2019-03-23T14:47:03.000Z</time>
      </trkpt>
      <trkpt lat="46.25878" lon="6.47389">
        <ele>1038.27</ele>
        <time>2019-03-23T14:47:08.000Z</time>
      </trkpt>
      <trkpt lat="46.25855" lon="6.47324">
        <ele>1035.08</ele>
        <time>2019-03-23T14:47:13.000Z</time>
      </trkpt>
      <trkpt lat="46.25831" lon="6.47261">
        <ele>1032.27</ele>
        <time>2019-03-23T14:47:18.000Z</time>
      </trkpt>
      <trkpt lat="46.25805" lon="6.47202">
        <ele>1031.02</ele>
        <time>2019-03-23T14:47:23.000Z</time>
      </trkpt>
      <trkpt lat="46.25767" lon="6.47158">
        <ele>1029.02</ele>
        <time>2019-03-23T14:47:28.000Z</time>
      </trkpt>
      <trkpt lat="46.25717" lon="6.47136">
        <ele>1026.27</ele>
        <time>2019-03-23T14:47:33.000Z</time>
      </trkpt>
      <trkpt lat="46.2566" lon="6.47142">
        <ele>1023.08</ele>
        <time>2019-03-23T14:47:38.000Z</time>
      </trkpt>
      <trkpt lat="46.25605" lon="6.47151">
        <ele>1022</ele>
        <time>2019-03-23T14:47:43.000Z</time>
      </trkpt>
      <trkpt lat="46.25556" lon="6.47158">
        <ele>1021.02</ele>
        <time>2019-03-23T14:47:48.000Z</time>
      </trkpt>
      <trkpt lat="46.2551" lon="6.47165">
        <ele>1020.06</ele>
        <time>2019-03-23T14:47:53.000Z</time>
      </trkpt>
      <trkpt lat="46.25466" lon="6.47172">
        <ele>1020</ele>
        <time>2019-03-23T14:47:58.000Z</time>
      </trkpt>
      <trkpt lat="46.25422" lon="6.4718">
        <ele>1020</ele>
        <time>2019-03-23T14:48:03.000Z</time>
      </trkpt>
      <trkpt lat="46.25374" lon="6.47191">
        <ele>1017.25</ele>
        <time>2019-03-23T14:48:08.000Z</time>
      </trkpt>
      <trkpt lat="46.25326" lon="6.47201">
        <ele>1015.25</ele>
        <time>2019-03-23T14:48:13.000Z</time>
      </trkpt>
      <trkpt lat="46.2528" lon="6.47211">
        <ele>1014.25</ele>
        <time>2019-03-23T14:48:18.000Z</time>
      </trkpt>
      <trkpt lat="46.25234" lon="6.47223">
        <ele>1012.07</ele>
        <time>2019-03-23T14:48:23.000Z</time>
      </trkpt>
      <trkpt lat="46.25186" lon="6.47231">
        <ele>1010.08</ele>
        <time>2019-03-23T14:48:28.000Z</time>
      </trkpt>
      <trkpt lat="46.25137" lon="6.47242">
        <ele>1008.07</ele>
        <time>2019-03-23T14:48:33.000Z</time>
      </trkpt>
      <trkpt lat="46.25091" lon="6.47251">
        <ele>1008.2</ele>
        <time>2019-03-23T14:48:38.000Z</time>
      </trkpt>
      <trkpt lat="46.25051" lon="6.47255">
        <ele>1007.25</ele>
        <time>2019-03-23T14:48:43.000Z</time>
      </trkpt>
      <trkpt lat="46.2501" lon="6.47249">
        <ele>1006.25</ele>
        <time>2019-03-23T14:48:48.000Z</time>
      </trkpt>
      <trkpt lat="46.24975" lon="6.47251">
        <ele>1007.29</ele>
        <time>2019-03-23T14:48:53.000Z</time>
      </trkpt>
      <trkpt lat="46.24942" lon="6.47275">
        <ele>1004.27</ele>
        <time>2019-03-23T14:48:58.000Z</time>
      </trkpt>
      <trkpt lat="46.24907" lon="6.47302">
        <ele>1003</ele>
        <time>2019-03-23T14:49:03.000Z</time>
      </trkpt>
      <trkpt lat="46.24891" lon="6.473">
        <ele>1001</ele>
        <time>2019-03-23T14:49:08.000Z</time>
      </trkpt>
      <trkpt lat="46.24887" lon="6.47262">
        <ele>999.25</ele>
        <time>2019-03-23T14:49:13.000Z</time>
      </trkpt>
      <trkpt lat="46.24884" lon="6.47211">
        <ele>996.32</ele>
        <time>2019-03-23T14:49:18.000Z</time>
      </trkpt>
      <trkpt lat="46.24882" lon="6.47166">
        <ele>993.27</ele>
        <time>2019-03-23T14:49:23.000Z</time>
      </trkpt>
      <trkpt lat="46.24899" lon="6.47139">
        <ele>993</ele>
        <time>2019-03-23T14:49:28.000Z</time>
      </trkpt>
      <trkpt lat="46.24929" lon="6.47113">
        <ele>992.05</ele>
        <time>2019-03-23T14:49:33.000Z</time>
      </trkpt>
      <trkpt lat="46.24963" lon="6.4709">
        <ele>991.25</ele>
        <time>2019-03-23T14:49:38.000Z</time>
      </trkpt>
      <trkpt lat="46.25004" lon="6.47083">
        <ele>990.02</ele>
        <time>2019-03-23T14:49:43.000Z</time>
      </trkpt>
      <trkpt lat="46.25043" lon="6.47068">
        <ele>989.06</ele>
        <time>2019-03-23T14:49:48.000Z</time>
      </trkpt>
      <trkpt lat="46.25077" lon="6.47027">
        <ele>986.27</ele>
        <time>2019-03-23T14:49:53.000Z</time>
      </trkpt>
      <trkpt lat="46.25092" lon="6.46965">
        <ele>982.32</ele>
        <time>2019-03-23T14:49:58.000Z</time>
      </trkpt>
      <trkpt lat="46.25102" lon="6.469">
        <ele>978.08</ele>
        <time>2019-03-23T14:50:03.000Z</time>
      </trkpt>
      <trkpt lat="46.25112" lon="6.46838">
        <ele>975.27</ele>
        <time>2019-03-23T14:50:08.000Z</time>
      </trkpt>
      <trkpt lat="46.25089" lon="6.46786">
        <ele>971.08</ele>
        <time>2019-03-23T14:50:13.000Z</time>
      </trkpt>
      <trkpt lat="46.25042" lon="6.46778">
        <ele>967.27</ele>
        <time>2019-03-23T14:50:18.000Z</time>
      </trkpt>
      <trkpt lat="46.25034" lon="6.46737">
        <ele>963.33</ele>
        <time>2019-03-23T14:50:23.000Z</time>
      </trkpt>
      <trkpt lat="46.25073" lon="6.46715">
        <ele>960.27</ele>
        <time>2019-03-23T14:50:28.000Z</time>
      </trkpt>
      <trkpt lat="46.25111" lon="6.46679">
        <ele>959</ele>
        <time>2019-03-23T14:50:33.000Z</time>
      </trkpt>
      <trkpt lat="46.25131" lon="6.46629">
        <ele>956.08</ele>
        <time>2019-03-23T14:50:38.000Z</time>
      </trkpt>
      <trkpt lat="46.25123" lon="6.46578">
        <ele>956.01</ele>
        <time>2019-03-23T14:50:43.000Z</time>
      </trkpt>
      <trkpt lat="46.25098" lon="6.46552">
        <ele>957.73</ele>
        <time>2019-03-23T14:50:48.000Z</time>
      </trkpt>
      <trkpt lat="46.25075" lon="6.46542">
        <ele>958</ele>
        <time>2019-03-23T14:50:53.000Z</time>
      </trkpt>
      <trkpt lat="46.25054" lon="6.46531">
        <ele>959.93</ele>
        <time>2019-03-23T14:50:58.000Z</time>
      </trkpt>
      <trkpt lat="46.25035" lon="6.46517">
        <ele>961.75</ele>
        <time>2019-03-23T14:51:03.000Z</time>
      </trkpt>
      <trkpt lat="46.2502" lon="6.46499">
        <ele>964.68</ele>
        <time>2019-03-23T14:51:08.000Z</time>
      </trkpt>
      <trkpt lat="46.2501" lon="6.46473">
        <ele>966</ele>
        <time>2019-03-23T14:51:13.000Z</time>
      </trkpt>
      <trkpt lat="46.25013" lon="6.46444">
        <ele>966</ele>
        <time>2019-03-23T14:51:18.000Z</time>
      </trkpt>
      <trkpt lat="46.25021" lon="6.46412">
        <ele>966</ele>
        <time>2019-03-23T14:51:23.000Z</time>
      </trkpt>
      <trkpt lat="46.2503" lon="6.46377">
        <ele>965</ele>
        <time>2019-03-23T14:51:28.000Z</time>
      </trkpt>
      <trkpt lat="46.25038" lon="6.4634">
        <ele>965</ele>
        <time>2019-03-23T14:51:33.000Z</time>
      </trkpt>
      <trkpt lat="46.25046" lon="6.46306">
        <ele>965</ele>
        <time>2019-03-23T14:51:38.000Z</time>
      </trkpt>
      <trkpt lat="46.25055" lon="6.46269">
        <ele>965</ele>
        <time>2019-03-23T14:51:43.000Z</time>
      </trkpt>
      <trkpt lat="46.25063" lon="6.4623">
        <ele>965</ele>
        <time>2019-03-23T14:51:48.000Z</time>
      </trkpt>
      <trkpt lat="46.2507" lon="6.46197">
        <ele>966.93</ele>
        <time>2019-03-23T14:51:53.000Z</time>
      </trkpt>
      <trkpt lat="46.25078" lon="6.46171">
        <ele>968.94</ele>
        <time>2019-03-23T14:51:58.000Z</time>
      </trkpt>
      <trkpt lat="46.25082" lon="6.46146">
        <ele>969.75</ele>
        <time>2019-03-23T14:52:03.000Z</time>
      </trkpt>
      <trkpt lat="46.25088" lon="6.46122">
        <ele>971.98</ele>
        <time>2019-03-23T14:52:08.000Z</time>
      </trkpt>
      <trkpt lat="46.25094" lon="6.46097">
        <ele>972</ele>
        <time>2019-03-23T14:52:13.000Z</time>
      </trkpt>
      <trkpt lat="46.25099" lon="6.46076">
        <ele>973.73</ele>
        <time>2019-03-23T14:52:18.000Z</time>
      </trkpt>
      <trkpt lat="46.25102" lon="6.46059">
        <ele>975.92</ele>
        <time>2019-03-23T14:52:23.000Z</time>
      </trkpt>
      <trkpt lat="46.25106" lon="6.46041">
        <ele>977</ele>
        <time>2019-03-23T14:52:28.000Z</time>
      </trkpt>
      <trkpt lat="46.2511" lon="6.46022">
        <ele>977</ele>
        <time>2019-03-23T14:52:33.000Z</time>
      </trkpt>
      <trkpt lat="46.25112" lon="6.46003">
        <ele>977.99</ele>
        <time>2019-03-23T14:52:38.000Z</time>
      </trkpt>
      <trkpt lat="46.25112" lon="6.45988">
        <ele>978</ele>
        <time>2019-03-23T14:52:43.000Z</time>
      </trkpt>
      <trkpt lat="46.25096" lon="6.45981">
        <ele>977.06</ele>
        <time>2019-03-23T14:52:48.000Z</time>
      </trkpt>
      <trkpt lat="46.25067" lon="6.45979">
        <ele>976.25</ele>
        <time>2019-03-23T14:52:53.000Z</time>
      </trkpt>
      <trkpt lat="46.25042" lon="6.4598">
        <ele>974.08</ele>
        <time>2019-03-23T14:52:58.000Z</time>
      </trkpt>
      <trkpt lat="46.25009" lon="6.45979">
        <ele>971.08</ele>
        <time>2019-03-23T14:53:03.000Z</time>
      </trkpt>
      <trkpt lat="46.24969" lon="6.45977">
        <ele>967.27</ele>
        <time>2019-03-23T14:53:08.000Z</time>
      </trkpt>
      <trkpt lat="46.24926" lon="6.45972">
        <ele>965.21</ele>
        <time>2019-03-23T14:53:13.000Z</time>
      </trkpt>
      <trkpt lat="46.24879" lon="6.45967">
        <ele>964.01</ele>
        <time>2019-03-23T14:53:18.000Z</time>
      </trkpt>
      <trkpt lat="46.2483" lon="6.45961">
        <ele>963</ele>
        <time>2019-03-23T14:53:23.000Z</time>
      </trkpt>
      <trkpt lat="46.24782" lon="6.45952">
        <ele>960.33</ele>
        <time>2019-03-23T14:53:28.000Z</time>
      </trkpt>
      <trkpt lat="46.24735" lon="6.45933">
        <ele>956.38</ele>
        <time>2019-03-23T14:53:33.000Z</time>
      </trkpt>
      <trkpt lat="46.24686" lon="6.4591">
        <ele>953.08</ele>
        <time>2019-03-23T14:53:38.000Z</time>
      </trkpt>
      <trkpt lat="46.24643" lon="6.45872">
        <ele>950.27</ele>
        <time>2019-03-23T14:53:43.000Z</time>
      </trkpt>
      <trkpt lat="46.24601" lon="6.4584">
        <ele>950.06</ele>
        <time>2019-03-23T14:53:48.000Z</time>
      </trkpt>
      <trkpt lat="46.24555" lon="6.4584">
        <ele>950</ele>
        <time>2019-03-23T14:53:53.000Z</time>
      </trkpt>
      <trkpt lat="46.24509" lon="6.4585">
        <ele>948.06</ele>
        <time>2019-03-23T14:53:58.000Z</time>
      </trkpt>
      <trkpt lat="46.24466" lon="6.45846">
        <ele>948</ele>
        <time>2019-03-23T14:54:03.000Z</time>
      </trkpt>
      <trkpt lat="46.24429" lon="6.45827">
        <ele>947</ele>
        <time>2019-03-23T14:54:08.000Z</time>
      </trkpt>
      <trkpt lat="46.24395" lon="6.45803">
        <ele>948</ele>
        <time>2019-03-23T14:54:13.000Z</time>
      </trkpt>
      <trkpt lat="46.2436" lon="6.45779">
        <ele>947.25</ele>
        <time>2019-03-23T14:54:18.000Z</time>
      </trkpt>
      <trkpt lat="46.24321" lon="6.45754">
        <ele>945.27</ele>
        <time>2019-03-23T14:54:23.000Z</time>
      </trkpt>
      <trkpt lat="46.24279" lon="6.45722">
        <ele>942.27</ele>
        <time>2019-03-23T14:54:28.000Z</time>
      </trkpt>
      <trkpt lat="46.24249" lon="6.45661">
        <ele>937.33</ele>
        <time>2019-03-23T14:54:33.000Z</time>
      </trkpt>
      <trkpt lat="46.24206" lon="6.45616">
        <ele>934.07</ele>
        <time>2019-03-23T14:54:38.000Z</time>
      </trkpt>
      <trkpt lat="46.24155" lon="6.45595">
        <ele>932.25</ele>
        <time>2019-03-23T14:54:43.000Z</time>
      </trkpt>
      <trkpt lat="46.2411" lon="6.45557">
        <ele>930.07</ele>
        <time>2019-03-23T14:54:48.000Z</time>
      </trkpt>
      <trkpt lat="46.24077" lon="6.45501">
        <ele>927.07</ele>
        <time>2019-03-23T14:54:53.000Z</time>
      </trkpt>
      <trkpt lat="46.24054" lon="6.45437">
        <ele>925.25</ele>
        <time>2019-03-23T14:54:58.000Z</time>
      </trkpt>
      <trkpt lat="46.24032" lon="6.45373">
        <ele>922.27</ele>
        <time>2019-03-23T14:55:03.000Z</time>
      </trkpt>
      <trkpt lat="46.2401" lon="6.45307">
        <ele>920.07</ele>
        <time>2019-03-23T14:55:08.000Z</time>
      </trkpt>
      <trkpt lat="46.23987" lon="6.45244">
        <ele>918.02</ele>
        <time>2019-03-23T14:55:13.000Z</time>
      </trkpt>
      <trkpt lat="46.23965" lon="6.45176">
        <ele>915.32</ele>
        <time>2019-03-23T14:55:18.000Z</time>
      </trkpt>
      <trkpt lat="46.23932" lon="6.45121">
        <ele>914</ele>
        <time>2019-03-23T14:55:23.000Z</time>
      </trkpt>
      <trkpt lat="46.23893" lon="6.4509">
        <ele>916.69</ele>
        <time>2019-03-23T14:55:28.000Z</time>
      </trkpt>
      <trkpt lat="46.23861" lon="6.45061">
        <ele>917.98</ele>
        <time>2019-03-23T14:55:33.000Z</time>
      </trkpt>
      <trkpt lat="46.23836" lon="6.45022">
        <ele>918</ele>
        <time>2019-03-23T14:55:38.000Z</time>
      </trkpt>
      <trkpt lat="46.23813" lon="6.44977">
        <ele>918</ele>
        <time>2019-03-23T14:55:43.000Z</time>
      </trkpt>
      <trkpt lat="46.2379" lon="6.44929">
        <ele>916.02</ele>
        <time>2019-03-23T14:55:48.000Z</time>
      </trkpt>
      <trkpt lat="46.23761" lon="6.44888">
        <ele>915</ele>
        <time>2019-03-23T14:55:53.000Z</time>
      </trkpt>
      <trkpt lat="46.23725" lon="6.44855">
        <ele>914.06</ele>
        <time>2019-03-23T14:55:58.000Z</time>
      </trkpt>
      <trkpt lat="46.23678" lon="6.44829">
        <ele>911.25</ele>
        <time>2019-03-23T14:56:03.000Z</time>
      </trkpt>
      <trkpt lat="46.23625" lon="6.44803">
        <ele>908.07</ele>
        <time>2019-03-23T14:56:08.000Z</time>
      </trkpt>
      <trkpt lat="46.23564" lon="6.44789">
        <ele>902.35</ele>
        <time>2019-03-23T14:56:13.000Z</time>
      </trkpt>
      <trkpt lat="46.23492" lon="6.44798">
        <ele>893.65</ele>
        <time>2019-03-23T14:56:18.000Z</time>
      </trkpt>
      <trkpt lat="46.2342" lon="6.44769">
        <ele>884.48</ele>
        <time>2019-03-23T14:56:23.000Z</time>
      </trkpt>
      <trkpt lat="46.2335" lon="6.4472">
        <ele>877.4</ele>
        <time>2019-03-23T14:56:28.000Z</time>
      </trkpt>
      <trkpt lat="46.23283" lon="6.44672">
        <ele>872.33</ele>
        <time>2019-03-23T14:56:33.000Z</time>
      </trkpt>
      <trkpt lat="46.23221" lon="6.44622">
        <ele>865.59</ele>
        <time>2019-03-23T14:56:38.000Z</time>
      </trkpt>
      <trkpt lat="46.23169" lon="6.44558">
        <ele>861.33</ele>
        <time>2019-03-23T14:56:43.000Z</time>
      </trkpt>
      <trkpt lat="46.23143" lon="6.4447">
        <ele>858.07</ele>
        <time>2019-03-23T14:56:48.000Z</time>
      </trkpt>
      <trkpt lat="46.23104" lon="6.444">
        <ele>855.07</ele>
        <time>2019-03-23T14:56:53.000Z</time>
      </trkpt>
      <trkpt lat="46.23051" lon="6.44363">
        <ele>855.94</ele>
        <time>2019-03-23T14:56:58.000Z</time>
      </trkpt>
      <trkpt lat="46.23012" lon="6.44317">
        <ele>856.94</ele>
        <time>2019-03-23T14:57:03.000Z</time>
      </trkpt>
      <trkpt lat="46.22988" lon="6.44263">
        <ele>858</ele>
        <time>2019-03-23T14:57:08.000Z</time>
      </trkpt>
      <trkpt lat="46.22974" lon="6.4421">
        <ele>858.06</ele>
        <time>2019-03-23T14:57:13.000Z</time>
      </trkpt>
      <trkpt lat="46.22961" lon="6.44156">
        <ele>857.06</ele>
        <time>2019-03-23T14:57:18.000Z</time>
      </trkpt>
      <trkpt lat="46.22939" lon="6.44101">
        <ele>856.95</ele>
        <time>2019-03-23T14:57:23.000Z</time>
      </trkpt>
      <trkpt lat="46.22911" lon="6.44044">
        <ele>853.32</ele>
        <time>2019-03-23T14:57:28.000Z</time>
      </trkpt>
      <trkpt lat="46.22882" lon="6.4399">
        <ele>851.06</ele>
        <time>2019-03-23T14:57:33.000Z</time>
      </trkpt>
      <trkpt lat="46.22846" lon="6.43944">
        <ele>849.07</ele>
        <time>2019-03-23T14:57:38.000Z</time>
      </trkpt>
      <trkpt lat="46.22796" lon="6.43933">
        <ele>847.06</ele>
        <time>2019-03-23T14:57:43.000Z</time>
      </trkpt>
      <trkpt lat="46.22742" lon="6.43929">
        <ele>845.02</ele>
        <time>2019-03-23T14:57:48.000Z</time>
      </trkpt>
      <trkpt lat="46.22696" lon="6.43894">
        <ele>843.06</ele>
        <time>2019-03-23T14:57:53.000Z</time>
      </trkpt>
      <trkpt lat="46.22655" lon="6.43848">
        <ele>841.07</ele>
        <time>2019-03-23T14:57:58.000Z</time>
      </trkpt>
      <trkpt lat="46.22625" lon="6.43791">
        <ele>840.07</ele>
        <time>2019-03-23T14:58:03.000Z</time>
      </trkpt>
      <trkpt lat="46.22598" lon="6.43725">
        <ele>839.25</ele>
        <time>2019-03-23T14:58:08.000Z</time>
      </trkpt>
      <trkpt lat="46.22572" lon="6.43666">
        <ele>838.06</ele>
        <time>2019-03-23T14:58:13.000Z</time>
      </trkpt>
      <trkpt lat="46.22543" lon="6.4362">
        <ele>838.99</ele>
        <time>2019-03-23T14:58:18.000Z</time>
      </trkpt>
      <trkpt lat="46.22501" lon="6.436">
        <ele>838</ele>
        <time>2019-03-23T14:58:23.000Z</time>
      </trkpt>
      <trkpt lat="46.22455" lon="6.43581">
        <ele>837.25</ele>
        <time>2019-03-23T14:58:28.000Z</time>
      </trkpt>
      <trkpt lat="46.22411" lon="6.43564">
        <ele>836.06</ele>
        <time>2019-03-23T14:58:33.000Z</time>
      </trkpt>
      <trkpt lat="46.22368" lon="6.43542">
        <ele>836</ele>
        <time>2019-03-23T14:58:38.000Z</time>
      </trkpt>
      <trkpt lat="46.22327" lon="6.43519">
        <ele>835.06</ele>
        <time>2019-03-23T14:58:43.000Z</time>
      </trkpt>
      <trkpt lat="46.22287" lon="6.43501">
        <ele>835</ele>
        <time>2019-03-23T14:58:48.000Z</time>
      </trkpt>
      <trkpt lat="46.22246" lon="6.43492">
        <ele>835</ele>
        <time>2019-03-23T14:58:53.000Z</time>
      </trkpt>
      <trkpt lat="46.22211" lon="6.4347">
        <ele>833.25</ele>
        <time>2019-03-23T14:58:58.000Z</time>
      </trkpt>
      <trkpt lat="46.22181" lon="6.43439">
        <ele>833.98</ele>
        <time>2019-03-23T14:59:03.000Z</time>
      </trkpt>
      <trkpt lat="46.22153" lon="6.43406">
        <ele>833</ele>
        <time>2019-03-23T14:59:08.000Z</time>
      </trkpt>
      <trkpt lat="46.22128" lon="6.43373">
        <ele>833.75</ele>
        <time>2019-03-23T14:59:13.000Z</time>
      </trkpt>
      <trkpt lat="46.22106" lon="6.43342">
        <ele>834.94</ele>
        <time>2019-03-23T14:59:18.000Z</time>
      </trkpt>
      <trkpt lat="46.22085" lon="6.43315">
        <ele>835</ele>
        <time>2019-03-23T14:59:23.000Z</time>
      </trkpt>
      <trkpt lat="46.22065" lon="6.43288">
        <ele>835.98</ele>
        <time>2019-03-23T14:59:28.000Z</time>
      </trkpt>
      <trkpt lat="46.22048" lon="6.43257">
        <ele>836</ele>
        <time>2019-03-23T14:59:33.000Z</time>
      </trkpt>
      <trkpt lat="46.22032" lon="6.43226">
        <ele>837</ele>
        <time>2019-03-23T14:59:38.000Z</time>
      </trkpt>
      <trkpt lat="46.22015" lon="6.43195">
        <ele>838.93</ele>
        <time>2019-03-23T14:59:43.000Z</time>
      </trkpt>
      <trkpt lat="46.21997" lon="6.43162">
        <ele>839</ele>
        <time>2019-03-23T14:59:48.000Z</time>
      </trkpt>
      <trkpt lat="46.21974" lon="6.43123">
        <ele>838</ele>
        <time>2019-03-23T14:59:53.000Z</time>
      </trkpt>
      <trkpt lat="46.21952" lon="6.43077">
        <ele>836.02</ele>
        <time>2019-03-23T14:59:58.000Z</time>
      </trkpt>
      <trkpt lat="46.21939" lon="6.43029">
        <ele>835</ele>
        <time>2019-03-23T15:00:03.000Z</time>
      </trkpt>
      <trkpt lat="46.21939" lon="6.42984">
        <ele>834.94</ele>
        <time>2019-03-23T15:00:08.000Z</time>
      </trkpt>
      <trkpt lat="46.21939" lon="6.42944">
        <ele>836</ele>
        <time>2019-03-23T15:00:13.000Z</time>
      </trkpt>
      <trkpt lat="46.2193" lon="6.42905">
        <ele>836.01</ele>
        <time>2019-03-23T15:00:18.000Z</time>
      </trkpt>
      <trkpt lat="46.21909" lon="6.42871">
        <ele>835.06</ele>
        <time>2019-03-23T15:00:23.000Z</time>
      </trkpt>
      <trkpt lat="46.21888" lon="6.42834">
        <ele>835.75</ele>
        <time>2019-03-23T15:00:28.000Z</time>
      </trkpt>
      <trkpt lat="46.21866" lon="6.42796">
        <ele>836</ele>
        <time>2019-03-23T15:00:33.000Z</time>
      </trkpt>
      <trkpt lat="46.21848" lon="6.42756">
        <ele>836</ele>
        <time>2019-03-23T15:00:38.000Z</time>
      </trkpt>
      <trkpt lat="46.2183" lon="6.42714">
        <ele>835.06</ele>
        <time>2019-03-23T15:00:43.000Z</time>
      </trkpt>
      <trkpt lat="46.21813" lon="6.42673">
        <ele>835</ele>
        <time>2019-03-23T15:00:48.000Z</time>
      </trkpt>
      <trkpt lat="46.21796" lon="6.42633">
        <ele>834.05</ele>
        <time>2019-03-23T15:00:53.000Z</time>
      </trkpt>
      <trkpt lat="46.21787" lon="6.4259">
        <ele>833.25</ele>
        <time>2019-03-23T15:00:58.000Z</time>
      </trkpt>
      <trkpt lat="46.21783" lon="6.42545">
        <ele>833</ele>
        <time>2019-03-23T15:01:03.000Z</time>
      </trkpt>
      <trkpt lat="46.21779" lon="6.42499">
        <ele>833</ele>
        <time>2019-03-23T15:01:08.000Z</time>
      </trkpt>
      <trkpt lat="46.21776" lon="6.42453">
        <ele>833.06</ele>
        <time>2019-03-23T15:01:13.000Z</time>
      </trkpt>
      <trkpt lat="46.21771" lon="6.42406">
        <ele>834</ele>
        <time>2019-03-23T15:01:18.000Z</time>
      </trkpt>
      <trkpt lat="46.21767" lon="6.42356">
        <ele>834</ele>
        <time>2019-03-23T15:01:23.000Z</time>
      </trkpt>
      <trkpt lat="46.21764" lon="6.42305">
        <ele>835</ele>
        <time>2019-03-23T15:01:28.000Z</time>
      </trkpt>
      <trkpt lat="46.21759" lon="6.42251">
        <ele>834.25</ele>
        <time>2019-03-23T15:01:33.000Z</time>
      </trkpt>
      <trkpt lat="46.21754" lon="6.42196">
        <ele>833.2</ele>
        <time>2019-03-23T15:01:38.000Z</time>
      </trkpt>
      <trkpt lat="46.21749" lon="6.42141">
        <ele>834</ele>
        <time>2019-03-23T15:01:43.000Z</time>
      </trkpt>
      <trkpt lat="46.21744" lon="6.42086">
        <ele>833.02</ele>
        <time>2019-03-23T15:01:48.000Z</time>
      </trkpt>
      <trkpt lat="46.21739" lon="6.42032">
        <ele>833.75</ele>
        <time>2019-03-23T15:01:53.000Z</time>
      </trkpt>
      <trkpt lat="46.21725" lon="6.4198">
        <ele>831.31</ele>
        <time>2019-03-23T15:01:58.000Z</time>
      </trkpt>
      <trkpt lat="46.21693" lon="6.41937">
        <ele>829.08</ele>
        <time>2019-03-23T15:02:03.000Z</time>
      </trkpt>
      <trkpt lat="46.21653" lon="6.41897">
        <ele>827.06</ele>
        <time>2019-03-23T15:02:08.000Z</time>
      </trkpt>
      <trkpt lat="46.2161" lon="6.41851">
        <ele>825.06</ele>
        <time>2019-03-23T15:02:13.000Z</time>
      </trkpt>
      <trkpt lat="46.21564" lon="6.41803">
        <ele>823.08</ele>
        <time>2019-03-23T15:02:18.000Z</time>
      </trkpt>
      <trkpt lat="46.21517" lon="6.41756">
        <ele>821.07</ele>
        <time>2019-03-23T15:02:23.000Z</time>
      </trkpt>
      <trkpt lat="46.21476" lon="6.41691">
        <ele>817.08</ele>
        <time>2019-03-23T15:02:28.000Z</time>
      </trkpt>
      <trkpt lat="46.21442" lon="6.41614">
        <ele>813.27</ele>
        <time>2019-03-23T15:02:33.000Z</time>
      </trkpt>
      <trkpt lat="46.2141" lon="6.41534">
        <ele>810.27</ele>
        <time>2019-03-23T15:02:38.000Z</time>
      </trkpt>
      <trkpt lat="46.21379" lon="6.41452">
        <ele>805.33</ele>
        <time>2019-03-23T15:02:43.000Z</time>
      </trkpt>
      <trkpt lat="46.21344" lon="6.41368">
        <ele>799.58</ele>
        <time>2019-03-23T15:02:48.000Z</time>
      </trkpt>
      <trkpt lat="46.21309" lon="6.4129">
        <ele>795.33</ele>
        <time>2019-03-23T15:02:53.000Z</time>
      </trkpt>
      <trkpt lat="46.21258" lon="6.41244">
        <ele>793.07</ele>
        <time>2019-03-23T15:02:58.000Z</time>
      </trkpt>
      <trkpt lat="46.21207" lon="6.41209">
        <ele>792</ele>
        <time>2019-03-23T15:03:03.000Z</time>
      </trkpt>
      <trkpt lat="46.21174" lon="6.41158">
        <ele>792</ele>
        <time>2019-03-23T15:03:08.000Z</time>
      </trkpt>
      <trkpt lat="46.21153" lon="6.41101">
        <ele>791.02</ele>
        <time>2019-03-23T15:03:13.000Z</time>
      </trkpt>
      <trkpt lat="46.21132" lon="6.41046">
        <ele>790</ele>
        <time>2019-03-23T15:03:18.000Z</time>
      </trkpt>
      <trkpt lat="46.21112" lon="6.40991">
        <ele>788.06</ele>
        <time>2019-03-23T15:03:23.000Z</time>
      </trkpt>
      <trkpt lat="46.21089" lon="6.40936">
        <ele>788</ele>
        <time>2019-03-23T15:03:28.000Z</time>
      </trkpt>
      <trkpt lat="46.21064" lon="6.40883">
        <ele>786.06</ele>
        <time>2019-03-23T15:03:33.000Z</time>
      </trkpt>
      <trkpt lat="46.21042" lon="6.4083">
        <ele>785</ele>
        <time>2019-03-23T15:03:38.000Z</time>
      </trkpt>
      <trkpt lat="46.21029" lon="6.40796">
        <ele>783.81</ele>
        <time>2019-03-23T15:03:43.000Z</time>
      </trkpt>
      <trkpt lat="46.21024" lon="6.40778">
        <ele>783</ele>
        <time>2019-03-23T15:03:48.000Z</time>
      </trkpt>
      <trkpt lat="46.21018" lon="6.40763">
        <ele>783</ele>
        <time>2019-03-23T15:03:58.000Z</time>
      </trkpt>
      <trkpt lat="46.21007" lon="6.40732">
        <ele>783</ele>
        <time>2019-03-23T15:04:03.000Z</time>
      </trkpt>
      <trkpt lat="46.20993" lon="6.40691">
        <ele>781.06</ele>
        <time>2019-03-23T15:04:08.000Z</time>
      </trkpt>
      <trkpt lat="46.20982" lon="6.40651">
        <ele>781</ele>
        <time>2019-03-23T15:04:13.000Z</time>
      </trkpt>
      <trkpt lat="46.20974" lon="6.40609">
        <ele>782.04</ele>
        <time>2019-03-23T15:04:18.000Z</time>
      </trkpt>
      <trkpt lat="46.20962" lon="6.40571">
        <ele>781.26</ele>
        <time>2019-03-23T15:04:23.000Z</time>
      </trkpt>
      <trkpt lat="46.20954" lon="6.40556">
        <ele>780</ele>
        <time>2019-03-23T15:04:28.000Z</time>
      </trkpt>
      <trkpt lat="46.20935" lon="6.40553">
        <ele>780.95</ele>
        <time>2019-03-23T15:04:33.000Z</time>
      </trkpt>
      <trkpt lat="46.20905" lon="6.40563">
        <ele>782.98</ele>
        <time>2019-03-23T15:04:38.000Z</time>
      </trkpt>
      <trkpt lat="46.20877" lon="6.4057">
        <ele>785</ele>
        <time>2019-03-23T15:04:43.000Z</time>
      </trkpt>
      <trkpt lat="46.20853" lon="6.40575">
        <ele>783.25</ele>
        <time>2019-03-23T15:04:48.000Z</time>
      </trkpt>
      <trkpt lat="46.20839" lon="6.40581">
        <ele>782.05</ele>
        <time>2019-03-23T15:04:53.000Z</time>
      </trkpt>
      <trkpt lat="46.20831" lon="6.40574">
        <ele>792.07</ele>
        <time>2019-03-23T15:09:03.000Z</time>
      </trkpt>
      <trkpt lat="46.20821" lon="6.40588">
        <ele>789.33</ele>
        <time>2019-03-23T15:09:08.000Z</time>
      </trkpt>
      <trkpt lat="46.20812" lon="6.40599">
        <ele>788.06</ele>
        <time>2019-03-23T15:09:13.000Z</time>
      </trkpt>
      <trkpt lat="46.20798" lon="6.40619">
        <ele>786.07</ele>
        <time>2019-03-23T15:09:18.000Z</time>
      </trkpt>
      <trkpt lat="46.20783" lon="6.40649">
        <ele>784.06</ele>
        <time>2019-03-23T15:09:23.000Z</time>
      </trkpt>
      <trkpt lat="46.20764" lon="6.40675">
        <ele>783.02</ele>
        <time>2019-03-23T15:09:28.000Z</time>
      </trkpt>
      <trkpt lat="46.20744" lon="6.40705">
        <ele>781</ele>
        <time>2019-03-23T15:09:33.000Z</time>
      </trkpt>
      <trkpt lat="46.20725" lon="6.40732">
        <ele>780.19</ele>
        <time>2019-03-23T15:09:38.000Z</time>
      </trkpt>
      <trkpt lat="46.20707" lon="6.40755">
        <ele>780.06</ele>
        <time>2019-03-23T15:09:43.000Z</time>
      </trkpt>
      <trkpt lat="46.20692" lon="6.4078">
        <ele>780.75</ele>
        <time>2019-03-23T15:09:48.000Z</time>
      </trkpt>
      <trkpt lat="46.20672" lon="6.40784">
        <ele>780.06</ele>
        <time>2019-03-23T15:09:53.000Z</time>
      </trkpt>
      <trkpt lat="46.20649" lon="6.4076">
        <ele>780</ele>
        <time>2019-03-23T15:09:58.000Z</time>
      </trkpt>
      <trkpt lat="46.20621" lon="6.40737">
        <ele>780</ele>
        <time>2019-03-23T15:10:03.000Z</time>
      </trkpt>
      <trkpt lat="46.20592" lon="6.40716">
        <ele>780</ele>
        <time>2019-03-23T15:10:08.000Z</time>
      </trkpt>
      <trkpt lat="46.20564" lon="6.40698">
        <ele>780.94</ele>
        <time>2019-03-23T15:10:13.000Z</time>
      </trkpt>
      <trkpt lat="46.20539" lon="6.40682">
        <ele>781</ele>
        <time>2019-03-23T15:10:18.000Z</time>
      </trkpt>
      <trkpt lat="46.20519" lon="6.40667">
        <ele>783.68</ele>
        <time>2019-03-23T15:10:23.000Z</time>
      </trkpt>
      <trkpt lat="46.20502" lon="6.40654">
        <ele>785</ele>
        <time>2019-03-23T15:10:28.000Z</time>
      </trkpt>
      <trkpt lat="46.20484" lon="6.40646">
        <ele>786</ele>
        <time>2019-03-23T15:10:33.000Z</time>
      </trkpt>
      <trkpt lat="46.20461" lon="6.40644">
        <ele>786.01</ele>
        <time>2019-03-23T15:10:38.000Z</time>
      </trkpt>
      <trkpt lat="46.20438" lon="6.40635">
        <ele>787</ele>
        <time>2019-03-23T15:10:43.000Z</time>
      </trkpt>
      <trkpt lat="46.20415" lon="6.40618">
        <ele>785.25</ele>
        <time>2019-03-23T15:10:48.000Z</time>
      </trkpt>
      <trkpt lat="46.2039" lon="6.40597">
        <ele>784</ele>
        <time>2019-03-23T15:10:53.000Z</time>
      </trkpt>
      <trkpt lat="46.20364" lon="6.40578">
        <ele>784</ele>
        <time>2019-03-23T15:10:58.000Z</time>
      </trkpt>
      <trkpt lat="46.20336" lon="6.40561">
        <ele>784</ele>
        <time>2019-03-23T15:11:03.000Z</time>
      </trkpt>
      <trkpt lat="46.20306" lon="6.40546">
        <ele>784</ele>
        <time>2019-03-23T15:11:08.000Z</time>
      </trkpt>
      <trkpt lat="46.20275" lon="6.40531">
        <ele>784</ele>
        <time>2019-03-23T15:11:13.000Z</time>
      </trkpt>
      <trkpt lat="46.20243" lon="6.40517">
        <ele>785.19</ele>
        <time>2019-03-23T15:11:18.000Z</time>
      </trkpt>
      <trkpt lat="46.20211" lon="6.40503">
        <ele>786.94</ele>
        <time>2019-03-23T15:11:23.000Z</time>
      </trkpt>
      <trkpt lat="46.20183" lon="6.40479">
        <ele>787.94</ele>
        <time>2019-03-23T15:11:28.000Z</time>
      </trkpt>
      <trkpt lat="46.2015" lon="6.40461">
        <ele>788</ele>
        <time>2019-03-23T15:11:33.000Z</time>
      </trkpt>
      <trkpt lat="46.20116" lon="6.40443">
        <ele>789.75</ele>
        <time>2019-03-23T15:11:38.000Z</time>
      </trkpt>
      <trkpt lat="46.20083" lon="6.40427">
        <ele>790</ele>
        <time>2019-03-23T15:11:43.000Z</time>
      </trkpt>
      <trkpt lat="46.20051" lon="6.40409">
        <ele>789.06</ele>
        <time>2019-03-23T15:11:48.000Z</time>
      </trkpt>
      <trkpt lat="46.20023" lon="6.40382">
        <ele>789</ele>
        <time>2019-03-23T15:11:53.000Z</time>
      </trkpt>
      <trkpt lat="46.19991" lon="6.40358">
        <ele>789</ele>
        <time>2019-03-23T15:11:58.000Z</time>
      </trkpt>
      <trkpt lat="46.19961" lon="6.4034">
        <ele>789</ele>
        <time>2019-03-23T15:12:03.000Z</time>
      </trkpt>
      <trkpt lat="46.19932" lon="6.40328">
        <ele>789</ele>
        <time>2019-03-23T15:12:08.000Z</time>
      </trkpt>
      <trkpt lat="46.19902" lon="6.40331">
        <ele>789.75</ele>
        <time>2019-03-23T15:12:13.000Z</time>
      </trkpt>
      <trkpt lat="46.19875" lon="6.40334">
        <ele>789.06</ele>
        <time>2019-03-23T15:12:18.000Z</time>
      </trkpt>
      <trkpt lat="46.19848" lon="6.40327">
        <ele>789.75</ele>
        <time>2019-03-23T15:12:23.000Z</time>
      </trkpt>
      <trkpt lat="46.19826" lon="6.40307">
        <ele>790</ele>
        <time>2019-03-23T15:12:28.000Z</time>
      </trkpt>
      <trkpt lat="46.19801" lon="6.40288">
        <ele>791</ele>
        <time>2019-03-23T15:12:33.000Z</time>
      </trkpt>
      <trkpt lat="46.19771" lon="6.40274">
        <ele>791.75</ele>
        <time>2019-03-23T15:12:38.000Z</time>
      </trkpt>
      <trkpt lat="46.1974" lon="6.40258">
        <ele>792</ele>
        <time>2019-03-23T15:12:43.000Z</time>
      </trkpt>
      <trkpt lat="46.19709" lon="6.40242">
        <ele>792</ele>
        <time>2019-03-23T15:12:48.000Z</time>
      </trkpt>
      <trkpt lat="46.19677" lon="6.40223">
        <ele>792.75</ele>
        <time>2019-03-23T15:12:53.000Z</time>
      </trkpt>
      <trkpt lat="46.1965" lon="6.40199">
        <ele>793</ele>
        <time>2019-03-23T15:12:58.000Z</time>
      </trkpt>
      <trkpt lat="46.19622" lon="6.40174">
        <ele>793</ele>
        <time>2019-03-23T15:13:03.000Z</time>
      </trkpt>
      <trkpt lat="46.19588" lon="6.40154">
        <ele>792.25</ele>
        <time>2019-03-23T15:13:08.000Z</time>
      </trkpt>
      <trkpt lat="46.19553" lon="6.40138">
        <ele>792</ele>
        <time>2019-03-23T15:13:13.000Z</time>
      </trkpt>
      <trkpt lat="46.19518" lon="6.40125">
        <ele>792</ele>
        <time>2019-03-23T15:13:18.000Z</time>
      </trkpt>
      <trkpt lat="46.19485" lon="6.40115">
        <ele>792</ele>
        <time>2019-03-23T15:13:23.000Z</time>
      </trkpt>
      <trkpt lat="46.19457" lon="6.40106">
        <ele>792.81</ele>
        <time>2019-03-23T15:13:28.000Z</time>
      </trkpt>
      <trkpt lat="46.19428" lon="6.40098">
        <ele>790.33</ele>
        <time>2019-03-23T15:13:33.000Z</time>
      </trkpt>
      <trkpt lat="46.19405" lon="6.40092">
        <ele>790.75</ele>
        <time>2019-03-23T15:13:38.000Z</time>
      </trkpt>
      <trkpt lat="46.1938" lon="6.40076">
        <ele>790.95</ele>
        <time>2019-03-23T15:13:43.000Z</time>
      </trkpt>
      <trkpt lat="46.19353" lon="6.40054">
        <ele>791</ele>
        <time>2019-03-23T15:13:48.000Z</time>
      </trkpt>
      <trkpt lat="46.19324" lon="6.40038">
        <ele>791.98</ele>
        <time>2019-03-23T15:13:53.000Z</time>
      </trkpt>
      <trkpt lat="46.19296" lon="6.40026">
        <ele>792.98</ele>
        <time>2019-03-23T15:13:58.000Z</time>
      </trkpt>
      <trkpt lat="46.1927" lon="6.40012">
        <ele>793.98</ele>
        <time>2019-03-23T15:14:03.000Z</time>
      </trkpt>
      <trkpt lat="46.19246" lon="6.39996">
        <ele>794.75</ele>
        <time>2019-03-23T15:14:08.000Z</time>
      </trkpt>
      <trkpt lat="46.19223" lon="6.39982">
        <ele>796.98</ele>
        <time>2019-03-23T15:14:13.000Z</time>
      </trkpt>
      <trkpt lat="46.19204" lon="6.39974">
        <ele>797.94</ele>
        <time>2019-03-23T15:14:18.000Z</time>
      </trkpt>
      <trkpt lat="46.19195" lon="6.39965">
        <ele>800.93</ele>
        <time>2019-03-23T15:14:23.000Z</time>
      </trkpt>
      <trkpt lat="46.19186" lon="6.39955">
        <ele>802</ele>
        <time>2019-03-23T15:14:28.000Z</time>
      </trkpt>
      <trkpt lat="46.19175" lon="6.39945">
        <ele>803.98</ele>
        <time>2019-03-23T15:14:33.000Z</time>
      </trkpt>
      <trkpt lat="46.19162" lon="6.39938">
        <ele>804.75</ele>
        <time>2019-03-23T15:14:38.000Z</time>
      </trkpt>
      <trkpt lat="46.19148" lon="6.39931">
        <ele>804.94</ele>
        <time>2019-03-23T15:14:43.000Z</time>
      </trkpt>
      <trkpt lat="46.19133" lon="6.39921">
        <ele>806</ele>
        <time>2019-03-23T15:14:48.000Z</time>
      </trkpt>
      <trkpt lat="46.19116" lon="6.3991">
        <ele>807</ele>
        <time>2019-03-23T15:14:53.000Z</time>
      </trkpt>
      <trkpt lat="46.19096" lon="6.399">
        <ele>807</ele>
        <time>2019-03-23T15:14:58.000Z</time>
      </trkpt>
      <trkpt lat="46.19076" lon="6.39894">
        <ele>806.75</ele>
        <time>2019-03-23T15:15:03.000Z</time>
      </trkpt>
      <trkpt lat="46.19055" lon="6.39889">
        <ele>807</ele>
        <time>2019-03-23T15:15:08.000Z</time>
      </trkpt>
      <trkpt lat="46.19036" lon="6.39889">
        <ele>807</ele>
        <time>2019-03-23T15:15:13.000Z</time>
      </trkpt>
      <trkpt lat="46.19019" lon="6.3989">
        <ele>807.06</ele>
        <time>2019-03-23T15:15:18.000Z</time>
      </trkpt>
      <trkpt lat="46.19001" lon="6.39895">
        <ele>808</ele>
        <time>2019-03-23T15:15:23.000Z</time>
      </trkpt>
      <trkpt lat="46.18981" lon="6.39905">
        <ele>806.25</ele>
        <time>2019-03-23T15:15:28.000Z</time>
      </trkpt>
      <trkpt lat="46.18962" lon="6.39913">
        <ele>807</ele>
        <time>2019-03-23T15:15:33.000Z</time>
      </trkpt>
      <trkpt lat="46.18942" lon="6.3992">
        <ele>807.94</ele>
        <time>2019-03-23T15:15:38.000Z</time>
      </trkpt>
      <trkpt lat="46.18921" lon="6.39921">
        <ele>808.75</ele>
        <time>2019-03-23T15:15:43.000Z</time>
      </trkpt>
      <trkpt lat="46.18901" lon="6.39918">
        <ele>809.75</ele>
        <time>2019-03-23T15:15:48.000Z</time>
      </trkpt>
      <trkpt lat="46.18881" lon="6.39915">
        <ele>810</ele>
        <time>2019-03-23T15:15:53.000Z</time>
      </trkpt>
      <trkpt lat="46.18864" lon="6.39913">
        <ele>809.75</ele>
        <time>2019-03-23T15:15:58.000Z</time>
      </trkpt>
      <trkpt lat="46.18849" lon="6.39909">
        <ele>811.94</ele>
        <time>2019-03-23T15:16:03.000Z</time>
      </trkpt>
      <trkpt lat="46.18835" lon="6.39903">
        <ele>812.98</ele>
        <time>2019-03-23T15:16:08.000Z</time>
      </trkpt>
      <trkpt lat="46.18825" lon="6.39895">
        <ele>813.94</ele>
        <time>2019-03-23T15:16:13.000Z</time>
      </trkpt>
      <trkpt lat="46.18815" lon="6.39886">
        <ele>816.73</ele>
        <time>2019-03-23T15:16:18.000Z</time>
      </trkpt>
      <trkpt lat="46.18805" lon="6.39878">
        <ele>818.93</ele>
        <time>2019-03-23T15:16:23.000Z</time>
      </trkpt>
      <trkpt lat="46.18794" lon="6.39873">
        <ele>820.73</ele>
        <time>2019-03-23T15:16:28.000Z</time>
      </trkpt>
      <trkpt lat="46.18781" lon="6.39873">
        <ele>821</ele>
        <time>2019-03-23T15:16:33.000Z</time>
      </trkpt>
      <trkpt lat="46.18769" lon="6.39872">
        <ele>821.98</ele>
        <time>2019-03-23T15:16:38.000Z</time>
      </trkpt>
      <trkpt lat="46.18757" lon="6.39872">
        <ele>823</ele>
        <time>2019-03-23T15:16:43.000Z</time>
      </trkpt>
      <trkpt lat="46.18746" lon="6.39873">
        <ele>823.98</ele>
        <time>2019-03-23T15:16:48.000Z</time>
      </trkpt>
      <trkpt lat="46.18734" lon="6.39873">
        <ele>825</ele>
        <time>2019-03-23T15:16:53.000Z</time>
      </trkpt>
      <trkpt lat="46.18724" lon="6.39874">
        <ele>826.75</ele>
        <time>2019-03-23T15:16:58.000Z</time>
      </trkpt>
      <trkpt lat="46.18714" lon="6.39873">
        <ele>828</ele>
        <time>2019-03-23T15:17:03.000Z</time>
      </trkpt>
      <trkpt lat="46.18704" lon="6.39875">
        <ele>829</ele>
        <time>2019-03-23T15:17:08.000Z</time>
      </trkpt>
      <trkpt lat="46.18694" lon="6.39882">
        <ele>829.06</ele>
        <time>2019-03-23T15:17:13.000Z</time>
      </trkpt>
      <trkpt lat="46.18687" lon="6.39894">
        <ele>830.94</ele>
        <time>2019-03-23T15:17:18.000Z</time>
      </trkpt>
      <trkpt lat="46.18681" lon="6.39906">
        <ele>832</ele>
        <time>2019-03-23T15:17:23.000Z</time>
      </trkpt>
      <trkpt lat="46.18673" lon="6.39913">
        <ele>831.95</ele>
        <time>2019-03-23T15:17:28.000Z</time>
      </trkpt>
      <trkpt lat="46.18663" lon="6.39917">
        <ele>832.93</ele>
        <time>2019-03-23T15:17:33.000Z</time>
      </trkpt>
      <trkpt lat="46.18653" lon="6.39918">
        <ele>833.94</ele>
        <time>2019-03-23T15:17:38.000Z</time>
      </trkpt>
      <trkpt lat="46.18642" lon="6.39918">
        <ele>835.98</ele>
        <time>2019-03-23T15:17:43.000Z</time>
      </trkpt>
      <trkpt lat="46.18632" lon="6.39918">
        <ele>837</ele>
        <time>2019-03-23T15:17:48.000Z</time>
      </trkpt>
      <trkpt lat="46.18622" lon="6.3992">
        <ele>837.19</ele>
        <time>2019-03-23T15:17:53.000Z</time>
      </trkpt>
      <trkpt lat="46.18611" lon="6.39921">
        <ele>839.73</ele>
        <time>2019-03-23T15:17:58.000Z</time>
      </trkpt>
      <trkpt lat="46.186" lon="6.39923">
        <ele>840</ele>
        <time>2019-03-23T15:18:03.000Z</time>
      </trkpt>
      <trkpt lat="46.18588" lon="6.39924">
        <ele>841</ele>
        <time>2019-03-23T15:18:08.000Z</time>
      </trkpt>
      <trkpt lat="46.18578" lon="6.39925">
        <ele>842.75</ele>
        <time>2019-03-23T15:18:13.000Z</time>
      </trkpt>
      <trkpt lat="46.18567" lon="6.39932">
        <ele>842.02</ele>
        <time>2019-03-23T15:18:18.000Z</time>
      </trkpt>
      <trkpt lat="46.18564" lon="6.39948">
        <ele>842</ele>
        <time>2019-03-23T15:18:23.000Z</time>
      </trkpt>
      <trkpt lat="46.18568" lon="6.39965">
        <ele>844.68</ele>
        <time>2019-03-23T15:18:28.000Z</time>
      </trkpt>
      <trkpt lat="46.18578" lon="6.39971">
        <ele>845</ele>
        <time>2019-03-23T15:18:33.000Z</time>
      </trkpt>
      <trkpt lat="46.1859" lon="6.39972">
        <ele>845</ele>
        <time>2019-03-23T15:18:38.000Z</time>
      </trkpt>
      <trkpt lat="46.18599" lon="6.3998">
        <ele>847.64</ele>
        <time>2019-03-23T15:18:43.000Z</time>
      </trkpt>
      <trkpt lat="46.18606" lon="6.39993">
        <ele>849.98</ele>
        <time>2019-03-23T15:18:48.000Z</time>
      </trkpt>
      <trkpt lat="46.18613" lon="6.40004">
        <ele>852.92</ele>
        <time>2019-03-23T15:18:53.000Z</time>
      </trkpt>
      <trkpt lat="46.18621" lon="6.40015">
        <ele>854.94</ele>
        <time>2019-03-23T15:18:58.000Z</time>
      </trkpt>
      <trkpt lat="46.18629" lon="6.40028">
        <ele>856.75</ele>
        <time>2019-03-23T15:19:03.000Z</time>
      </trkpt>
      <trkpt lat="46.18636" lon="6.40041">
        <ele>857.94</ele>
        <time>2019-03-23T15:19:08.000Z</time>
      </trkpt>
      <trkpt lat="46.18644" lon="6.40054">
        <ele>859.73</ele>
        <time>2019-03-23T15:19:13.000Z</time>
      </trkpt>
      <trkpt lat="46.18652" lon="6.40066">
        <ele>860.94</ele>
        <time>2019-03-23T15:19:18.000Z</time>
      </trkpt>
      <trkpt lat="46.1866" lon="6.40078">
        <ele>861.98</ele>
        <time>2019-03-23T15:19:23.000Z</time>
      </trkpt>
      <trkpt lat="46.18668" lon="6.40089">
        <ele>862</ele>
        <time>2019-03-23T15:19:28.000Z</time>
      </trkpt>
      <trkpt lat="46.18677" lon="6.40101">
        <ele>862</ele>
        <time>2019-03-23T15:19:33.000Z</time>
      </trkpt>
      <trkpt lat="46.18685" lon="6.40115">
        <ele>862.75</ele>
        <time>2019-03-23T15:19:38.000Z</time>
      </trkpt>
      <trkpt lat="46.18685" lon="6.40131">
        <ele>864.98</ele>
        <time>2019-03-23T15:19:43.000Z</time>
      </trkpt>
      <trkpt lat="46.18677" lon="6.40139">
        <ele>865</ele>
        <time>2019-03-23T15:19:49.000Z</time>
      </trkpt>
      <trkpt lat="46.1867" lon="6.40127">
        <ele>865.13</ele>
        <time>2019-03-23T15:19:56.000Z</time>
      </trkpt>
      <trkpt lat="46.18661" lon="6.40116">
        <ele>865</ele>
        <time>2019-03-23T15:20:01.000Z</time>
      </trkpt>
      <trkpt lat="46.18651" lon="6.40112">
        <ele>866</ele>
        <time>2019-03-23T15:20:06.000Z</time>
      </trkpt>
      <trkpt lat="46.18639" lon="6.4011">
        <ele>866</ele>
        <time>2019-03-23T15:20:11.000Z</time>
      </trkpt>
      <trkpt lat="46.18627" lon="6.40111">
        <ele>867</ele>
        <time>2019-03-23T15:20:16.000Z</time>
      </trkpt>
      <trkpt lat="46.18615" lon="6.40114">
        <ele>867.23</ele>
        <time>2019-03-23T15:20:21.000Z</time>
      </trkpt>
      <trkpt lat="46.18604" lon="6.40116">
        <ele>867.98</ele>
        <time>2019-03-23T15:20:26.000Z</time>
      </trkpt>
      <trkpt lat="46.18592" lon="6.40119">
        <ele>869.73</ele>
        <time>2019-03-23T15:20:31.000Z</time>
      </trkpt>
      <trkpt lat="46.1858" lon="6.40119">
        <ele>870.94</ele>
        <time>2019-03-23T15:20:36.000Z</time>
      </trkpt>
      <trkpt lat="46.18569" lon="6.40122">
        <ele>871</ele>
        <time>2019-03-23T15:20:41.000Z</time>
      </trkpt>
      <trkpt lat="46.18559" lon="6.40128">
        <ele>871</ele>
        <time>2019-03-23T15:20:46.000Z</time>
      </trkpt>
      <trkpt lat="46.18548" lon="6.40135">
        <ele>871.19</ele>
        <time>2019-03-23T15:20:51.000Z</time>
      </trkpt>
      <trkpt lat="46.18539" lon="6.40142">
        <ele>871.75</ele>
        <time>2019-03-23T15:20:56.000Z</time>
      </trkpt>
      <trkpt lat="46.18529" lon="6.40148">
        <ele>872.8</ele>
        <time>2019-03-23T15:21:01.000Z</time>
      </trkpt>
      <trkpt lat="46.18519" lon="6.40155">
        <ele>875.68</ele>
        <time>2019-03-23T15:21:06.000Z</time>
      </trkpt>
      <trkpt lat="46.1851" lon="6.40164">
        <ele>877.73</ele>
        <time>2019-03-23T15:21:11.000Z</time>
      </trkpt>
      <trkpt lat="46.18501" lon="6.40168">
        <ele>881.92</ele>
        <time>2019-03-23T15:21:16.000Z</time>
      </trkpt>
      <trkpt lat="46.18489" lon="6.40174">
        <ele>883</ele>
        <time>2019-03-23T15:21:21.000Z</time>
      </trkpt>
      <trkpt lat="46.18478" lon="6.40177">
        <ele>884.75</ele>
        <time>2019-03-23T15:21:26.000Z</time>
      </trkpt>
      <trkpt lat="46.18466" lon="6.40181">
        <ele>886</ele>
        <time>2019-03-23T15:21:31.000Z</time>
      </trkpt>
      <trkpt lat="46.18456" lon="6.40183">
        <ele>887.69</ele>
        <time>2019-03-23T15:21:37.000Z</time>
      </trkpt>
      <trkpt lat="46.18445" lon="6.40183">
        <ele>887.99</ele>
        <time>2019-03-23T15:21:42.000Z</time>
      </trkpt>
      <trkpt lat="46.18434" lon="6.40184">
        <ele>888</ele>
        <time>2019-03-23T15:21:47.000Z</time>
      </trkpt>
      <trkpt lat="46.18425" lon="6.40182">
        <ele>889</ele>
        <time>2019-03-23T15:21:52.000Z</time>
      </trkpt>
      <trkpt lat="46.18416" lon="6.40178">
        <ele>892.67</ele>
        <time>2019-03-23T15:21:57.000Z</time>
      </trkpt>
      <trkpt lat="46.18405" lon="6.40176">
        <ele>893.8</ele>
        <time>2019-03-23T15:22:02.000Z</time>
      </trkpt>
      <trkpt lat="46.18393" lon="6.40173">
        <ele>894.75</ele>
        <time>2019-03-23T15:22:07.000Z</time>
      </trkpt>
      <trkpt lat="46.18383" lon="6.40169">
        <ele>897.73</ele>
        <time>2019-03-23T15:22:12.000Z</time>
      </trkpt>
      <trkpt lat="46.18372" lon="6.40164">
        <ele>899.69</ele>
        <time>2019-03-23T15:22:17.000Z</time>
      </trkpt>
      <trkpt lat="46.18359" lon="6.40162">
        <ele>898.87</ele>
        <time>2019-03-23T15:22:22.000Z</time>
      </trkpt>
      <trkpt lat="46.18347" lon="6.40168">
        <ele>895.57</ele>
        <time>2019-03-23T15:22:27.000Z</time>
      </trkpt>
      <trkpt lat="46.18339" lon="6.40178">
        <ele>896.92</ele>
        <time>2019-03-23T15:22:32.000Z</time>
      </trkpt>
      <trkpt lat="46.18339" lon="6.40192">
        <ele>901.91</ele>
        <time>2019-03-23T15:22:37.000Z</time>
      </trkpt>
      <trkpt lat="46.18347" lon="6.40197">
        <ele>903.29</ele>
        <time>2019-03-23T15:22:42.000Z</time>
      </trkpt>
      <trkpt lat="46.18356" lon="6.40203">
        <ele>904.7</ele>
        <time>2019-03-23T15:22:47.000Z</time>
      </trkpt>
      <trkpt lat="46.18363" lon="6.40212">
        <ele>907.23</ele>
        <time>2019-03-23T15:22:53.000Z</time>
      </trkpt>
      <trkpt lat="46.18375" lon="6.4022">
        <ele>907.95</ele>
        <time>2019-03-23T15:22:58.000Z</time>
      </trkpt>
      <trkpt lat="46.18382" lon="6.40234">
        <ele>911.01</ele>
        <time>2019-03-23T15:23:05.000Z</time>
      </trkpt>
      <trkpt lat="46.18392" lon="6.40246">
        <ele>908.77</ele>
        <time>2019-03-23T15:23:10.000Z</time>
      </trkpt>
      <trkpt lat="46.18401" lon="6.40258">
        <ele>909.92</ele>
        <time>2019-03-23T15:23:15.000Z</time>
      </trkpt>
      <trkpt lat="46.18415" lon="6.40268">
        <ele>909.05</ele>
        <time>2019-03-23T15:23:20.000Z</time>
      </trkpt>
      <trkpt lat="46.18422" lon="6.40281">
        <ele>910.75</ele>
        <time>2019-03-23T15:23:25.000Z</time>
      </trkpt>
      <trkpt lat="46.18425" lon="6.40294">
        <ele>915.98</ele>
        <time>2019-03-23T15:23:33.000Z</time>
      </trkpt>
      <trkpt lat="46.18415" lon="6.40293">
        <ele>916.27</ele>
        <time>2019-03-23T15:23:42.000Z</time>
      </trkpt>
      <trkpt lat="46.18407" lon="6.40284">
        <ele>920.48</ele>
        <time>2019-03-23T15:23:50.000Z</time>
      </trkpt>
      <trkpt lat="46.18397" lon="6.40278">
        <ele>921.06</ele>
        <time>2019-03-23T15:23:57.000Z</time>
      </trkpt>
      <trkpt lat="46.18388" lon="6.40272">
        <ele>923.68</ele>
        <time>2019-03-23T15:24:03.000Z</time>
      </trkpt>
      <trkpt lat="46.18377" lon="6.40268">
        <ele>925.98</ele>
        <time>2019-03-23T15:24:08.000Z</time>
      </trkpt>
      <trkpt lat="46.18365" lon="6.40264">
        <ele>927.98</ele>
        <time>2019-03-23T15:24:13.000Z</time>
      </trkpt>
      <trkpt lat="46.18354" lon="6.40258">
        <ele>931.93</ele>
        <time>2019-03-23T15:24:19.000Z</time>
      </trkpt>
      <trkpt lat="46.18343" lon="6.40252">
        <ele>931.77</ele>
        <time>2019-03-23T15:24:24.000Z</time>
      </trkpt>
      <trkpt lat="46.18333" lon="6.40244">
        <ele>930.31</ele>
        <time>2019-03-23T15:24:33.000Z</time>
      </trkpt>
      <trkpt lat="46.18323" lon="6.40238">
        <ele>931.86</ele>
        <time>2019-03-23T15:24:39.000Z</time>
      </trkpt>
      <trkpt lat="46.18307" lon="6.40232">
        <ele>927.39</ele>
        <time>2019-03-23T15:24:44.000Z</time>
      </trkpt>
      <trkpt lat="46.18298" lon="6.40227">
        <ele>927.98</ele>
        <time>2019-03-23T15:24:49.000Z</time>
      </trkpt>
      <trkpt lat="46.18286" lon="6.40221">
        <ele>925.33</ele>
        <time>2019-03-23T15:24:54.000Z</time>
      </trkpt>
      <trkpt lat="46.18278" lon="6.40211">
        <ele>926.73</ele>
        <time>2019-03-23T15:24:59.000Z</time>
      </trkpt>
      <trkpt lat="46.18265" lon="6.40202">
        <ele>928.17</ele>
        <time>2019-03-23T15:25:04.000Z</time>
      </trkpt>
      <trkpt lat="46.18251" lon="6.40199">
        <ele>926.06</ele>
        <time>2019-03-23T15:25:09.000Z</time>
      </trkpt>
      <trkpt lat="46.1824" lon="6.40191">
        <ele>926</ele>
        <time>2019-03-23T15:25:14.000Z</time>
      </trkpt>
      <trkpt lat="46.18228" lon="6.40183">
        <ele>926.98</ele>
        <time>2019-03-23T15:25:19.000Z</time>
      </trkpt>
      <trkpt lat="46.18217" lon="6.40176">
        <ele>926.06</ele>
        <time>2019-03-23T15:25:24.000Z</time>
      </trkpt>
      <trkpt lat="46.18207" lon="6.40169">
        <ele>926.94</ele>
        <time>2019-03-23T15:25:29.000Z</time>
      </trkpt>
      <trkpt lat="46.18194" lon="6.40164">
        <ele>927.06</ele>
        <time>2019-03-23T15:25:34.000Z</time>
      </trkpt>
      <trkpt lat="46.18182" lon="6.40156">
        <ele>927.01</ele>
        <time>2019-03-23T15:25:39.000Z</time>
      </trkpt>
      <trkpt lat="46.1817" lon="6.4015">
        <ele>928.93</ele>
        <time>2019-03-23T15:25:44.000Z</time>
      </trkpt>
      <trkpt lat="46.18158" lon="6.40144">
        <ele>930</ele>
        <time>2019-03-23T15:25:49.000Z</time>
      </trkpt>
      <trkpt lat="46.18147" lon="6.40138">
        <ele>931.93</ele>
        <time>2019-03-23T15:25:54.000Z</time>
      </trkpt>
      <trkpt lat="46.18136" lon="6.40131">
        <ele>932</ele>
        <time>2019-03-23T15:25:59.000Z</time>
      </trkpt>
      <trkpt lat="46.18125" lon="6.40125">
        <ele>933</ele>
        <time>2019-03-23T15:26:04.000Z</time>
      </trkpt>
      <trkpt lat="46.18115" lon="6.40119">
        <ele>933.75</ele>
        <time>2019-03-23T15:26:09.000Z</time>
      </trkpt>
      <trkpt lat="46.18104" lon="6.40112">
        <ele>934.94</ele>
        <time>2019-03-23T15:26:14.000Z</time>
      </trkpt>
      <trkpt lat="46.18094" lon="6.40108">
        <ele>935.75</ele>
        <time>2019-03-23T15:26:19.000Z</time>
      </trkpt>
      <trkpt lat="46.18083" lon="6.40103">
        <ele>935.02</ele>
        <time>2019-03-23T15:26:24.000Z</time>
      </trkpt>
      <trkpt lat="46.18073" lon="6.40097">
        <ele>936.75</ele>
        <time>2019-03-23T15:26:29.000Z</time>
      </trkpt>
      <trkpt lat="46.18063" lon="6.40091">
        <ele>937.98</ele>
        <time>2019-03-23T15:26:34.000Z</time>
      </trkpt>
      <trkpt lat="46.1805" lon="6.40086">
        <ele>938.75</ele>
        <time>2019-03-23T15:26:39.000Z</time>
      </trkpt>
      <trkpt lat="46.18041" lon="6.40078">
        <ele>939.98</ele>
        <time>2019-03-23T15:26:44.000Z</time>
      </trkpt>
      <trkpt lat="46.18033" lon="6.40069">
        <ele>940.98</ele>
        <time>2019-03-23T15:26:49.000Z</time>
      </trkpt>
      <trkpt lat="46.18024" lon="6.40058">
        <ele>941</ele>
        <time>2019-03-23T15:26:54.000Z</time>
      </trkpt>
      <trkpt lat="46.18016" lon="6.40046">
        <ele>941</ele>
        <time>2019-03-23T15:26:59.000Z</time>
      </trkpt>
      <trkpt lat="46.18009" lon="6.40034">
        <ele>941</ele>
        <time>2019-03-23T15:27:04.000Z</time>
      </trkpt>
      <trkpt lat="46.18002" lon="6.40022">
        <ele>941</ele>
        <time>2019-03-23T15:27:09.000Z</time>
      </trkpt>
      <trkpt lat="46.17994" lon="6.40011">
        <ele>942</ele>
        <time>2019-03-23T15:27:14.000Z</time>
      </trkpt>
      <trkpt lat="46.17986" lon="6.39999">
        <ele>941.02</ele>
        <time>2019-03-23T15:27:19.000Z</time>
      </trkpt>
      <trkpt lat="46.17979" lon="6.39987">
        <ele>940.06</ele>
        <time>2019-03-23T15:27:24.000Z</time>
      </trkpt>
      <trkpt lat="46.17971" lon="6.39975">
        <ele>939</ele>
        <time>2019-03-23T15:27:29.000Z</time>
      </trkpt>
      <trkpt lat="46.17963" lon="6.39964">
        <ele>938.06</ele>
        <time>2019-03-23T15:27:34.000Z</time>
      </trkpt>
      <trkpt lat="46.17956" lon="6.39951">
        <ele>938</ele>
        <time>2019-03-23T15:27:39.000Z</time>
      </trkpt>
      <trkpt lat="46.17947" lon="6.39938">
        <ele>939</ele>
        <time>2019-03-23T15:27:44.000Z</time>
      </trkpt>
      <trkpt lat="46.1794" lon="6.39926">
        <ele>939</ele>
        <time>2019-03-23T15:27:49.000Z</time>
      </trkpt>
      <trkpt lat="46.17932" lon="6.39913">
        <ele>939.94</ele>
        <time>2019-03-23T15:27:54.000Z</time>
      </trkpt>
      <trkpt lat="46.17925" lon="6.39901">
        <ele>941.93</ele>
        <time>2019-03-23T15:27:59.000Z</time>
      </trkpt>
      <trkpt lat="46.17918" lon="6.39888">
        <ele>943.73</ele>
        <time>2019-03-23T15:28:04.000Z</time>
      </trkpt>
      <trkpt lat="46.17909" lon="6.39874">
        <ele>944.94</ele>
        <time>2019-03-23T15:28:09.000Z</time>
      </trkpt>
      <trkpt lat="46.17901" lon="6.3986">
        <ele>945.98</ele>
        <time>2019-03-23T15:28:14.000Z</time>
      </trkpt>
      <trkpt lat="46.17895" lon="6.39849">
        <ele>946.94</ele>
        <time>2019-03-23T15:28:19.000Z</time>
      </trkpt>
      <trkpt lat="46.17888" lon="6.39837">
        <ele>947.94</ele>
        <time>2019-03-23T15:28:24.000Z</time>
      </trkpt>
      <trkpt lat="46.1788" lon="6.39824">
        <ele>948.94</ele>
        <time>2019-03-23T15:28:29.000Z</time>
      </trkpt>
      <trkpt lat="46.17872" lon="6.39811">
        <ele>949</ele>
        <time>2019-03-23T15:28:34.000Z</time>
      </trkpt>
      <trkpt lat="46.17864" lon="6.39798">
        <ele>950</ele>
        <time>2019-03-23T15:28:39.000Z</time>
      </trkpt>
      <trkpt lat="46.17856" lon="6.39789">
        <ele>951.93</ele>
        <time>2019-03-23T15:28:44.000Z</time>
      </trkpt>
      <trkpt lat="46.17848" lon="6.39778">
        <ele>955.67</ele>
        <time>2019-03-23T15:28:50.000Z</time>
      </trkpt>
      <trkpt lat="46.17836" lon="6.39775">
        <ele>956.75</ele>
        <time>2019-03-23T15:28:55.000Z</time>
      </trkpt>
      <trkpt lat="46.17825" lon="6.39778">
        <ele>957</ele>
        <time>2019-03-23T15:29:00.000Z</time>
      </trkpt>
      <trkpt lat="46.17816" lon="6.39787">
        <ele>958.73</ele>
        <time>2019-03-23T15:29:05.000Z</time>
      </trkpt>
      <trkpt lat="46.17807" lon="6.39796">
        <ele>960.93</ele>
        <time>2019-03-23T15:29:10.000Z</time>
      </trkpt>
      <trkpt lat="46.178" lon="6.39806">
        <ele>962.98</ele>
        <time>2019-03-23T15:29:15.000Z</time>
      </trkpt>
      <trkpt lat="46.17794" lon="6.39818">
        <ele>963.75</ele>
        <time>2019-03-23T15:29:20.000Z</time>
      </trkpt>
      <trkpt lat="46.17788" lon="6.39831">
        <ele>964.94</ele>
        <time>2019-03-23T15:29:25.000Z</time>
      </trkpt>
      <trkpt lat="46.17782" lon="6.39843">
        <ele>966</ele>
        <time>2019-03-23T15:29:30.000Z</time>
      </trkpt>
      <trkpt lat="46.17776" lon="6.39855">
        <ele>966.98</ele>
        <time>2019-03-23T15:29:35.000Z</time>
      </trkpt>
      <trkpt lat="46.1777" lon="6.39868">
        <ele>967.01</ele>
        <time>2019-03-23T15:29:40.000Z</time>
      </trkpt>
      <trkpt lat="46.17769" lon="6.39882">
        <ele>967</ele>
        <time>2019-03-23T15:29:45.000Z</time>
      </trkpt>
      <trkpt lat="46.17769" lon="6.39898">
        <ele>968.98</ele>
        <time>2019-03-23T15:29:51.000Z</time>
      </trkpt>
      <trkpt lat="46.17771" lon="6.39915">
        <ele>970</ele>
        <time>2019-03-23T15:29:56.000Z</time>
      </trkpt>
      <trkpt lat="46.17773" lon="6.39931">
        <ele>970</ele>
        <time>2019-03-23T15:30:01.000Z</time>
      </trkpt>
      <trkpt lat="46.17776" lon="6.39947">
        <ele>971.94</ele>
        <time>2019-03-23T15:30:06.000Z</time>
      </trkpt>
      <trkpt lat="46.17773" lon="6.39963">
        <ele>972</ele>
        <time>2019-03-23T15:30:11.000Z</time>
      </trkpt>
      <trkpt lat="46.17763" lon="6.39968">
        <ele>973</ele>
        <time>2019-03-23T15:30:16.000Z</time>
      </trkpt>
      <trkpt lat="46.17755" lon="6.39958">
        <ele>973.75</ele>
        <time>2019-03-23T15:30:21.000Z</time>
      </trkpt>
      <trkpt lat="46.1775" lon="6.39942">
        <ele>974</ele>
        <time>2019-03-23T15:30:26.000Z</time>
      </trkpt>
      <trkpt lat="46.17743" lon="6.39927">
        <ele>974</ele>
        <time>2019-03-23T15:30:31.000Z</time>
      </trkpt>
      <trkpt lat="46.17734" lon="6.39915">
        <ele>973.02</ele>
        <time>2019-03-23T15:30:36.000Z</time>
      </trkpt>
      <trkpt lat="46.17724" lon="6.39906">
        <ele>973.75</ele>
        <time>2019-03-23T15:30:41.000Z</time>
      </trkpt>
      <trkpt lat="46.17715" lon="6.39896">
        <ele>975.92</ele>
        <time>2019-03-23T15:30:46.000Z</time>
      </trkpt>
      <trkpt lat="46.17706" lon="6.39886">
        <ele>976.94</ele>
        <time>2019-03-23T15:30:51.000Z</time>
      </trkpt>
      <trkpt lat="46.17697" lon="6.39875">
        <ele>977.75</ele>
        <time>2019-03-23T15:30:56.000Z</time>
      </trkpt>
      <trkpt lat="46.17688" lon="6.39865">
        <ele>979.75</ele>
        <time>2019-03-23T15:31:01.000Z</time>
      </trkpt>
      <trkpt lat="46.17675" lon="6.39864">
        <ele>981</ele>
        <time>2019-03-23T15:31:06.000Z</time>
      </trkpt>
      <trkpt lat="46.17662" lon="6.39873">
        <ele>981</ele>
        <time>2019-03-23T15:31:11.000Z</time>
      </trkpt>
      <trkpt lat="46.17653" lon="6.39881">
        <ele>981.01</ele>
        <time>2019-03-23T15:31:16.000Z</time>
      </trkpt>
      <trkpt lat="46.1764" lon="6.3989">
        <ele>980.75</ele>
        <time>2019-03-23T15:31:21.000Z</time>
      </trkpt>
      <trkpt lat="46.17627" lon="6.39898">
        <ele>982.93</ele>
        <time>2019-03-23T15:31:26.000Z</time>
      </trkpt>
      <trkpt lat="46.17612" lon="6.39901">
        <ele>982.06</ele>
        <time>2019-03-23T15:31:31.000Z</time>
      </trkpt>
      <trkpt lat="46.17599" lon="6.399">
        <ele>982.75</ele>
        <time>2019-03-23T15:31:36.000Z</time>
      </trkpt>
      <trkpt lat="46.17582" lon="6.39898">
        <ele>983.06</ele>
        <time>2019-03-23T15:31:41.000Z</time>
      </trkpt>
      <trkpt lat="46.17562" lon="6.39895">
        <ele>982.25</ele>
        <time>2019-03-23T15:31:46.000Z</time>
      </trkpt>
      <trkpt lat="46.17543" lon="6.39887">
        <ele>980.25</ele>
        <time>2019-03-23T15:31:51.000Z</time>
      </trkpt>
      <trkpt lat="46.17522" lon="6.3988">
        <ele>978.25</ele>
        <time>2019-03-23T15:31:56.000Z</time>
      </trkpt>
      <trkpt lat="46.17492" lon="6.39873">
        <ele>978.3</ele>
        <time>2019-03-23T15:32:01.000Z</time>
      </trkpt>
      <trkpt lat="46.17461" lon="6.39868">
        <ele>976.88</ele>
        <time>2019-03-23T15:32:06.000Z</time>
      </trkpt>
      <trkpt lat="46.17432" lon="6.39857">
        <ele>976.18</ele>
        <time>2019-03-23T15:32:11.000Z</time>
      </trkpt>
      <trkpt lat="46.17424" lon="6.39872">
        <ele>973.08</ele>
        <time>2019-03-23T15:32:16.000Z</time>
      </trkpt>
      <trkpt lat="46.17442" lon="6.39904">
        <ele>971.31</ele>
        <time>2019-03-23T15:32:21.000Z</time>
      </trkpt>
      <trkpt lat="46.17434" lon="6.39951">
        <ele>969.32</ele>
        <time>2019-03-23T15:32:26.000Z</time>
      </trkpt>
      <trkpt lat="46.17426" lon="6.39986">
        <ele>967.25</ele>
        <time>2019-03-23T15:32:31.000Z</time>
      </trkpt>
      <trkpt lat="46.1742" lon="6.4">
        <ele>966.8</ele>
        <time>2019-03-23T15:32:36.000Z</time>
      </trkpt>
      <trkpt lat="46.17414" lon="6.39987">
        <ele>968.27</ele>
        <time>2019-03-23T15:34:48.000Z</time>
      </trkpt>
      <trkpt lat="46.17396" lon="6.3996">
        <ele>964.33</ele>
        <time>2019-03-23T15:34:53.000Z</time>
      </trkpt>
      <trkpt lat="46.17366" lon="6.39934">
        <ele>962.07</ele>
        <time>2019-03-23T15:34:58.000Z</time>
      </trkpt>
      <trkpt lat="46.17329" lon="6.39918">
        <ele>962.28</ele>
        <time>2019-03-23T15:35:03.000Z</time>
      </trkpt>
      <trkpt lat="46.17283" lon="6.3992">
        <ele>958.27</ele>
        <time>2019-03-23T15:35:08.000Z</time>
      </trkpt>
      <trkpt lat="46.17242" lon="6.39908">
        <ele>958.19</ele>
        <time>2019-03-23T15:35:13.000Z</time>
      </trkpt>
      <trkpt lat="46.17207" lon="6.39862">
        <ele>952.58</ele>
        <time>2019-03-23T15:35:18.000Z</time>
      </trkpt>
      <trkpt lat="46.17168" lon="6.39808">
        <ele>947.38</ele>
        <time>2019-03-23T15:35:23.000Z</time>
      </trkpt>
      <trkpt lat="46.17119" lon="6.39765">
        <ele>943.02</ele>
        <time>2019-03-23T15:35:28.000Z</time>
      </trkpt>
      <trkpt lat="46.17078" lon="6.3973">
        <ele>940.08</ele>
        <time>2019-03-23T15:35:33.000Z</time>
      </trkpt>
      <trkpt lat="46.17047" lon="6.39706">
        <ele>937.27</ele>
        <time>2019-03-23T15:35:38.000Z</time>
      </trkpt>
      <trkpt lat="46.17018" lon="6.39674">
        <ele>935.02</ele>
        <time>2019-03-23T15:35:43.000Z</time>
      </trkpt>
      <trkpt lat="46.17016" lon="6.39622">
        <ele>932.08</ele>
        <time>2019-03-23T15:35:48.000Z</time>
      </trkpt>
      <trkpt lat="46.16992" lon="6.39573">
        <ele>929.32</ele>
        <time>2019-03-23T15:35:53.000Z</time>
      </trkpt>
      <trkpt lat="46.16977" lon="6.39514">
        <ele>926.27</ele>
        <time>2019-03-23T15:35:58.000Z</time>
      </trkpt>
      <trkpt lat="46.16947" lon="6.39459">
        <ele>923.08</ele>
        <time>2019-03-23T15:36:03.000Z</time>
      </trkpt>
      <trkpt lat="46.16917" lon="6.39413">
        <ele>920.31</ele>
        <time>2019-03-23T15:36:08.000Z</time>
      </trkpt>
      <trkpt lat="46.16892" lon="6.39356">
        <ele>916.33</ele>
        <time>2019-03-23T15:36:13.000Z</time>
      </trkpt>
      <trkpt lat="46.1688" lon="6.39284">
        <ele>912.33</ele>
        <time>2019-03-23T15:36:18.000Z</time>
      </trkpt>
      <trkpt lat="46.16889" lon="6.39208">
        <ele>908.33</ele>
        <time>2019-03-23T15:36:23.000Z</time>
      </trkpt>
      <trkpt lat="46.16899" lon="6.39136">
        <ele>905.27</ele>
        <time>2019-03-23T15:36:28.000Z</time>
      </trkpt>
      <trkpt lat="46.16903" lon="6.39067">
        <ele>903.27</ele>
        <time>2019-03-23T15:36:33.000Z</time>
      </trkpt>
      <trkpt lat="46.16911" lon="6.39002">
        <ele>900.08</ele>
        <time>2019-03-23T15:36:38.000Z</time>
      </trkpt>
      <trkpt lat="46.16894" lon="6.38947">
        <ele>897.07</ele>
        <time>2019-03-23T15:36:43.000Z</time>
      </trkpt>
      <trkpt lat="46.1685" lon="6.38953">
        <ele>895.27</ele>
        <time>2019-03-23T15:36:48.000Z</time>
      </trkpt>
      <trkpt lat="46.16802" lon="6.38971">
        <ele>893.27</ele>
        <time>2019-03-23T15:36:53.000Z</time>
      </trkpt>
      <trkpt lat="46.16751" lon="6.38978">
        <ele>888.33</ele>
        <time>2019-03-23T15:36:58.000Z</time>
      </trkpt>
      <trkpt lat="46.16697" lon="6.38975">
        <ele>887</ele>
        <time>2019-03-23T15:37:03.000Z</time>
      </trkpt>
      <trkpt lat="46.16643" lon="6.38978">
        <ele>882.38</ele>
        <time>2019-03-23T15:37:08.000Z</time>
      </trkpt>
      <trkpt lat="46.16589" lon="6.38985">
        <ele>877.52</ele>
        <time>2019-03-23T15:37:13.000Z</time>
      </trkpt>
      <trkpt lat="46.16532" lon="6.38995">
        <ele>871.34</ele>
        <time>2019-03-23T15:37:18.000Z</time>
      </trkpt>
      <trkpt lat="46.16471" lon="6.39006">
        <ele>869.02</ele>
        <time>2019-03-23T15:37:23.000Z</time>
      </trkpt>
      <trkpt lat="46.16412" lon="6.39006">
        <ele>867.08</ele>
        <time>2019-03-23T15:37:28.000Z</time>
      </trkpt>
      <trkpt lat="46.16352" lon="6.38999">
        <ele>862.1</ele>
        <time>2019-03-23T15:37:33.000Z</time>
      </trkpt>
      <trkpt lat="46.16295" lon="6.38978">
        <ele>859.03</ele>
        <time>2019-03-23T15:37:38.000Z</time>
      </trkpt>
      <trkpt lat="46.1624" lon="6.38958">
        <ele>855.02</ele>
        <time>2019-03-23T15:37:43.000Z</time>
      </trkpt>
      <trkpt lat="46.16188" lon="6.38944">
        <ele>852.08</ele>
        <time>2019-03-23T15:37:48.000Z</time>
      </trkpt>
      <trkpt lat="46.16133" lon="6.38929">
        <ele>848.08</ele>
        <time>2019-03-23T15:37:53.000Z</time>
      </trkpt>
      <trkpt lat="46.16076" lon="6.38921">
        <ele>845.3</ele>
        <time>2019-03-23T15:37:58.000Z</time>
      </trkpt>
      <trkpt lat="46.16025" lon="6.38892">
        <ele>838.55</ele>
        <time>2019-03-23T15:38:03.000Z</time>
      </trkpt>
      <trkpt lat="46.15977" lon="6.38848">
        <ele>832.4</ele>
        <time>2019-03-23T15:38:08.000Z</time>
      </trkpt>
      <trkpt lat="46.15938" lon="6.38812">
        <ele>829.07</ele>
        <time>2019-03-23T15:38:13.000Z</time>
      </trkpt>
      <trkpt lat="46.15897" lon="6.38797">
        <ele>824.33</ele>
        <time>2019-03-23T15:38:18.000Z</time>
      </trkpt>
      <trkpt lat="46.15858" lon="6.38816">
        <ele>821.08</ele>
        <time>2019-03-23T15:38:23.000Z</time>
      </trkpt>
      <trkpt lat="46.1585" lon="6.38861">
        <ele>818.07</ele>
        <time>2019-03-23T15:38:28.000Z</time>
      </trkpt>
      <trkpt lat="46.15873" lon="6.38912">
        <ele>814.33</ele>
        <time>2019-03-23T15:38:33.000Z</time>
      </trkpt>
      <trkpt lat="46.159" lon="6.38966">
        <ele>810.32</ele>
        <time>2019-03-23T15:38:38.000Z</time>
      </trkpt>
      <trkpt lat="46.15934" lon="6.3902">
        <ele>806.33</ele>
        <time>2019-03-23T15:38:43.000Z</time>
      </trkpt>
      <trkpt lat="46.1597" lon="6.39063">
        <ele>803.07</ele>
        <time>2019-03-23T15:38:48.000Z</time>
      </trkpt>
      <trkpt lat="46.15986" lon="6.39097">
        <ele>800.02</ele>
        <time>2019-03-23T15:38:53.000Z</time>
      </trkpt>
      <trkpt lat="46.15956" lon="6.39106">
        <ele>798.02</ele>
        <time>2019-03-23T15:38:58.000Z</time>
      </trkpt>
      <trkpt lat="46.15918" lon="6.39085">
        <ele>794.32</ele>
        <time>2019-03-23T15:39:03.000Z</time>
      </trkpt>
      <trkpt lat="46.15874" lon="6.39064">
        <ele>793</ele>
        <time>2019-03-23T15:39:08.000Z</time>
      </trkpt>
      <trkpt lat="46.15829" lon="6.39061">
        <ele>792.75</ele>
        <time>2019-03-23T15:39:13.000Z</time>
      </trkpt>
      <trkpt lat="46.15806" lon="6.39068">
        <ele>790.13</ele>
        <time>2019-03-23T15:39:18.000Z</time>
      </trkpt>
      <trkpt lat="46.15789" lon="6.39046">
        <ele>789</ele>
        <time>2019-03-23T15:39:23.000Z</time>
      </trkpt>
      <trkpt lat="46.15769" lon="6.39021">
        <ele>788</ele>
        <time>2019-03-23T15:39:28.000Z</time>
      </trkpt>
      <trkpt lat="46.15747" lon="6.38992">
        <ele>787.75</ele>
        <time>2019-03-23T15:39:33.000Z</time>
      </trkpt>
      <trkpt lat="46.1572" lon="6.38972">
        <ele>787</ele>
        <time>2019-03-23T15:39:38.000Z</time>
      </trkpt>
      <trkpt lat="46.1568" lon="6.38968">
        <ele>785.08</ele>
        <time>2019-03-23T15:39:43.000Z</time>
      </trkpt>
      <trkpt lat="46.15642" lon="6.38941">
        <ele>784.25</ele>
        <time>2019-03-23T15:39:48.000Z</time>
      </trkpt>
      <trkpt lat="46.15607" lon="6.38902">
        <ele>783.02</ele>
        <time>2019-03-23T15:39:53.000Z</time>
      </trkpt>
      <trkpt lat="46.15563" lon="6.38873">
        <ele>780.32</ele>
        <time>2019-03-23T15:39:58.000Z</time>
      </trkpt>
      <trkpt lat="46.15516" lon="6.38836">
        <ele>774.33</ele>
        <time>2019-03-23T15:40:03.000Z</time>
      </trkpt>
      <trkpt lat="46.1547" lon="6.38793">
        <ele>770.33</ele>
        <time>2019-03-23T15:40:08.000Z</time>
      </trkpt>
      <trkpt lat="46.15437" lon="6.38739">
        <ele>765.08</ele>
        <time>2019-03-23T15:40:13.000Z</time>
      </trkpt>
      <trkpt lat="46.15415" lon="6.38667">
        <ele>759.35</ele>
        <time>2019-03-23T15:40:18.000Z</time>
      </trkpt>
      <trkpt lat="46.15397" lon="6.38585">
        <ele>753.58</ele>
        <time>2019-03-23T15:40:23.000Z</time>
      </trkpt>
      <trkpt lat="46.15378" lon="6.38495">
        <ele>747.58</ele>
        <time>2019-03-23T15:40:28.000Z</time>
      </trkpt>
      <trkpt lat="46.1536" lon="6.38409">
        <ele>743.08</ele>
        <time>2019-03-23T15:40:33.000Z</time>
      </trkpt>
      <trkpt lat="46.15327" lon="6.38348">
        <ele>737.57</ele>
        <time>2019-03-23T15:40:38.000Z</time>
      </trkpt>
      <trkpt lat="46.15317" lon="6.38267">
        <ele>732.33</ele>
        <time>2019-03-23T15:40:43.000Z</time>
      </trkpt>
      <trkpt lat="46.15313" lon="6.38184">
        <ele>727.33</ele>
        <time>2019-03-23T15:40:48.000Z</time>
      </trkpt>
      <trkpt lat="46.15338" lon="6.38109">
        <ele>723.32</ele>
        <time>2019-03-23T15:40:53.000Z</time>
      </trkpt>
      <trkpt lat="46.15371" lon="6.38041">
        <ele>718.52</ele>
        <time>2019-03-23T15:40:58.000Z</time>
      </trkpt>
      <trkpt lat="46.15399" lon="6.37977">
        <ele>714.33</ele>
        <time>2019-03-23T15:41:03.000Z</time>
      </trkpt>
      <trkpt lat="46.15411" lon="6.37939">
        <ele>711.27</ele>
        <time>2019-03-23T15:41:08.000Z</time>
      </trkpt>
      <trkpt lat="46.15422" lon="6.37908">
        <ele>710</ele>
        <time>2019-03-23T15:41:13.000Z</time>
      </trkpt>
      <trkpt lat="46.1544" lon="6.37869">
        <ele>708.06</ele>
        <time>2019-03-23T15:41:18.000Z</time>
      </trkpt>
      <trkpt lat="46.15463" lon="6.37826">
        <ele>707.99</ele>
        <time>2019-03-23T15:41:23.000Z</time>
      </trkpt>
      <trkpt lat="46.1549" lon="6.37791">
        <ele>706.81</ele>
        <time>2019-03-23T15:41:28.000Z</time>
      </trkpt>
      <trkpt lat="46.15524" lon="6.37751">
        <ele>703.27</ele>
        <time>2019-03-23T15:41:33.000Z</time>
      </trkpt>
      <trkpt lat="46.15559" lon="6.37702">
        <ele>698.35</ele>
        <time>2019-03-23T15:41:38.000Z</time>
      </trkpt>
      <trkpt lat="46.15597" lon="6.37647">
        <ele>693.33</ele>
        <time>2019-03-23T15:41:43.000Z</time>
      </trkpt>
      <trkpt lat="46.15638" lon="6.37602">
        <ele>689.33</ele>
        <time>2019-03-23T15:41:48.000Z</time>
      </trkpt>
      <trkpt lat="46.15681" lon="6.3757">
        <ele>686.32</ele>
        <time>2019-03-23T15:41:53.000Z</time>
      </trkpt>
      <trkpt lat="46.15721" lon="6.37543">
        <ele>685.95</ele>
        <time>2019-03-23T15:41:58.000Z</time>
      </trkpt>
      <trkpt lat="46.15755" lon="6.375">
        <ele>684.25</ele>
        <time>2019-03-23T15:42:03.000Z</time>
      </trkpt>
      <trkpt lat="46.15785" lon="6.37454">
        <ele>681.27</ele>
        <time>2019-03-23T15:42:08.000Z</time>
      </trkpt>
      <trkpt lat="46.15811" lon="6.37405">
        <ele>680.02</ele>
        <time>2019-03-23T15:42:13.000Z</time>
      </trkpt>
      <trkpt lat="46.15842" lon="6.37361">
        <ele>677.08</ele>
        <time>2019-03-23T15:42:18.000Z</time>
      </trkpt>
      <trkpt lat="46.15883" lon="6.37333">
        <ele>674.08</ele>
        <time>2019-03-23T15:42:23.000Z</time>
      </trkpt>
      <trkpt lat="46.15926" lon="6.37306">
        <ele>670.32</ele>
        <time>2019-03-23T15:42:28.000Z</time>
      </trkpt>
      <trkpt lat="46.15969" lon="6.37278">
        <ele>667.08</ele>
        <time>2019-03-23T15:42:33.000Z</time>
      </trkpt>
      <trkpt lat="46.16015" lon="6.37251">
        <ele>664.08</ele>
        <time>2019-03-23T15:42:38.000Z</time>
      </trkpt>
      <trkpt lat="46.16063" lon="6.37236">
        <ele>662.07</ele>
        <time>2019-03-23T15:42:43.000Z</time>
      </trkpt>
      <trkpt lat="46.16111" lon="6.37239">
        <ele>660.06</ele>
        <time>2019-03-23T15:42:48.000Z</time>
      </trkpt>
      <trkpt lat="46.16157" lon="6.37254">
        <ele>660.25</ele>
        <time>2019-03-23T15:42:53.000Z</time>
      </trkpt>
      <trkpt lat="46.162" lon="6.37268">
        <ele>659.02</ele>
        <time>2019-03-23T15:42:58.000Z</time>
      </trkpt>
      <trkpt lat="46.16225" lon="6.37228">
        <ele>658.06</ele>
        <time>2019-03-23T15:43:03.000Z</time>
      </trkpt>
      <trkpt lat="46.16199" lon="6.37184">
        <ele>657.02</ele>
        <time>2019-03-23T15:43:08.000Z</time>
      </trkpt>
      <trkpt lat="46.16162" lon="6.37146">
        <ele>652.33</ele>
        <time>2019-03-23T15:43:13.000Z</time>
      </trkpt>
      <trkpt lat="46.16138" lon="6.37081">
        <ele>649.08</ele>
        <time>2019-03-23T15:43:18.000Z</time>
      </trkpt>
      <trkpt lat="46.1611" lon="6.37019">
        <ele>648.25</ele>
        <time>2019-03-23T15:43:23.000Z</time>
      </trkpt>
      <trkpt lat="46.16089" lon="6.36953">
        <ele>646.07</ele>
        <time>2019-03-23T15:43:28.000Z</time>
      </trkpt>
      <trkpt lat="46.16089" lon="6.36879">
        <ele>643.31</ele>
        <time>2019-03-23T15:43:33.000Z</time>
      </trkpt>
      <trkpt lat="46.16101" lon="6.3681">
        <ele>641.08</ele>
        <time>2019-03-23T15:43:38.000Z</time>
      </trkpt>
      <trkpt lat="46.16115" lon="6.36742">
        <ele>639.06</ele>
        <time>2019-03-23T15:43:43.000Z</time>
      </trkpt>
      <trkpt lat="46.1611" lon="6.36675">
        <ele>637.02</ele>
        <time>2019-03-23T15:43:48.000Z</time>
      </trkpt>
      <trkpt lat="46.16096" lon="6.36612">
        <ele>635.25</ele>
        <time>2019-03-23T15:43:53.000Z</time>
      </trkpt>
      <trkpt lat="46.16081" lon="6.36546">
        <ele>633.07</ele>
        <time>2019-03-23T15:43:58.000Z</time>
      </trkpt>
      <trkpt lat="46.16068" lon="6.36479">
        <ele>630.27</ele>
        <time>2019-03-23T15:44:03.000Z</time>
      </trkpt>
      <trkpt lat="46.16065" lon="6.36406">
        <ele>627.08</ele>
        <time>2019-03-23T15:44:08.000Z</time>
      </trkpt>
      <trkpt lat="46.1607" lon="6.36329">
        <ele>622.33</ele>
        <time>2019-03-23T15:44:13.000Z</time>
      </trkpt>
      <trkpt lat="46.16075" lon="6.36249">
        <ele>619.27</ele>
        <time>2019-03-23T15:44:18.000Z</time>
      </trkpt>
      <trkpt lat="46.16057" lon="6.3617">
        <ele>614.1</ele>
        <time>2019-03-23T15:44:23.000Z</time>
      </trkpt>
      <trkpt lat="46.16027" lon="6.36097">
        <ele>609.33</ele>
        <time>2019-03-23T15:44:28.000Z</time>
      </trkpt>
      <trkpt lat="46.15996" lon="6.36024">
        <ele>606.08</ele>
        <time>2019-03-23T15:44:33.000Z</time>
      </trkpt>
      <trkpt lat="46.15965" lon="6.35951">
        <ele>601.08</ele>
        <time>2019-03-23T15:44:38.000Z</time>
      </trkpt>
      <trkpt lat="46.15935" lon="6.3588">
        <ele>597.27</ele>
        <time>2019-03-23T15:44:43.000Z</time>
      </trkpt>
      <trkpt lat="46.15917" lon="6.35831">
        <ele>596.25</ele>
        <time>2019-03-23T15:44:48.000Z</time>
      </trkpt>
      <trkpt lat="46.1591" lon="6.35791">
        <ele>596</ele>
        <time>2019-03-23T15:44:53.000Z</time>
      </trkpt>
      <trkpt lat="46.15909" lon="6.35747">
        <ele>596.75</ele>
        <time>2019-03-23T15:44:58.000Z</time>
      </trkpt>
      <trkpt lat="46.15912" lon="6.35701">
        <ele>596</ele>
        <time>2019-03-23T15:45:03.000Z</time>
      </trkpt>
      <trkpt lat="46.15926" lon="6.35653">
        <ele>594.02</ele>
        <time>2019-03-23T15:45:08.000Z</time>
      </trkpt>
      <trkpt lat="46.15949" lon="6.35609">
        <ele>593</ele>
        <time>2019-03-23T15:45:13.000Z</time>
      </trkpt>
      <trkpt lat="46.1598" lon="6.35574">
        <ele>593.05</ele>
        <time>2019-03-23T15:45:18.000Z</time>
      </trkpt>
      <trkpt lat="46.16008" lon="6.35545">
        <ele>593.05</ele>
        <time>2019-03-23T15:45:23.000Z</time>
      </trkpt>
      <trkpt lat="46.16035" lon="6.35522">
        <ele>594</ele>
        <time>2019-03-23T15:45:28.000Z</time>
      </trkpt>
      <trkpt lat="46.16059" lon="6.35501">
        <ele>593</ele>
        <time>2019-03-23T15:45:33.000Z</time>
      </trkpt>
      <trkpt lat="46.16082" lon="6.35477">
        <ele>592.95</ele>
        <time>2019-03-23T15:45:38.000Z</time>
      </trkpt>
      <trkpt lat="46.16103" lon="6.35444">
        <ele>592</ele>
        <time>2019-03-23T15:45:43.000Z</time>
      </trkpt>
      <trkpt lat="46.16125" lon="6.35405">
        <ele>592.01</ele>
        <time>2019-03-23T15:45:48.000Z</time>
      </trkpt>
      <trkpt lat="46.16145" lon="6.35371">
        <ele>592</ele>
        <time>2019-03-23T15:45:53.000Z</time>
      </trkpt>
      <trkpt lat="46.16156" lon="6.3535">
        <ele>592</ele>
        <time>2019-03-23T15:45:58.000Z</time>
      </trkpt>
      <trkpt lat="46.16168" lon="6.35335">
        <ele>592.19</ele>
        <time>2019-03-23T15:46:03.000Z</time>
      </trkpt>
      <trkpt lat="46.16192" lon="6.35314">
        <ele>593</ele>
        <time>2019-03-23T15:46:08.000Z</time>
      </trkpt>
      <trkpt lat="46.16225" lon="6.35309">
        <ele>592</ele>
        <time>2019-03-23T15:46:13.000Z</time>
      </trkpt>
      <trkpt lat="46.16258" lon="6.35311">
        <ele>592</ele>
        <time>2019-03-23T15:46:18.000Z</time>
      </trkpt>
      <trkpt lat="46.16291" lon="6.35311">
        <ele>591.01</ele>
        <time>2019-03-23T15:46:23.000Z</time>
      </trkpt>
      <trkpt lat="46.16308" lon="6.35336">
        <ele>590</ele>
        <time>2019-03-23T15:46:28.000Z</time>
      </trkpt>
      <trkpt lat="46.16315" lon="6.35367">
        <ele>590</ele>
        <time>2019-03-23T15:46:33.000Z</time>
      </trkpt>
      <trkpt lat="46.16321" lon="6.35403">
        <ele>590</ele>
        <time>2019-03-23T15:46:38.000Z</time>
      </trkpt>
      <trkpt lat="46.16329" lon="6.35438">
        <ele>590</ele>
        <time>2019-03-23T15:46:43.000Z</time>
      </trkpt>
      <trkpt lat="46.16337" lon="6.35474">
        <ele>591</ele>
        <time>2019-03-23T15:46:48.000Z</time>
      </trkpt>
      <trkpt lat="46.16342" lon="6.35509">
        <ele>592.73</ele>
        <time>2019-03-23T15:46:53.000Z</time>
      </trkpt>
      <trkpt lat="46.16346" lon="6.35536">
        <ele>593</ele>
        <time>2019-03-23T15:46:58.000Z</time>
      </trkpt>
      <trkpt lat="46.16352" lon="6.35562">
        <ele>593.98</ele>
        <time>2019-03-23T15:47:03.000Z</time>
      </trkpt>
      <trkpt lat="46.16353" lon="6.35575">
        <ele>597</ele>
        <time>2019-03-23T15:48:59.000Z</time>
      </trkpt>
      <trkpt lat="46.16359" lon="6.35597">
        <ele>597.74</ele>
        <time>2019-03-23T15:49:04.000Z</time>
      </trkpt>
      <trkpt lat="46.16367" lon="6.35621">
        <ele>598.94</ele>
        <time>2019-03-23T15:49:09.000Z</time>
      </trkpt>
      <trkpt lat="46.16374" lon="6.35645">
        <ele>600</ele>
        <time>2019-03-23T15:49:14.000Z</time>
      </trkpt>
      <trkpt lat="46.16383" lon="6.35671">
        <ele>599.81</ele>
        <time>2019-03-23T15:49:19.000Z</time>
      </trkpt>
      <trkpt lat="46.16389" lon="6.35697">
        <ele>600</ele>
        <time>2019-03-23T15:49:24.000Z</time>
      </trkpt>
      <trkpt lat="46.16391" lon="6.35724">
        <ele>600.98</ele>
        <time>2019-03-23T15:49:29.000Z</time>
      </trkpt>
      <trkpt lat="46.16392" lon="6.35748">
        <ele>601.75</ele>
        <time>2019-03-23T15:49:34.000Z</time>
      </trkpt>
      <trkpt lat="46.16392" lon="6.35774">
        <ele>602</ele>
        <time>2019-03-23T15:49:39.000Z</time>
      </trkpt>
      <trkpt lat="46.16392" lon="6.35799">
        <ele>602</ele>
        <time>2019-03-23T15:49:44.000Z</time>
      </trkpt>
      <trkpt lat="46.16391" lon="6.35822">
        <ele>604.73</ele>
        <time>2019-03-23T15:49:49.000Z</time>
      </trkpt>
      <trkpt lat="46.16391" lon="6.35846">
        <ele>605</ele>
        <time>2019-03-23T15:49:54.000Z</time>
      </trkpt>
      <trkpt lat="46.1639" lon="6.35868">
        <ele>605.75</ele>
        <time>2019-03-23T15:49:59.000Z</time>
      </trkpt>
      <trkpt lat="46.1639" lon="6.35893">
        <ele>606.94</ele>
        <time>2019-03-23T15:50:04.000Z</time>
      </trkpt>
      <trkpt lat="46.1639" lon="6.35915">
        <ele>607.94</ele>
        <time>2019-03-23T15:50:09.000Z</time>
      </trkpt>
      <trkpt lat="46.16391" lon="6.35939">
        <ele>609.75</ele>
        <time>2019-03-23T15:50:14.000Z</time>
      </trkpt>
      <trkpt lat="46.16391" lon="6.35962">
        <ele>610.94</ele>
        <time>2019-03-23T15:50:19.000Z</time>
      </trkpt>
      <trkpt lat="46.16393" lon="6.35986">
        <ele>611.98</ele>
        <time>2019-03-23T15:50:24.000Z</time>
      </trkpt>
      <trkpt lat="46.16396" lon="6.36009">
        <ele>612</ele>
        <time>2019-03-23T15:50:29.000Z</time>
      </trkpt>
      <trkpt lat="46.16398" lon="6.36033">
        <ele>612.75</ele>
        <time>2019-03-23T15:50:34.000Z</time>
      </trkpt>
      <trkpt lat="46.164" lon="6.36056">
        <ele>613.94</ele>
        <time>2019-03-23T15:50:39.000Z</time>
      </trkpt>
      <trkpt lat="46.16402" lon="6.3608">
        <ele>614</ele>
        <time>2019-03-23T15:50:44.000Z</time>
      </trkpt>
      <trkpt lat="46.16404" lon="6.36103">
        <ele>615</ele>
        <time>2019-03-23T15:50:49.000Z</time>
      </trkpt>
      <trkpt lat="46.16407" lon="6.36125">
        <ele>615.75</ele>
        <time>2019-03-23T15:50:54.000Z</time>
      </trkpt>
      <trkpt lat="46.16408" lon="6.36149">
        <ele>616.94</ele>
        <time>2019-03-23T15:50:59.000Z</time>
      </trkpt>
      <trkpt lat="46.16409" lon="6.36172">
        <ele>617.98</ele>
        <time>2019-03-23T15:51:04.000Z</time>
      </trkpt>
      <trkpt lat="46.16408" lon="6.36196">
        <ele>618</ele>
        <time>2019-03-23T15:51:09.000Z</time>
      </trkpt>
      <trkpt lat="46.16405" lon="6.36218">
        <ele>619.94</ele>
        <time>2019-03-23T15:51:14.000Z</time>
      </trkpt>
      <trkpt lat="46.16401" lon="6.3624">
        <ele>620.75</ele>
        <time>2019-03-23T15:51:19.000Z</time>
      </trkpt>
      <trkpt lat="46.16396" lon="6.36262">
        <ele>621.75</ele>
        <time>2019-03-23T15:51:24.000Z</time>
      </trkpt>
      <trkpt lat="46.16391" lon="6.36285">
        <ele>623.75</ele>
        <time>2019-03-23T15:51:29.000Z</time>
      </trkpt>
      <trkpt lat="46.16387" lon="6.36309">
        <ele>623.99</ele>
        <time>2019-03-23T15:51:34.000Z</time>
      </trkpt>
      <trkpt lat="46.16385" lon="6.36333">
        <ele>624.94</ele>
        <time>2019-03-23T15:51:39.000Z</time>
      </trkpt>
      <trkpt lat="46.16385" lon="6.36358">
        <ele>625</ele>
        <time>2019-03-23T15:51:44.000Z</time>
      </trkpt>
      <trkpt lat="46.16386" lon="6.36384">
        <ele>626</ele>
        <time>2019-03-23T15:51:49.000Z</time>
      </trkpt>
      <trkpt lat="46.16388" lon="6.36408">
        <ele>626</ele>
        <time>2019-03-23T15:51:54.000Z</time>
      </trkpt>
      <trkpt lat="46.16391" lon="6.36432">
        <ele>626.99</ele>
        <time>2019-03-23T15:51:59.000Z</time>
      </trkpt>
      <trkpt lat="46.16397" lon="6.36455">
        <ele>628</ele>
        <time>2019-03-23T15:52:04.000Z</time>
      </trkpt>
      <trkpt lat="46.16413" lon="6.36456">
        <ele>629.73</ele>
        <time>2019-03-23T15:52:09.000Z</time>
      </trkpt>
      <trkpt lat="46.1642" lon="6.36431">
        <ele>631</ele>
        <time>2019-03-23T15:52:14.000Z</time>
      </trkpt>
      <trkpt lat="46.16417" lon="6.36401">
        <ele>632</ele>
        <time>2019-03-23T15:52:19.000Z</time>
      </trkpt>
      <trkpt lat="46.16412" lon="6.36372">
        <ele>632.75</ele>
        <time>2019-03-23T15:52:24.000Z</time>
      </trkpt>
      <trkpt lat="46.16412" lon="6.36341">
        <ele>633</ele>
        <time>2019-03-23T15:52:29.000Z</time>
      </trkpt>
      <trkpt lat="46.16417" lon="6.36311">
        <ele>634.94</ele>
        <time>2019-03-23T15:52:34.000Z</time>
      </trkpt>
      <trkpt lat="46.16428" lon="6.36281">
        <ele>635</ele>
        <time>2019-03-23T15:52:39.000Z</time>
      </trkpt>
      <trkpt lat="46.1644" lon="6.36251">
        <ele>636</ele>
        <time>2019-03-23T15:52:44.000Z</time>
      </trkpt>
      <trkpt lat="46.1645" lon="6.36218">
        <ele>636.94</ele>
        <time>2019-03-23T15:52:49.000Z</time>
      </trkpt>
      <trkpt lat="46.16454" lon="6.36182">
        <ele>637</ele>
        <time>2019-03-23T15:52:54.000Z</time>
      </trkpt>
      <trkpt lat="46.16455" lon="6.36146">
        <ele>637.75</ele>
        <time>2019-03-23T15:52:59.000Z</time>
      </trkpt>
      <trkpt lat="46.16458" lon="6.36111">
        <ele>638</ele>
        <time>2019-03-23T15:53:04.000Z</time>
      </trkpt>
      <trkpt lat="46.16463" lon="6.36076">
        <ele>638</ele>
        <time>2019-03-23T15:53:09.000Z</time>
      </trkpt>
      <trkpt lat="46.16475" lon="6.36046">
        <ele>638</ele>
        <time>2019-03-23T15:53:14.000Z</time>
      </trkpt>
      <trkpt lat="46.1649" lon="6.36019">
        <ele>638</ele>
        <time>2019-03-23T15:53:19.000Z</time>
      </trkpt>
      <trkpt lat="46.16501" lon="6.3599">
        <ele>637</ele>
        <time>2019-03-23T15:53:24.000Z</time>
      </trkpt>
      <trkpt lat="46.16503" lon="6.3595">
        <ele>635.07</ele>
        <time>2019-03-23T15:53:29.000Z</time>
      </trkpt>
      <trkpt lat="46.16509" lon="6.35896">
        <ele>633.02</ele>
        <time>2019-03-23T15:53:34.000Z</time>
      </trkpt>
      <trkpt lat="46.16515" lon="6.35837">
        <ele>632.02</ele>
        <time>2019-03-23T15:53:39.000Z</time>
      </trkpt>
      <trkpt lat="46.16521" lon="6.35781">
        <ele>632</ele>
        <time>2019-03-23T15:53:44.000Z</time>
      </trkpt>
      <trkpt lat="46.16519" lon="6.35734">
        <ele>632</ele>
        <time>2019-03-23T15:53:49.000Z</time>
      </trkpt>
      <trkpt lat="46.16516" lon="6.35686">
        <ele>631</ele>
        <time>2019-03-23T15:53:54.000Z</time>
      </trkpt>
      <trkpt lat="46.16521" lon="6.35639">
        <ele>631</ele>
        <time>2019-03-23T15:53:59.000Z</time>
      </trkpt>
      <trkpt lat="46.16529" lon="6.35596">
        <ele>631.98</ele>
        <time>2019-03-23T15:54:04.000Z</time>
      </trkpt>
      <trkpt lat="46.16538" lon="6.3556">
        <ele>633</ele>
        <time>2019-03-23T15:54:09.000Z</time>
      </trkpt>
      <trkpt lat="46.16544" lon="6.35524">
        <ele>633.98</ele>
        <time>2019-03-23T15:54:14.000Z</time>
      </trkpt>
      <trkpt lat="46.16548" lon="6.35488">
        <ele>635</ele>
        <time>2019-03-23T15:54:19.000Z</time>
      </trkpt>
      <trkpt lat="46.16544" lon="6.35449">
        <ele>634.02</ele>
        <time>2019-03-23T15:54:24.000Z</time>
      </trkpt>
      <trkpt lat="46.16545" lon="6.35399">
        <ele>632.25</ele>
        <time>2019-03-23T15:54:29.000Z</time>
      </trkpt>
      <trkpt lat="46.16552" lon="6.35353">
        <ele>633</ele>
        <time>2019-03-23T15:54:34.000Z</time>
      </trkpt>
      <trkpt lat="46.16552" lon="6.35308">
        <ele>633.98</ele>
        <time>2019-03-23T15:54:39.000Z</time>
      </trkpt>
      <trkpt lat="46.16555" lon="6.35274">
        <ele>635.75</ele>
        <time>2019-03-23T15:54:44.000Z</time>
      </trkpt>
      <trkpt lat="46.16563" lon="6.35254">
        <ele>636.98</ele>
        <time>2019-03-23T15:54:49.000Z</time>
      </trkpt>
      <trkpt lat="46.16575" lon="6.35239">
        <ele>638.97</ele>
        <time>2019-03-23T15:54:54.000Z</time>
      </trkpt>
      <trkpt lat="46.16584" lon="6.35212">
        <ele>639.75</ele>
        <time>2019-03-23T15:54:59.000Z</time>
      </trkpt>
      <trkpt lat="46.16584" lon="6.35182">
        <ele>639.25</ele>
        <time>2019-03-23T15:55:04.000Z</time>
      </trkpt>
      <trkpt lat="46.16581" lon="6.35142">
        <ele>639</ele>
        <time>2019-03-23T15:55:09.000Z</time>
      </trkpt>
      <trkpt lat="46.16573" lon="6.35093">
        <ele>637.06</ele>
        <time>2019-03-23T15:55:14.000Z</time>
      </trkpt>
      <trkpt lat="46.16555" lon="6.3504">
        <ele>635.02</ele>
        <time>2019-03-23T15:55:19.000Z</time>
      </trkpt>
      <trkpt lat="46.16558" lon="6.34983">
        <ele>633.31</ele>
        <time>2019-03-23T15:55:24.000Z</time>
      </trkpt>
      <trkpt lat="46.16568" lon="6.34923">
        <ele>632.06</ele>
        <time>2019-03-23T15:55:29.000Z</time>
      </trkpt>
      <trkpt lat="46.16577" lon="6.34872">
        <ele>631.25</ele>
        <time>2019-03-23T15:55:34.000Z</time>
      </trkpt>
      <trkpt lat="46.16592" lon="6.34824">
        <ele>631</ele>
        <time>2019-03-23T15:55:39.000Z</time>
      </trkpt>
      <trkpt lat="46.16609" lon="6.34777">
        <ele>631</ele>
        <time>2019-03-23T15:55:44.000Z</time>
      </trkpt>
      <trkpt lat="46.16629" lon="6.34736">
        <ele>632</ele>
        <time>2019-03-23T15:55:49.000Z</time>
      </trkpt>
      <trkpt lat="46.16648" lon="6.34697">
        <ele>632</ele>
        <time>2019-03-23T15:55:54.000Z</time>
      </trkpt>
      <trkpt lat="46.16666" lon="6.34655">
        <ele>631</ele>
        <time>2019-03-23T15:55:59.000Z</time>
      </trkpt>
      <trkpt lat="46.16683" lon="6.34604">
        <ele>627.09</ele>
        <time>2019-03-23T15:56:04.000Z</time>
      </trkpt>
      <trkpt lat="46.16694" lon="6.34555">
        <ele>625.06</ele>
        <time>2019-03-23T15:56:09.000Z</time>
      </trkpt>
      <trkpt lat="46.167" lon="6.3451">
        <ele>625</ele>
        <time>2019-03-23T15:56:14.000Z</time>
      </trkpt>
      <trkpt lat="46.16703" lon="6.34477">
        <ele>626.75</ele>
        <time>2019-03-23T15:56:19.000Z</time>
      </trkpt>
      <trkpt lat="46.16716" lon="6.34442">
        <ele>624.27</ele>
        <time>2019-03-23T15:56:24.000Z</time>
      </trkpt>
      <trkpt lat="46.16727" lon="6.34392">
        <ele>622.01</ele>
        <time>2019-03-23T15:56:29.000Z</time>
      </trkpt>
      <trkpt lat="46.16738" lon="6.34359">
        <ele>623.73</ele>
        <time>2019-03-23T15:56:34.000Z</time>
      </trkpt>
      <trkpt lat="46.16751" lon="6.34336">
        <ele>626.93</ele>
        <time>2019-03-23T15:56:39.000Z</time>
      </trkpt>
      <trkpt lat="46.16766" lon="6.3431">
        <ele>625.02</ele>
        <time>2019-03-23T15:56:44.000Z</time>
      </trkpt>
      <trkpt lat="46.16782" lon="6.34284">
        <ele>626.73</ele>
        <time>2019-03-23T15:56:49.000Z</time>
      </trkpt>
      <trkpt lat="46.16801" lon="6.34265">
        <ele>627.01</ele>
        <time>2019-03-23T15:56:54.000Z</time>
      </trkpt>
      <trkpt lat="46.1682" lon="6.34253">
        <ele>629.68</ele>
        <time>2019-03-23T15:56:59.000Z</time>
      </trkpt>
      <trkpt lat="46.16837" lon="6.34233">
        <ele>630</ele>
        <time>2019-03-23T15:57:04.000Z</time>
      </trkpt>
      <trkpt lat="46.16853" lon="6.34204">
        <ele>629.25</ele>
        <time>2019-03-23T15:57:09.000Z</time>
      </trkpt>
      <trkpt lat="46.16864" lon="6.34159">
        <ele>629.06</ele>
        <time>2019-03-23T15:57:14.000Z</time>
      </trkpt>
      <trkpt lat="46.16873" lon="6.34104">
        <ele>626.27</ele>
        <time>2019-03-23T15:57:19.000Z</time>
      </trkpt>
      <trkpt lat="46.16889" lon="6.34048">
        <ele>623.08</ele>
        <time>2019-03-23T15:57:24.000Z</time>
      </trkpt>
      <trkpt lat="46.1691" lon="6.33993">
        <ele>620.27</ele>
        <time>2019-03-23T15:57:29.000Z</time>
      </trkpt>
      <trkpt lat="46.16935" lon="6.33943">
        <ele>619</ele>
        <time>2019-03-23T15:57:34.000Z</time>
      </trkpt>
      <trkpt lat="46.16961" lon="6.33887">
        <ele>614.33</ele>
        <time>2019-03-23T15:57:39.000Z</time>
      </trkpt>
      <trkpt lat="46.16981" lon="6.33822">
        <ele>611.07</ele>
        <time>2019-03-23T15:57:44.000Z</time>
      </trkpt>
      <trkpt lat="46.16979" lon="6.33754">
        <ele>610.06</ele>
        <time>2019-03-23T15:57:49.000Z</time>
      </trkpt>
      <trkpt lat="46.16973" lon="6.33695">
        <ele>609.95</ele>
        <time>2019-03-23T15:57:54.000Z</time>
      </trkpt>
      <trkpt lat="46.16966" lon="6.33638">
        <ele>610.98</ele>
        <time>2019-03-23T15:57:59.000Z</time>
      </trkpt>
      <trkpt lat="46.16967" lon="6.33587">
        <ele>611</ele>
        <time>2019-03-23T15:58:04.000Z</time>
      </trkpt>
      <trkpt lat="46.1698" lon="6.3354">
        <ele>612</ele>
        <time>2019-03-23T15:58:09.000Z</time>
      </trkpt>
      <trkpt lat="46.16992" lon="6.33495">
        <ele>611.02</ele>
        <time>2019-03-23T15:58:14.000Z</time>
      </trkpt>
      <trkpt lat="46.17006" lon="6.33456">
        <ele>610.25</ele>
        <time>2019-03-23T15:58:19.000Z</time>
      </trkpt>
      <trkpt lat="46.17021" lon="6.33412">
        <ele>609.05</ele>
        <time>2019-03-23T15:58:24.000Z</time>
      </trkpt>
      <trkpt lat="46.17035" lon="6.33393">
        <ele>609.75</ele>
        <time>2019-03-23T15:58:29.000Z</time>
      </trkpt>
      <trkpt lat="46.17052" lon="6.33377">
        <ele>610</ele>
        <time>2019-03-23T15:58:34.000Z</time>
      </trkpt>
      <trkpt lat="46.17072" lon="6.33362">
        <ele>610.94</ele>
        <time>2019-03-23T15:58:39.000Z</time>
      </trkpt>
      <trkpt lat="46.17087" lon="6.33338">
        <ele>612</ele>
        <time>2019-03-23T15:58:44.000Z</time>
      </trkpt>
      <trkpt lat="46.17082" lon="6.33296">
        <ele>610.25</ele>
        <time>2019-03-23T15:58:49.000Z</time>
      </trkpt>
      <trkpt lat="46.17075" lon="6.33249">
        <ele>610</ele>
        <time>2019-03-23T15:58:54.000Z</time>
      </trkpt>
      <trkpt lat="46.17065" lon="6.33197">
        <ele>609</ele>
        <time>2019-03-23T15:58:59.000Z</time>
      </trkpt>
      <trkpt lat="46.17056" lon="6.3314">
        <ele>607.06</ele>
        <time>2019-03-23T15:59:04.000Z</time>
      </trkpt>
      <trkpt lat="46.17048" lon="6.33083">
        <ele>605.06</ele>
        <time>2019-03-23T15:59:09.000Z</time>
      </trkpt>
      <trkpt lat="46.17046" lon="6.33025">
        <ele>604.06</ele>
        <time>2019-03-23T15:59:14.000Z</time>
      </trkpt>
      <trkpt lat="46.17065" lon="6.32977">
        <ele>603.06</ele>
        <time>2019-03-23T15:59:19.000Z</time>
      </trkpt>
      <trkpt lat="46.17086" lon="6.3293">
        <ele>602.02</ele>
        <time>2019-03-23T15:59:24.000Z</time>
      </trkpt>
      <trkpt lat="46.17097" lon="6.32877">
        <ele>602</ele>
        <time>2019-03-23T15:59:29.000Z</time>
      </trkpt>
      <trkpt lat="46.17104" lon="6.32824">
        <ele>601.02</ele>
        <time>2019-03-23T15:59:34.000Z</time>
      </trkpt>
      <trkpt lat="46.17121" lon="6.32773">
        <ele>598.27</ele>
        <time>2019-03-23T15:59:39.000Z</time>
      </trkpt>
      <trkpt lat="46.1714" lon="6.32724">
        <ele>598.99</ele>
        <time>2019-03-23T15:59:44.000Z</time>
      </trkpt>
      <trkpt lat="46.17163" lon="6.32677">
        <ele>597.25</ele>
        <time>2019-03-23T15:59:49.000Z</time>
      </trkpt>
      <trkpt lat="46.17185" lon="6.32629">
        <ele>595.27</ele>
        <time>2019-03-23T15:59:54.000Z</time>
      </trkpt>
      <trkpt lat="46.17206" lon="6.32576">
        <ele>592.27</ele>
        <time>2019-03-23T15:59:59.000Z</time>
      </trkpt>
      <trkpt lat="46.17221" lon="6.32518">
        <ele>591.05</ele>
        <time>2019-03-23T16:00:04.000Z</time>
      </trkpt>
      <trkpt lat="46.17229" lon="6.32457">
        <ele>588.08</ele>
        <time>2019-03-23T16:00:09.000Z</time>
      </trkpt>
      <trkpt lat="46.17237" lon="6.32391">
        <ele>583.33</ele>
        <time>2019-03-23T16:00:14.000Z</time>
      </trkpt>
      <trkpt lat="46.17244" lon="6.32323">
        <ele>581.27</ele>
        <time>2019-03-23T16:00:19.000Z</time>
      </trkpt>
      <trkpt lat="46.1725" lon="6.32276">
        <ele>581</ele>
        <time>2019-03-23T16:00:24.000Z</time>
      </trkpt>
      <trkpt lat="46.17257" lon="6.32248">
        <ele>582.75</ele>
        <time>2019-03-23T16:00:29.000Z</time>
      </trkpt>
      <trkpt lat="46.17268" lon="6.32225">
        <ele>583</ele>
        <time>2019-03-23T16:00:34.000Z</time>
      </trkpt>
      <trkpt lat="46.1728" lon="6.32199">
        <ele>585.68</ele>
        <time>2019-03-23T16:00:39.000Z</time>
      </trkpt>
      <trkpt lat="46.17293" lon="6.3217">
        <ele>586</ele>
        <time>2019-03-23T16:00:44.000Z</time>
      </trkpt>
      <trkpt lat="46.17308" lon="6.32136">
        <ele>585.06</ele>
        <time>2019-03-23T16:00:49.000Z</time>
      </trkpt>
      <trkpt lat="46.17325" lon="6.32097">
        <ele>584</ele>
        <time>2019-03-23T16:00:54.000Z</time>
      </trkpt>
      <trkpt lat="46.17344" lon="6.32056">
        <ele>582.02</ele>
        <time>2019-03-23T16:00:59.000Z</time>
      </trkpt>
      <trkpt lat="46.17364" lon="6.32012">
        <ele>581.02</ele>
        <time>2019-03-23T16:01:04.000Z</time>
      </trkpt>
      <trkpt lat="46.17383" lon="6.31964">
        <ele>579.02</ele>
        <time>2019-03-23T16:01:09.000Z</time>
      </trkpt>
      <trkpt lat="46.17406" lon="6.31916">
        <ele>578</ele>
        <time>2019-03-23T16:01:14.000Z</time>
      </trkpt>
      <trkpt lat="46.17432" lon="6.31868">
        <ele>575.25</ele>
        <time>2019-03-23T16:01:19.000Z</time>
      </trkpt>
      <trkpt lat="46.17456" lon="6.31819">
        <ele>573.31</ele>
        <time>2019-03-23T16:01:24.000Z</time>
      </trkpt>
      <trkpt lat="46.17478" lon="6.31762">
        <ele>571.08</ele>
        <time>2019-03-23T16:01:29.000Z</time>
      </trkpt>
      <trkpt lat="46.17497" lon="6.31714">
        <ele>569.02</ele>
        <time>2019-03-23T16:01:34.000Z</time>
      </trkpt>
      <trkpt lat="46.17527" lon="6.31679">
        <ele>567.27</ele>
        <time>2019-03-23T16:01:39.000Z</time>
      </trkpt>
      <trkpt lat="46.1756" lon="6.31645">
        <ele>567.01</ele>
        <time>2019-03-23T16:01:44.000Z</time>
      </trkpt>
      <trkpt lat="46.17592" lon="6.31614">
        <ele>567</ele>
        <time>2019-03-23T16:01:49.000Z</time>
      </trkpt>
      <trkpt lat="46.17616" lon="6.3159">
        <ele>568.75</ele>
        <time>2019-03-23T16:01:54.000Z</time>
      </trkpt>
      <trkpt lat="46.17637" lon="6.31578">
        <ele>569.94</ele>
        <time>2019-03-23T16:01:59.000Z</time>
      </trkpt>
      <trkpt lat="46.17657" lon="6.31567">
        <ele>570.94</ele>
        <time>2019-03-23T16:02:04.000Z</time>
      </trkpt>
      <trkpt lat="46.17681" lon="6.31549">
        <ele>571.75</ele>
        <time>2019-03-23T16:02:09.000Z</time>
      </trkpt>
      <trkpt lat="46.17704" lon="6.3153">
        <ele>571.99</ele>
        <time>2019-03-23T16:02:14.000Z</time>
      </trkpt>
      <trkpt lat="46.17724" lon="6.31508">
        <ele>572.19</ele>
        <time>2019-03-23T16:02:19.000Z</time>
      </trkpt>
      <trkpt lat="46.17746" lon="6.3149">
        <ele>573.75</ele>
        <time>2019-03-23T16:02:24.000Z</time>
      </trkpt>
      <trkpt lat="46.17767" lon="6.31467">
        <ele>574</ele>
        <time>2019-03-23T16:02:29.000Z</time>
      </trkpt>
      <trkpt lat="46.17788" lon="6.31435">
        <ele>573.25</ele>
        <time>2019-03-23T16:02:34.000Z</time>
      </trkpt>
      <trkpt lat="46.17809" lon="6.31395">
        <ele>571.27</ele>
        <time>2019-03-23T16:02:39.000Z</time>
      </trkpt>
      <trkpt lat="46.17831" lon="6.31353">
        <ele>571</ele>
        <time>2019-03-23T16:02:44.000Z</time>
      </trkpt>
      <trkpt lat="46.1785" lon="6.31313">
        <ele>571</ele>
        <time>2019-03-23T16:02:49.000Z</time>
      </trkpt>
      <trkpt lat="46.17869" lon="6.31276">
        <ele>571</ele>
        <time>2019-03-23T16:02:54.000Z</time>
      </trkpt>
      <trkpt lat="46.17889" lon="6.31238">
        <ele>570.02</ele>
        <time>2019-03-23T16:02:59.000Z</time>
      </trkpt>
      <trkpt lat="46.17911" lon="6.31199">
        <ele>569</ele>
        <time>2019-03-23T16:03:04.000Z</time>
      </trkpt>
      <trkpt lat="46.17934" lon="6.3116">
        <ele>569</ele>
        <time>2019-03-23T16:03:09.000Z</time>
      </trkpt>
      <trkpt lat="46.17957" lon="6.31127">
        <ele>569.81</ele>
        <time>2019-03-23T16:03:14.000Z</time>
      </trkpt>
      <trkpt lat="46.17981" lon="6.31116">
        <ele>570.94</ele>
        <time>2019-03-23T16:03:19.000Z</time>
      </trkpt>
      <trkpt lat="46.17997" lon="6.31107">
        <ele>572.94</ele>
        <time>2019-03-23T16:03:24.000Z</time>
      </trkpt>
      <trkpt lat="46.18012" lon="6.31099">
        <ele>573.98</ele>
        <time>2019-03-23T16:03:29.000Z</time>
      </trkpt>
      <trkpt lat="46.18027" lon="6.31097">
        <ele>574</ele>
        <time>2019-03-23T16:03:34.000Z</time>
      </trkpt>
      <trkpt lat="46.18042" lon="6.3109">
        <ele>574.94</ele>
        <time>2019-03-23T16:03:39.000Z</time>
      </trkpt>
      <trkpt lat="46.18045" lon="6.31056">
        <ele>573.27</ele>
        <time>2019-03-23T16:03:44.000Z</time>
      </trkpt>
      <trkpt lat="46.18033" lon="6.31002">
        <ele>571.03</ele>
        <time>2019-03-23T16:03:49.000Z</time>
      </trkpt>
      <trkpt lat="46.18038" lon="6.30948">
        <ele>570.94</ele>
        <time>2019-03-23T16:03:54.000Z</time>
      </trkpt>
      <trkpt lat="46.18047" lon="6.30895">
        <ele>570.02</ele>
        <time>2019-03-23T16:03:59.000Z</time>
      </trkpt>
      <trkpt lat="46.18065" lon="6.30859">
        <ele>570.75</ele>
        <time>2019-03-23T16:04:04.000Z</time>
      </trkpt>
      <trkpt lat="46.18086" lon="6.3084">
        <ele>571</ele>
        <time>2019-03-23T16:04:09.000Z</time>
      </trkpt>
      <trkpt lat="46.18105" lon="6.30828">
        <ele>572</ele>
        <time>2019-03-23T16:04:14.000Z</time>
      </trkpt>
      <trkpt lat="46.18122" lon="6.30816">
        <ele>572.06</ele>
        <time>2019-03-23T16:04:19.000Z</time>
      </trkpt>
      <trkpt lat="46.18141" lon="6.30804">
        <ele>573</ele>
        <time>2019-03-23T16:04:24.000Z</time>
      </trkpt>
      <trkpt lat="46.18156" lon="6.30794">
        <ele>574</ele>
        <time>2019-03-23T16:04:29.000Z</time>
      </trkpt>
      <trkpt lat="46.18171" lon="6.30785">
        <ele>575.98</ele>
        <time>2019-03-23T16:04:34.000Z</time>
      </trkpt>
      <trkpt lat="46.18185" lon="6.30774">
        <ele>577</ele>
        <time>2019-03-23T16:04:39.000Z</time>
      </trkpt>
      <trkpt lat="46.18201" lon="6.30764">
        <ele>578</ele>
        <time>2019-03-23T16:04:44.000Z</time>
      </trkpt>
      <trkpt lat="46.18216" lon="6.30753">
        <ele>578.98</ele>
        <time>2019-03-23T16:04:49.000Z</time>
      </trkpt>
      <trkpt lat="46.18232" lon="6.30743">
        <ele>579.94</ele>
        <time>2019-03-23T16:04:54.000Z</time>
      </trkpt>
      <trkpt lat="46.18248" lon="6.30732">
        <ele>580</ele>
        <time>2019-03-23T16:04:59.000Z</time>
      </trkpt>
      <trkpt lat="46.18263" lon="6.30721">
        <ele>580.94</ele>
        <time>2019-03-23T16:05:04.000Z</time>
      </trkpt>
      <trkpt lat="46.18277" lon="6.30709">
        <ele>582</ele>
        <time>2019-03-23T16:05:09.000Z</time>
      </trkpt>
      <trkpt lat="46.18278" lon="6.3069">
        <ele>582.25</ele>
        <time>2019-03-23T16:05:14.000Z</time>
      </trkpt>
      <trkpt lat="46.18261" lon="6.30666">
        <ele>581.25</ele>
        <time>2019-03-23T16:05:19.000Z</time>
      </trkpt>
      <trkpt lat="46.18241" lon="6.30633">
        <ele>579.25</ele>
        <time>2019-03-23T16:05:24.000Z</time>
      </trkpt>
      <trkpt lat="46.1823" lon="6.30585">
        <ele>577.02</ele>
        <time>2019-03-23T16:05:29.000Z</time>
      </trkpt>
      <trkpt lat="46.18254" lon="6.30543">
        <ele>576</ele>
        <time>2019-03-23T16:05:34.000Z</time>
      </trkpt>
      <trkpt lat="46.18283" lon="6.30509">
        <ele>575.02</ele>
        <time>2019-03-23T16:05:39.000Z</time>
      </trkpt>
      <trkpt lat="46.18314" lon="6.30491">
        <ele>575</ele>
        <time>2019-03-23T16:05:44.000Z</time>
      </trkpt>
      <trkpt lat="46.18341" lon="6.30488">
        <ele>576.75</ele>
        <time>2019-03-23T16:05:49.000Z</time>
      </trkpt>
      <trkpt lat="46.18362" lon="6.30487">
        <ele>577.98</ele>
        <time>2019-03-23T16:05:54.000Z</time>
      </trkpt>
      <trkpt lat="46.1838" lon="6.30486">
        <ele>579.75</ele>
        <time>2019-03-23T16:05:59.000Z</time>
      </trkpt>
      <trkpt lat="46.18397" lon="6.30483">
        <ele>580</ele>
        <time>2019-03-23T16:06:04.000Z</time>
      </trkpt>
      <trkpt lat="46.18413" lon="6.30477">
        <ele>580.8</ele>
        <time>2019-03-23T16:06:09.000Z</time>
      </trkpt>
      <trkpt lat="46.18429" lon="6.30465">
        <ele>581</ele>
        <time>2019-03-23T16:06:14.000Z</time>
      </trkpt>
      <trkpt lat="46.18443" lon="6.30453">
        <ele>582</ele>
        <time>2019-03-23T16:06:19.000Z</time>
      </trkpt>
      <trkpt lat="46.18456" lon="6.30439">
        <ele>582.98</ele>
        <time>2019-03-23T16:06:24.000Z</time>
      </trkpt>
      <trkpt lat="46.18469" lon="6.30424">
        <ele>584</ele>
        <time>2019-03-23T16:06:29.000Z</time>
      </trkpt>
      <trkpt lat="46.18483" lon="6.30412">
        <ele>585</ele>
        <time>2019-03-23T16:06:34.000Z</time>
      </trkpt>
      <trkpt lat="46.18498" lon="6.304">
        <ele>585</ele>
        <time>2019-03-23T16:06:39.000Z</time>
      </trkpt>
      <trkpt lat="46.18513" lon="6.30388">
        <ele>586</ele>
        <time>2019-03-23T16:06:44.000Z</time>
      </trkpt>
      <trkpt lat="46.18528" lon="6.30376">
        <ele>586.94</ele>
        <time>2019-03-23T16:06:49.000Z</time>
      </trkpt>
      <trkpt lat="46.18543" lon="6.30365">
        <ele>587.98</ele>
        <time>2019-03-23T16:06:54.000Z</time>
      </trkpt>
      <trkpt lat="46.18557" lon="6.30354">
        <ele>589.93</ele>
        <time>2019-03-23T16:06:59.000Z</time>
      </trkpt>
      <trkpt lat="46.18573" lon="6.30342">
        <ele>590.94</ele>
        <time>2019-03-23T16:07:04.000Z</time>
      </trkpt>
      <trkpt lat="46.18587" lon="6.30332">
        <ele>591.95</ele>
        <time>2019-03-23T16:07:09.000Z</time>
      </trkpt>
      <trkpt lat="46.18602" lon="6.30323">
        <ele>592.75</ele>
        <time>2019-03-23T16:07:14.000Z</time>
      </trkpt>
      <trkpt lat="46.18617" lon="6.30315">
        <ele>593</ele>
        <time>2019-03-23T16:07:19.000Z</time>
      </trkpt>
      <trkpt lat="46.18633" lon="6.3031">
        <ele>593</ele>
        <time>2019-03-23T16:07:24.000Z</time>
      </trkpt>
      <trkpt lat="46.18648" lon="6.30305">
        <ele>594</ele>
        <time>2019-03-23T16:07:29.000Z</time>
      </trkpt>
      <trkpt lat="46.18663" lon="6.30299">
        <ele>593.94</ele>
        <time>2019-03-23T16:07:34.000Z</time>
      </trkpt>
      <trkpt lat="46.18679" lon="6.30293">
        <ele>594.75</ele>
        <time>2019-03-23T16:07:39.000Z</time>
      </trkpt>
      <trkpt lat="46.18694" lon="6.30288">
        <ele>595.94</ele>
        <time>2019-03-23T16:07:44.000Z</time>
      </trkpt>
      <trkpt lat="46.1871" lon="6.3028">
        <ele>594.97</ele>
        <time>2019-03-23T16:07:49.000Z</time>
      </trkpt>
      <trkpt lat="46.18724" lon="6.30271">
        <ele>595.94</ele>
        <time>2019-03-23T16:07:54.000Z</time>
      </trkpt>
      <trkpt lat="46.18738" lon="6.3026">
        <ele>596.98</ele>
        <time>2019-03-23T16:07:59.000Z</time>
      </trkpt>
      <trkpt lat="46.18752" lon="6.30251">
        <ele>598.94</ele>
        <time>2019-03-23T16:08:04.000Z</time>
      </trkpt>
      <trkpt lat="46.18765" lon="6.30242">
        <ele>599.75</ele>
        <time>2019-03-23T16:08:09.000Z</time>
      </trkpt>
      <trkpt lat="46.18778" lon="6.30231">
        <ele>603.91</ele>
        <time>2019-03-23T16:08:14.000Z</time>
      </trkpt>
      <trkpt lat="46.18792" lon="6.30219">
        <ele>604.75</ele>
        <time>2019-03-23T16:08:19.000Z</time>
      </trkpt>
      <trkpt lat="46.18806" lon="6.30208">
        <ele>605</ele>
        <time>2019-03-23T16:08:24.000Z</time>
      </trkpt>
      <trkpt lat="46.18818" lon="6.30196">
        <ele>605.98</ele>
        <time>2019-03-23T16:08:29.000Z</time>
      </trkpt>
      <trkpt lat="46.18832" lon="6.30184">
        <ele>606.98</ele>
        <time>2019-03-23T16:08:34.000Z</time>
      </trkpt>
      <trkpt lat="46.18844" lon="6.30171">
        <ele>608</ele>
        <time>2019-03-23T16:08:39.000Z</time>
      </trkpt>
      <trkpt lat="46.18857" lon="6.30157">
        <ele>608</ele>
        <time>2019-03-23T16:08:44.000Z</time>
      </trkpt>
      <trkpt lat="46.18869" lon="6.30143">
        <ele>609</ele>
        <time>2019-03-23T16:08:49.000Z</time>
      </trkpt>
      <trkpt lat="46.1888" lon="6.30128">
        <ele>610</ele>
        <time>2019-03-23T16:08:54.000Z</time>
      </trkpt>
      <trkpt lat="46.18891" lon="6.30112">
        <ele>610</ele>
        <time>2019-03-23T16:08:59.000Z</time>
      </trkpt>
      <trkpt lat="46.18903" lon="6.30098">
        <ele>611.94</ele>
        <time>2019-03-23T16:09:04.000Z</time>
      </trkpt>
      <trkpt lat="46.18916" lon="6.30086">
        <ele>612.94</ele>
        <time>2019-03-23T16:09:09.000Z</time>
      </trkpt>
      <trkpt lat="46.1893" lon="6.30075">
        <ele>613.98</ele>
        <time>2019-03-23T16:09:14.000Z</time>
      </trkpt>
      <trkpt lat="46.18945" lon="6.30067">
        <ele>614.98</ele>
        <time>2019-03-23T16:09:19.000Z</time>
      </trkpt>
      <trkpt lat="46.1896" lon="6.3006">
        <ele>615.75</ele>
        <time>2019-03-23T16:09:24.000Z</time>
      </trkpt>
      <trkpt lat="46.18975" lon="6.30053">
        <ele>615.99</ele>
        <time>2019-03-23T16:09:29.000Z</time>
      </trkpt>
      <trkpt lat="46.1899" lon="6.30046">
        <ele>616.94</ele>
        <time>2019-03-23T16:09:34.000Z</time>
      </trkpt>
      <trkpt lat="46.19005" lon="6.3004">
        <ele>617.74</ele>
        <time>2019-03-23T16:09:39.000Z</time>
      </trkpt>
      <trkpt lat="46.1902" lon="6.30034">
        <ele>617.75</ele>
        <time>2019-03-23T16:09:44.000Z</time>
      </trkpt>
      <trkpt lat="46.19035" lon="6.30026">
        <ele>618</ele>
        <time>2019-03-23T16:09:49.000Z</time>
      </trkpt>
      <trkpt lat="46.19049" lon="6.3002">
        <ele>618</ele>
        <time>2019-03-23T16:09:54.000Z</time>
      </trkpt>
      <trkpt lat="46.19064" lon="6.30012">
        <ele>618.98</ele>
        <time>2019-03-23T16:09:59.000Z</time>
      </trkpt>
      <trkpt lat="46.19078" lon="6.30006">
        <ele>619.98</ele>
        <time>2019-03-23T16:10:04.000Z</time>
      </trkpt>
      <trkpt lat="46.19093" lon="6.30002">
        <ele>621.94</ele>
        <time>2019-03-23T16:10:09.000Z</time>
      </trkpt>
      <trkpt lat="46.1911" lon="6.30007">
        <ele>621.02</ele>
        <time>2019-03-23T16:10:14.000Z</time>
      </trkpt>
      <trkpt lat="46.19126" lon="6.30016">
        <ele>618.83</ele>
        <time>2019-03-23T16:10:19.000Z</time>
      </trkpt>
      <trkpt lat="46.1914" lon="6.30029">
        <ele>621.69</ele>
        <time>2019-03-23T16:10:24.000Z</time>
      </trkpt>
      <trkpt lat="46.19161" lon="6.30038">
        <ele>620.09</ele>
        <time>2019-03-23T16:10:29.000Z</time>
      </trkpt>
      <trkpt lat="46.19182" lon="6.30031">
        <ele>620.98</ele>
        <time>2019-03-23T16:10:34.000Z</time>
      </trkpt>
      <trkpt lat="46.19197" lon="6.3002">
        <ele>621.99</ele>
        <time>2019-03-23T16:10:39.000Z</time>
      </trkpt>
      <trkpt lat="46.19214" lon="6.30008">
        <ele>623.73</ele>
        <time>2019-03-23T16:10:44.000Z</time>
      </trkpt>
      <trkpt lat="46.19232" lon="6.3">
        <ele>625</ele>
        <time>2019-03-23T16:10:49.000Z</time>
      </trkpt>
      <trkpt lat="46.19251" lon="6.29998">
        <ele>626</ele>
        <time>2019-03-23T16:10:54.000Z</time>
      </trkpt>
      <trkpt lat="46.19267" lon="6.29995">
        <ele>626.75</ele>
        <time>2019-03-23T16:10:59.000Z</time>
      </trkpt>
      <trkpt lat="46.19284" lon="6.29995">
        <ele>627</ele>
        <time>2019-03-23T16:11:04.000Z</time>
      </trkpt>
      <trkpt lat="46.19302" lon="6.29993">
        <ele>627.94</ele>
        <time>2019-03-23T16:11:09.000Z</time>
      </trkpt>
      <trkpt lat="46.19319" lon="6.29992">
        <ele>628</ele>
        <time>2019-03-23T16:11:14.000Z</time>
      </trkpt>
      <trkpt lat="46.19336" lon="6.29988">
        <ele>628.98</ele>
        <time>2019-03-23T16:11:19.000Z</time>
      </trkpt>
      <trkpt lat="46.19354" lon="6.2998">
        <ele>629</ele>
        <time>2019-03-23T16:11:24.000Z</time>
      </trkpt>
      <trkpt lat="46.19372" lon="6.2997">
        <ele>629</ele>
        <time>2019-03-23T16:11:29.000Z</time>
      </trkpt>
      <trkpt lat="46.19391" lon="6.29961">
        <ele>629</ele>
        <time>2019-03-23T16:11:34.000Z</time>
      </trkpt>
      <trkpt lat="46.1941" lon="6.29949">
        <ele>629</ele>
        <time>2019-03-23T16:11:39.000Z</time>
      </trkpt>
      <trkpt lat="46.19428" lon="6.29936">
        <ele>630.75</ele>
        <time>2019-03-23T16:11:44.000Z</time>
      </trkpt>
      <trkpt lat="46.19445" lon="6.29924">
        <ele>631.75</ele>
        <time>2019-03-23T16:11:49.000Z</time>
      </trkpt>
      <trkpt lat="46.19463" lon="6.29912">
        <ele>632.94</ele>
        <time>2019-03-23T16:11:54.000Z</time>
      </trkpt>
      <trkpt lat="46.19481" lon="6.299">
        <ele>633.94</ele>
        <time>2019-03-23T16:11:59.000Z</time>
      </trkpt>
      <trkpt lat="46.19499" lon="6.29889">
        <ele>635</ele>
        <time>2019-03-23T16:12:04.000Z</time>
      </trkpt>
      <trkpt lat="46.19518" lon="6.29878">
        <ele>635.98</ele>
        <time>2019-03-23T16:12:09.000Z</time>
      </trkpt>
      <trkpt lat="46.19538" lon="6.29873">
        <ele>636</ele>
        <time>2019-03-23T16:12:14.000Z</time>
      </trkpt>
      <trkpt lat="46.19557" lon="6.2987">
        <ele>636</ele>
        <time>2019-03-23T16:12:19.000Z</time>
      </trkpt>
      <trkpt lat="46.19577" lon="6.29867">
        <ele>636.75</ele>
        <time>2019-03-23T16:12:24.000Z</time>
      </trkpt>
      <trkpt lat="46.19595" lon="6.29864">
        <ele>637</ele>
        <time>2019-03-23T16:12:29.000Z</time>
      </trkpt>
      <trkpt lat="46.19613" lon="6.29857">
        <ele>638.73</ele>
        <time>2019-03-23T16:12:34.000Z</time>
      </trkpt>
      <trkpt lat="46.19631" lon="6.29845">
        <ele>639</ele>
        <time>2019-03-23T16:12:39.000Z</time>
      </trkpt>
      <trkpt lat="46.19645" lon="6.2983">
        <ele>641.73</ele>
        <time>2019-03-23T16:12:44.000Z</time>
      </trkpt>
      <trkpt lat="46.19661" lon="6.29816">
        <ele>642</ele>
        <time>2019-03-23T16:12:49.000Z</time>
      </trkpt>
      <trkpt lat="46.19674" lon="6.298">
        <ele>642.01</ele>
        <time>2019-03-23T16:12:54.000Z</time>
      </trkpt>
      <trkpt lat="46.19684" lon="6.29779">
        <ele>643.04</ele>
        <time>2019-03-23T16:12:59.000Z</time>
      </trkpt>
      <trkpt lat="46.19687" lon="6.29744">
        <ele>642.02</ele>
        <time>2019-03-23T16:13:04.000Z</time>
      </trkpt>
      <trkpt lat="46.19678" lon="6.29706">
        <ele>639.27</ele>
        <time>2019-03-23T16:13:09.000Z</time>
      </trkpt>
      <trkpt lat="46.1965" lon="6.29669">
        <ele>635.33</ele>
        <time>2019-03-23T16:13:14.000Z</time>
      </trkpt>
      <trkpt lat="46.19609" lon="6.29639">
        <ele>630.58</ele>
        <time>2019-03-23T16:13:19.000Z</time>
      </trkpt>
      <trkpt lat="46.19562" lon="6.29645">
        <ele>627.02</ele>
        <time>2019-03-23T16:13:24.000Z</time>
      </trkpt>
      <trkpt lat="46.19522" lon="6.29653">
        <ele>624.31</ele>
        <time>2019-03-23T16:13:29.000Z</time>
      </trkpt>
      <trkpt lat="46.19483" lon="6.29614">
        <ele>620.32</ele>
        <time>2019-03-23T16:13:34.000Z</time>
      </trkpt>
      <trkpt lat="46.19444" lon="6.29568">
        <ele>614.09</ele>
        <time>2019-03-23T16:13:39.000Z</time>
      </trkpt>
      <trkpt lat="46.1939" lon="6.29554">
        <ele>609.52</ele>
        <time>2019-03-23T16:13:44.000Z</time>
      </trkpt>
      <trkpt lat="46.19334" lon="6.29531">
        <ele>602.6</ele>
        <time>2019-03-23T16:13:49.000Z</time>
      </trkpt>
      <trkpt lat="46.19276" lon="6.29502">
        <ele>595.54</ele>
        <time>2019-03-23T16:13:54.000Z</time>
      </trkpt>
      <trkpt lat="46.1921" lon="6.29491">
        <ele>585.62</ele>
        <time>2019-03-23T16:13:59.000Z</time>
      </trkpt>
      <trkpt lat="46.19149" lon="6.29482">
        <ele>575.67</ele>
        <time>2019-03-23T16:14:04.000Z</time>
      </trkpt>
      <trkpt lat="46.19104" lon="6.29521">
        <ele>568.35</ele>
        <time>2019-03-23T16:14:09.000Z</time>
      </trkpt>
      <trkpt lat="46.1907" lon="6.29505">
        <ele>565.32</ele>
        <time>2019-03-23T16:14:14.000Z</time>
      </trkpt>
      <trkpt lat="46.19039" lon="6.29479">
        <ele>562.27</ele>
        <time>2019-03-23T16:14:19.000Z</time>
      </trkpt>
      <trkpt lat="46.19037" lon="6.29428">
        <ele>559.08</ele>
        <time>2019-03-23T16:14:24.000Z</time>
      </trkpt>
      <trkpt lat="46.19045" lon="6.29376">
        <ele>558</ele>
        <time>2019-03-23T16:14:29.000Z</time>
      </trkpt>
      <trkpt lat="46.19048" lon="6.29341">
        <ele>560.98</ele>
        <time>2019-03-23T16:14:34.000Z</time>
      </trkpt>
      <trkpt lat="46.19044" lon="6.29314">
        <ele>562</ele>
        <time>2019-03-23T16:14:39.000Z</time>
      </trkpt>
      <trkpt lat="46.19023" lon="6.293">
        <ele>562.75</ele>
        <time>2019-03-23T16:14:44.000Z</time>
      </trkpt>
      <trkpt lat="46.19003" lon="6.29301">
        <ele>564.73</ele>
        <time>2019-03-23T16:14:49.000Z</time>
      </trkpt>
      <trkpt lat="46.18985" lon="6.29302">
        <ele>565.25</ele>
        <time>2019-03-23T16:14:54.000Z</time>
      </trkpt>
      <trkpt lat="46.18969" lon="6.29303">
        <ele>566</ele>
        <time>2019-03-23T16:14:59.000Z</time>
      </trkpt>
      <trkpt lat="46.18953" lon="6.29299">
        <ele>566.25</ele>
        <time>2019-03-23T16:15:04.000Z</time>
      </trkpt>
      <trkpt lat="46.18937" lon="6.293">
        <ele>566.94</ele>
        <time>2019-03-23T16:15:09.000Z</time>
      </trkpt>
      <trkpt lat="46.18923" lon="6.293">
        <ele>567.94</ele>
        <time>2019-03-23T16:15:14.000Z</time>
      </trkpt>
      <trkpt lat="46.1891" lon="6.29299">
        <ele>568</ele>
        <time>2019-03-23T16:15:19.000Z</time>
      </trkpt>
      <trkpt lat="46.18896" lon="6.29299">
        <ele>568.94</ele>
        <time>2019-03-23T16:15:24.000Z</time>
      </trkpt>
      <trkpt lat="46.18882" lon="6.29299">
        <ele>570.75</ele>
        <time>2019-03-23T16:15:29.000Z</time>
      </trkpt>
      <trkpt lat="46.18869" lon="6.29298">
        <ele>571.98</ele>
        <time>2019-03-23T16:15:34.000Z</time>
      </trkpt>
      <trkpt lat="46.18855" lon="6.29294">
        <ele>574.75</ele>
        <time>2019-03-23T16:15:39.000Z</time>
      </trkpt>
      <trkpt lat="46.18842" lon="6.29288">
        <ele>575</ele>
        <time>2019-03-23T16:15:44.000Z</time>
      </trkpt>
      <trkpt lat="46.18829" lon="6.29281">
        <ele>575.94</ele>
        <time>2019-03-23T16:15:49.000Z</time>
      </trkpt>
      <trkpt lat="46.18815" lon="6.29274">
        <ele>576.94</ele>
        <time>2019-03-23T16:15:54.000Z</time>
      </trkpt>
      <trkpt lat="46.18802" lon="6.29266">
        <ele>578</ele>
        <time>2019-03-23T16:15:59.000Z</time>
      </trkpt>
      <trkpt lat="46.18792" lon="6.29253">
        <ele>579.93</ele>
        <time>2019-03-23T16:16:04.000Z</time>
      </trkpt>
      <trkpt lat="46.18786" lon="6.29236">
        <ele>582.87</ele>
        <time>2019-03-23T16:16:09.000Z</time>
      </trkpt>
      <trkpt lat="46.18784" lon="6.29223">
        <ele>585.73</ele>
        <time>2019-03-23T16:16:14.000Z</time>
      </trkpt>
      <trkpt lat="46.18785" lon="6.29206">
        <ele>588.73</ele>
        <time>2019-03-23T16:16:19.000Z</time>
      </trkpt>
      <trkpt lat="46.188" lon="6.29195">
        <ele>588.94</ele>
        <time>2019-03-23T16:16:24.000Z</time>
      </trkpt>
      <trkpt lat="46.18815" lon="6.29179">
        <ele>588</ele>
        <time>2019-03-23T16:16:29.000Z</time>
      </trkpt>
      <trkpt lat="46.18831" lon="6.29162">
        <ele>588</ele>
        <time>2019-03-23T16:16:34.000Z</time>
      </trkpt>
      <trkpt lat="46.1885" lon="6.29149">
        <ele>588.25</ele>
        <time>2019-03-23T16:16:39.000Z</time>
      </trkpt>
      <trkpt lat="46.18874" lon="6.29134">
        <ele>587</ele>
        <time>2019-03-23T16:16:44.000Z</time>
      </trkpt>
      <trkpt lat="46.189" lon="6.29119">
        <ele>586.05</ele>
        <time>2019-03-23T16:16:49.000Z</time>
      </trkpt>
      <trkpt lat="46.18926" lon="6.29103">
        <ele>584.96</ele>
        <time>2019-03-23T16:16:54.000Z</time>
      </trkpt>
      <trkpt lat="46.18951" lon="6.29087">
        <ele>585</ele>
        <time>2019-03-23T16:16:59.000Z</time>
      </trkpt>
      <trkpt lat="46.18977" lon="6.29072">
        <ele>585</ele>
        <time>2019-03-23T16:17:04.000Z</time>
      </trkpt>
      <trkpt lat="46.19004" lon="6.2906">
        <ele>583.19</ele>
        <time>2019-03-23T16:17:09.000Z</time>
      </trkpt>
      <trkpt lat="46.19035" lon="6.29051">
        <ele>583.06</ele>
        <time>2019-03-23T16:17:14.000Z</time>
      </trkpt>
      <trkpt lat="46.19065" lon="6.29043">
        <ele>581.82</ele>
        <time>2019-03-23T16:17:19.000Z</time>
      </trkpt>
      <trkpt lat="46.19088" lon="6.29036">
        <ele>580.31</ele>
        <time>2019-03-23T16:17:24.000Z</time>
      </trkpt>
      <trkpt lat="46.19115" lon="6.29034">
        <ele>579.07</ele>
        <time>2019-03-23T16:17:29.000Z</time>
      </trkpt>
      <trkpt lat="46.19142" lon="6.2903">
        <ele>579</ele>
        <time>2019-03-23T16:17:34.000Z</time>
      </trkpt>
      <trkpt lat="46.19171" lon="6.29028">
        <ele>578.25</ele>
        <time>2019-03-23T16:17:39.000Z</time>
      </trkpt>
      <trkpt lat="46.192" lon="6.29033">
        <ele>578</ele>
        <time>2019-03-23T16:17:44.000Z</time>
      </trkpt>
      <trkpt lat="46.19228" lon="6.29033">
        <ele>578</ele>
        <time>2019-03-23T16:17:49.000Z</time>
      </trkpt>
      <trkpt lat="46.19254" lon="6.29036">
        <ele>578</ele>
        <time>2019-03-23T16:17:54.000Z</time>
      </trkpt>
      <trkpt lat="46.19281" lon="6.29038">
        <ele>577.8</ele>
        <time>2019-03-23T16:17:59.000Z</time>
      </trkpt>
      <trkpt lat="46.19307" lon="6.29038">
        <ele>578</ele>
        <time>2019-03-23T16:18:04.000Z</time>
      </trkpt>
      <trkpt lat="46.1933" lon="6.2903">
        <ele>577.95</ele>
        <time>2019-03-23T16:18:09.000Z</time>
      </trkpt>
      <trkpt lat="46.1935" lon="6.29011">
        <ele>578</ele>
        <time>2019-03-23T16:18:14.000Z</time>
      </trkpt>
      <trkpt lat="46.19365" lon="6.28987">
        <ele>578</ele>
        <time>2019-03-23T16:18:19.000Z</time>
      </trkpt>
      <trkpt lat="46.19378" lon="6.28961">
        <ele>578.94</ele>
        <time>2019-03-23T16:18:24.000Z</time>
      </trkpt>
      <trkpt lat="46.19396" lon="6.28938">
        <ele>579</ele>
        <time>2019-03-23T16:18:29.000Z</time>
      </trkpt>
      <trkpt lat="46.1942" lon="6.28924">
        <ele>579</ele>
        <time>2019-03-23T16:18:34.000Z</time>
      </trkpt>
      <trkpt lat="46.19443" lon="6.28911">
        <ele>579</ele>
        <time>2019-03-23T16:18:39.000Z</time>
      </trkpt>
      <trkpt lat="46.19467" lon="6.28901">
        <ele>579.01</ele>
        <time>2019-03-23T16:18:44.000Z</time>
      </trkpt>
      <trkpt lat="46.19489" lon="6.2889">
        <ele>579.25</ele>
        <time>2019-03-23T16:18:49.000Z</time>
      </trkpt>
      <trkpt lat="46.19513" lon="6.28883">
        <ele>579</ele>
        <time>2019-03-23T16:18:54.000Z</time>
      </trkpt>
      <trkpt lat="46.19538" lon="6.28876">
        <ele>579</ele>
        <time>2019-03-23T16:18:59.000Z</time>
      </trkpt>
      <trkpt lat="46.19561" lon="6.28869">
        <ele>578</ele>
        <time>2019-03-23T16:19:04.000Z</time>
      </trkpt>
      <trkpt lat="46.19581" lon="6.28863">
        <ele>578</ele>
        <time>2019-03-23T16:19:09.000Z</time>
      </trkpt>
      <trkpt lat="46.19602" lon="6.28865">
        <ele>576.02</ele>
        <time>2019-03-23T16:19:14.000Z</time>
      </trkpt>
      <trkpt lat="46.19623" lon="6.28866">
        <ele>574.07</ele>
        <time>2019-03-23T16:19:19.000Z</time>
      </trkpt>
      <trkpt lat="46.19646" lon="6.28864">
        <ele>574</ele>
        <time>2019-03-23T16:19:24.000Z</time>
      </trkpt>
      <trkpt lat="46.19668" lon="6.28865">
        <ele>573.06</ele>
        <time>2019-03-23T16:19:29.000Z</time>
      </trkpt>
      <trkpt lat="46.19687" lon="6.28867">
        <ele>574.74</ele>
        <time>2019-03-23T16:19:34.000Z</time>
      </trkpt>
      <trkpt lat="46.19704" lon="6.2887">
        <ele>574.94</ele>
        <time>2019-03-23T16:19:39.000Z</time>
      </trkpt>
      <trkpt lat="46.19723" lon="6.28872">
        <ele>576</ele>
        <time>2019-03-23T16:19:44.000Z</time>
      </trkpt>
      <trkpt lat="46.19739" lon="6.28874">
        <ele>577</ele>
        <time>2019-03-23T16:19:49.000Z</time>
      </trkpt>
      <trkpt lat="46.19756" lon="6.28873">
        <ele>577</ele>
        <time>2019-03-23T16:19:54.000Z</time>
      </trkpt>
      <trkpt lat="46.19772" lon="6.28868">
        <ele>577.98</ele>
        <time>2019-03-23T16:19:59.000Z</time>
      </trkpt>
      <trkpt lat="46.1979" lon="6.28859">
        <ele>577.01</ele>
        <time>2019-03-23T16:20:04.000Z</time>
      </trkpt>
      <trkpt lat="46.19809" lon="6.28851">
        <ele>577</ele>
        <time>2019-03-23T16:20:09.000Z</time>
      </trkpt>
      <trkpt lat="46.19828" lon="6.28848">
        <ele>577.81</ele>
        <time>2019-03-23T16:20:14.000Z</time>
      </trkpt>
      <trkpt lat="46.19846" lon="6.28847">
        <ele>577</ele>
        <time>2019-03-23T16:20:19.000Z</time>
      </trkpt>
      <trkpt lat="46.19865" lon="6.28845">
        <ele>577.98</ele>
        <time>2019-03-23T16:20:24.000Z</time>
      </trkpt>
      <trkpt lat="46.19885" lon="6.28843">
        <ele>578</ele>
        <time>2019-03-23T16:20:29.000Z</time>
      </trkpt>
      <trkpt lat="46.19904" lon="6.28843">
        <ele>577.06</ele>
        <time>2019-03-23T16:20:34.000Z</time>
      </trkpt>
      <trkpt lat="46.19926" lon="6.2884">
        <ele>578.8</ele>
        <time>2019-03-23T16:20:39.000Z</time>
      </trkpt>
      <trkpt lat="46.19952" lon="6.28836">
        <ele>579</ele>
        <time>2019-03-23T16:20:44.000Z</time>
      </trkpt>
      <trkpt lat="46.19977" lon="6.28832">
        <ele>578.25</ele>
        <time>2019-03-23T16:20:49.000Z</time>
      </trkpt>
      <trkpt lat="46.19999" lon="6.28828">
        <ele>578.98</ele>
        <time>2019-03-23T16:20:54.000Z</time>
      </trkpt>
      <trkpt lat="46.20022" lon="6.28825">
        <ele>579.06</ele>
        <time>2019-03-23T16:20:59.000Z</time>
      </trkpt>
      <trkpt lat="46.20046" lon="6.28823">
        <ele>578.26</ele>
        <time>2019-03-23T16:21:04.000Z</time>
      </trkpt>
      <trkpt lat="46.20063" lon="6.28803">
        <ele>577.25</ele>
        <time>2019-03-23T16:21:09.000Z</time>
      </trkpt>
      <trkpt lat="46.20081" lon="6.28772">
        <ele>576.25</ele>
        <time>2019-03-23T16:21:14.000Z</time>
      </trkpt>
      <trkpt lat="46.20103" lon="6.28739">
        <ele>575.08</ele>
        <time>2019-03-23T16:21:19.000Z</time>
      </trkpt>
      <trkpt lat="46.20126" lon="6.28704">
        <ele>574.25</ele>
        <time>2019-03-23T16:21:24.000Z</time>
      </trkpt>
      <trkpt lat="46.20149" lon="6.28666">
        <ele>573.06</ele>
        <time>2019-03-23T16:21:29.000Z</time>
      </trkpt>
      <trkpt lat="46.20166" lon="6.28619">
        <ele>572</ele>
        <time>2019-03-23T16:21:34.000Z</time>
      </trkpt>
      <trkpt lat="46.20185" lon="6.28571">
        <ele>571</ele>
        <time>2019-03-23T16:21:39.000Z</time>
      </trkpt>
      <trkpt lat="46.20201" lon="6.28526">
        <ele>570</ele>
        <time>2019-03-23T16:21:44.000Z</time>
      </trkpt>
      <trkpt lat="46.20221" lon="6.28486">
        <ele>569</ele>
        <time>2019-03-23T16:21:49.000Z</time>
      </trkpt>
      <trkpt lat="46.20243" lon="6.28449">
        <ele>568.06</ele>
        <time>2019-03-23T16:21:54.000Z</time>
      </trkpt>
      <trkpt lat="46.20259" lon="6.28414">
        <ele>569</ele>
        <time>2019-03-23T16:21:59.000Z</time>
      </trkpt>
      <trkpt lat="46.20273" lon="6.28393">
        <ele>570</ele>
        <time>2019-03-23T16:22:04.000Z</time>
      </trkpt>
      <trkpt lat="46.2029" lon="6.28366">
        <ele>567.27</ele>
        <time>2019-03-23T16:22:09.000Z</time>
      </trkpt>
      <trkpt lat="46.20305" lon="6.28327">
        <ele>566.99</ele>
        <time>2019-03-23T16:22:14.000Z</time>
      </trkpt>
      <trkpt lat="46.20312" lon="6.2829">
        <ele>565.25</ele>
        <time>2019-03-23T16:22:19.000Z</time>
      </trkpt>
      <trkpt lat="46.20318" lon="6.28278">
        <ele>564</ele>
        <time>2019-03-23T16:22:24.000Z</time>
      </trkpt>
      <trkpt lat="46.2034" lon="6.28246">
        <ele>567.2</ele>
        <time>2019-03-23T16:22:29.000Z</time>
      </trkpt>
      <trkpt lat="46.20359" lon="6.28226">
        <ele>567</ele>
        <time>2019-03-23T16:22:34.000Z</time>
      </trkpt>
      <trkpt lat="46.20372" lon="6.28205">
        <ele>569.73</ele>
        <time>2019-03-23T16:22:39.000Z</time>
      </trkpt>
      <trkpt lat="46.2039" lon="6.28189">
        <ele>569</ele>
        <time>2019-03-23T16:22:44.000Z</time>
      </trkpt>
      <trkpt lat="46.20415" lon="6.2817">
        <ele>568.02</ele>
        <time>2019-03-23T16:22:49.000Z</time>
      </trkpt>
      <trkpt lat="46.20443" lon="6.28147">
        <ele>567.02</ele>
        <time>2019-03-23T16:22:54.000Z</time>
      </trkpt>
      <trkpt lat="46.20469" lon="6.28129">
        <ele>565.75</ele>
        <time>2019-03-23T16:22:59.000Z</time>
      </trkpt>
      <trkpt lat="46.20492" lon="6.28121">
        <ele>565.25</ele>
        <time>2019-03-23T16:23:04.000Z</time>
      </trkpt>
      <trkpt lat="46.20486" lon="6.28086">
        <ele>564.06</ele>
        <time>2019-03-23T16:23:09.000Z</time>
      </trkpt>
      <trkpt lat="46.20467" lon="6.28042">
        <ele>564.25</ele>
        <time>2019-03-23T16:23:14.000Z</time>
      </trkpt>
      <trkpt lat="46.20449" lon="6.2799">
        <ele>564.01</ele>
        <time>2019-03-23T16:23:19.000Z</time>
      </trkpt>
      <trkpt lat="46.20429" lon="6.27934">
        <ele>563.06</ele>
        <time>2019-03-23T16:23:24.000Z</time>
      </trkpt>
      <trkpt lat="46.20406" lon="6.27875">
        <ele>563</ele>
        <time>2019-03-23T16:23:29.000Z</time>
      </trkpt>
      <trkpt lat="46.20384" lon="6.27815">
        <ele>562</ele>
        <time>2019-03-23T16:23:34.000Z</time>
      </trkpt>
      <trkpt lat="46.20362" lon="6.27754">
        <ele>562</ele>
        <time>2019-03-23T16:23:39.000Z</time>
      </trkpt>
      <trkpt lat="46.2034" lon="6.27693">
        <ele>561.81</ele>
        <time>2019-03-23T16:23:44.000Z</time>
      </trkpt>
      <trkpt lat="46.20319" lon="6.27633">
        <ele>560.25</ele>
        <time>2019-03-23T16:23:49.000Z</time>
      </trkpt>
      <trkpt lat="46.20299" lon="6.27575">
        <ele>559.25</ele>
        <time>2019-03-23T16:23:54.000Z</time>
      </trkpt>
      <trkpt lat="46.20278" lon="6.27515">
        <ele>558.25</ele>
        <time>2019-03-23T16:23:59.000Z</time>
      </trkpt>
      <trkpt lat="46.20257" lon="6.27457">
        <ele>557.25</ele>
        <time>2019-03-23T16:24:04.000Z</time>
      </trkpt>
      <trkpt lat="46.20236" lon="6.27404">
        <ele>557</ele>
        <time>2019-03-23T16:24:09.000Z</time>
      </trkpt>
      <trkpt lat="46.20219" lon="6.2736">
        <ele>556.75</ele>
        <time>2019-03-23T16:24:14.000Z</time>
      </trkpt>
      <trkpt lat="46.20213" lon="6.27311">
        <ele>555.02</ele>
        <time>2019-03-23T16:24:19.000Z</time>
      </trkpt>
      <trkpt lat="46.20217" lon="6.27255">
        <ele>555</ele>
        <time>2019-03-23T16:24:24.000Z</time>
      </trkpt>
      <trkpt lat="46.2021" lon="6.27195">
        <ele>553.06</ele>
        <time>2019-03-23T16:24:29.000Z</time>
      </trkpt>
      <trkpt lat="46.20202" lon="6.2713">
        <ele>550.27</ele>
        <time>2019-03-23T16:24:34.000Z</time>
      </trkpt>
      <trkpt lat="46.20194" lon="6.27061">
        <ele>549.25</ele>
        <time>2019-03-23T16:24:39.000Z</time>
      </trkpt>
      <trkpt lat="46.20185" lon="6.26992">
        <ele>548</ele>
        <time>2019-03-23T16:24:44.000Z</time>
      </trkpt>
      <trkpt lat="46.20175" lon="6.26925">
        <ele>547</ele>
        <time>2019-03-23T16:24:49.000Z</time>
      </trkpt>
      <trkpt lat="46.20165" lon="6.26856">
        <ele>546</ele>
        <time>2019-03-23T16:24:54.000Z</time>
      </trkpt>
      <trkpt lat="46.20155" lon="6.26786">
        <ele>545.26</ele>
        <time>2019-03-23T16:24:59.000Z</time>
      </trkpt>
      <trkpt lat="46.20146" lon="6.26718">
        <ele>543.25</ele>
        <time>2019-03-23T16:25:04.000Z</time>
      </trkpt>
      <trkpt lat="46.20137" lon="6.26651">
        <ele>543</ele>
        <time>2019-03-23T16:25:09.000Z</time>
      </trkpt>
      <trkpt lat="46.20128" lon="6.26583">
        <ele>541.25</ele>
        <time>2019-03-23T16:25:14.000Z</time>
      </trkpt>
      <trkpt lat="46.20122" lon="6.26517">
        <ele>542</ele>
        <time>2019-03-23T16:25:19.000Z</time>
      </trkpt>
      <trkpt lat="46.20124" lon="6.26454">
        <ele>541.02</ele>
        <time>2019-03-23T16:25:24.000Z</time>
      </trkpt>
      <trkpt lat="46.20125" lon="6.26406">
        <ele>540.02</ele>
        <time>2019-03-23T16:25:29.000Z</time>
      </trkpt>
      <trkpt lat="46.20095" lon="6.26409">
        <ele>540</ele>
        <time>2019-03-23T16:25:34.000Z</time>
      </trkpt>
      <trkpt lat="46.20064" lon="6.26426">
        <ele>539.25</ele>
        <time>2019-03-23T16:25:39.000Z</time>
      </trkpt>
      <trkpt lat="46.20026" lon="6.26423">
        <ele>538.06</ele>
        <time>2019-03-23T16:25:44.000Z</time>
      </trkpt>
      <trkpt lat="46.19988" lon="6.2641">
        <ele>536.25</ele>
        <time>2019-03-23T16:25:49.000Z</time>
      </trkpt>
      <trkpt lat="46.19949" lon="6.264">
        <ele>537.94</ele>
        <time>2019-03-23T16:25:54.000Z</time>
      </trkpt>
      <trkpt lat="46.19909" lon="6.26389">
        <ele>537.25</ele>
        <time>2019-03-23T16:25:59.000Z</time>
      </trkpt>
      <trkpt lat="46.19869" lon="6.26377">
        <ele>536.06</ele>
        <time>2019-03-23T16:26:04.000Z</time>
      </trkpt>
      <trkpt lat="46.19828" lon="6.26366">
        <ele>536</ele>
        <time>2019-03-23T16:26:09.000Z</time>
      </trkpt>
      <trkpt lat="46.19787" lon="6.26354">
        <ele>535.06</ele>
        <time>2019-03-23T16:26:14.000Z</time>
      </trkpt>
      <trkpt lat="46.19745" lon="6.26341">
        <ele>534</ele>
        <time>2019-03-23T16:26:19.000Z</time>
      </trkpt>
      <trkpt lat="46.1971" lon="6.2631">
        <ele>533.06</ele>
        <time>2019-03-23T16:26:24.000Z</time>
      </trkpt>
      <trkpt lat="46.19691" lon="6.26254">
        <ele>531.06</ele>
        <time>2019-03-23T16:26:29.000Z</time>
      </trkpt>
      <trkpt lat="46.19676" lon="6.26195">
        <ele>531</ele>
        <time>2019-03-23T16:26:34.000Z</time>
      </trkpt>
      <trkpt lat="46.19667" lon="6.26133">
        <ele>530</ele>
        <time>2019-03-23T16:26:39.000Z</time>
      </trkpt>
      <trkpt lat="46.19658" lon="6.26069">
        <ele>529</ele>
        <time>2019-03-23T16:26:44.000Z</time>
      </trkpt>
      <trkpt lat="46.19648" lon="6.26005">
        <ele>528</ele>
        <time>2019-03-23T16:26:49.000Z</time>
      </trkpt>
      <trkpt lat="46.19638" lon="6.25942">
        <ele>527</ele>
        <time>2019-03-23T16:26:54.000Z</time>
      </trkpt>
      <trkpt lat="46.19629" lon="6.25879">
        <ele>526.19</ele>
        <time>2019-03-23T16:26:59.000Z</time>
      </trkpt>
      <trkpt lat="46.19619" lon="6.25814">
        <ele>525.02</ele>
        <time>2019-03-23T16:27:04.000Z</time>
      </trkpt>
      <trkpt lat="46.19616" lon="6.25747">
        <ele>523.06</ele>
        <time>2019-03-23T16:27:09.000Z</time>
      </trkpt>
      <trkpt lat="46.19623" lon="6.25689">
        <ele>521.06</ele>
        <time>2019-03-23T16:27:14.000Z</time>
      </trkpt>
      <trkpt lat="46.19635" lon="6.2563">
        <ele>519.06</ele>
        <time>2019-03-23T16:27:19.000Z</time>
      </trkpt>
      <trkpt lat="46.19648" lon="6.25568">
        <ele>517.08</ele>
        <time>2019-03-23T16:27:24.000Z</time>
      </trkpt>
      <trkpt lat="46.1966" lon="6.25513">
        <ele>514.27</ele>
        <time>2019-03-23T16:27:29.000Z</time>
      </trkpt>
      <trkpt lat="46.19668" lon="6.25474">
        <ele>512.07</ele>
        <time>2019-03-23T16:27:34.000Z</time>
      </trkpt>
      <trkpt lat="46.1967" lon="6.25458">
        <ele>513</ele>
        <time>2019-03-23T16:27:40.000Z</time>
      </trkpt>
      <trkpt lat="46.19674" lon="6.25428">
        <ele>511.25</ele>
        <time>2019-03-23T16:27:45.000Z</time>
      </trkpt>
      <trkpt lat="46.19645" lon="6.25426">
        <ele>510.25</ele>
        <time>2019-03-23T16:27:50.000Z</time>
      </trkpt>
      <trkpt lat="46.19617" lon="6.25446">
        <ele>510</ele>
        <time>2019-03-23T16:27:55.000Z</time>
      </trkpt>
      <trkpt lat="46.19596" lon="6.25467">
        <ele>511</ele>
        <time>2019-03-23T16:28:00.000Z</time>
      </trkpt>
      <trkpt lat="46.19582" lon="6.25473">
        <ele>514.37</ele>
        <time>2019-03-23T16:28:05.000Z</time>
      </trkpt>
      <trkpt lat="46.19563" lon="6.2547">
        <ele>518.67</ele>
        <time>2019-03-23T16:28:10.000Z</time>
      </trkpt>
      <trkpt lat="46.19532" lon="6.25462">
        <ele>519</ele>
        <time>2019-03-23T16:28:15.000Z</time>
      </trkpt>
      <trkpt lat="46.19501" lon="6.25455">
        <ele>515.58</ele>
        <time>2019-03-23T16:28:20.000Z</time>
      </trkpt>
      <trkpt lat="46.19469" lon="6.25451">
        <ele>514</ele>
        <time>2019-03-23T16:28:25.000Z</time>
      </trkpt>
      <trkpt lat="46.19443" lon="6.25448">
        <ele>513.3</ele>
        <time>2019-03-23T16:28:30.000Z</time>
      </trkpt>
      <trkpt lat="46.19432" lon="6.25438">
        <ele>512.25</ele>
        <time>2019-03-23T16:28:35.000Z</time>
      </trkpt>
      <trkpt lat="46.19433" lon="6.25402">
        <ele>510.27</ele>
        <time>2019-03-23T16:28:40.000Z</time>
      </trkpt>
      <trkpt lat="46.1943" lon="6.25356">
        <ele>510</ele>
        <time>2019-03-23T16:28:45.000Z</time>
      </trkpt>
      <trkpt lat="46.1943" lon="6.25306">
        <ele>509.19</ele>
        <time>2019-03-23T16:28:50.000Z</time>
      </trkpt>
      <trkpt lat="46.19441" lon="6.25257">
        <ele>507.02</ele>
        <time>2019-03-23T16:28:55.000Z</time>
      </trkpt>
      <trkpt lat="46.19446" lon="6.25211">
        <ele>506</ele>
        <time>2019-03-23T16:29:00.000Z</time>
      </trkpt>
      <trkpt lat="46.19448" lon="6.25169">
        <ele>504.25</ele>
        <time>2019-03-23T16:29:05.000Z</time>
      </trkpt>
      <trkpt lat="46.1945" lon="6.25128">
        <ele>501.07</ele>
        <time>2019-03-23T16:29:10.000Z</time>
      </trkpt>
      <trkpt lat="46.19434" lon="6.25104">
        <ele>501</ele>
        <time>2019-03-23T16:29:15.000Z</time>
      </trkpt>
      <trkpt lat="46.19409" lon="6.25083">
        <ele>499.99</ele>
        <time>2019-03-23T16:29:20.000Z</time>
      </trkpt>
      <trkpt lat="46.19379" lon="6.25093">
        <ele>501.98</ele>
        <time>2019-03-23T16:29:25.000Z</time>
      </trkpt>
      <trkpt lat="46.19351" lon="6.25095">
        <ele>503</ele>
        <time>2019-03-23T16:29:30.000Z</time>
      </trkpt>
      <trkpt lat="46.1932" lon="6.25094">
        <ele>504.97</ele>
        <time>2019-03-23T16:29:35.000Z</time>
      </trkpt>
      <trkpt lat="46.19292" lon="6.25097">
        <ele>506.01</ele>
        <time>2019-03-23T16:29:40.000Z</time>
      </trkpt>
      <trkpt lat="46.19276" lon="6.25098">
        <ele>507.94</ele>
        <time>2019-03-23T16:29:45.000Z</time>
      </trkpt>
      <trkpt lat="46.19281" lon="6.25086">
        <ele>509.94</ele>
        <time>2019-03-23T16:30:09.000Z</time>
      </trkpt>
      <trkpt lat="46.19284" lon="6.25064">
        <ele>510</ele>
        <time>2019-03-23T16:30:14.000Z</time>
      </trkpt>
      <trkpt lat="46.19289" lon="6.25038">
        <ele>510</ele>
        <time>2019-03-23T16:30:19.000Z</time>
      </trkpt>
      <trkpt lat="46.19293" lon="6.25014">
        <ele>509</ele>
        <time>2019-03-23T16:30:24.000Z</time>
      </trkpt>
      <trkpt lat="46.19309" lon="6.25019">
        <ele>506.75</ele>
        <time>2019-03-23T16:34:13.000Z</time>
      </trkpt>
      <trkpt lat="46.193" lon="6.2498">
        <ele>520.75</ele>
        <time>2019-03-23T16:45:45.000Z</time>
      </trkpt>
    </trkseg>
  </trk>
</gpx>